<?xml version="1.0" encoding="UTF-8"?>
<gpx version="1.1" creator=" " xmlns="http://www.topografix.com/GPX/1/1" xmlns:xsi="http://www.w3.org/2001/XMLSchema-instance" xsi:schemaLocation="http://www.topografix.com/GPX/1/1 http://www.topografix.com/GPX/1/1/gpx.xsd">
<metadata>
<name>TL 2019 Otto Neustadt</name>
<desc></desc>
<link href="">
<text>  </text>
</link>
<time>2019-06-01T08:57:48Z</time>
</metadata>
<trk>
<trkseg>
<trkpt lat="49.508538" lon="10.407328">
<ele>316</ele>
</trkpt>
<trkpt lat="49.508538" lon="10.407328">
<ele>316</ele>
<time>2019-06-01T08:57:48Z</time>
</trkpt>
<trkpt lat="49.508555" lon="10.407317">
<ele>316</ele>
<time>2019-06-01T08:57:58Z</time>
</trkpt>
<trkpt lat="49.508568" lon="10.407257">
<ele>316</ele>
<time>2019-06-01T08:58:03Z</time>
</trkpt>
<trkpt lat="49.50859" lon="10.407182">
<ele>316</ele>
<time>2019-06-01T08:58:08Z</time>
</trkpt>
<trkpt lat="49.508598" lon="10.40719">
<ele>316</ele>
<time>2019-06-01T08:58:13Z</time>
</trkpt>
<trkpt lat="49.508643" lon="10.406912">
<ele>316</ele>
<time>2019-06-01T08:58:19Z</time>
</trkpt>
<trkpt lat="49.508652" lon="10.406905">
<ele>316</ele>
<time>2019-06-01T08:58:24Z</time>
</trkpt>
<trkpt lat="49.508648" lon="10.406897">
<ele>316</ele>
<time>2019-06-01T08:58:30Z</time>
</trkpt>
<trkpt lat="49.508647" lon="10.406895">
<ele>316</ele>
<time>2019-06-01T08:58:40Z</time>
</trkpt>
<trkpt lat="49.508645" lon="10.406895">
<ele>316</ele>
<time>2019-06-01T08:58:51Z</time>
</trkpt>
<trkpt lat="49.508642" lon="10.4069">
<ele>316</ele>
<time>2019-06-01T08:58:56Z</time>
</trkpt>
<trkpt lat="49.50864" lon="10.4069">
<ele>316</ele>
<time>2019-06-01T08:59:01Z</time>
</trkpt>
<trkpt lat="49.508635" lon="10.406903">
<ele>316</ele>
<time>2019-06-01T08:59:11Z</time>
</trkpt>
<trkpt lat="49.508633" lon="10.406903">
<ele>316</ele>
<time>2019-06-01T08:59:42Z</time>
</trkpt>
<trkpt lat="49.508633" lon="10.4069">
<ele>316</ele>
<time>2019-06-01T09:00:17Z</time>
</trkpt>
<trkpt lat="49.508627" lon="10.4069">
<ele>316</ele>
<time>2019-06-01T09:00:22Z</time>
</trkpt>
<trkpt lat="49.508628" lon="10.4069">
<ele>316</ele>
<time>2019-06-01T09:00:32Z</time>
</trkpt>
<trkpt lat="49.50863" lon="10.406912">
<ele>316</ele>
<time>2019-06-01T09:00:37Z</time>
</trkpt>
<trkpt lat="49.508627" lon="10.40691">
<ele>316</ele>
<time>2019-06-01T09:00:47Z</time>
</trkpt>
<trkpt lat="49.50861" lon="10.406888">
<ele>316</ele>
<time>2019-06-01T09:00:52Z</time>
</trkpt>
<trkpt lat="49.508557" lon="10.40681">
<ele>316</ele>
<time>2019-06-01T09:00:57Z</time>
</trkpt>
<trkpt lat="49.508515" lon="10.406697">
<ele>316</ele>
<time>2019-06-01T09:01:02Z</time>
</trkpt>
<trkpt lat="49.508478" lon="10.406587">
<ele>316</ele>
<time>2019-06-01T09:01:07Z</time>
</trkpt>
<trkpt lat="49.50846" lon="10.406487">
<ele>316</ele>
<time>2019-06-01T09:01:12Z</time>
</trkpt>
<trkpt lat="49.508452" lon="10.406392">
<ele>316</ele>
<time>2019-06-01T09:01:17Z</time>
</trkpt>
<trkpt lat="49.508443" lon="10.406287">
<ele>316</ele>
<time>2019-06-01T09:01:22Z</time>
</trkpt>
<trkpt lat="49.508428" lon="10.406153">
<ele>316</ele>
<time>2019-06-01T09:01:27Z</time>
</trkpt>
<trkpt lat="49.5084" lon="10.406023">
<ele>317</ele>
<time>2019-06-01T09:01:32Z</time>
</trkpt>
<trkpt lat="49.50837" lon="10.405918">
<ele>317</ele>
<time>2019-06-01T09:01:37Z</time>
</trkpt>
<trkpt lat="49.508282" lon="10.405908">
<ele>317</ele>
<time>2019-06-01T09:01:42Z</time>
</trkpt>
<trkpt lat="49.508107" lon="10.406125">
<ele>317</ele>
<time>2019-06-01T09:01:47Z</time>
</trkpt>
<trkpt lat="49.507945" lon="10.406362">
<ele>317</ele>
<time>2019-06-01T09:01:52Z</time>
</trkpt>
<trkpt lat="49.507792" lon="10.4066">
<ele>317</ele>
<time>2019-06-01T09:01:57Z</time>
</trkpt>
<trkpt lat="49.507628" lon="10.406887">
<ele>317</ele>
<time>2019-06-01T09:02:02Z</time>
</trkpt>
<trkpt lat="49.507463" lon="10.407172">
<ele>317</ele>
<time>2019-06-01T09:02:07Z</time>
</trkpt>
<trkpt lat="49.50726" lon="10.407485">
<ele>316</ele>
<time>2019-06-01T09:02:13Z</time>
</trkpt>
<trkpt lat="49.50707" lon="10.407758">
<ele>316</ele>
<time>2019-06-01T09:02:18Z</time>
</trkpt>
<trkpt lat="49.506907" lon="10.408033">
<ele>316</ele>
<time>2019-06-01T09:02:23Z</time>
</trkpt>
<trkpt lat="49.506742" lon="10.4083">
<ele>316</ele>
<time>2019-06-01T09:02:28Z</time>
</trkpt>
<trkpt lat="49.506553" lon="10.408613">
<ele>315</ele>
<time>2019-06-01T09:02:34Z</time>
</trkpt>
<trkpt lat="49.506398" lon="10.408875">
<ele>315</ele>
<time>2019-06-01T09:02:39Z</time>
</trkpt>
<trkpt lat="49.506253" lon="10.409133">
<ele>315</ele>
<time>2019-06-01T09:02:44Z</time>
</trkpt>
<trkpt lat="49.506118" lon="10.409367">
<ele>315</ele>
<time>2019-06-01T09:02:49Z</time>
</trkpt>
<trkpt lat="49.505983" lon="10.409642">
<ele>315</ele>
<time>2019-06-01T09:02:54Z</time>
</trkpt>
<trkpt lat="49.505838" lon="10.409937">
<ele>315</ele>
<time>2019-06-01T09:03:00Z</time>
</trkpt>
<trkpt lat="49.505738" lon="10.410207">
<ele>315</ele>
<time>2019-06-01T09:03:05Z</time>
</trkpt>
<trkpt lat="49.505618" lon="10.410523">
<ele>315</ele>
<time>2019-06-01T09:03:11Z</time>
</trkpt>
<trkpt lat="49.505533" lon="10.410822">
<ele>315</ele>
<time>2019-06-01T09:03:16Z</time>
</trkpt>
<trkpt lat="49.505458" lon="10.41114">
<ele>315</ele>
<time>2019-06-01T09:03:21Z</time>
</trkpt>
<trkpt lat="49.505417" lon="10.411558">
<ele>315</ele>
<time>2019-06-01T09:03:27Z</time>
</trkpt>
<trkpt lat="49.505447" lon="10.411903">
<ele>314</ele>
<time>2019-06-01T09:03:32Z</time>
</trkpt>
<trkpt lat="49.505447" lon="10.41232">
<ele>314</ele>
<time>2019-06-01T09:03:38Z</time>
</trkpt>
<trkpt lat="49.50527" lon="10.412585">
<ele>314</ele>
<time>2019-06-01T09:03:43Z</time>
</trkpt>
<trkpt lat="49.505113" lon="10.412758">
<ele>314</ele>
<time>2019-06-01T09:03:48Z</time>
</trkpt>
<trkpt lat="49.505" lon="10.412893">
<ele>314</ele>
<time>2019-06-01T09:03:53Z</time>
</trkpt>
<trkpt lat="49.504897" lon="10.41301">
<ele>314</ele>
<time>2019-06-01T09:03:58Z</time>
</trkpt>
<trkpt lat="49.504777" lon="10.413277">
<ele>314</ele>
<time>2019-06-01T09:04:04Z</time>
</trkpt>
<trkpt lat="49.504692" lon="10.413487">
<ele>314</ele>
<time>2019-06-01T09:04:09Z</time>
</trkpt>
<trkpt lat="49.504613" lon="10.413667">
<ele>314</ele>
<time>2019-06-01T09:04:14Z</time>
</trkpt>
<trkpt lat="49.504557" lon="10.413857">
<ele>314</ele>
<time>2019-06-01T09:04:19Z</time>
</trkpt>
<trkpt lat="49.504657" lon="10.414077">
<ele>314</ele>
<time>2019-06-01T09:04:25Z</time>
</trkpt>
<trkpt lat="49.504792" lon="10.414272">
<ele>314</ele>
<time>2019-06-01T09:04:30Z</time>
</trkpt>
<trkpt lat="49.504935" lon="10.41449">
<ele>314</ele>
<time>2019-06-01T09:04:35Z</time>
</trkpt>
<trkpt lat="49.505092" lon="10.41473">
<ele>313</ele>
<time>2019-06-01T09:04:40Z</time>
</trkpt>
<trkpt lat="49.505068" lon="10.41505">
<ele>313</ele>
<time>2019-06-01T09:04:45Z</time>
</trkpt>
<trkpt lat="49.504932" lon="10.415345">
<ele>311</ele>
<time>2019-06-01T09:04:51Z</time>
</trkpt>
<trkpt lat="49.504843" lon="10.415593">
<ele>311</ele>
<time>2019-06-01T09:04:57Z</time>
</trkpt>
<trkpt lat="49.50478" lon="10.415782">
<ele>311</ele>
<time>2019-06-01T09:05:02Z</time>
</trkpt>
<trkpt lat="49.504677" lon="10.415985">
<ele>310</ele>
<time>2019-06-01T09:05:07Z</time>
</trkpt>
<trkpt lat="49.504508" lon="10.41623">
<ele>310</ele>
<time>2019-06-01T09:05:13Z</time>
</trkpt>
<trkpt lat="49.504338" lon="10.416418">
<ele>310</ele>
<time>2019-06-01T09:05:18Z</time>
</trkpt>
<trkpt lat="49.504182" lon="10.416532">
<ele>310</ele>
<time>2019-06-01T09:05:23Z</time>
</trkpt>
<trkpt lat="49.504105" lon="10.416745">
<ele>310</ele>
<time>2019-06-01T09:05:28Z</time>
</trkpt>
<trkpt lat="49.504167" lon="10.41705">
<ele>310</ele>
<time>2019-06-01T09:05:34Z</time>
</trkpt>
<trkpt lat="49.50421" lon="10.417335">
<ele>310</ele>
<time>2019-06-01T09:05:39Z</time>
</trkpt>
<trkpt lat="49.504228" lon="10.417652">
<ele>310</ele>
<time>2019-06-01T09:05:44Z</time>
</trkpt>
<trkpt lat="49.504215" lon="10.417943">
<ele>310</ele>
<time>2019-06-01T09:05:49Z</time>
</trkpt>
<trkpt lat="49.504262" lon="10.418195">
<ele>310</ele>
<time>2019-06-01T09:05:54Z</time>
</trkpt>
<trkpt lat="49.504277" lon="10.418488">
<ele>310</ele>
<time>2019-06-01T09:05:59Z</time>
</trkpt>
<trkpt lat="49.50427" lon="10.418765">
<ele>310</ele>
<time>2019-06-01T09:06:05Z</time>
</trkpt>
<trkpt lat="49.50425" lon="10.41901">
<ele>310</ele>
<time>2019-06-01T09:06:11Z</time>
</trkpt>
<trkpt lat="49.50403" lon="10.419227">
<ele>310</ele>
<time>2019-06-01T09:06:17Z</time>
</trkpt>
<trkpt lat="49.504047" lon="10.419582">
<ele>310</ele>
<time>2019-06-01T09:06:23Z</time>
</trkpt>
<trkpt lat="49.504097" lon="10.419998">
<ele>310</ele>
<time>2019-06-01T09:06:29Z</time>
</trkpt>
<trkpt lat="49.504145" lon="10.420327">
<ele>310</ele>
<time>2019-06-01T09:06:34Z</time>
</trkpt>
<trkpt lat="49.504182" lon="10.420625">
<ele>310</ele>
<time>2019-06-01T09:06:39Z</time>
</trkpt>
<trkpt lat="49.504187" lon="10.420907">
<ele>310</ele>
<time>2019-06-01T09:06:44Z</time>
</trkpt>
<trkpt lat="49.504222" lon="10.421195">
<ele>310</ele>
<time>2019-06-01T09:06:49Z</time>
</trkpt>
<trkpt lat="49.504243" lon="10.421442">
<ele>310</ele>
<time>2019-06-01T09:06:54Z</time>
</trkpt>
<trkpt lat="49.50426" lon="10.421597">
<ele>310</ele>
<time>2019-06-01T09:06:59Z</time>
</trkpt>
<trkpt lat="49.504278" lon="10.421677">
<ele>310</ele>
<time>2019-06-01T09:07:04Z</time>
</trkpt>
<trkpt lat="49.5043" lon="10.42174">
<ele>310</ele>
<time>2019-06-01T09:07:09Z</time>
</trkpt>
<trkpt lat="49.504437" lon="10.421765">
<ele>310</ele>
<time>2019-06-01T09:07:14Z</time>
</trkpt>
<trkpt lat="49.504572" lon="10.42165">
<ele>310</ele>
<time>2019-06-01T09:07:19Z</time>
</trkpt>
<trkpt lat="49.504745" lon="10.421577">
<ele>310</ele>
<time>2019-06-01T09:07:25Z</time>
</trkpt>
<trkpt lat="49.504833" lon="10.421843">
<ele>310</ele>
<time>2019-06-01T09:07:30Z</time>
</trkpt>
<trkpt lat="49.504858" lon="10.422163">
<ele>309</ele>
<time>2019-06-01T09:07:35Z</time>
</trkpt>
<trkpt lat="49.504877" lon="10.422505">
<ele>309</ele>
<time>2019-06-01T09:07:40Z</time>
</trkpt>
<trkpt lat="49.504877" lon="10.422898">
<ele>308</ele>
<time>2019-06-01T09:07:45Z</time>
</trkpt>
<trkpt lat="49.504855" lon="10.423225">
<ele>308</ele>
<time>2019-06-01T09:07:50Z</time>
</trkpt>
<trkpt lat="49.50483" lon="10.423523">
<ele>308</ele>
<time>2019-06-01T09:07:55Z</time>
</trkpt>
<trkpt lat="49.504747" lon="10.423897">
<ele>308</ele>
<time>2019-06-01T09:08:01Z</time>
</trkpt>
<trkpt lat="49.504653" lon="10.424195">
<ele>308</ele>
<time>2019-06-01T09:08:06Z</time>
</trkpt>
<trkpt lat="49.504558" lon="10.424527">
<ele>308</ele>
<time>2019-06-01T09:08:11Z</time>
</trkpt>
<trkpt lat="49.50446" lon="10.424863">
<ele>307</ele>
<time>2019-06-01T09:08:16Z</time>
</trkpt>
<trkpt lat="49.504353" lon="10.425127">
<ele>306</ele>
<time>2019-06-01T09:08:22Z</time>
</trkpt>
<trkpt lat="49.504117" lon="10.42511">
<ele>306</ele>
<time>2019-06-01T09:08:28Z</time>
</trkpt>
<trkpt lat="49.504003" lon="10.42509">
<ele>306</ele>
<time>2019-06-01T09:08:33Z</time>
</trkpt>
<trkpt lat="49.5039" lon="10.425288">
<ele>306</ele>
<time>2019-06-01T09:08:39Z</time>
</trkpt>
<trkpt lat="49.503885" lon="10.425593">
<ele>305</ele>
<time>2019-06-01T09:08:44Z</time>
</trkpt>
<trkpt lat="49.503853" lon="10.425912">
<ele>305</ele>
<time>2019-06-01T09:08:49Z</time>
</trkpt>
<trkpt lat="49.5038" lon="10.426258">
<ele>305</ele>
<time>2019-06-01T09:08:54Z</time>
</trkpt>
<trkpt lat="49.503763" lon="10.426602">
<ele>305</ele>
<time>2019-06-01T09:08:59Z</time>
</trkpt>
<trkpt lat="49.503707" lon="10.427023">
<ele>305</ele>
<time>2019-06-01T09:09:05Z</time>
</trkpt>
<trkpt lat="49.503673" lon="10.427355">
<ele>305</ele>
<time>2019-06-01T09:09:10Z</time>
</trkpt>
<trkpt lat="49.50367" lon="10.42777">
<ele>305</ele>
<time>2019-06-01T09:09:16Z</time>
</trkpt>
<trkpt lat="49.503747" lon="10.428143">
<ele>306</ele>
<time>2019-06-01T09:09:21Z</time>
</trkpt>
<trkpt lat="49.503902" lon="10.428573">
<ele>306</ele>
<time>2019-06-01T09:09:27Z</time>
</trkpt>
<trkpt lat="49.504072" lon="10.428865">
<ele>306</ele>
<time>2019-06-01T09:09:32Z</time>
</trkpt>
<trkpt lat="49.504283" lon="10.429055">
<ele>306</ele>
<time>2019-06-01T09:09:37Z</time>
</trkpt>
<trkpt lat="49.504502" lon="10.429098">
<ele>306</ele>
<time>2019-06-01T09:09:42Z</time>
</trkpt>
<trkpt lat="49.504623" lon="10.429385">
<ele>306</ele>
<time>2019-06-01T09:09:47Z</time>
</trkpt>
<trkpt lat="49.50476" lon="10.42974">
<ele>306</ele>
<time>2019-06-01T09:09:52Z</time>
</trkpt>
<trkpt lat="49.504972" lon="10.43003">
<ele>306</ele>
<time>2019-06-01T09:09:57Z</time>
</trkpt>
<trkpt lat="49.50523" lon="10.430345">
<ele>306</ele>
<time>2019-06-01T09:10:03Z</time>
</trkpt>
<trkpt lat="49.505452" lon="10.430733">
<ele>306</ele>
<time>2019-06-01T09:10:09Z</time>
</trkpt>
<trkpt lat="49.505575" lon="10.431103">
<ele>305</ele>
<time>2019-06-01T09:10:14Z</time>
</trkpt>
<trkpt lat="49.505662" lon="10.431507">
<ele>305</ele>
<time>2019-06-01T09:10:19Z</time>
</trkpt>
<trkpt lat="49.505708" lon="10.43194">
<ele>305</ele>
<time>2019-06-01T09:10:24Z</time>
</trkpt>
<trkpt lat="49.505742" lon="10.432365">
<ele>305</ele>
<time>2019-06-01T09:10:29Z</time>
</trkpt>
<trkpt lat="49.505792" lon="10.43284">
<ele>305</ele>
<time>2019-06-01T09:10:35Z</time>
</trkpt>
<trkpt lat="49.50583" lon="10.433267">
<ele>305</ele>
<time>2019-06-01T09:10:41Z</time>
</trkpt>
<trkpt lat="49.505842" lon="10.43365">
<ele>305</ele>
<time>2019-06-01T09:10:46Z</time>
</trkpt>
<trkpt lat="49.505832" lon="10.43405">
<ele>305</ele>
<time>2019-06-01T09:10:51Z</time>
</trkpt>
<trkpt lat="49.505837" lon="10.43443">
<ele>305</ele>
<time>2019-06-01T09:10:56Z</time>
</trkpt>
<trkpt lat="49.505852" lon="10.43482">
<ele>305</ele>
<time>2019-06-01T09:11:01Z</time>
</trkpt>
<trkpt lat="49.505873" lon="10.43521">
<ele>305</ele>
<time>2019-06-01T09:11:07Z</time>
</trkpt>
<trkpt lat="49.505905" lon="10.435547">
<ele>305</ele>
<time>2019-06-01T09:11:12Z</time>
</trkpt>
<trkpt lat="49.505937" lon="10.43593">
<ele>305</ele>
<time>2019-06-01T09:11:17Z</time>
</trkpt>
<trkpt lat="49.505963" lon="10.436358">
<ele>305</ele>
<time>2019-06-01T09:11:22Z</time>
</trkpt>
<trkpt lat="49.505993" lon="10.436817">
<ele>305</ele>
<time>2019-06-01T09:11:27Z</time>
</trkpt>
<trkpt lat="49.50602" lon="10.43727">
<ele>305</ele>
<time>2019-06-01T09:11:32Z</time>
</trkpt>
<trkpt lat="49.506033" lon="10.437715">
<ele>305</ele>
<time>2019-06-01T09:11:37Z</time>
</trkpt>
<trkpt lat="49.50603" lon="10.438182">
<ele>305</ele>
<time>2019-06-01T09:11:42Z</time>
</trkpt>
<trkpt lat="49.505995" lon="10.438607">
<ele>305</ele>
<time>2019-06-01T09:11:47Z</time>
</trkpt>
<trkpt lat="49.505943" lon="10.439093">
<ele>305</ele>
<time>2019-06-01T09:11:53Z</time>
</trkpt>
<trkpt lat="49.505893" lon="10.439487">
<ele>305</ele>
<time>2019-06-01T09:11:58Z</time>
</trkpt>
<trkpt lat="49.505832" lon="10.439907">
<ele>305</ele>
<time>2019-06-01T09:12:04Z</time>
</trkpt>
<trkpt lat="49.505833" lon="10.440272">
<ele>305</ele>
<time>2019-06-01T09:12:09Z</time>
</trkpt>
<trkpt lat="49.505883" lon="10.4407">
<ele>305</ele>
<time>2019-06-01T09:12:14Z</time>
</trkpt>
<trkpt lat="49.505912" lon="10.441123">
<ele>305</ele>
<time>2019-06-01T09:12:19Z</time>
</trkpt>
<trkpt lat="49.505923" lon="10.44149">
<ele>304</ele>
<time>2019-06-01T09:12:24Z</time>
</trkpt>
<trkpt lat="49.505862" lon="10.441803">
<ele>304</ele>
<time>2019-06-01T09:12:29Z</time>
</trkpt>
<trkpt lat="49.50563" lon="10.441988">
<ele>304</ele>
<time>2019-06-01T09:12:34Z</time>
</trkpt>
<trkpt lat="49.505388" lon="10.442147">
<ele>305</ele>
<time>2019-06-01T09:12:39Z</time>
</trkpt>
<trkpt lat="49.505275" lon="10.442513">
<ele>305</ele>
<time>2019-06-01T09:12:44Z</time>
</trkpt>
<trkpt lat="49.50522" lon="10.442907">
<ele>305</ele>
<time>2019-06-01T09:12:49Z</time>
</trkpt>
<trkpt lat="49.505182" lon="10.443323">
<ele>305</ele>
<time>2019-06-01T09:12:54Z</time>
</trkpt>
<trkpt lat="49.50517" lon="10.443877">
<ele>305</ele>
<time>2019-06-01T09:13:00Z</time>
</trkpt>
<trkpt lat="49.505193" lon="10.444378">
<ele>305</ele>
<time>2019-06-01T09:13:05Z</time>
</trkpt>
<trkpt lat="49.505252" lon="10.444932">
<ele>305</ele>
<time>2019-06-01T09:13:11Z</time>
</trkpt>
<trkpt lat="49.505348" lon="10.445363">
<ele>305</ele>
<time>2019-06-01T09:13:16Z</time>
</trkpt>
<trkpt lat="49.505477" lon="10.445758">
<ele>306</ele>
<time>2019-06-01T09:13:21Z</time>
</trkpt>
<trkpt lat="49.505612" lon="10.446135">
<ele>306</ele>
<time>2019-06-01T09:13:26Z</time>
</trkpt>
<trkpt lat="49.50577" lon="10.446538">
<ele>306</ele>
<time>2019-06-01T09:13:31Z</time>
</trkpt>
<trkpt lat="49.50593" lon="10.446977">
<ele>306</ele>
<time>2019-06-01T09:13:36Z</time>
</trkpt>
<trkpt lat="49.506028" lon="10.447557">
<ele>304</ele>
<time>2019-06-01T09:13:42Z</time>
</trkpt>
<trkpt lat="49.505953" lon="10.448072">
<ele>304</ele>
<time>2019-06-01T09:13:47Z</time>
</trkpt>
<trkpt lat="49.505835" lon="10.448638">
<ele>303</ele>
<time>2019-06-01T09:13:53Z</time>
</trkpt>
<trkpt lat="49.505663" lon="10.44899">
<ele>303</ele>
<time>2019-06-01T09:13:58Z</time>
</trkpt>
<trkpt lat="49.505383" lon="10.449293">
<ele>303</ele>
<time>2019-06-01T09:14:04Z</time>
</trkpt>
<trkpt lat="49.505082" lon="10.449625">
<ele>303</ele>
<time>2019-06-01T09:14:10Z</time>
</trkpt>
<trkpt lat="49.50485" lon="10.449883">
<ele>303</ele>
<time>2019-06-01T09:14:15Z</time>
</trkpt>
<trkpt lat="49.504572" lon="10.450193">
<ele>303</ele>
<time>2019-06-01T09:14:21Z</time>
</trkpt>
<trkpt lat="49.504348" lon="10.45044">
<ele>303</ele>
<time>2019-06-01T09:14:26Z</time>
</trkpt>
<trkpt lat="49.50413" lon="10.450687">
<ele>303</ele>
<time>2019-06-01T09:14:31Z</time>
</trkpt>
<trkpt lat="49.503908" lon="10.450933">
<ele>303</ele>
<time>2019-06-01T09:14:36Z</time>
</trkpt>
<trkpt lat="49.503702" lon="10.451162">
<ele>303</ele>
<time>2019-06-01T09:14:41Z</time>
</trkpt>
<trkpt lat="49.503485" lon="10.451403">
<ele>303</ele>
<time>2019-06-01T09:14:47Z</time>
</trkpt>
<trkpt lat="49.503353" lon="10.451587">
<ele>303</ele>
<time>2019-06-01T09:14:52Z</time>
</trkpt>
<trkpt lat="49.503382" lon="10.451985">
<ele>303</ele>
<time>2019-06-01T09:14:58Z</time>
</trkpt>
<trkpt lat="49.503467" lon="10.452375">
<ele>303</ele>
<time>2019-06-01T09:15:03Z</time>
</trkpt>
<trkpt lat="49.503555" lon="10.452777">
<ele>303</ele>
<time>2019-06-01T09:15:08Z</time>
</trkpt>
<trkpt lat="49.503652" lon="10.453132">
<ele>303</ele>
<time>2019-06-01T09:15:13Z</time>
</trkpt>
<trkpt lat="49.503733" lon="10.453448">
<ele>303</ele>
<time>2019-06-01T09:15:18Z</time>
</trkpt>
<trkpt lat="49.503813" lon="10.453773">
<ele>303</ele>
<time>2019-06-01T09:15:24Z</time>
</trkpt>
<trkpt lat="49.503948" lon="10.45406">
<ele>303</ele>
<time>2019-06-01T09:15:29Z</time>
</trkpt>
<trkpt lat="49.504147" lon="10.454455">
<ele>303</ele>
<time>2019-06-01T09:15:35Z</time>
</trkpt>
<trkpt lat="49.504268" lon="10.454858">
<ele>303</ele>
<time>2019-06-01T09:15:40Z</time>
</trkpt>
<trkpt lat="49.504385" lon="10.455283">
<ele>303</ele>
<time>2019-06-01T09:15:46Z</time>
</trkpt>
<trkpt lat="49.504465" lon="10.455633">
<ele>303</ele>
<time>2019-06-01T09:15:51Z</time>
</trkpt>
<trkpt lat="49.50455" lon="10.456013">
<ele>303</ele>
<time>2019-06-01T09:15:56Z</time>
</trkpt>
<trkpt lat="49.50465" lon="10.45648">
<ele>303</ele>
<time>2019-06-01T09:16:02Z</time>
</trkpt>
<trkpt lat="49.504748" lon="10.456873">
<ele>303</ele>
<time>2019-06-01T09:16:07Z</time>
</trkpt>
<trkpt lat="49.504868" lon="10.457237">
<ele>303</ele>
<time>2019-06-01T09:16:12Z</time>
</trkpt>
<trkpt lat="49.504975" lon="10.457567">
<ele>303</ele>
<time>2019-06-01T09:16:17Z</time>
</trkpt>
<trkpt lat="49.505132" lon="10.457983">
<ele>303</ele>
<time>2019-06-01T09:16:23Z</time>
</trkpt>
<trkpt lat="49.505288" lon="10.4584">
<ele>303</ele>
<time>2019-06-01T09:16:29Z</time>
</trkpt>
<trkpt lat="49.505415" lon="10.458733">
<ele>303</ele>
<time>2019-06-01T09:16:34Z</time>
</trkpt>
<trkpt lat="49.505532" lon="10.459037">
<ele>303</ele>
<time>2019-06-01T09:16:39Z</time>
</trkpt>
<trkpt lat="49.505665" lon="10.459308">
<ele>303</ele>
<time>2019-06-01T09:16:44Z</time>
</trkpt>
<trkpt lat="49.505838" lon="10.459592">
<ele>303</ele>
<time>2019-06-01T09:16:49Z</time>
</trkpt>
<trkpt lat="49.506035" lon="10.459845">
<ele>303</ele>
<time>2019-06-01T09:16:54Z</time>
</trkpt>
<trkpt lat="49.506213" lon="10.460115">
<ele>303</ele>
<time>2019-06-01T09:16:59Z</time>
</trkpt>
<trkpt lat="49.506432" lon="10.460422">
<ele>303</ele>
<time>2019-06-01T09:17:05Z</time>
</trkpt>
<trkpt lat="49.506618" lon="10.460675">
<ele>304</ele>
<time>2019-06-01T09:17:10Z</time>
</trkpt>
<trkpt lat="49.506822" lon="10.460932">
<ele>304</ele>
<time>2019-06-01T09:17:15Z</time>
</trkpt>
<trkpt lat="49.507032" lon="10.461198">
<ele>304</ele>
<time>2019-06-01T09:17:20Z</time>
</trkpt>
<trkpt lat="49.507232" lon="10.461475">
<ele>304</ele>
<time>2019-06-01T09:17:25Z</time>
</trkpt>
<trkpt lat="49.507478" lon="10.461758">
<ele>304</ele>
<time>2019-06-01T09:17:31Z</time>
</trkpt>
<trkpt lat="49.507695" lon="10.461945">
<ele>304</ele>
<time>2019-06-01T09:17:36Z</time>
</trkpt>
<trkpt lat="49.507965" lon="10.462077">
<ele>304</ele>
<time>2019-06-01T09:17:41Z</time>
</trkpt>
<trkpt lat="49.508253" lon="10.462203">
<ele>304</ele>
<time>2019-06-01T09:17:46Z</time>
</trkpt>
<trkpt lat="49.508597" lon="10.462332">
<ele>304</ele>
<time>2019-06-01T09:17:52Z</time>
</trkpt>
<trkpt lat="49.508872" lon="10.462438">
<ele>304</ele>
<time>2019-06-01T09:17:57Z</time>
</trkpt>
<trkpt lat="49.509155" lon="10.462547">
<ele>303</ele>
<time>2019-06-01T09:18:02Z</time>
</trkpt>
<trkpt lat="49.509452" lon="10.462668">
<ele>303</ele>
<time>2019-06-01T09:18:07Z</time>
</trkpt>
<trkpt lat="49.509738" lon="10.46282">
<ele>303</ele>
<time>2019-06-01T09:18:12Z</time>
</trkpt>
<trkpt lat="49.509998" lon="10.462965">
<ele>303</ele>
<time>2019-06-01T09:18:17Z</time>
</trkpt>
<trkpt lat="49.510263" lon="10.463077">
<ele>303</ele>
<time>2019-06-01T09:18:22Z</time>
</trkpt>
<trkpt lat="49.510548" lon="10.463138">
<ele>303</ele>
<time>2019-06-01T09:18:27Z</time>
</trkpt>
<trkpt lat="49.510908" lon="10.463192">
<ele>303</ele>
<time>2019-06-01T09:18:33Z</time>
</trkpt>
<trkpt lat="49.511203" lon="10.463292">
<ele>303</ele>
<time>2019-06-01T09:18:38Z</time>
</trkpt>
<trkpt lat="49.511535" lon="10.463553">
<ele>303</ele>
<time>2019-06-01T09:18:44Z</time>
</trkpt>
<trkpt lat="49.51177" lon="10.463842">
<ele>302</ele>
<time>2019-06-01T09:18:49Z</time>
</trkpt>
<trkpt lat="49.512013" lon="10.464232">
<ele>302</ele>
<time>2019-06-01T09:18:55Z</time>
</trkpt>
<trkpt lat="49.51226" lon="10.464607">
<ele>303</ele>
<time>2019-06-01T09:19:01Z</time>
</trkpt>
<trkpt lat="49.51248" lon="10.464832">
<ele>303</ele>
<time>2019-06-01T09:19:06Z</time>
</trkpt>
<trkpt lat="49.512708" lon="10.465067">
<ele>304</ele>
<time>2019-06-01T09:19:11Z</time>
</trkpt>
<trkpt lat="49.512938" lon="10.465313">
<ele>304</ele>
<time>2019-06-01T09:19:16Z</time>
</trkpt>
<trkpt lat="49.513163" lon="10.46558">
<ele>304</ele>
<time>2019-06-01T09:19:21Z</time>
</trkpt>
<trkpt lat="49.513407" lon="10.465867">
<ele>304</ele>
<time>2019-06-01T09:19:26Z</time>
</trkpt>
<trkpt lat="49.513655" lon="10.466195">
<ele>304</ele>
<time>2019-06-01T09:19:31Z</time>
</trkpt>
<trkpt lat="49.513887" lon="10.466522">
<ele>304</ele>
<time>2019-06-01T09:19:36Z</time>
</trkpt>
<trkpt lat="49.514105" lon="10.466838">
<ele>304</ele>
<time>2019-06-01T09:19:41Z</time>
</trkpt>
<trkpt lat="49.514343" lon="10.467182">
<ele>304</ele>
<time>2019-06-01T09:19:47Z</time>
</trkpt>
<trkpt lat="49.514535" lon="10.467453">
<ele>303</ele>
<time>2019-06-01T09:19:52Z</time>
</trkpt>
<trkpt lat="49.514713" lon="10.46767">
<ele>303</ele>
<time>2019-06-01T09:19:57Z</time>
</trkpt>
<trkpt lat="49.51497" lon="10.467517">
<ele>303</ele>
<time>2019-06-01T09:20:02Z</time>
</trkpt>
<trkpt lat="49.515243" lon="10.46732">
<ele>302</ele>
<time>2019-06-01T09:20:07Z</time>
</trkpt>
<trkpt lat="49.515515" lon="10.467122">
<ele>302</ele>
<time>2019-06-01T09:20:12Z</time>
</trkpt>
<trkpt lat="49.515772" lon="10.466937">
<ele>301</ele>
<time>2019-06-01T09:20:17Z</time>
</trkpt>
<trkpt lat="49.516002" lon="10.466762">
<ele>301</ele>
<time>2019-06-01T09:20:22Z</time>
</trkpt>
<trkpt lat="49.5162" lon="10.46665">
<ele>301</ele>
<time>2019-06-01T09:20:27Z</time>
</trkpt>
<trkpt lat="49.516282" lon="10.466882">
<ele>301</ele>
<time>2019-06-01T09:20:32Z</time>
</trkpt>
<trkpt lat="49.51632" lon="10.467185">
<ele>301</ele>
<time>2019-06-01T09:20:37Z</time>
</trkpt>
<trkpt lat="49.516372" lon="10.467497">
<ele>301</ele>
<time>2019-06-01T09:20:42Z</time>
</trkpt>
<trkpt lat="49.5165" lon="10.467802">
<ele>301</ele>
<time>2019-06-01T09:20:47Z</time>
</trkpt>
<trkpt lat="49.516672" lon="10.468095">
<ele>301</ele>
<time>2019-06-01T09:20:52Z</time>
</trkpt>
<trkpt lat="49.516845" lon="10.468352">
<ele>301</ele>
<time>2019-06-01T09:20:57Z</time>
</trkpt>
<trkpt lat="49.517035" lon="10.46859">
<ele>301</ele>
<time>2019-06-01T09:21:02Z</time>
</trkpt>
<trkpt lat="49.517252" lon="10.46878">
<ele>301</ele>
<time>2019-06-01T09:21:07Z</time>
</trkpt>
<trkpt lat="49.517368" lon="10.469118">
<ele>301</ele>
<time>2019-06-01T09:21:12Z</time>
</trkpt>
<trkpt lat="49.51745" lon="10.469443">
<ele>301</ele>
<time>2019-06-01T09:21:17Z</time>
</trkpt>
<trkpt lat="49.51748" lon="10.469662">
<ele>302</ele>
<time>2019-06-01T09:21:22Z</time>
</trkpt>
<trkpt lat="49.517475" lon="10.469828">
<ele>303</ele>
<time>2019-06-01T09:21:27Z</time>
</trkpt>
<trkpt lat="49.517537" lon="10.470028">
<ele>304</ele>
<time>2019-06-01T09:21:32Z</time>
</trkpt>
<trkpt lat="49.517682" lon="10.470257">
<ele>304</ele>
<time>2019-06-01T09:21:37Z</time>
</trkpt>
<trkpt lat="49.517807" lon="10.470535">
<ele>304</ele>
<time>2019-06-01T09:21:42Z</time>
</trkpt>
<trkpt lat="49.518017" lon="10.47086">
<ele>304</ele>
<time>2019-06-01T09:21:47Z</time>
</trkpt>
<trkpt lat="49.518352" lon="10.471027">
<ele>302</ele>
<time>2019-06-01T09:21:52Z</time>
</trkpt>
<trkpt lat="49.518703" lon="10.471227">
<ele>302</ele>
<time>2019-06-01T09:21:57Z</time>
</trkpt>
<trkpt lat="49.519003" lon="10.471478">
<ele>301</ele>
<time>2019-06-01T09:22:02Z</time>
</trkpt>
<trkpt lat="49.519255" lon="10.471778">
<ele>301</ele>
<time>2019-06-01T09:22:07Z</time>
</trkpt>
<trkpt lat="49.519483" lon="10.472048">
<ele>301</ele>
<time>2019-06-01T09:22:12Z</time>
</trkpt>
<trkpt lat="49.519695" lon="10.47232">
<ele>301</ele>
<time>2019-06-01T09:22:17Z</time>
</trkpt>
<trkpt lat="49.519913" lon="10.472588">
<ele>301</ele>
<time>2019-06-01T09:22:22Z</time>
</trkpt>
<trkpt lat="49.520135" lon="10.47288">
<ele>301</ele>
<time>2019-06-01T09:22:27Z</time>
</trkpt>
<trkpt lat="49.520353" lon="10.473155">
<ele>301</ele>
<time>2019-06-01T09:22:32Z</time>
</trkpt>
<trkpt lat="49.520572" lon="10.473455">
<ele>301</ele>
<time>2019-06-01T09:22:37Z</time>
</trkpt>
<trkpt lat="49.52078" lon="10.473718">
<ele>301</ele>
<time>2019-06-01T09:22:42Z</time>
</trkpt>
<trkpt lat="49.52093" lon="10.473908">
<ele>301</ele>
<time>2019-06-01T09:22:47Z</time>
</trkpt>
<trkpt lat="49.520997" lon="10.474022">
<ele>301</ele>
<time>2019-06-01T09:22:52Z</time>
</trkpt>
<trkpt lat="49.521033" lon="10.474103">
<ele>301</ele>
<time>2019-06-01T09:22:57Z</time>
</trkpt>
<trkpt lat="49.521097" lon="10.474183">
<ele>301</ele>
<time>2019-06-01T09:23:02Z</time>
</trkpt>
<trkpt lat="49.52119" lon="10.47417">
<ele>301</ele>
<time>2019-06-01T09:23:07Z</time>
</trkpt>
<trkpt lat="49.521342" lon="10.47428">
<ele>301</ele>
<time>2019-06-01T09:23:12Z</time>
</trkpt>
<trkpt lat="49.521507" lon="10.474537">
<ele>301</ele>
<time>2019-06-01T09:23:17Z</time>
</trkpt>
<trkpt lat="49.521673" lon="10.474803">
<ele>301</ele>
<time>2019-06-01T09:23:22Z</time>
</trkpt>
<trkpt lat="49.521835" lon="10.475052">
<ele>301</ele>
<time>2019-06-01T09:23:27Z</time>
</trkpt>
<trkpt lat="49.522003" lon="10.475302">
<ele>301</ele>
<time>2019-06-01T09:23:32Z</time>
</trkpt>
<trkpt lat="49.522168" lon="10.475567">
<ele>301</ele>
<time>2019-06-01T09:23:37Z</time>
</trkpt>
<trkpt lat="49.522332" lon="10.475835">
<ele>301</ele>
<time>2019-06-01T09:23:42Z</time>
</trkpt>
<trkpt lat="49.522497" lon="10.476125">
<ele>301</ele>
<time>2019-06-01T09:23:47Z</time>
</trkpt>
<trkpt lat="49.522663" lon="10.476445">
<ele>301</ele>
<time>2019-06-01T09:23:52Z</time>
</trkpt>
<trkpt lat="49.522842" lon="10.476708">
<ele>301</ele>
<time>2019-06-01T09:23:57Z</time>
</trkpt>
<trkpt lat="49.523013" lon="10.476927">
<ele>301</ele>
<time>2019-06-01T09:24:02Z</time>
</trkpt>
<trkpt lat="49.523192" lon="10.477102">
<ele>301</ele>
<time>2019-06-01T09:24:07Z</time>
</trkpt>
<trkpt lat="49.523383" lon="10.477232">
<ele>301</ele>
<time>2019-06-01T09:24:12Z</time>
</trkpt>
<trkpt lat="49.523613" lon="10.477378">
<ele>301</ele>
<time>2019-06-01T09:24:17Z</time>
</trkpt>
<trkpt lat="49.523853" lon="10.477522">
<ele>301</ele>
<time>2019-06-01T09:24:22Z</time>
</trkpt>
<trkpt lat="49.524088" lon="10.477678">
<ele>301</ele>
<time>2019-06-01T09:24:27Z</time>
</trkpt>
<trkpt lat="49.524332" lon="10.4779">
<ele>301</ele>
<time>2019-06-01T09:24:32Z</time>
</trkpt>
<trkpt lat="49.524523" lon="10.478127">
<ele>301</ele>
<time>2019-06-01T09:24:37Z</time>
</trkpt>
<trkpt lat="49.524658" lon="10.478445">
<ele>301</ele>
<time>2019-06-01T09:24:42Z</time>
</trkpt>
<trkpt lat="49.524847" lon="10.478742">
<ele>301</ele>
<time>2019-06-01T09:24:47Z</time>
</trkpt>
<trkpt lat="49.525047" lon="10.479033">
<ele>301</ele>
<time>2019-06-01T09:24:52Z</time>
</trkpt>
<trkpt lat="49.525242" lon="10.479345">
<ele>301</ele>
<time>2019-06-01T09:24:57Z</time>
</trkpt>
<trkpt lat="49.525458" lon="10.479662">
<ele>301</ele>
<time>2019-06-01T09:25:02Z</time>
</trkpt>
<trkpt lat="49.525692" lon="10.479902">
<ele>301</ele>
<time>2019-06-01T09:25:07Z</time>
</trkpt>
<trkpt lat="49.525955" lon="10.480042">
<ele>301</ele>
<time>2019-06-01T09:25:12Z</time>
</trkpt>
<trkpt lat="49.526193" lon="10.48009">
<ele>301</ele>
<time>2019-06-01T09:25:17Z</time>
</trkpt>
<trkpt lat="49.526397" lon="10.480107">
<ele>301</ele>
<time>2019-06-01T09:25:22Z</time>
</trkpt>
<trkpt lat="49.526615" lon="10.480235">
<ele>301</ele>
<time>2019-06-01T09:25:27Z</time>
</trkpt>
<trkpt lat="49.526713" lon="10.480557">
<ele>301</ele>
<time>2019-06-01T09:25:32Z</time>
</trkpt>
<trkpt lat="49.526705" lon="10.480893">
<ele>301</ele>
<time>2019-06-01T09:25:37Z</time>
</trkpt>
<trkpt lat="49.52667" lon="10.481162">
<ele>301</ele>
<time>2019-06-01T09:25:42Z</time>
</trkpt>
<trkpt lat="49.526727" lon="10.48136">
<ele>302</ele>
<time>2019-06-01T09:25:47Z</time>
</trkpt>
<trkpt lat="49.526872" lon="10.481395">
<ele>302</ele>
<time>2019-06-01T09:25:52Z</time>
</trkpt>
<trkpt lat="49.527008" lon="10.481387">
<ele>302</ele>
<time>2019-06-01T09:25:57Z</time>
</trkpt>
<trkpt lat="49.527048" lon="10.481352">
<ele>302</ele>
<time>2019-06-01T09:26:02Z</time>
</trkpt>
<trkpt lat="49.527047" lon="10.48134">
<ele>302</ele>
<time>2019-06-01T09:26:07Z</time>
</trkpt>
<trkpt lat="49.52705" lon="10.48134">
<ele>302</ele>
<time>2019-06-01T09:26:12Z</time>
</trkpt>
<trkpt lat="49.52705" lon="10.481338">
<ele>302</ele>
<time>2019-06-01T09:26:17Z</time>
</trkpt>
<trkpt lat="49.52705" lon="10.481337">
<ele>302</ele>
<time>2019-06-01T09:26:22Z</time>
</trkpt>
<trkpt lat="49.52705" lon="10.481333">
<ele>302</ele>
<time>2019-06-01T09:26:27Z</time>
</trkpt>
<trkpt lat="49.527053" lon="10.481333">
<ele>302</ele>
<time>2019-06-01T09:26:32Z</time>
</trkpt>
<trkpt lat="49.527052" lon="10.48133">
<ele>302</ele>
<time>2019-06-01T09:26:37Z</time>
</trkpt>
<trkpt lat="49.527055" lon="10.481327">
<ele>302</ele>
<time>2019-06-01T09:26:42Z</time>
</trkpt>
<trkpt lat="49.527057" lon="10.481323">
<ele>302</ele>
<time>2019-06-01T09:26:47Z</time>
</trkpt>
<trkpt lat="49.527055" lon="10.48132">
<ele>302</ele>
<time>2019-06-01T09:26:52Z</time>
</trkpt>
<trkpt lat="49.527058" lon="10.481313">
<ele>302</ele>
<time>2019-06-01T09:26:57Z</time>
</trkpt>
<trkpt lat="49.52719" lon="10.48138">
<ele>302</ele>
<time>2019-06-01T09:27:02Z</time>
</trkpt>
<trkpt lat="49.52733" lon="10.481402">
<ele>302</ele>
<time>2019-06-01T09:27:07Z</time>
</trkpt>
<trkpt lat="49.52744" lon="10.481407">
<ele>302</ele>
<time>2019-06-01T09:27:12Z</time>
</trkpt>
<trkpt lat="49.527633" lon="10.481353">
<ele>302</ele>
<time>2019-06-01T09:27:17Z</time>
</trkpt>
<trkpt lat="49.527852" lon="10.48133">
<ele>302</ele>
<time>2019-06-01T09:27:22Z</time>
</trkpt>
<trkpt lat="49.528117" lon="10.48142">
<ele>301</ele>
<time>2019-06-01T09:27:27Z</time>
</trkpt>
<trkpt lat="49.528303" lon="10.481685">
<ele>301</ele>
<time>2019-06-01T09:27:32Z</time>
</trkpt>
<trkpt lat="49.528445" lon="10.481945">
<ele>301</ele>
<time>2019-06-01T09:27:37Z</time>
</trkpt>
<trkpt lat="49.528543" lon="10.482217">
<ele>301</ele>
<time>2019-06-01T09:27:42Z</time>
</trkpt>
<trkpt lat="49.528747" lon="10.482283">
<ele>301</ele>
<time>2019-06-01T09:27:47Z</time>
</trkpt>
<trkpt lat="49.529005" lon="10.482208">
<ele>301</ele>
<time>2019-06-01T09:27:52Z</time>
</trkpt>
<trkpt lat="49.529082" lon="10.482238">
<ele>300</ele>
<time>2019-06-01T09:27:57Z</time>
</trkpt>
<trkpt lat="49.529122" lon="10.482145">
<ele>300</ele>
<time>2019-06-01T09:28:02Z</time>
</trkpt>
<trkpt lat="49.52917" lon="10.482013">
<ele>300</ele>
<time>2019-06-01T09:28:07Z</time>
</trkpt>
<trkpt lat="49.529298" lon="10.481868">
<ele>300</ele>
<time>2019-06-01T09:28:12Z</time>
</trkpt>
<trkpt lat="49.529493" lon="10.481747">
<ele>300</ele>
<time>2019-06-01T09:28:17Z</time>
</trkpt>
<trkpt lat="49.52971" lon="10.481618">
<ele>300</ele>
<time>2019-06-01T09:28:22Z</time>
</trkpt>
<trkpt lat="49.529935" lon="10.481477">
<ele>300</ele>
<time>2019-06-01T09:28:27Z</time>
</trkpt>
<trkpt lat="49.530155" lon="10.48135">
<ele>300</ele>
<time>2019-06-01T09:28:32Z</time>
</trkpt>
<trkpt lat="49.530315" lon="10.481258">
<ele>300</ele>
<time>2019-06-01T09:28:37Z</time>
</trkpt>
<trkpt lat="49.530522" lon="10.481377">
<ele>300</ele>
<time>2019-06-01T09:28:42Z</time>
</trkpt>
<trkpt lat="49.530747" lon="10.48153">
<ele>300</ele>
<time>2019-06-01T09:28:47Z</time>
</trkpt>
<trkpt lat="49.53096" lon="10.481662">
<ele>300</ele>
<time>2019-06-01T09:28:52Z</time>
</trkpt>
<trkpt lat="49.53117" lon="10.481795">
<ele>300</ele>
<time>2019-06-01T09:28:57Z</time>
</trkpt>
<trkpt lat="49.531368" lon="10.481907">
<ele>300</ele>
<time>2019-06-01T09:29:02Z</time>
</trkpt>
<trkpt lat="49.531578" lon="10.482082">
<ele>300</ele>
<time>2019-06-01T09:29:07Z</time>
</trkpt>
<trkpt lat="49.53177" lon="10.482327">
<ele>300</ele>
<time>2019-06-01T09:29:12Z</time>
</trkpt>
<trkpt lat="49.531965" lon="10.482603">
<ele>300</ele>
<time>2019-06-01T09:29:17Z</time>
</trkpt>
<trkpt lat="49.532158" lon="10.482868">
<ele>300</ele>
<time>2019-06-01T09:29:22Z</time>
</trkpt>
<trkpt lat="49.532355" lon="10.48314">
<ele>300</ele>
<time>2019-06-01T09:29:27Z</time>
</trkpt>
<trkpt lat="49.532553" lon="10.483415">
<ele>300</ele>
<time>2019-06-01T09:29:32Z</time>
</trkpt>
<trkpt lat="49.53275" lon="10.483695">
<ele>300</ele>
<time>2019-06-01T09:29:37Z</time>
</trkpt>
<trkpt lat="49.533" lon="10.48384">
<ele>299</ele>
<time>2019-06-01T09:29:42Z</time>
</trkpt>
<trkpt lat="49.53326" lon="10.483912">
<ele>299</ele>
<time>2019-06-01T09:29:47Z</time>
</trkpt>
<trkpt lat="49.533507" lon="10.483982">
<ele>299</ele>
<time>2019-06-01T09:29:52Z</time>
</trkpt>
<trkpt lat="49.533732" lon="10.484135">
<ele>299</ele>
<time>2019-06-01T09:29:57Z</time>
</trkpt>
<trkpt lat="49.533947" lon="10.484313">
<ele>299</ele>
<time>2019-06-01T09:30:02Z</time>
</trkpt>
<trkpt lat="49.534178" lon="10.48452">
<ele>299</ele>
<time>2019-06-01T09:30:07Z</time>
</trkpt>
<trkpt lat="49.534428" lon="10.484747">
<ele>299</ele>
<time>2019-06-01T09:30:12Z</time>
</trkpt>
<trkpt lat="49.53468" lon="10.484987">
<ele>299</ele>
<time>2019-06-01T09:30:17Z</time>
</trkpt>
<trkpt lat="49.534967" lon="10.485255">
<ele>299</ele>
<time>2019-06-01T09:30:23Z</time>
</trkpt>
<trkpt lat="49.535193" lon="10.485458">
<ele>299</ele>
<time>2019-06-01T09:30:28Z</time>
</trkpt>
<trkpt lat="49.535413" lon="10.485653">
<ele>299</ele>
<time>2019-06-01T09:30:33Z</time>
</trkpt>
<trkpt lat="49.535645" lon="10.48586">
<ele>299</ele>
<time>2019-06-01T09:30:38Z</time>
</trkpt>
<trkpt lat="49.535878" lon="10.486072">
<ele>299</ele>
<time>2019-06-01T09:30:43Z</time>
</trkpt>
<trkpt lat="49.536122" lon="10.486297">
<ele>299</ele>
<time>2019-06-01T09:30:48Z</time>
</trkpt>
<trkpt lat="49.536368" lon="10.486517">
<ele>299</ele>
<time>2019-06-01T09:30:53Z</time>
</trkpt>
<trkpt lat="49.536608" lon="10.48673">
<ele>299</ele>
<time>2019-06-01T09:30:58Z</time>
</trkpt>
<trkpt lat="49.53683" lon="10.486937">
<ele>299</ele>
<time>2019-06-01T09:31:03Z</time>
</trkpt>
<trkpt lat="49.537075" lon="10.48715">
<ele>299</ele>
<time>2019-06-01T09:31:08Z</time>
</trkpt>
<trkpt lat="49.53731" lon="10.48737">
<ele>299</ele>
<time>2019-06-01T09:31:13Z</time>
</trkpt>
<trkpt lat="49.537582" lon="10.487618">
<ele>299</ele>
<time>2019-06-01T09:31:19Z</time>
</trkpt>
<trkpt lat="49.537843" lon="10.48785">
<ele>299</ele>
<time>2019-06-01T09:31:25Z</time>
</trkpt>
<trkpt lat="49.538105" lon="10.487813">
<ele>299</ele>
<time>2019-06-01T09:31:31Z</time>
</trkpt>
<trkpt lat="49.538318" lon="10.487592">
<ele>299</ele>
<time>2019-06-01T09:31:36Z</time>
</trkpt>
<trkpt lat="49.538523" lon="10.487368">
<ele>299</ele>
<time>2019-06-01T09:31:41Z</time>
</trkpt>
<trkpt lat="49.538757" lon="10.487142">
<ele>298</ele>
<time>2019-06-01T09:31:46Z</time>
</trkpt>
<trkpt lat="49.539018" lon="10.48687">
<ele>298</ele>
<time>2019-06-01T09:31:52Z</time>
</trkpt>
<trkpt lat="49.539207" lon="10.486667">
<ele>298</ele>
<time>2019-06-01T09:31:57Z</time>
</trkpt>
<trkpt lat="49.539358" lon="10.486518">
<ele>298</ele>
<time>2019-06-01T09:32:03Z</time>
</trkpt>
<trkpt lat="49.53947" lon="10.486643">
<ele>298</ele>
<time>2019-06-01T09:32:08Z</time>
</trkpt>
<trkpt lat="49.539603" lon="10.486973">
<ele>298</ele>
<time>2019-06-01T09:32:13Z</time>
</trkpt>
<trkpt lat="49.53979" lon="10.487395">
<ele>298</ele>
<time>2019-06-01T09:32:19Z</time>
</trkpt>
<trkpt lat="49.539942" lon="10.487728">
<ele>298</ele>
<time>2019-06-01T09:32:24Z</time>
</trkpt>
<trkpt lat="49.540078" lon="10.487807">
<ele>298</ele>
<time>2019-06-01T09:32:30Z</time>
</trkpt>
<trkpt lat="49.540143" lon="10.48773">
<ele>298</ele>
<time>2019-06-01T09:32:35Z</time>
</trkpt>
<trkpt lat="49.540243" lon="10.487623">
<ele>298</ele>
<time>2019-06-01T09:32:40Z</time>
</trkpt>
<trkpt lat="49.540297" lon="10.487912">
<ele>298</ele>
<time>2019-06-01T09:32:46Z</time>
</trkpt>
<trkpt lat="49.540303" lon="10.488388">
<ele>298</ele>
<time>2019-06-01T09:32:52Z</time>
</trkpt>
<trkpt lat="49.540388" lon="10.4889">
<ele>298</ele>
<time>2019-06-01T09:32:58Z</time>
</trkpt>
<trkpt lat="49.540538" lon="10.489313">
<ele>298</ele>
<time>2019-06-01T09:33:03Z</time>
</trkpt>
<trkpt lat="49.540683" lon="10.489725">
<ele>298</ele>
<time>2019-06-01T09:33:08Z</time>
</trkpt>
<trkpt lat="49.540828" lon="10.490138">
<ele>298</ele>
<time>2019-06-01T09:33:13Z</time>
</trkpt>
<trkpt lat="49.540997" lon="10.490502">
<ele>298</ele>
<time>2019-06-01T09:33:18Z</time>
</trkpt>
<trkpt lat="49.54118" lon="10.49082">
<ele>298</ele>
<time>2019-06-01T09:33:23Z</time>
</trkpt>
<trkpt lat="49.541278" lon="10.491228">
<ele>298</ele>
<time>2019-06-01T09:33:28Z</time>
</trkpt>
<trkpt lat="49.541378" lon="10.491683">
<ele>298</ele>
<time>2019-06-01T09:33:33Z</time>
</trkpt>
<trkpt lat="49.541465" lon="10.492133">
<ele>298</ele>
<time>2019-06-01T09:33:38Z</time>
</trkpt>
<trkpt lat="49.541562" lon="10.492565">
<ele>298</ele>
<time>2019-06-01T09:33:43Z</time>
</trkpt>
<trkpt lat="49.541683" lon="10.492955">
<ele>298</ele>
<time>2019-06-01T09:33:48Z</time>
</trkpt>
<trkpt lat="49.541815" lon="10.493352">
<ele>298</ele>
<time>2019-06-01T09:33:53Z</time>
</trkpt>
<trkpt lat="49.541965" lon="10.493828">
<ele>298</ele>
<time>2019-06-01T09:33:59Z</time>
</trkpt>
<trkpt lat="49.54209" lon="10.494242">
<ele>298</ele>
<time>2019-06-01T09:34:04Z</time>
</trkpt>
<trkpt lat="49.542192" lon="10.494677">
<ele>298</ele>
<time>2019-06-01T09:34:09Z</time>
</trkpt>
<trkpt lat="49.54224" lon="10.49513">
<ele>298</ele>
<time>2019-06-01T09:34:14Z</time>
</trkpt>
<trkpt lat="49.54222" lon="10.495568">
<ele>298</ele>
<time>2019-06-01T09:34:19Z</time>
</trkpt>
<trkpt lat="49.542152" lon="10.496037">
<ele>298</ele>
<time>2019-06-01T09:34:24Z</time>
</trkpt>
<trkpt lat="49.542077" lon="10.496492">
<ele>298</ele>
<time>2019-06-01T09:34:29Z</time>
</trkpt>
<trkpt lat="49.542007" lon="10.496948">
<ele>298</ele>
<time>2019-06-01T09:34:34Z</time>
</trkpt>
<trkpt lat="49.541933" lon="10.497385">
<ele>298</ele>
<time>2019-06-01T09:34:39Z</time>
</trkpt>
<trkpt lat="49.541863" lon="10.49781">
<ele>298</ele>
<time>2019-06-01T09:34:44Z</time>
</trkpt>
<trkpt lat="49.54175" lon="10.49819">
<ele>297</ele>
<time>2019-06-01T09:34:49Z</time>
</trkpt>
<trkpt lat="49.541587" lon="10.498548">
<ele>297</ele>
<time>2019-06-01T09:34:54Z</time>
</trkpt>
<trkpt lat="49.541525" lon="10.499002">
<ele>297</ele>
<time>2019-06-01T09:34:59Z</time>
</trkpt>
<trkpt lat="49.54153" lon="10.499472">
<ele>297</ele>
<time>2019-06-01T09:35:04Z</time>
</trkpt>
<trkpt lat="49.54158" lon="10.499915">
<ele>297</ele>
<time>2019-06-01T09:35:09Z</time>
</trkpt>
<trkpt lat="49.541723" lon="10.500295">
<ele>297</ele>
<time>2019-06-01T09:35:14Z</time>
</trkpt>
<trkpt lat="49.541903" lon="10.50059">
<ele>297</ele>
<time>2019-06-01T09:35:19Z</time>
</trkpt>
<trkpt lat="49.542065" lon="10.50089">
<ele>297</ele>
<time>2019-06-01T09:35:24Z</time>
</trkpt>
<trkpt lat="49.54222" lon="10.501225">
<ele>297</ele>
<time>2019-06-01T09:35:29Z</time>
</trkpt>
<trkpt lat="49.542372" lon="10.50157">
<ele>297</ele>
<time>2019-06-01T09:35:34Z</time>
</trkpt>
<trkpt lat="49.542575" lon="10.501877">
<ele>297</ele>
<time>2019-06-01T09:35:39Z</time>
</trkpt>
<trkpt lat="49.542857" lon="10.502002">
<ele>297</ele>
<time>2019-06-01T09:35:44Z</time>
</trkpt>
<trkpt lat="49.543133" lon="10.502103">
<ele>297</ele>
<time>2019-06-01T09:35:49Z</time>
</trkpt>
<trkpt lat="49.543405" lon="10.502225">
<ele>297</ele>
<time>2019-06-01T09:35:54Z</time>
</trkpt>
<trkpt lat="49.543673" lon="10.502337">
<ele>297</ele>
<time>2019-06-01T09:35:59Z</time>
</trkpt>
<trkpt lat="49.54394" lon="10.502467">
<ele>297</ele>
<time>2019-06-01T09:36:04Z</time>
</trkpt>
<trkpt lat="49.544195" lon="10.502582">
<ele>297</ele>
<time>2019-06-01T09:36:09Z</time>
</trkpt>
<trkpt lat="49.544453" lon="10.5027">
<ele>297</ele>
<time>2019-06-01T09:36:14Z</time>
</trkpt>
<trkpt lat="49.544703" lon="10.502803">
<ele>297</ele>
<time>2019-06-01T09:36:19Z</time>
</trkpt>
<trkpt lat="49.544885" lon="10.50302">
<ele>297</ele>
<time>2019-06-01T09:36:24Z</time>
</trkpt>
<trkpt lat="49.544977" lon="10.503368">
<ele>297</ele>
<time>2019-06-01T09:36:29Z</time>
</trkpt>
<trkpt lat="49.545113" lon="10.503733">
<ele>297</ele>
<time>2019-06-01T09:36:34Z</time>
</trkpt>
<trkpt lat="49.545363" lon="10.503993">
<ele>297</ele>
<time>2019-06-01T09:36:39Z</time>
</trkpt>
<trkpt lat="49.545615" lon="10.504235">
<ele>297</ele>
<time>2019-06-01T09:36:44Z</time>
</trkpt>
<trkpt lat="49.545865" lon="10.504462">
<ele>297</ele>
<time>2019-06-01T09:36:49Z</time>
</trkpt>
<trkpt lat="49.546125" lon="10.504633">
<ele>297</ele>
<time>2019-06-01T09:36:54Z</time>
</trkpt>
<trkpt lat="49.546387" lon="10.5047">
<ele>297</ele>
<time>2019-06-01T09:36:59Z</time>
</trkpt>
<trkpt lat="49.546657" lon="10.504688">
<ele>297</ele>
<time>2019-06-01T09:37:04Z</time>
</trkpt>
<trkpt lat="49.546882" lon="10.504658">
<ele>297</ele>
<time>2019-06-01T09:37:09Z</time>
</trkpt>
<trkpt lat="49.547063" lon="10.504682">
<ele>297</ele>
<time>2019-06-01T09:37:14Z</time>
</trkpt>
<trkpt lat="49.547063" lon="10.504912">
<ele>297</ele>
<time>2019-06-01T09:37:19Z</time>
</trkpt>
<trkpt lat="49.546937" lon="10.505213">
<ele>297</ele>
<time>2019-06-01T09:37:24Z</time>
</trkpt>
<trkpt lat="49.546865" lon="10.505583">
<ele>297</ele>
<time>2019-06-01T09:37:29Z</time>
</trkpt>
<trkpt lat="49.546968" lon="10.505963">
<ele>297</ele>
<time>2019-06-01T09:37:34Z</time>
</trkpt>
<trkpt lat="49.547118" lon="10.506313">
<ele>297</ele>
<time>2019-06-01T09:37:39Z</time>
</trkpt>
<trkpt lat="49.547275" lon="10.506665">
<ele>297</ele>
<time>2019-06-01T09:37:44Z</time>
</trkpt>
<trkpt lat="49.547432" lon="10.507012">
<ele>297</ele>
<time>2019-06-01T09:37:49Z</time>
</trkpt>
<trkpt lat="49.547597" lon="10.507368">
<ele>297</ele>
<time>2019-06-01T09:37:54Z</time>
</trkpt>
<trkpt lat="49.547762" lon="10.50773">
<ele>297</ele>
<time>2019-06-01T09:37:59Z</time>
</trkpt>
<trkpt lat="49.547918" lon="10.50809">
<ele>297</ele>
<time>2019-06-01T09:38:04Z</time>
</trkpt>
<trkpt lat="49.548072" lon="10.508427">
<ele>298</ele>
<time>2019-06-01T09:38:09Z</time>
</trkpt>
<trkpt lat="49.54822" lon="10.508742">
<ele>298</ele>
<time>2019-06-01T09:38:14Z</time>
</trkpt>
<trkpt lat="49.548352" lon="10.509027">
<ele>299</ele>
<time>2019-06-01T09:38:19Z</time>
</trkpt>
<trkpt lat="49.548482" lon="10.509278">
<ele>299</ele>
<time>2019-06-01T09:38:24Z</time>
</trkpt>
<trkpt lat="49.548642" lon="10.509222">
<ele>299</ele>
<time>2019-06-01T09:38:29Z</time>
</trkpt>
<trkpt lat="49.548765" lon="10.508973">
<ele>299</ele>
<time>2019-06-01T09:38:34Z</time>
</trkpt>
<trkpt lat="49.548898" lon="10.508717">
<ele>299</ele>
<time>2019-06-01T09:38:39Z</time>
</trkpt>
<trkpt lat="49.549045" lon="10.508432">
<ele>299</ele>
<time>2019-06-01T09:38:44Z</time>
</trkpt>
<trkpt lat="49.549272" lon="10.508417">
<ele>298</ele>
<time>2019-06-01T09:38:49Z</time>
</trkpt>
<trkpt lat="49.549535" lon="10.508668">
<ele>297</ele>
<time>2019-06-01T09:38:54Z</time>
</trkpt>
<trkpt lat="49.549867" lon="10.50884">
<ele>297</ele>
<time>2019-06-01T09:38:59Z</time>
</trkpt>
<trkpt lat="49.550127" lon="10.509153">
<ele>297</ele>
<time>2019-06-01T09:39:04Z</time>
</trkpt>
<trkpt lat="49.550342" lon="10.509555">
<ele>296</ele>
<time>2019-06-01T09:39:09Z</time>
</trkpt>
<trkpt lat="49.550537" lon="10.509945">
<ele>296</ele>
<time>2019-06-01T09:39:14Z</time>
</trkpt>
<trkpt lat="49.550685" lon="10.510373">
<ele>296</ele>
<time>2019-06-01T09:39:19Z</time>
</trkpt>
<trkpt lat="49.550757" lon="10.510853">
<ele>296</ele>
<time>2019-06-01T09:39:24Z</time>
</trkpt>
<trkpt lat="49.550823" lon="10.511328">
<ele>296</ele>
<time>2019-06-01T09:39:29Z</time>
</trkpt>
<trkpt lat="49.550888" lon="10.511772">
<ele>296</ele>
<time>2019-06-01T09:39:34Z</time>
</trkpt>
<trkpt lat="49.550908" lon="10.512225">
<ele>296</ele>
<time>2019-06-01T09:39:39Z</time>
</trkpt>
<trkpt lat="49.550917" lon="10.512667">
<ele>296</ele>
<time>2019-06-01T09:39:44Z</time>
</trkpt>
<trkpt lat="49.550917" lon="10.513027">
<ele>296</ele>
<time>2019-06-01T09:39:49Z</time>
</trkpt>
<trkpt lat="49.55092" lon="10.513148">
<ele>296</ele>
<time>2019-06-01T09:39:54Z</time>
</trkpt>
<trkpt lat="49.550925" lon="10.51327">
<ele>296</ele>
<time>2019-06-01T09:39:59Z</time>
</trkpt>
<trkpt lat="49.5509" lon="10.513447">
<ele>296</ele>
<time>2019-06-01T09:40:04Z</time>
</trkpt>
<trkpt lat="49.550945" lon="10.513648">
<ele>296</ele>
<time>2019-06-01T09:40:09Z</time>
</trkpt>
<trkpt lat="49.551093" lon="10.513902">
<ele>296</ele>
<time>2019-06-01T09:40:14Z</time>
</trkpt>
<trkpt lat="49.551145" lon="10.514312">
<ele>296</ele>
<time>2019-06-01T09:40:19Z</time>
</trkpt>
<trkpt lat="49.551128" lon="10.514752">
<ele>296</ele>
<time>2019-06-01T09:40:24Z</time>
</trkpt>
<trkpt lat="49.55106" lon="10.515153">
<ele>296</ele>
<time>2019-06-01T09:40:29Z</time>
</trkpt>
<trkpt lat="49.55095" lon="10.515527">
<ele>296</ele>
<time>2019-06-01T09:40:34Z</time>
</trkpt>
<trkpt lat="49.550838" lon="10.515923">
<ele>296</ele>
<time>2019-06-01T09:40:39Z</time>
</trkpt>
<trkpt lat="49.550798" lon="10.516342">
<ele>296</ele>
<time>2019-06-01T09:40:44Z</time>
</trkpt>
<trkpt lat="49.55086" lon="10.516722">
<ele>296</ele>
<time>2019-06-01T09:40:49Z</time>
</trkpt>
<trkpt lat="49.551027" lon="10.517062">
<ele>296</ele>
<time>2019-06-01T09:40:54Z</time>
</trkpt>
<trkpt lat="49.551235" lon="10.51738">
<ele>296</ele>
<time>2019-06-01T09:40:59Z</time>
</trkpt>
<trkpt lat="49.551448" lon="10.51764">
<ele>296</ele>
<time>2019-06-01T09:41:04Z</time>
</trkpt>
<trkpt lat="49.55153" lon="10.517972">
<ele>296</ele>
<time>2019-06-01T09:41:09Z</time>
</trkpt>
<trkpt lat="49.551353" lon="10.518185">
<ele>296</ele>
<time>2019-06-01T09:41:14Z</time>
</trkpt>
<trkpt lat="49.551233" lon="10.5183">
<ele>296</ele>
<time>2019-06-01T09:41:19Z</time>
</trkpt>
<trkpt lat="49.551243" lon="10.518522">
<ele>296</ele>
<time>2019-06-01T09:41:24Z</time>
</trkpt>
<trkpt lat="49.551377" lon="10.518823">
<ele>296</ele>
<time>2019-06-01T09:41:29Z</time>
</trkpt>
<trkpt lat="49.551522" lon="10.519178">
<ele>296</ele>
<time>2019-06-01T09:41:34Z</time>
</trkpt>
<trkpt lat="49.55165" lon="10.519547">
<ele>296</ele>
<time>2019-06-01T09:41:39Z</time>
</trkpt>
<trkpt lat="49.551765" lon="10.519917">
<ele>296</ele>
<time>2019-06-01T09:41:44Z</time>
</trkpt>
<trkpt lat="49.551888" lon="10.52032">
<ele>296</ele>
<time>2019-06-01T09:41:49Z</time>
</trkpt>
<trkpt lat="49.551993" lon="10.520733">
<ele>296</ele>
<time>2019-06-01T09:41:54Z</time>
</trkpt>
<trkpt lat="49.552088" lon="10.52115">
<ele>296</ele>
<time>2019-06-01T09:41:59Z</time>
</trkpt>
<trkpt lat="49.552188" lon="10.521565">
<ele>296</ele>
<time>2019-06-01T09:42:04Z</time>
</trkpt>
<trkpt lat="49.552298" lon="10.52185">
<ele>296</ele>
<time>2019-06-01T09:42:09Z</time>
</trkpt>
<trkpt lat="49.552302" lon="10.52221">
<ele>296</ele>
<time>2019-06-01T09:42:14Z</time>
</trkpt>
<trkpt lat="49.55242" lon="10.522563">
<ele>296</ele>
<time>2019-06-01T09:42:19Z</time>
</trkpt>
<trkpt lat="49.55252" lon="10.522927">
<ele>296</ele>
<time>2019-06-01T09:42:24Z</time>
</trkpt>
<trkpt lat="49.552382" lon="10.523238">
<ele>296</ele>
<time>2019-06-01T09:42:29Z</time>
</trkpt>
<trkpt lat="49.55216" lon="10.523493">
<ele>296</ele>
<time>2019-06-01T09:42:34Z</time>
</trkpt>
<trkpt lat="49.551982" lon="10.523768">
<ele>296</ele>
<time>2019-06-01T09:42:39Z</time>
</trkpt>
<trkpt lat="49.552025" lon="10.524162">
<ele>296</ele>
<time>2019-06-01T09:42:44Z</time>
</trkpt>
<trkpt lat="49.552147" lon="10.524532">
<ele>296</ele>
<time>2019-06-01T09:42:49Z</time>
</trkpt>
<trkpt lat="49.552285" lon="10.524945">
<ele>296</ele>
<time>2019-06-01T09:42:54Z</time>
</trkpt>
<trkpt lat="49.552427" lon="10.525355">
<ele>296</ele>
<time>2019-06-01T09:42:59Z</time>
</trkpt>
<trkpt lat="49.552572" lon="10.525775">
<ele>296</ele>
<time>2019-06-01T09:43:04Z</time>
</trkpt>
<trkpt lat="49.552722" lon="10.526187">
<ele>296</ele>
<time>2019-06-01T09:43:09Z</time>
</trkpt>
<trkpt lat="49.552913" lon="10.526553">
<ele>296</ele>
<time>2019-06-01T09:43:14Z</time>
</trkpt>
<trkpt lat="49.553097" lon="10.526893">
<ele>296</ele>
<time>2019-06-01T09:43:19Z</time>
</trkpt>
<trkpt lat="49.553285" lon="10.527225">
<ele>296</ele>
<time>2019-06-01T09:43:24Z</time>
</trkpt>
<trkpt lat="49.55347" lon="10.527562">
<ele>296</ele>
<time>2019-06-01T09:43:29Z</time>
</trkpt>
<trkpt lat="49.55367" lon="10.527903">
<ele>296</ele>
<time>2019-06-01T09:43:34Z</time>
</trkpt>
<trkpt lat="49.55386" lon="10.52825">
<ele>296</ele>
<time>2019-06-01T09:43:39Z</time>
</trkpt>
<trkpt lat="49.553932" lon="10.528695">
<ele>296</ele>
<time>2019-06-01T09:43:44Z</time>
</trkpt>
<trkpt lat="49.553922" lon="10.529185">
<ele>296</ele>
<time>2019-06-01T09:43:49Z</time>
</trkpt>
<trkpt lat="49.55391" lon="10.529698">
<ele>296</ele>
<time>2019-06-01T09:43:54Z</time>
</trkpt>
<trkpt lat="49.553932" lon="10.530188">
<ele>296</ele>
<time>2019-06-01T09:43:59Z</time>
</trkpt>
<trkpt lat="49.55403" lon="10.53062">
<ele>296</ele>
<time>2019-06-01T09:44:04Z</time>
</trkpt>
<trkpt lat="49.554133" lon="10.531023">
<ele>296</ele>
<time>2019-06-01T09:44:09Z</time>
</trkpt>
<trkpt lat="49.554223" lon="10.531412">
<ele>296</ele>
<time>2019-06-01T09:44:14Z</time>
</trkpt>
<trkpt lat="49.55431" lon="10.53179">
<ele>296</ele>
<time>2019-06-01T09:44:19Z</time>
</trkpt>
<trkpt lat="49.554407" lon="10.53219">
<ele>295</ele>
<time>2019-06-01T09:44:24Z</time>
</trkpt>
<trkpt lat="49.554503" lon="10.532615">
<ele>295</ele>
<time>2019-06-01T09:44:29Z</time>
</trkpt>
<trkpt lat="49.5546" lon="10.533027">
<ele>295</ele>
<time>2019-06-01T09:44:34Z</time>
</trkpt>
<trkpt lat="49.554708" lon="10.533467">
<ele>295</ele>
<time>2019-06-01T09:44:39Z</time>
</trkpt>
<trkpt lat="49.554772" lon="10.533902">
<ele>295</ele>
<time>2019-06-01T09:44:44Z</time>
</trkpt>
<trkpt lat="49.5546" lon="10.534243">
<ele>295</ele>
<time>2019-06-01T09:44:49Z</time>
</trkpt>
<trkpt lat="49.55441" lon="10.534568">
<ele>295</ele>
<time>2019-06-01T09:44:54Z</time>
</trkpt>
<trkpt lat="49.554347" lon="10.534902">
<ele>295</ele>
<time>2019-06-01T09:44:59Z</time>
</trkpt>
<trkpt lat="49.554525" lon="10.535137">
<ele>295</ele>
<time>2019-06-01T09:45:04Z</time>
</trkpt>
<trkpt lat="49.55473" lon="10.535368">
<ele>295</ele>
<time>2019-06-01T09:45:09Z</time>
</trkpt>
<trkpt lat="49.554933" lon="10.535598">
<ele>295</ele>
<time>2019-06-01T09:45:14Z</time>
</trkpt>
<trkpt lat="49.555143" lon="10.535823">
<ele>295</ele>
<time>2019-06-01T09:45:19Z</time>
</trkpt>
<trkpt lat="49.555372" lon="10.536075">
<ele>295</ele>
<time>2019-06-01T09:45:24Z</time>
</trkpt>
<trkpt lat="49.555558" lon="10.536382">
<ele>295</ele>
<time>2019-06-01T09:45:29Z</time>
</trkpt>
<trkpt lat="49.555728" lon="10.536688">
<ele>295</ele>
<time>2019-06-01T09:45:34Z</time>
</trkpt>
<trkpt lat="49.555873" lon="10.536965">
<ele>295</ele>
<time>2019-06-01T09:45:39Z</time>
</trkpt>
<trkpt lat="49.556018" lon="10.537233">
<ele>295</ele>
<time>2019-06-01T09:45:44Z</time>
</trkpt>
<trkpt lat="49.556138" lon="10.537465">
<ele>296</ele>
<time>2019-06-01T09:45:49Z</time>
</trkpt>
<trkpt lat="49.556218" lon="10.537658">
<ele>296</ele>
<time>2019-06-01T09:45:54Z</time>
</trkpt>
<trkpt lat="49.556327" lon="10.537575">
<ele>296</ele>
<time>2019-06-01T09:45:59Z</time>
</trkpt>
<trkpt lat="49.556425" lon="10.537305">
<ele>296</ele>
<time>2019-06-01T09:46:04Z</time>
</trkpt>
<trkpt lat="49.556527" lon="10.536968">
<ele>296</ele>
<time>2019-06-01T09:46:09Z</time>
</trkpt>
<trkpt lat="49.556643" lon="10.53665">
<ele>296</ele>
<time>2019-06-01T09:46:14Z</time>
</trkpt>
<trkpt lat="49.556817" lon="10.536403">
<ele>296</ele>
<time>2019-06-01T09:46:19Z</time>
</trkpt>
<trkpt lat="49.557047" lon="10.53624">
<ele>296</ele>
<time>2019-06-01T09:46:24Z</time>
</trkpt>
<trkpt lat="49.557307" lon="10.536177">
<ele>296</ele>
<time>2019-06-01T09:46:29Z</time>
</trkpt>
<trkpt lat="49.55758" lon="10.536183">
<ele>296</ele>
<time>2019-06-01T09:46:34Z</time>
</trkpt>
<trkpt lat="49.557835" lon="10.536263">
<ele>296</ele>
<time>2019-06-01T09:46:39Z</time>
</trkpt>
<trkpt lat="49.55805" lon="10.536428">
<ele>296</ele>
<time>2019-06-01T09:46:44Z</time>
</trkpt>
<trkpt lat="49.55825" lon="10.53661">
<ele>296</ele>
<time>2019-06-01T09:46:49Z</time>
</trkpt>
<trkpt lat="49.558485" lon="10.536803">
<ele>296</ele>
<time>2019-06-01T09:46:54Z</time>
</trkpt>
<trkpt lat="49.55869" lon="10.537033">
<ele>296</ele>
<time>2019-06-01T09:46:59Z</time>
</trkpt>
<trkpt lat="49.558838" lon="10.537297">
<ele>297</ele>
<time>2019-06-01T09:47:04Z</time>
</trkpt>
<trkpt lat="49.558957" lon="10.537535">
<ele>298</ele>
<time>2019-06-01T09:47:09Z</time>
</trkpt>
<trkpt lat="49.55903" lon="10.537733">
<ele>299</ele>
<time>2019-06-01T09:47:14Z</time>
</trkpt>
<trkpt lat="49.559123" lon="10.537843">
<ele>299</ele>
<time>2019-06-01T09:47:19Z</time>
</trkpt>
<trkpt lat="49.559285" lon="10.537653">
<ele>299</ele>
<time>2019-06-01T09:47:24Z</time>
</trkpt>
<trkpt lat="49.559535" lon="10.537337">
<ele>297</ele>
<time>2019-06-01T09:47:29Z</time>
</trkpt>
<trkpt lat="49.559758" lon="10.536853">
<ele>296</ele>
<time>2019-06-01T09:47:34Z</time>
</trkpt>
<trkpt lat="49.55998" lon="10.536383">
<ele>296</ele>
<time>2019-06-01T09:47:39Z</time>
</trkpt>
<trkpt lat="49.560173" lon="10.535935">
<ele>295</ele>
<time>2019-06-01T09:47:44Z</time>
</trkpt>
<trkpt lat="49.560362" lon="10.535582">
<ele>295</ele>
<time>2019-06-01T09:47:49Z</time>
</trkpt>
<trkpt lat="49.560543" lon="10.535297">
<ele>295</ele>
<time>2019-06-01T09:47:54Z</time>
</trkpt>
<trkpt lat="49.560692" lon="10.535043">
<ele>294</ele>
<time>2019-06-01T09:47:59Z</time>
</trkpt>
<trkpt lat="49.560868" lon="10.534777">
<ele>294</ele>
<time>2019-06-01T09:48:04Z</time>
</trkpt>
<trkpt lat="49.561042" lon="10.534498">
<ele>294</ele>
<time>2019-06-01T09:48:09Z</time>
</trkpt>
<trkpt lat="49.561217" lon="10.53423">
<ele>294</ele>
<time>2019-06-01T09:48:14Z</time>
</trkpt>
<trkpt lat="49.561412" lon="10.533983">
<ele>294</ele>
<time>2019-06-01T09:48:19Z</time>
</trkpt>
<trkpt lat="49.561615" lon="10.53373">
<ele>294</ele>
<time>2019-06-01T09:48:24Z</time>
</trkpt>
<trkpt lat="49.561822" lon="10.533477">
<ele>295</ele>
<time>2019-06-01T09:48:29Z</time>
</trkpt>
<trkpt lat="49.56204" lon="10.533248">
<ele>295</ele>
<time>2019-06-01T09:48:34Z</time>
</trkpt>
<trkpt lat="49.56229" lon="10.53309">
<ele>295</ele>
<time>2019-06-01T09:48:39Z</time>
</trkpt>
<trkpt lat="49.562573" lon="10.533113">
<ele>295</ele>
<time>2019-06-01T09:48:44Z</time>
</trkpt>
<trkpt lat="49.562822" lon="10.533318">
<ele>295</ele>
<time>2019-06-01T09:48:49Z</time>
</trkpt>
<trkpt lat="49.563072" lon="10.533568">
<ele>295</ele>
<time>2019-06-01T09:48:54Z</time>
</trkpt>
<trkpt lat="49.563328" lon="10.533833">
<ele>295</ele>
<time>2019-06-01T09:48:59Z</time>
</trkpt>
<trkpt lat="49.563577" lon="10.534088">
<ele>295</ele>
<time>2019-06-01T09:49:04Z</time>
</trkpt>
<trkpt lat="49.56381" lon="10.534358">
<ele>295</ele>
<time>2019-06-01T09:49:09Z</time>
</trkpt>
<trkpt lat="49.564042" lon="10.534642">
<ele>295</ele>
<time>2019-06-01T09:49:14Z</time>
</trkpt>
<trkpt lat="49.564283" lon="10.534928">
<ele>295</ele>
<time>2019-06-01T09:49:19Z</time>
</trkpt>
<trkpt lat="49.564538" lon="10.535188">
<ele>296</ele>
<time>2019-06-01T09:49:24Z</time>
</trkpt>
<trkpt lat="49.564825" lon="10.535313">
<ele>296</ele>
<time>2019-06-01T09:49:29Z</time>
</trkpt>
<trkpt lat="49.56511" lon="10.53538">
<ele>297</ele>
<time>2019-06-01T09:49:34Z</time>
</trkpt>
<trkpt lat="49.565382" lon="10.535423">
<ele>297</ele>
<time>2019-06-01T09:49:39Z</time>
</trkpt>
<trkpt lat="49.565638" lon="10.535453">
<ele>298</ele>
<time>2019-06-01T09:49:44Z</time>
</trkpt>
<trkpt lat="49.565893" lon="10.535473">
<ele>299</ele>
<time>2019-06-01T09:49:49Z</time>
</trkpt>
<trkpt lat="49.56616" lon="10.535485">
<ele>299</ele>
<time>2019-06-01T09:49:54Z</time>
</trkpt>
<trkpt lat="49.566443" lon="10.535507">
<ele>299</ele>
<time>2019-06-01T09:49:59Z</time>
</trkpt>
<trkpt lat="49.566748" lon="10.535535">
<ele>299</ele>
<time>2019-06-01T09:50:04Z</time>
</trkpt>
<trkpt lat="49.567048" lon="10.535565">
<ele>298</ele>
<time>2019-06-01T09:50:09Z</time>
</trkpt>
<trkpt lat="49.567335" lon="10.535557">
<ele>298</ele>
<time>2019-06-01T09:50:14Z</time>
</trkpt>
<trkpt lat="49.567625" lon="10.535547">
<ele>297</ele>
<time>2019-06-01T09:50:19Z</time>
</trkpt>
<trkpt lat="49.567893" lon="10.535542">
<ele>297</ele>
<time>2019-06-01T09:50:24Z</time>
</trkpt>
<trkpt lat="49.568165" lon="10.535528">
<ele>297</ele>
<time>2019-06-01T09:50:29Z</time>
</trkpt>
<trkpt lat="49.56841" lon="10.535515">
<ele>297</ele>
<time>2019-06-01T09:50:34Z</time>
</trkpt>
<trkpt lat="49.568602" lon="10.535505">
<ele>297</ele>
<time>2019-06-01T09:50:39Z</time>
</trkpt>
<trkpt lat="49.568737" lon="10.535502">
<ele>297</ele>
<time>2019-06-01T09:50:44Z</time>
</trkpt>
<trkpt lat="49.568792" lon="10.535678">
<ele>297</ele>
<time>2019-06-01T09:50:49Z</time>
</trkpt>
<trkpt lat="49.568708" lon="10.53597">
<ele>297</ele>
<time>2019-06-01T09:50:54Z</time>
</trkpt>
<trkpt lat="49.568593" lon="10.53634">
<ele>297</ele>
<time>2019-06-01T09:50:59Z</time>
</trkpt>
<trkpt lat="49.568467" lon="10.536742">
<ele>297</ele>
<time>2019-06-01T09:51:04Z</time>
</trkpt>
<trkpt lat="49.568332" lon="10.537162">
<ele>297</ele>
<time>2019-06-01T09:51:09Z</time>
</trkpt>
<trkpt lat="49.568207" lon="10.537582">
<ele>297</ele>
<time>2019-06-01T09:51:14Z</time>
</trkpt>
<trkpt lat="49.568075" lon="10.537977">
<ele>297</ele>
<time>2019-06-01T09:51:19Z</time>
</trkpt>
<trkpt lat="49.567927" lon="10.538432">
<ele>297</ele>
<time>2019-06-01T09:51:24Z</time>
</trkpt>
<trkpt lat="49.567777" lon="10.538918">
<ele>296</ele>
<time>2019-06-01T09:51:29Z</time>
</trkpt>
<trkpt lat="49.567637" lon="10.5394">
<ele>296</ele>
<time>2019-06-01T09:51:34Z</time>
</trkpt>
<trkpt lat="49.5675" lon="10.539848">
<ele>296</ele>
<time>2019-06-01T09:51:39Z</time>
</trkpt>
<trkpt lat="49.567407" lon="10.540317">
<ele>296</ele>
<time>2019-06-01T09:51:44Z</time>
</trkpt>
<trkpt lat="49.567345" lon="10.540802">
<ele>296</ele>
<time>2019-06-01T09:51:49Z</time>
</trkpt>
<trkpt lat="49.567277" lon="10.54128">
<ele>295</ele>
<time>2019-06-01T09:51:54Z</time>
</trkpt>
<trkpt lat="49.56721" lon="10.541742">
<ele>295</ele>
<time>2019-06-01T09:51:59Z</time>
</trkpt>
<trkpt lat="49.567157" lon="10.54219">
<ele>295</ele>
<time>2019-06-01T09:52:04Z</time>
</trkpt>
<trkpt lat="49.567092" lon="10.54263">
<ele>295</ele>
<time>2019-06-01T09:52:09Z</time>
</trkpt>
<trkpt lat="49.567113" lon="10.543102">
<ele>295</ele>
<time>2019-06-01T09:52:14Z</time>
</trkpt>
<trkpt lat="49.567198" lon="10.54357">
<ele>295</ele>
<time>2019-06-01T09:52:19Z</time>
</trkpt>
<trkpt lat="49.567288" lon="10.544012">
<ele>295</ele>
<time>2019-06-01T09:52:24Z</time>
</trkpt>
<trkpt lat="49.567367" lon="10.544392">
<ele>295</ele>
<time>2019-06-01T09:52:29Z</time>
</trkpt>
<trkpt lat="49.567282" lon="10.5447">
<ele>295</ele>
<time>2019-06-01T09:52:34Z</time>
</trkpt>
<trkpt lat="49.56727" lon="10.545078">
<ele>295</ele>
<time>2019-06-01T09:52:39Z</time>
</trkpt>
<trkpt lat="49.56743" lon="10.545455">
<ele>295</ele>
<time>2019-06-01T09:52:44Z</time>
</trkpt>
<trkpt lat="49.567595" lon="10.545833">
<ele>295</ele>
<time>2019-06-01T09:52:49Z</time>
</trkpt>
<trkpt lat="49.567772" lon="10.546222">
<ele>295</ele>
<time>2019-06-01T09:52:54Z</time>
</trkpt>
<trkpt lat="49.567945" lon="10.54662">
<ele>295</ele>
<time>2019-06-01T09:52:59Z</time>
</trkpt>
<trkpt lat="49.568118" lon="10.547025">
<ele>295</ele>
<time>2019-06-01T09:53:04Z</time>
</trkpt>
<trkpt lat="49.568305" lon="10.54743">
<ele>295</ele>
<time>2019-06-01T09:53:09Z</time>
</trkpt>
<trkpt lat="49.568497" lon="10.547817">
<ele>295</ele>
<time>2019-06-01T09:53:14Z</time>
</trkpt>
<trkpt lat="49.568665" lon="10.548203">
<ele>295</ele>
<time>2019-06-01T09:53:19Z</time>
</trkpt>
<trkpt lat="49.568797" lon="10.54858">
<ele>294</ele>
<time>2019-06-01T09:53:24Z</time>
</trkpt>
<trkpt lat="49.568855" lon="10.548985">
<ele>294</ele>
<time>2019-06-01T09:53:29Z</time>
</trkpt>
<trkpt lat="49.568913" lon="10.549418">
<ele>294</ele>
<time>2019-06-01T09:53:34Z</time>
</trkpt>
<trkpt lat="49.569023" lon="10.549848">
<ele>294</ele>
<time>2019-06-01T09:53:39Z</time>
</trkpt>
<trkpt lat="49.569145" lon="10.550268">
<ele>294</ele>
<time>2019-06-01T09:53:44Z</time>
</trkpt>
<trkpt lat="49.569275" lon="10.550677">
<ele>294</ele>
<time>2019-06-01T09:53:49Z</time>
</trkpt>
<trkpt lat="49.569398" lon="10.551093">
<ele>294</ele>
<time>2019-06-01T09:53:54Z</time>
</trkpt>
<trkpt lat="49.56952" lon="10.551518">
<ele>294</ele>
<time>2019-06-01T09:53:59Z</time>
</trkpt>
<trkpt lat="49.569643" lon="10.551947">
<ele>294</ele>
<time>2019-06-01T09:54:04Z</time>
</trkpt>
<trkpt lat="49.569772" lon="10.552367">
<ele>294</ele>
<time>2019-06-01T09:54:09Z</time>
</trkpt>
<trkpt lat="49.56994" lon="10.552777">
<ele>294</ele>
<time>2019-06-01T09:54:14Z</time>
</trkpt>
<trkpt lat="49.570152" lon="10.553138">
<ele>294</ele>
<time>2019-06-01T09:54:19Z</time>
</trkpt>
<trkpt lat="49.57039" lon="10.553423">
<ele>294</ele>
<time>2019-06-01T09:54:24Z</time>
</trkpt>
<trkpt lat="49.570667" lon="10.553568">
<ele>294</ele>
<time>2019-06-01T09:54:29Z</time>
</trkpt>
<trkpt lat="49.57097" lon="10.553598">
<ele>294</ele>
<time>2019-06-01T09:54:34Z</time>
</trkpt>
<trkpt lat="49.571265" lon="10.553568">
<ele>294</ele>
<time>2019-06-01T09:54:39Z</time>
</trkpt>
<trkpt lat="49.571557" lon="10.553462">
<ele>294</ele>
<time>2019-06-01T09:54:44Z</time>
</trkpt>
<trkpt lat="49.571843" lon="10.553353">
<ele>294</ele>
<time>2019-06-01T09:54:49Z</time>
</trkpt>
<trkpt lat="49.572123" lon="10.553247">
<ele>294</ele>
<time>2019-06-01T09:54:54Z</time>
</trkpt>
<trkpt lat="49.572408" lon="10.553142">
<ele>294</ele>
<time>2019-06-01T09:54:59Z</time>
</trkpt>
<trkpt lat="49.572697" lon="10.553035">
<ele>294</ele>
<time>2019-06-01T09:55:04Z</time>
</trkpt>
<trkpt lat="49.572982" lon="10.55293">
<ele>294</ele>
<time>2019-06-01T09:55:09Z</time>
</trkpt>
<trkpt lat="49.57326" lon="10.553043">
<ele>294</ele>
<time>2019-06-01T09:55:14Z</time>
</trkpt>
<trkpt lat="49.5735" lon="10.553213">
<ele>294</ele>
<time>2019-06-01T09:55:19Z</time>
</trkpt>
<trkpt lat="49.573573" lon="10.553507">
<ele>294</ele>
<time>2019-06-01T09:55:24Z</time>
</trkpt>
<trkpt lat="49.573505" lon="10.553887">
<ele>295</ele>
<time>2019-06-01T09:55:29Z</time>
</trkpt>
<trkpt lat="49.573413" lon="10.554293">
<ele>295</ele>
<time>2019-06-01T09:55:34Z</time>
</trkpt>
<trkpt lat="49.573338" lon="10.554723">
<ele>295</ele>
<time>2019-06-01T09:55:39Z</time>
</trkpt>
<trkpt lat="49.573265" lon="10.555167">
<ele>295</ele>
<time>2019-06-01T09:55:44Z</time>
</trkpt>
<trkpt lat="49.573205" lon="10.55559">
<ele>295</ele>
<time>2019-06-01T09:55:49Z</time>
</trkpt>
<trkpt lat="49.573153" lon="10.555987">
<ele>295</ele>
<time>2019-06-01T09:55:54Z</time>
</trkpt>
<trkpt lat="49.57311" lon="10.556358">
<ele>295</ele>
<time>2019-06-01T09:55:59Z</time>
</trkpt>
<trkpt lat="49.573087" lon="10.55662">
<ele>295</ele>
<time>2019-06-01T09:56:04Z</time>
</trkpt>
<trkpt lat="49.573138" lon="10.556693">
<ele>295</ele>
<time>2019-06-01T09:56:09Z</time>
</trkpt>
<trkpt lat="49.573173" lon="10.556822">
<ele>295</ele>
<time>2019-06-01T09:56:14Z</time>
</trkpt>
<trkpt lat="49.573148" lon="10.557118">
<ele>295</ele>
<time>2019-06-01T09:56:19Z</time>
</trkpt>
<trkpt lat="49.573125" lon="10.55748">
<ele>295</ele>
<time>2019-06-01T09:56:24Z</time>
</trkpt>
<trkpt lat="49.573108" lon="10.557877">
<ele>295</ele>
<time>2019-06-01T09:56:29Z</time>
</trkpt>
<trkpt lat="49.573072" lon="10.558333">
<ele>295</ele>
<time>2019-06-01T09:56:35Z</time>
</trkpt>
<trkpt lat="49.573048" lon="10.558713">
<ele>295</ele>
<time>2019-06-01T09:56:40Z</time>
</trkpt>
<trkpt lat="49.573025" lon="10.559117">
<ele>295</ele>
<time>2019-06-01T09:56:45Z</time>
</trkpt>
<trkpt lat="49.572992" lon="10.55953">
<ele>295</ele>
<time>2019-06-01T09:56:50Z</time>
</trkpt>
<trkpt lat="49.572957" lon="10.559952">
<ele>295</ele>
<time>2019-06-01T09:56:55Z</time>
</trkpt>
<trkpt lat="49.572928" lon="10.560333">
<ele>295</ele>
<time>2019-06-01T09:57:00Z</time>
</trkpt>
<trkpt lat="49.573043" lon="10.56053">
<ele>295</ele>
<time>2019-06-01T09:57:05Z</time>
</trkpt>
<trkpt lat="49.573227" lon="10.560702">
<ele>295</ele>
<time>2019-06-01T09:57:10Z</time>
</trkpt>
<trkpt lat="49.5734" lon="10.560995">
<ele>295</ele>
<time>2019-06-01T09:57:15Z</time>
</trkpt>
<trkpt lat="49.573595" lon="10.561297">
<ele>295</ele>
<time>2019-06-01T09:57:21Z</time>
</trkpt>
<trkpt lat="49.573712" lon="10.561467">
<ele>295</ele>
<time>2019-06-01T09:57:26Z</time>
</trkpt>
<trkpt lat="49.573845" lon="10.561603">
<ele>295</ele>
<time>2019-06-01T09:57:31Z</time>
</trkpt>
<trkpt lat="49.573982" lon="10.561842">
<ele>295</ele>
<time>2019-06-01T09:57:36Z</time>
</trkpt>
<trkpt lat="49.57417" lon="10.562082">
<ele>295</ele>
<time>2019-06-01T09:57:41Z</time>
</trkpt>
<trkpt lat="49.574372" lon="10.56229">
<ele>295</ele>
<time>2019-06-01T09:57:46Z</time>
</trkpt>
<trkpt lat="49.574583" lon="10.56254">
<ele>296</ele>
<time>2019-06-01T09:57:51Z</time>
</trkpt>
<trkpt lat="49.574822" lon="10.56277">
<ele>296</ele>
<time>2019-06-01T09:57:56Z</time>
</trkpt>
<trkpt lat="49.575078" lon="10.562957">
<ele>296</ele>
<time>2019-06-01T09:58:01Z</time>
</trkpt>
<trkpt lat="49.57534" lon="10.563077">
<ele>296</ele>
<time>2019-06-01T09:58:06Z</time>
</trkpt>
<trkpt lat="49.575603" lon="10.563133">
<ele>296</ele>
<time>2019-06-01T09:58:11Z</time>
</trkpt>
<trkpt lat="49.575852" lon="10.563177">
<ele>296</ele>
<time>2019-06-01T09:58:16Z</time>
</trkpt>
<trkpt lat="49.576062" lon="10.563253">
<ele>297</ele>
<time>2019-06-01T09:58:21Z</time>
</trkpt>
<trkpt lat="49.576237" lon="10.563378">
<ele>298</ele>
<time>2019-06-01T09:58:26Z</time>
</trkpt>
<trkpt lat="49.576407" lon="10.563598">
<ele>300</ele>
<time>2019-06-01T09:58:32Z</time>
</trkpt>
<trkpt lat="49.57645" lon="10.56377">
<ele>301</ele>
<time>2019-06-01T09:58:37Z</time>
</trkpt>
<trkpt lat="49.576477" lon="10.563943">
<ele>301</ele>
<time>2019-06-01T09:58:42Z</time>
</trkpt>
<trkpt lat="49.576607" lon="10.564005">
<ele>301</ele>
<time>2019-06-01T09:58:47Z</time>
</trkpt>
<trkpt lat="49.576733" lon="10.564157">
<ele>301</ele>
<time>2019-06-01T09:58:52Z</time>
</trkpt>
<trkpt lat="49.576733" lon="10.564572">
<ele>301</ele>
<time>2019-06-01T09:58:58Z</time>
</trkpt>
<trkpt lat="49.576722" lon="10.564987">
<ele>301</ele>
<time>2019-06-01T09:59:03Z</time>
</trkpt>
<trkpt lat="49.57671" lon="10.565482">
<ele>299</ele>
<time>2019-06-01T09:59:08Z</time>
</trkpt>
<trkpt lat="49.576823" lon="10.565933">
<ele>298</ele>
<time>2019-06-01T09:59:13Z</time>
</trkpt>
<trkpt lat="49.577135" lon="10.566207">
<ele>296</ele>
<time>2019-06-01T09:59:18Z</time>
</trkpt>
<trkpt lat="49.577473" lon="10.56632">
<ele>295</ele>
<time>2019-06-01T09:59:23Z</time>
</trkpt>
<trkpt lat="49.577812" lon="10.566442">
<ele>295</ele>
<time>2019-06-01T09:59:28Z</time>
</trkpt>
<trkpt lat="49.578208" lon="10.566638">
<ele>295</ele>
<time>2019-06-01T09:59:34Z</time>
</trkpt>
<trkpt lat="49.578528" lon="10.566857">
<ele>294</ele>
<time>2019-06-01T09:59:39Z</time>
</trkpt>
<trkpt lat="49.578818" lon="10.567157">
<ele>294</ele>
<time>2019-06-01T09:59:44Z</time>
</trkpt>
<trkpt lat="49.579068" lon="10.567482">
<ele>294</ele>
<time>2019-06-01T09:59:49Z</time>
</trkpt>
<trkpt lat="49.579292" lon="10.567777">
<ele>294</ele>
<time>2019-06-01T09:59:54Z</time>
</trkpt>
<trkpt lat="49.579503" lon="10.567925">
<ele>294</ele>
<time>2019-06-01T09:59:59Z</time>
</trkpt>
<trkpt lat="49.579612" lon="10.568232">
<ele>294</ele>
<time>2019-06-01T10:00:04Z</time>
</trkpt>
<trkpt lat="49.579715" lon="10.568553">
<ele>294</ele>
<time>2019-06-01T10:00:09Z</time>
</trkpt>
<trkpt lat="49.57984" lon="10.568907">
<ele>294</ele>
<time>2019-06-01T10:00:14Z</time>
</trkpt>
<trkpt lat="49.579975" lon="10.569275">
<ele>294</ele>
<time>2019-06-01T10:00:19Z</time>
</trkpt>
<trkpt lat="49.580142" lon="10.569733">
<ele>294</ele>
<time>2019-06-01T10:00:25Z</time>
</trkpt>
<trkpt lat="49.580275" lon="10.570078">
<ele>294</ele>
<time>2019-06-01T10:00:30Z</time>
</trkpt>
<trkpt lat="49.580385" lon="10.570382">
<ele>294</ele>
<time>2019-06-01T10:00:35Z</time>
</trkpt>
<trkpt lat="49.580595" lon="10.570707">
<ele>294</ele>
<time>2019-06-01T10:00:41Z</time>
</trkpt>
<trkpt lat="49.58081" lon="10.57099">
<ele>294</ele>
<time>2019-06-01T10:00:46Z</time>
</trkpt>
<trkpt lat="49.58102" lon="10.571307">
<ele>294</ele>
<time>2019-06-01T10:00:51Z</time>
</trkpt>
<trkpt lat="49.58123" lon="10.5716">
<ele>294</ele>
<time>2019-06-01T10:00:56Z</time>
</trkpt>
<trkpt lat="49.58145" lon="10.571892">
<ele>294</ele>
<time>2019-06-01T10:01:01Z</time>
</trkpt>
<trkpt lat="49.581668" lon="10.572187">
<ele>294</ele>
<time>2019-06-01T10:01:06Z</time>
</trkpt>
<trkpt lat="49.581878" lon="10.572448">
<ele>294</ele>
<time>2019-06-01T10:01:11Z</time>
</trkpt>
<trkpt lat="49.582128" lon="10.572765">
<ele>294</ele>
<time>2019-06-01T10:01:17Z</time>
</trkpt>
<trkpt lat="49.582337" lon="10.573187">
<ele>294</ele>
<time>2019-06-01T10:01:23Z</time>
</trkpt>
<trkpt lat="49.58246" lon="10.57371">
<ele>294</ele>
<time>2019-06-01T10:01:29Z</time>
</trkpt>
<trkpt lat="49.582458" lon="10.574202">
<ele>294</ele>
<time>2019-06-01T10:01:34Z</time>
</trkpt>
<trkpt lat="49.582413" lon="10.574695">
<ele>294</ele>
<time>2019-06-01T10:01:39Z</time>
</trkpt>
<trkpt lat="49.582368" lon="10.575168">
<ele>294</ele>
<time>2019-06-01T10:01:44Z</time>
</trkpt>
<trkpt lat="49.582325" lon="10.575643">
<ele>294</ele>
<time>2019-06-01T10:01:49Z</time>
</trkpt>
<trkpt lat="49.582272" lon="10.5762">
<ele>294</ele>
<time>2019-06-01T10:01:55Z</time>
</trkpt>
<trkpt lat="49.58222" lon="10.576748">
<ele>294</ele>
<time>2019-06-01T10:02:01Z</time>
</trkpt>
<trkpt lat="49.58218" lon="10.577197">
<ele>294</ele>
<time>2019-06-01T10:02:06Z</time>
</trkpt>
<trkpt lat="49.582128" lon="10.577647">
<ele>294</ele>
<time>2019-06-01T10:02:11Z</time>
</trkpt>
<trkpt lat="49.582008" lon="10.578187">
<ele>294</ele>
<time>2019-06-01T10:02:17Z</time>
</trkpt>
<trkpt lat="49.581835" lon="10.578712">
<ele>293</ele>
<time>2019-06-01T10:02:23Z</time>
</trkpt>
<trkpt lat="49.581682" lon="10.57912">
<ele>293</ele>
<time>2019-06-01T10:02:28Z</time>
</trkpt>
<trkpt lat="49.581528" lon="10.579542">
<ele>293</ele>
<time>2019-06-01T10:02:33Z</time>
</trkpt>
<trkpt lat="49.58138" lon="10.580075">
<ele>293</ele>
<time>2019-06-01T10:02:39Z</time>
</trkpt>
<trkpt lat="49.581298" lon="10.580522">
<ele>293</ele>
<time>2019-06-01T10:02:44Z</time>
</trkpt>
<trkpt lat="49.581252" lon="10.580978">
<ele>293</ele>
<time>2019-06-01T10:02:49Z</time>
</trkpt>
<trkpt lat="49.581235" lon="10.581427">
<ele>293</ele>
<time>2019-06-01T10:02:54Z</time>
</trkpt>
<trkpt lat="49.581267" lon="10.581867">
<ele>293</ele>
<time>2019-06-01T10:02:59Z</time>
</trkpt>
<trkpt lat="49.581318" lon="10.582328">
<ele>293</ele>
<time>2019-06-01T10:03:04Z</time>
</trkpt>
<trkpt lat="49.581388" lon="10.582778">
<ele>293</ele>
<time>2019-06-01T10:03:09Z</time>
</trkpt>
<trkpt lat="49.581488" lon="10.583297">
<ele>293</ele>
<time>2019-06-01T10:03:15Z</time>
</trkpt>
<trkpt lat="49.5816" lon="10.583783">
<ele>293</ele>
<time>2019-06-01T10:03:21Z</time>
</trkpt>
<trkpt lat="49.581688" lon="10.584153">
<ele>293</ele>
<time>2019-06-01T10:03:26Z</time>
</trkpt>
<trkpt lat="49.581787" lon="10.584543">
<ele>293</ele>
<time>2019-06-01T10:03:31Z</time>
</trkpt>
<trkpt lat="49.581892" lon="10.58496">
<ele>293</ele>
<time>2019-06-01T10:03:36Z</time>
</trkpt>
<trkpt lat="49.581997" lon="10.58539">
<ele>293</ele>
<time>2019-06-01T10:03:41Z</time>
</trkpt>
<trkpt lat="49.582105" lon="10.58581">
<ele>293</ele>
<time>2019-06-01T10:03:46Z</time>
</trkpt>
<trkpt lat="49.582215" lon="10.586335">
<ele>293</ele>
<time>2019-06-01T10:03:52Z</time>
</trkpt>
<trkpt lat="49.5822" lon="10.586783">
<ele>292</ele>
<time>2019-06-01T10:03:57Z</time>
</trkpt>
<trkpt lat="49.582077" lon="10.587337">
<ele>292</ele>
<time>2019-06-01T10:04:03Z</time>
</trkpt>
<trkpt lat="49.58197" lon="10.587795">
<ele>292</ele>
<time>2019-06-01T10:04:08Z</time>
</trkpt>
<trkpt lat="49.581872" lon="10.588242">
<ele>292</ele>
<time>2019-06-01T10:04:13Z</time>
</trkpt>
<trkpt lat="49.581782" lon="10.588715">
<ele>292</ele>
<time>2019-06-01T10:04:18Z</time>
</trkpt>
<trkpt lat="49.581698" lon="10.589173">
<ele>292</ele>
<time>2019-06-01T10:04:23Z</time>
</trkpt>
<trkpt lat="49.581618" lon="10.589733">
<ele>292</ele>
<time>2019-06-01T10:04:29Z</time>
</trkpt>
<trkpt lat="49.581535" lon="10.59031">
<ele>292</ele>
<time>2019-06-01T10:04:35Z</time>
</trkpt>
<trkpt lat="49.581463" lon="10.590795">
<ele>292</ele>
<time>2019-06-01T10:04:40Z</time>
</trkpt>
<trkpt lat="49.581372" lon="10.591255">
<ele>292</ele>
<time>2019-06-01T10:04:45Z</time>
</trkpt>
<trkpt lat="49.581265" lon="10.59169">
<ele>292</ele>
<time>2019-06-01T10:04:50Z</time>
</trkpt>
<trkpt lat="49.581172" lon="10.592115">
<ele>292</ele>
<time>2019-06-01T10:04:55Z</time>
</trkpt>
<trkpt lat="49.581133" lon="10.592682">
<ele>292</ele>
<time>2019-06-01T10:05:01Z</time>
</trkpt>
<trkpt lat="49.581143" lon="10.593125">
<ele>292</ele>
<time>2019-06-01T10:05:06Z</time>
</trkpt>
<trkpt lat="49.58115" lon="10.593523">
<ele>292</ele>
<time>2019-06-01T10:05:11Z</time>
</trkpt>
<trkpt lat="49.581068" lon="10.593883">
<ele>292</ele>
<time>2019-06-01T10:05:16Z</time>
</trkpt>
<trkpt lat="49.580948" lon="10.594252">
<ele>292</ele>
<time>2019-06-01T10:05:21Z</time>
</trkpt>
<trkpt lat="49.580878" lon="10.594645">
<ele>291</ele>
<time>2019-06-01T10:05:26Z</time>
</trkpt>
<trkpt lat="49.580868" lon="10.595033">
<ele>291</ele>
<time>2019-06-01T10:05:31Z</time>
</trkpt>
<trkpt lat="49.580903" lon="10.595552">
<ele>291</ele>
<time>2019-06-01T10:05:37Z</time>
</trkpt>
<trkpt lat="49.580942" lon="10.596108">
<ele>291</ele>
<time>2019-06-01T10:05:43Z</time>
</trkpt>
<trkpt lat="49.580978" lon="10.596612">
<ele>291</ele>
<time>2019-06-01T10:05:49Z</time>
</trkpt>
<trkpt lat="49.581002" lon="10.596913">
<ele>291</ele>
<time>2019-06-01T10:05:54Z</time>
</trkpt>
<trkpt lat="49.580953" lon="10.597103">
<ele>292</ele>
<time>2019-06-01T10:05:59Z</time>
</trkpt>
<trkpt lat="49.580733" lon="10.597183">
<ele>293</ele>
<time>2019-06-01T10:06:05Z</time>
</trkpt>
<trkpt lat="49.580502" lon="10.597245">
<ele>293</ele>
<time>2019-06-01T10:06:10Z</time>
</trkpt>
<trkpt lat="49.580288" lon="10.597343">
<ele>293</ele>
<time>2019-06-01T10:06:15Z</time>
</trkpt>
<trkpt lat="49.580077" lon="10.59747">
<ele>293</ele>
<time>2019-06-01T10:06:20Z</time>
</trkpt>
<trkpt lat="49.579887" lon="10.597695">
<ele>292</ele>
<time>2019-06-01T10:06:25Z</time>
</trkpt>
<trkpt lat="49.579845" lon="10.598062">
<ele>292</ele>
<time>2019-06-01T10:06:30Z</time>
</trkpt>
<trkpt lat="49.579927" lon="10.598445">
<ele>292</ele>
<time>2019-06-01T10:06:35Z</time>
</trkpt>
<trkpt lat="49.58001" lon="10.598752">
<ele>292</ele>
<time>2019-06-01T10:06:40Z</time>
</trkpt>
<trkpt lat="49.580053" lon="10.598868">
<ele>292</ele>
<time>2019-06-01T10:06:45Z</time>
</trkpt>
<trkpt lat="49.580067" lon="10.599028">
<ele>292</ele>
<time>2019-06-01T10:06:50Z</time>
</trkpt>
<trkpt lat="49.57996" lon="10.599223">
<ele>291</ele>
<time>2019-06-01T10:06:55Z</time>
</trkpt>
<trkpt lat="49.579798" lon="10.59946">
<ele>291</ele>
<time>2019-06-01T10:07:01Z</time>
</trkpt>
<trkpt lat="49.579673" lon="10.599682">
<ele>291</ele>
<time>2019-06-01T10:07:06Z</time>
</trkpt>
<trkpt lat="49.5795" lon="10.599923">
<ele>291</ele>
<time>2019-06-01T10:07:11Z</time>
</trkpt>
<trkpt lat="49.579332" lon="10.60016">
<ele>291</ele>
<time>2019-06-01T10:07:17Z</time>
</trkpt>
<trkpt lat="49.579247" lon="10.600275">
<ele>291</ele>
<time>2019-06-01T10:07:22Z</time>
</trkpt>
<trkpt lat="49.579232" lon="10.600288">
<ele>291</ele>
<time>2019-06-01T10:07:27Z</time>
</trkpt>
<trkpt lat="49.579232" lon="10.60029">
<ele>291</ele>
<time>2019-06-01T10:07:33Z</time>
</trkpt>
<trkpt lat="49.579232" lon="10.600288">
<ele>291</ele>
<time>2019-06-01T10:07:38Z</time>
</trkpt>
<trkpt lat="49.579225" lon="10.600298">
<ele>291</ele>
<time>2019-06-01T10:07:55Z</time>
</trkpt>
<trkpt lat="49.579137" lon="10.600425">
<ele>291</ele>
<time>2019-06-01T10:08:00Z</time>
</trkpt>
<trkpt lat="49.578998" lon="10.60057">
<ele>291</ele>
<time>2019-06-01T10:08:05Z</time>
</trkpt>
<trkpt lat="49.578858" lon="10.600757">
<ele>291</ele>
<time>2019-06-01T10:08:10Z</time>
</trkpt>
<trkpt lat="49.578695" lon="10.601042">
<ele>291</ele>
<time>2019-06-01T10:08:16Z</time>
</trkpt>
<trkpt lat="49.578537" lon="10.601268">
<ele>291</ele>
<time>2019-06-01T10:08:21Z</time>
</trkpt>
<trkpt lat="49.578377" lon="10.601503">
<ele>292</ele>
<time>2019-06-01T10:08:27Z</time>
</trkpt>
<trkpt lat="49.578378" lon="10.601753">
<ele>292</ele>
<time>2019-06-01T10:08:32Z</time>
</trkpt>
<trkpt lat="49.578427" lon="10.601793">
<ele>292</ele>
<time>2019-06-01T10:08:37Z</time>
</trkpt>
<trkpt lat="49.578428" lon="10.60179">
<ele>292</ele>
<time>2019-06-01T10:08:43Z</time>
</trkpt>
<trkpt lat="49.57843" lon="10.601788">
<ele>292</ele>
<time>2019-06-01T10:09:10Z</time>
</trkpt>
<trkpt lat="49.57843" lon="10.60179">
<ele>292</ele>
<time>2019-06-01T10:09:15Z</time>
</trkpt>
<trkpt lat="49.57848" lon="10.601743">
<ele>292</ele>
<time>2019-06-01T10:09:20Z</time>
</trkpt>
<trkpt lat="49.578525" lon="10.601515">
<ele>292</ele>
<time>2019-06-01T10:09:26Z</time>
</trkpt>
<trkpt lat="49.578422" lon="10.601533">
<ele>292</ele>
<time>2019-06-01T10:09:31Z</time>
</trkpt>
<trkpt lat="49.578423" lon="10.601755">
<ele>292</ele>
<time>2019-06-01T10:09:36Z</time>
</trkpt>
<trkpt lat="49.578448" lon="10.601992">
<ele>292</ele>
<time>2019-06-01T10:09:41Z</time>
</trkpt>
<trkpt lat="49.578425" lon="10.60209">
<ele>292</ele>
<time>2019-06-01T10:09:46Z</time>
</trkpt>
<trkpt lat="49.578418" lon="10.602128">
<ele>292</ele>
<time>2019-06-01T10:09:52Z</time>
</trkpt>
<trkpt lat="49.578418" lon="10.60213">
<ele>292</ele>
<time>2019-06-01T10:09:57Z</time>
</trkpt>
<trkpt lat="49.57842" lon="10.602128">
<ele>292</ele>
<time>2019-06-01T10:10:07Z</time>
</trkpt>
<trkpt lat="49.57842" lon="10.60213">
<ele>292</ele>
<time>2019-06-01T10:10:13Z</time>
</trkpt>
<trkpt lat="49.578422" lon="10.60213">
<ele>292</ele>
<time>2019-06-01T10:10:18Z</time>
</trkpt>
<trkpt lat="49.57842" lon="10.60213">
<ele>292</ele>
<time>2019-06-01T10:10:35Z</time>
</trkpt>
<trkpt lat="49.57842" lon="10.602132">
<ele>292</ele>
<time>2019-06-01T10:10:51Z</time>
</trkpt>
<trkpt lat="49.578422" lon="10.602132">
<ele>292</ele>
<time>2019-06-01T10:10:56Z</time>
</trkpt>
<trkpt lat="49.578422" lon="10.602127">
<ele>292</ele>
<time>2019-06-01T10:11:23Z</time>
</trkpt>
<trkpt lat="49.578422" lon="10.602128">
<ele>292</ele>
<time>2019-06-01T10:11:43Z</time>
</trkpt>
<trkpt lat="49.578422" lon="10.60213">
<ele>292</ele>
<time>2019-06-01T10:12:03Z</time>
</trkpt>
<trkpt lat="49.578423" lon="10.60213">
<ele>292</ele>
<time>2019-06-01T10:12:08Z</time>
</trkpt>
<trkpt lat="49.578423" lon="10.602128">
<ele>292</ele>
<time>2019-06-01T10:12:35Z</time>
</trkpt>
<trkpt lat="49.578423" lon="10.60213">
<ele>292</ele>
<time>2019-06-01T10:13:15Z</time>
</trkpt>
<trkpt lat="49.578435" lon="10.60215">
<ele>292</ele>
<time>2019-06-01T10:13:50Z</time>
</trkpt>
<trkpt lat="49.57848" lon="10.60234">
<ele>292</ele>
<time>2019-06-01T10:13:55Z</time>
</trkpt>
<trkpt lat="49.578583" lon="10.602597">
<ele>292</ele>
<time>2019-06-01T10:14:00Z</time>
</trkpt>
<trkpt lat="49.578752" lon="10.602882">
<ele>292</ele>
<time>2019-06-01T10:14:05Z</time>
</trkpt>
<trkpt lat="49.578912" lon="10.603148">
<ele>292</ele>
<time>2019-06-01T10:14:10Z</time>
</trkpt>
<trkpt lat="49.579025" lon="10.603435">
<ele>291</ele>
<time>2019-06-01T10:14:15Z</time>
</trkpt>
<trkpt lat="49.579103" lon="10.603745">
<ele>291</ele>
<time>2019-06-01T10:14:20Z</time>
</trkpt>
<trkpt lat="49.579183" lon="10.604033">
<ele>291</ele>
<time>2019-06-01T10:14:25Z</time>
</trkpt>
<trkpt lat="49.579217" lon="10.604192">
<ele>291</ele>
<time>2019-06-01T10:14:30Z</time>
</trkpt>
<trkpt lat="49.57918" lon="10.604302">
<ele>291</ele>
<time>2019-06-01T10:14:35Z</time>
</trkpt>
<trkpt lat="49.579033" lon="10.604408">
<ele>291</ele>
<time>2019-06-01T10:14:40Z</time>
</trkpt>
<trkpt lat="49.578853" lon="10.604493">
<ele>291</ele>
<time>2019-06-01T10:14:45Z</time>
</trkpt>
<trkpt lat="49.578705" lon="10.604572">
<ele>291</ele>
<time>2019-06-01T10:14:50Z</time>
</trkpt>
<trkpt lat="49.578605" lon="10.604593">
<ele>291</ele>
<time>2019-06-01T10:14:55Z</time>
</trkpt>
<trkpt lat="49.578548" lon="10.604492">
<ele>291</ele>
<time>2019-06-01T10:15:00Z</time>
</trkpt>
<trkpt lat="49.578495" lon="10.604425">
<ele>291</ele>
<time>2019-06-01T10:15:05Z</time>
</trkpt>
<trkpt lat="49.578485" lon="10.604408">
<ele>291</ele>
<time>2019-06-01T10:15:10Z</time>
</trkpt>
<trkpt lat="49.578485" lon="10.604405">
<ele>291</ele>
<time>2019-06-01T10:15:15Z</time>
</trkpt>
<trkpt lat="49.578488" lon="10.604405">
<ele>291</ele>
<time>2019-06-01T10:15:20Z</time>
</trkpt>
<trkpt lat="49.578495" lon="10.604408">
<ele>291</ele>
<time>2019-06-01T10:15:25Z</time>
</trkpt>
<trkpt lat="49.578497" lon="10.604408">
<ele>291</ele>
<time>2019-06-01T10:16:05Z</time>
</trkpt>
<trkpt lat="49.578497" lon="10.604407">
<ele>291</ele>
<time>2019-06-01T10:16:10Z</time>
</trkpt>
<trkpt lat="49.578497" lon="10.604408">
<ele>291</ele>
<time>2019-06-01T10:16:50Z</time>
</trkpt>
<trkpt lat="49.578495" lon="10.604408">
<ele>291</ele>
<time>2019-06-01T10:17:00Z</time>
</trkpt>
<trkpt lat="49.578497" lon="10.60441">
<ele>291</ele>
<time>2019-06-01T10:17:15Z</time>
</trkpt>
<trkpt lat="49.578495" lon="10.604423">
<ele>291</ele>
<time>2019-06-01T10:17:20Z</time>
</trkpt>
<trkpt lat="49.578498" lon="10.604435">
<ele>291</ele>
<time>2019-06-01T10:17:25Z</time>
</trkpt>
<trkpt lat="49.578505" lon="10.604437">
<ele>291</ele>
<time>2019-06-01T10:17:30Z</time>
</trkpt>
<trkpt lat="49.578515" lon="10.604463">
<ele>291</ele>
<time>2019-06-01T10:17:35Z</time>
</trkpt>
<trkpt lat="49.578518" lon="10.604465">
<ele>291</ele>
<time>2019-06-01T10:17:40Z</time>
</trkpt>
<trkpt lat="49.578548" lon="10.604542">
<ele>291</ele>
<time>2019-06-01T10:17:45Z</time>
</trkpt>
<trkpt lat="49.578537" lon="10.604603">
<ele>291</ele>
<time>2019-06-01T10:17:50Z</time>
</trkpt>
<trkpt lat="49.578445" lon="10.604663">
<ele>291</ele>
<time>2019-06-01T10:17:55Z</time>
</trkpt>
<trkpt lat="49.57842" lon="10.604687">
<ele>291</ele>
<time>2019-06-01T10:18:00Z</time>
</trkpt>
<trkpt lat="49.578425" lon="10.604697">
<ele>291</ele>
<time>2019-06-01T10:18:05Z</time>
</trkpt>
<trkpt lat="49.578432" lon="10.604705">
<ele>291</ele>
<time>2019-06-01T10:18:10Z</time>
</trkpt>
<trkpt lat="49.578443" lon="10.604715">
<ele>291</ele>
<time>2019-06-01T10:18:15Z</time>
</trkpt>
<trkpt lat="49.578453" lon="10.604725">
<ele>291</ele>
<time>2019-06-01T10:18:20Z</time>
</trkpt>
<trkpt lat="49.578462" lon="10.60473">
<ele>291</ele>
<time>2019-06-01T10:18:25Z</time>
</trkpt>
<trkpt lat="49.578467" lon="10.604737">
<ele>291</ele>
<time>2019-06-01T10:18:30Z</time>
</trkpt>
<trkpt lat="49.578472" lon="10.60474">
<ele>291</ele>
<time>2019-06-01T10:18:35Z</time>
</trkpt>
<trkpt lat="49.578473" lon="10.604745">
<ele>291</ele>
<time>2019-06-01T10:18:40Z</time>
</trkpt>
<trkpt lat="49.578473" lon="10.604743">
<ele>291</ele>
<time>2019-06-01T10:18:45Z</time>
</trkpt>
<trkpt lat="49.57847" lon="10.604742">
<ele>291</ele>
<time>2019-06-01T10:18:50Z</time>
</trkpt>
<trkpt lat="49.578465" lon="10.604747">
<ele>291</ele>
<time>2019-06-01T10:18:55Z</time>
</trkpt>
<trkpt lat="49.578445" lon="10.604752">
<ele>291</ele>
<time>2019-06-01T10:19:00Z</time>
</trkpt>
<trkpt lat="49.578302" lon="10.604845">
<ele>291</ele>
<time>2019-06-01T10:19:05Z</time>
</trkpt>
<trkpt lat="49.578307" lon="10.605077">
<ele>291</ele>
<time>2019-06-01T10:19:10Z</time>
</trkpt>
<trkpt lat="49.578342" lon="10.605275">
<ele>291</ele>
<time>2019-06-01T10:19:15Z</time>
</trkpt>
<trkpt lat="49.578303" lon="10.605397">
<ele>291</ele>
<time>2019-06-01T10:19:20Z</time>
</trkpt>
<trkpt lat="49.578263" lon="10.60543">
<ele>291</ele>
<time>2019-06-01T10:19:25Z</time>
</trkpt>
<trkpt lat="49.578247" lon="10.605447">
<ele>291</ele>
<time>2019-06-01T10:19:30Z</time>
</trkpt>
<trkpt lat="49.578245" lon="10.605445">
<ele>291</ele>
<time>2019-06-01T10:19:35Z</time>
</trkpt>
<trkpt lat="49.578247" lon="10.605447">
<ele>291</ele>
<time>2019-06-01T10:19:40Z</time>
</trkpt>
<trkpt lat="49.578245" lon="10.605448">
<ele>292</ele>
<time>2019-06-01T10:19:45Z</time>
</trkpt>
<trkpt lat="49.578245" lon="10.60545">
<ele>292</ele>
<time>2019-06-01T10:19:50Z</time>
</trkpt>
<trkpt lat="49.57824" lon="10.60545">
<ele>292</ele>
<time>2019-06-01T10:19:55Z</time>
</trkpt>
<trkpt lat="49.578235" lon="10.605453">
<ele>292</ele>
<time>2019-06-01T10:20:00Z</time>
</trkpt>
<trkpt lat="49.578235" lon="10.605452">
<ele>292</ele>
<time>2019-06-01T10:20:10Z</time>
</trkpt>
<trkpt lat="49.57821" lon="10.605478">
<ele>292</ele>
<time>2019-06-01T10:20:20Z</time>
</trkpt>
<trkpt lat="49.578153" lon="10.605517">
<ele>292</ele>
<time>2019-06-01T10:20:25Z</time>
</trkpt>
<trkpt lat="49.578108" lon="10.605603">
<ele>292</ele>
<time>2019-06-01T10:20:30Z</time>
</trkpt>
<trkpt lat="49.578018" lon="10.605765">
<ele>292</ele>
<time>2019-06-01T10:20:35Z</time>
</trkpt>
<trkpt lat="49.578035" lon="10.60601">
<ele>292</ele>
<time>2019-06-01T10:20:40Z</time>
</trkpt>
<trkpt lat="49.578073" lon="10.606292">
<ele>292</ele>
<time>2019-06-01T10:20:45Z</time>
</trkpt>
<trkpt lat="49.578117" lon="10.606552">
<ele>292</ele>
<time>2019-06-01T10:20:50Z</time>
</trkpt>
<trkpt lat="49.578162" lon="10.606837">
<ele>292</ele>
<time>2019-06-01T10:20:55Z</time>
</trkpt>
<trkpt lat="49.5782" lon="10.607127">
<ele>292</ele>
<time>2019-06-01T10:21:00Z</time>
</trkpt>
<trkpt lat="49.578238" lon="10.60743">
<ele>292</ele>
<time>2019-06-01T10:21:05Z</time>
</trkpt>
<trkpt lat="49.578258" lon="10.607745">
<ele>292</ele>
<time>2019-06-01T10:21:10Z</time>
</trkpt>
<trkpt lat="49.57825" lon="10.608032">
<ele>292</ele>
<time>2019-06-01T10:21:15Z</time>
</trkpt>
<trkpt lat="49.578275" lon="10.608292">
<ele>292</ele>
<time>2019-06-01T10:21:20Z</time>
</trkpt>
<trkpt lat="49.578372" lon="10.608503">
<ele>292</ele>
<time>2019-06-01T10:21:25Z</time>
</trkpt>
<trkpt lat="49.578567" lon="10.608568">
<ele>292</ele>
<time>2019-06-01T10:21:30Z</time>
</trkpt>
<trkpt lat="49.578688" lon="10.60862">
<ele>292</ele>
<time>2019-06-01T10:21:35Z</time>
</trkpt>
<trkpt lat="49.578792" lon="10.608622">
<ele>292</ele>
<time>2019-06-01T10:21:40Z</time>
</trkpt>
<trkpt lat="49.578907" lon="10.608517">
<ele>292</ele>
<time>2019-06-01T10:21:45Z</time>
</trkpt>
<trkpt lat="49.579038" lon="10.608388">
<ele>292</ele>
<time>2019-06-01T10:21:50Z</time>
</trkpt>
<trkpt lat="49.579157" lon="10.60833">
<ele>292</ele>
<time>2019-06-01T10:21:55Z</time>
</trkpt>
<trkpt lat="49.579188" lon="10.608353">
<ele>292</ele>
<time>2019-06-01T10:22:00Z</time>
</trkpt>
<trkpt lat="49.579215" lon="10.608338">
<ele>292</ele>
<time>2019-06-01T10:22:20Z</time>
</trkpt>
<trkpt lat="49.57927" lon="10.608242">
<ele>292</ele>
<time>2019-06-01T10:22:25Z</time>
</trkpt>
<trkpt lat="49.5793" lon="10.607955">
<ele>292</ele>
<time>2019-06-01T10:22:30Z</time>
</trkpt>
<trkpt lat="49.579353" lon="10.607683">
<ele>292</ele>
<time>2019-06-01T10:22:35Z</time>
</trkpt>
<trkpt lat="49.579487" lon="10.60754">
<ele>292</ele>
<time>2019-06-01T10:22:40Z</time>
</trkpt>
<trkpt lat="49.579678" lon="10.607708">
<ele>292</ele>
<time>2019-06-01T10:22:45Z</time>
</trkpt>
<trkpt lat="49.579762" lon="10.607867">
<ele>292</ele>
<time>2019-06-01T10:22:50Z</time>
</trkpt>
<trkpt lat="49.579813" lon="10.608022">
<ele>292</ele>
<time>2019-06-01T10:22:55Z</time>
</trkpt>
<trkpt lat="49.579897" lon="10.608137">
<ele>292</ele>
<time>2019-06-01T10:23:00Z</time>
</trkpt>
<trkpt lat="49.579978" lon="10.608275">
<ele>292</ele>
<time>2019-06-01T10:23:05Z</time>
</trkpt>
<trkpt lat="49.580037" lon="10.608443">
<ele>292</ele>
<time>2019-06-01T10:23:10Z</time>
</trkpt>
<trkpt lat="49.58009" lon="10.60858">
<ele>292</ele>
<time>2019-06-01T10:23:15Z</time>
</trkpt>
<trkpt lat="49.580155" lon="10.608702">
<ele>293</ele>
<time>2019-06-01T10:23:20Z</time>
</trkpt>
<trkpt lat="49.580187" lon="10.608788">
<ele>293</ele>
<time>2019-06-01T10:23:25Z</time>
</trkpt>
<trkpt lat="49.580177" lon="10.608818">
<ele>293</ele>
<time>2019-06-01T10:23:30Z</time>
</trkpt>
<trkpt lat="49.580182" lon="10.608827">
<ele>293</ele>
<time>2019-06-01T10:23:35Z</time>
</trkpt>
<trkpt lat="49.580182" lon="10.608835">
<ele>293</ele>
<time>2019-06-01T10:23:40Z</time>
</trkpt>
<trkpt lat="49.580182" lon="10.608842">
<ele>293</ele>
<time>2019-06-01T10:23:45Z</time>
</trkpt>
<trkpt lat="49.580187" lon="10.608852">
<ele>293</ele>
<time>2019-06-01T10:23:50Z</time>
</trkpt>
<trkpt lat="49.580192" lon="10.608855">
<ele>293</ele>
<time>2019-06-01T10:23:55Z</time>
</trkpt>
<trkpt lat="49.580192" lon="10.608857">
<ele>293</ele>
<time>2019-06-01T10:24:00Z</time>
</trkpt>
<trkpt lat="49.580192" lon="10.60886">
<ele>293</ele>
<time>2019-06-01T10:24:05Z</time>
</trkpt>
<trkpt lat="49.580195" lon="10.608867">
<ele>293</ele>
<time>2019-06-01T10:24:10Z</time>
</trkpt>
<trkpt lat="49.580208" lon="10.608882">
<ele>293</ele>
<time>2019-06-01T10:24:15Z</time>
</trkpt>
<trkpt lat="49.580213" lon="10.608888">
<ele>293</ele>
<time>2019-06-01T10:24:20Z</time>
</trkpt>
<trkpt lat="49.580213" lon="10.60889">
<ele>293</ele>
<time>2019-06-01T10:25:00Z</time>
</trkpt>
<trkpt lat="49.580212" lon="10.608892">
<ele>293</ele>
<time>2019-06-01T10:25:45Z</time>
</trkpt>
<trkpt lat="49.580212" lon="10.608893">
<ele>293</ele>
<time>2019-06-01T10:25:50Z</time>
</trkpt>
<trkpt lat="49.580213" lon="10.608893">
<ele>293</ele>
<time>2019-06-01T10:26:00Z</time>
</trkpt>
<trkpt lat="49.580213" lon="10.608895">
<ele>293</ele>
<time>2019-06-01T10:26:05Z</time>
</trkpt>
<trkpt lat="49.580198" lon="10.608858">
<ele>293</ele>
<time>2019-06-01T10:27:05Z</time>
</trkpt>
<trkpt lat="49.580133" lon="10.608665">
<ele>293</ele>
<time>2019-06-01T10:27:10Z</time>
</trkpt>
<trkpt lat="49.580032" lon="10.608602">
<ele>293</ele>
<time>2019-06-01T10:27:15Z</time>
</trkpt>
<trkpt lat="49.579942" lon="10.608425">
<ele>293</ele>
<time>2019-06-01T10:27:20Z</time>
</trkpt>
<trkpt lat="49.579888" lon="10.608255">
<ele>293</ele>
<time>2019-06-01T10:27:25Z</time>
</trkpt>
<trkpt lat="49.579825" lon="10.60804">
<ele>293</ele>
<time>2019-06-01T10:27:30Z</time>
</trkpt>
<trkpt lat="49.57967" lon="10.607795">
<ele>293</ele>
<time>2019-06-01T10:27:35Z</time>
</trkpt>
<trkpt lat="49.579475" lon="10.607445">
<ele>293</ele>
<time>2019-06-01T10:27:40Z</time>
</trkpt>
<trkpt lat="49.57928" lon="10.607148">
<ele>292</ele>
<time>2019-06-01T10:27:45Z</time>
</trkpt>
<trkpt lat="49.579138" lon="10.606845">
<ele>292</ele>
<time>2019-06-01T10:27:50Z</time>
</trkpt>
<trkpt lat="49.579027" lon="10.606568">
<ele>292</ele>
<time>2019-06-01T10:27:55Z</time>
</trkpt>
<trkpt lat="49.578968" lon="10.606403">
<ele>292</ele>
<time>2019-06-01T10:28:00Z</time>
</trkpt>
<trkpt lat="49.578978" lon="10.606398">
<ele>292</ele>
<time>2019-06-01T10:28:05Z</time>
</trkpt>
<trkpt lat="49.578983" lon="10.606398">
<ele>292</ele>
<time>2019-06-01T10:28:10Z</time>
</trkpt>
<trkpt lat="49.578988" lon="10.606387">
<ele>292</ele>
<time>2019-06-01T10:28:15Z</time>
</trkpt>
<trkpt lat="49.578912" lon="10.606195">
<ele>292</ele>
<time>2019-06-01T10:28:20Z</time>
</trkpt>
<trkpt lat="49.57882" lon="10.60601">
<ele>292</ele>
<time>2019-06-01T10:28:25Z</time>
</trkpt>
<trkpt lat="49.57876" lon="10.60584">
<ele>292</ele>
<time>2019-06-01T10:28:30Z</time>
</trkpt>
<trkpt lat="49.578708" lon="10.605748">
<ele>292</ele>
<time>2019-06-01T10:28:35Z</time>
</trkpt>
<trkpt lat="49.578683" lon="10.605727">
<ele>292</ele>
<time>2019-06-01T10:28:40Z</time>
</trkpt>
<trkpt lat="49.578688" lon="10.605725">
<ele>292</ele>
<time>2019-06-01T10:28:45Z</time>
</trkpt>
<trkpt lat="49.578688" lon="10.605723">
<ele>292</ele>
<time>2019-06-01T10:28:50Z</time>
</trkpt>
<trkpt lat="49.578687" lon="10.605723">
<ele>292</ele>
<time>2019-06-01T10:29:30Z</time>
</trkpt>
<trkpt lat="49.578573" lon="10.605588">
<ele>292</ele>
<time>2019-06-01T10:29:40Z</time>
</trkpt>
<trkpt lat="49.57847" lon="10.605377">
<ele>292</ele>
<time>2019-06-01T10:29:45Z</time>
</trkpt>
<trkpt lat="49.578383" lon="10.605132">
<ele>292</ele>
<time>2019-06-01T10:29:50Z</time>
</trkpt>
<trkpt lat="49.57842" lon="10.604867">
<ele>292</ele>
<time>2019-06-01T10:29:55Z</time>
</trkpt>
<trkpt lat="49.578625" lon="10.604688">
<ele>292</ele>
<time>2019-06-01T10:30:00Z</time>
</trkpt>
<trkpt lat="49.578837" lon="10.604558">
<ele>292</ele>
<time>2019-06-01T10:30:05Z</time>
</trkpt>
<trkpt lat="49.579065" lon="10.604432">
<ele>292</ele>
<time>2019-06-01T10:30:10Z</time>
</trkpt>
<trkpt lat="49.579288" lon="10.604312">
<ele>292</ele>
<time>2019-06-01T10:30:15Z</time>
</trkpt>
<trkpt lat="49.57951" lon="10.60422">
<ele>292</ele>
<time>2019-06-01T10:30:20Z</time>
</trkpt>
<trkpt lat="49.579753" lon="10.604172">
<ele>292</ele>
<time>2019-06-01T10:30:25Z</time>
</trkpt>
<trkpt lat="49.579987" lon="10.604163">
<ele>292</ele>
<time>2019-06-01T10:30:30Z</time>
</trkpt>
<trkpt lat="49.58021" lon="10.604185">
<ele>292</ele>
<time>2019-06-01T10:30:35Z</time>
</trkpt>
<trkpt lat="49.580385" lon="10.604157">
<ele>292</ele>
<time>2019-06-01T10:30:40Z</time>
</trkpt>
<trkpt lat="49.580503" lon="10.604078">
<ele>292</ele>
<time>2019-06-01T10:30:45Z</time>
</trkpt>
<trkpt lat="49.580533" lon="10.604038">
<ele>292</ele>
<time>2019-06-01T10:30:50Z</time>
</trkpt>
<trkpt lat="49.580542" lon="10.604032">
<ele>292</ele>
<time>2019-06-01T10:30:55Z</time>
</trkpt>
<trkpt lat="49.580545" lon="10.604025">
<ele>292</ele>
<time>2019-06-01T10:31:05Z</time>
</trkpt>
<trkpt lat="49.580542" lon="10.604005">
<ele>292</ele>
<time>2019-06-01T10:31:10Z</time>
</trkpt>
<trkpt lat="49.580495" lon="10.603947">
<ele>292</ele>
<time>2019-06-01T10:31:15Z</time>
</trkpt>
<trkpt lat="49.580443" lon="10.603852">
<ele>292</ele>
<time>2019-06-01T10:31:20Z</time>
</trkpt>
<trkpt lat="49.58045" lon="10.60385">
<ele>292</ele>
<time>2019-06-01T10:31:25Z</time>
</trkpt>
<trkpt lat="49.580407" lon="10.603785">
<ele>292</ele>
<time>2019-06-01T10:31:30Z</time>
</trkpt>
<trkpt lat="49.580313" lon="10.60362">
<ele>292</ele>
<time>2019-06-01T10:31:35Z</time>
</trkpt>
<trkpt lat="49.580175" lon="10.603418">
<ele>292</ele>
<time>2019-06-01T10:31:40Z</time>
</trkpt>
<trkpt lat="49.580043" lon="10.603185">
<ele>292</ele>
<time>2019-06-01T10:31:45Z</time>
</trkpt>
<trkpt lat="49.579923" lon="10.602925">
<ele>292</ele>
<time>2019-06-01T10:31:50Z</time>
</trkpt>
<trkpt lat="49.579813" lon="10.60266">
<ele>292</ele>
<time>2019-06-01T10:31:55Z</time>
</trkpt>
<trkpt lat="49.579675" lon="10.602388">
<ele>292</ele>
<time>2019-06-01T10:32:00Z</time>
</trkpt>
<trkpt lat="49.579558" lon="10.602113">
<ele>292</ele>
<time>2019-06-01T10:32:05Z</time>
</trkpt>
<trkpt lat="49.579432" lon="10.601825">
<ele>292</ele>
<time>2019-06-01T10:32:10Z</time>
</trkpt>
<trkpt lat="49.579313" lon="10.601565">
<ele>292</ele>
<time>2019-06-01T10:32:15Z</time>
</trkpt>
<trkpt lat="49.579213" lon="10.601325">
<ele>292</ele>
<time>2019-06-01T10:32:20Z</time>
</trkpt>
<trkpt lat="49.579133" lon="10.60115">
<ele>292</ele>
<time>2019-06-01T10:32:25Z</time>
</trkpt>
<trkpt lat="49.579073" lon="10.601012">
<ele>292</ele>
<time>2019-06-01T10:32:30Z</time>
</trkpt>
<trkpt lat="49.579057" lon="10.60097">
<ele>292</ele>
<time>2019-06-01T10:32:35Z</time>
</trkpt>
<trkpt lat="49.579055" lon="10.600965">
<ele>292</ele>
<time>2019-06-01T10:32:40Z</time>
</trkpt>
<trkpt lat="49.579053" lon="10.60096">
<ele>292</ele>
<time>2019-06-01T10:32:45Z</time>
</trkpt>
<trkpt lat="49.579053" lon="10.600958">
<ele>292</ele>
<time>2019-06-01T10:32:50Z</time>
</trkpt>
<trkpt lat="49.579025" lon="10.60092">
<ele>292</ele>
<time>2019-06-01T10:32:55Z</time>
</trkpt>
<trkpt lat="49.578952" lon="10.600813">
<ele>292</ele>
<time>2019-06-01T10:33:00Z</time>
</trkpt>
<trkpt lat="49.578885" lon="10.60067">
<ele>292</ele>
<time>2019-06-01T10:33:05Z</time>
</trkpt>
<trkpt lat="49.578817" lon="10.600495">
<ele>292</ele>
<time>2019-06-01T10:33:10Z</time>
</trkpt>
<trkpt lat="49.578738" lon="10.600207">
<ele>292</ele>
<time>2019-06-01T10:33:15Z</time>
</trkpt>
<trkpt lat="49.578637" lon="10.599908">
<ele>292</ele>
<time>2019-06-01T10:33:20Z</time>
</trkpt>
<trkpt lat="49.578537" lon="10.599593">
<ele>292</ele>
<time>2019-06-01T10:33:25Z</time>
</trkpt>
<trkpt lat="49.578412" lon="10.599228">
<ele>292</ele>
<time>2019-06-01T10:33:30Z</time>
</trkpt>
<trkpt lat="49.57829" lon="10.598882">
<ele>292</ele>
<time>2019-06-01T10:33:35Z</time>
</trkpt>
<trkpt lat="49.578155" lon="10.598468">
<ele>292</ele>
<time>2019-06-01T10:33:41Z</time>
</trkpt>
<trkpt lat="49.57804" lon="10.598137">
<ele>292</ele>
<time>2019-06-01T10:33:46Z</time>
</trkpt>
<trkpt lat="49.577867" lon="10.597857">
<ele>292</ele>
<time>2019-06-01T10:33:51Z</time>
</trkpt>
<trkpt lat="49.577668" lon="10.597453">
<ele>292</ele>
<time>2019-06-01T10:33:57Z</time>
</trkpt>
<trkpt lat="49.577595" lon="10.597112">
<ele>292</ele>
<time>2019-06-01T10:34:02Z</time>
</trkpt>
<trkpt lat="49.577508" lon="10.596733">
<ele>292</ele>
<time>2019-06-01T10:34:08Z</time>
</trkpt>
<trkpt lat="49.57749" lon="10.596538">
<ele>292</ele>
<time>2019-06-01T10:34:14Z</time>
</trkpt>
<trkpt lat="49.577495" lon="10.59646">
<ele>292</ele>
<time>2019-06-01T10:34:19Z</time>
</trkpt>
<trkpt lat="49.577492" lon="10.59643">
<ele>292</ele>
<time>2019-06-01T10:34:24Z</time>
</trkpt>
<trkpt lat="49.57749" lon="10.596408">
<ele>292</ele>
<time>2019-06-01T10:35:21Z</time>
</trkpt>
<trkpt lat="49.577478" lon="10.596272">
<ele>292</ele>
<time>2019-06-01T10:35:26Z</time>
</trkpt>
<trkpt lat="49.577462" lon="10.596133">
<ele>292</ele>
<time>2019-06-01T10:35:31Z</time>
</trkpt>
<trkpt lat="49.577407" lon="10.59597">
<ele>293</ele>
<time>2019-06-01T10:35:36Z</time>
</trkpt>
<trkpt lat="49.57736" lon="10.595683">
<ele>293</ele>
<time>2019-06-01T10:35:41Z</time>
</trkpt>
<trkpt lat="49.577308" lon="10.595382">
<ele>293</ele>
<time>2019-06-01T10:35:46Z</time>
</trkpt>
<trkpt lat="49.577283" lon="10.595048">
<ele>293</ele>
<time>2019-06-01T10:35:51Z</time>
</trkpt>
<trkpt lat="49.577328" lon="10.594587">
<ele>293</ele>
<time>2019-06-01T10:35:57Z</time>
</trkpt>
<trkpt lat="49.57735" lon="10.594188">
<ele>294</ele>
<time>2019-06-01T10:36:02Z</time>
</trkpt>
<trkpt lat="49.577357" lon="10.593842">
<ele>294</ele>
<time>2019-06-01T10:36:08Z</time>
</trkpt>
<trkpt lat="49.577392" lon="10.593683">
<ele>294</ele>
<time>2019-06-01T10:36:13Z</time>
</trkpt>
<trkpt lat="49.57745" lon="10.593547">
<ele>294</ele>
<time>2019-06-01T10:36:19Z</time>
</trkpt>
<trkpt lat="49.577522" lon="10.59341">
<ele>294</ele>
<time>2019-06-01T10:36:24Z</time>
</trkpt>
<trkpt lat="49.5776" lon="10.59321">
<ele>294</ele>
<time>2019-06-01T10:36:29Z</time>
</trkpt>
<trkpt lat="49.577702" lon="10.592893">
<ele>294</ele>
<time>2019-06-01T10:36:35Z</time>
</trkpt>
<trkpt lat="49.577832" lon="10.592535">
<ele>294</ele>
<time>2019-06-01T10:36:41Z</time>
</trkpt>
<trkpt lat="49.577948" lon="10.592182">
<ele>294</ele>
<time>2019-06-01T10:36:47Z</time>
</trkpt>
<trkpt lat="49.578032" lon="10.59192">
<ele>294</ele>
<time>2019-06-01T10:36:52Z</time>
</trkpt>
<trkpt lat="49.578143" lon="10.591557">
<ele>294</ele>
<time>2019-06-01T10:36:58Z</time>
</trkpt>
<trkpt lat="49.578238" lon="10.591258">
<ele>294</ele>
<time>2019-06-01T10:37:03Z</time>
</trkpt>
<trkpt lat="49.578337" lon="10.590935">
<ele>294</ele>
<time>2019-06-01T10:37:08Z</time>
</trkpt>
<trkpt lat="49.57843" lon="10.590587">
<ele>294</ele>
<time>2019-06-01T10:37:14Z</time>
</trkpt>
<trkpt lat="49.578487" lon="10.590313">
<ele>294</ele>
<time>2019-06-01T10:37:19Z</time>
</trkpt>
<trkpt lat="49.57853" lon="10.589975">
<ele>294</ele>
<time>2019-06-01T10:37:24Z</time>
</trkpt>
<trkpt lat="49.578545" lon="10.589668">
<ele>294</ele>
<time>2019-06-01T10:37:29Z</time>
</trkpt>
<trkpt lat="49.578543" lon="10.589343">
<ele>294</ele>
<time>2019-06-01T10:37:34Z</time>
</trkpt>
<trkpt lat="49.578558" lon="10.58904">
<ele>294</ele>
<time>2019-06-01T10:37:39Z</time>
</trkpt>
<trkpt lat="49.57856" lon="10.588763">
<ele>294</ele>
<time>2019-06-01T10:37:44Z</time>
</trkpt>
<trkpt lat="49.578533" lon="10.588373">
<ele>294</ele>
<time>2019-06-01T10:37:50Z</time>
</trkpt>
<trkpt lat="49.578493" lon="10.588042">
<ele>294</ele>
<time>2019-06-01T10:37:55Z</time>
</trkpt>
<trkpt lat="49.578443" lon="10.587708">
<ele>294</ele>
<time>2019-06-01T10:38:00Z</time>
</trkpt>
<trkpt lat="49.578335" lon="10.587415">
<ele>294</ele>
<time>2019-06-01T10:38:05Z</time>
</trkpt>
<trkpt lat="49.578257" lon="10.587147">
<ele>294</ele>
<time>2019-06-01T10:38:10Z</time>
</trkpt>
<trkpt lat="49.578212" lon="10.586925">
<ele>294</ele>
<time>2019-06-01T10:38:15Z</time>
</trkpt>
<trkpt lat="49.5782" lon="10.586822">
<ele>294</ele>
<time>2019-06-01T10:38:20Z</time>
</trkpt>
<trkpt lat="49.578195" lon="10.586795">
<ele>294</ele>
<time>2019-06-01T10:38:25Z</time>
</trkpt>
<trkpt lat="49.578203" lon="10.586775">
<ele>294</ele>
<time>2019-06-01T10:38:30Z</time>
</trkpt>
<trkpt lat="49.578267" lon="10.586697">
<ele>294</ele>
<time>2019-06-01T10:38:35Z</time>
</trkpt>
<trkpt lat="49.578265" lon="10.58663">
<ele>294</ele>
<time>2019-06-01T10:38:40Z</time>
</trkpt>
<trkpt lat="49.57823" lon="10.58652">
<ele>294</ele>
<time>2019-06-01T10:38:45Z</time>
</trkpt>
<trkpt lat="49.578163" lon="10.586353">
<ele>294</ele>
<time>2019-06-01T10:38:50Z</time>
</trkpt>
<trkpt lat="49.578092" lon="10.586113">
<ele>294</ele>
<time>2019-06-01T10:38:55Z</time>
</trkpt>
<trkpt lat="49.57803" lon="10.585898">
<ele>294</ele>
<time>2019-06-01T10:39:00Z</time>
</trkpt>
<trkpt lat="49.577962" lon="10.58563">
<ele>294</ele>
<time>2019-06-01T10:39:05Z</time>
</trkpt>
<trkpt lat="49.577877" lon="10.585315">
<ele>294</ele>
<time>2019-06-01T10:39:10Z</time>
</trkpt>
<trkpt lat="49.577793" lon="10.584962">
<ele>294</ele>
<time>2019-06-01T10:39:15Z</time>
</trkpt>
<trkpt lat="49.577722" lon="10.584582">
<ele>295</ele>
<time>2019-06-01T10:39:20Z</time>
</trkpt>
<trkpt lat="49.577665" lon="10.584212">
<ele>295</ele>
<time>2019-06-01T10:39:25Z</time>
</trkpt>
<trkpt lat="49.577608" lon="10.58386">
<ele>295</ele>
<time>2019-06-01T10:39:30Z</time>
</trkpt>
<trkpt lat="49.577562" lon="10.583507">
<ele>295</ele>
<time>2019-06-01T10:39:35Z</time>
</trkpt>
<trkpt lat="49.577517" lon="10.583145">
<ele>295</ele>
<time>2019-06-01T10:39:40Z</time>
</trkpt>
<trkpt lat="49.577482" lon="10.582775">
<ele>295</ele>
<time>2019-06-01T10:39:45Z</time>
</trkpt>
<trkpt lat="49.577453" lon="10.582375">
<ele>295</ele>
<time>2019-06-01T10:39:50Z</time>
</trkpt>
<trkpt lat="49.577437" lon="10.581943">
<ele>295</ele>
<time>2019-06-01T10:39:55Z</time>
</trkpt>
<trkpt lat="49.577445" lon="10.581555">
<ele>295</ele>
<time>2019-06-01T10:40:00Z</time>
</trkpt>
<trkpt lat="49.57746" lon="10.58116">
<ele>295</ele>
<time>2019-06-01T10:40:05Z</time>
</trkpt>
<trkpt lat="49.577443" lon="10.580765">
<ele>295</ele>
<time>2019-06-01T10:40:10Z</time>
</trkpt>
<trkpt lat="49.57738" lon="10.580445">
<ele>295</ele>
<time>2019-06-01T10:40:15Z</time>
</trkpt>
<trkpt lat="49.577287" lon="10.58013">
<ele>295</ele>
<time>2019-06-01T10:40:20Z</time>
</trkpt>
<trkpt lat="49.577113" lon="10.579743">
<ele>295</ele>
<time>2019-06-01T10:40:26Z</time>
</trkpt>
<trkpt lat="49.576967" lon="10.579398">
<ele>296</ele>
<time>2019-06-01T10:40:31Z</time>
</trkpt>
<trkpt lat="49.576837" lon="10.579052">
<ele>296</ele>
<time>2019-06-01T10:40:36Z</time>
</trkpt>
<trkpt lat="49.576732" lon="10.578703">
<ele>296</ele>
<time>2019-06-01T10:40:41Z</time>
</trkpt>
<trkpt lat="49.57664" lon="10.578335">
<ele>296</ele>
<time>2019-06-01T10:40:46Z</time>
</trkpt>
<trkpt lat="49.576545" lon="10.577948">
<ele>296</ele>
<time>2019-06-01T10:40:51Z</time>
</trkpt>
<trkpt lat="49.576407" lon="10.577577">
<ele>296</ele>
<time>2019-06-01T10:40:56Z</time>
</trkpt>
<trkpt lat="49.576238" lon="10.5772">
<ele>296</ele>
<time>2019-06-01T10:41:01Z</time>
</trkpt>
<trkpt lat="49.57609" lon="10.576792">
<ele>296</ele>
<time>2019-06-01T10:41:06Z</time>
</trkpt>
<trkpt lat="49.57594" lon="10.576382">
<ele>296</ele>
<time>2019-06-01T10:41:11Z</time>
</trkpt>
<trkpt lat="49.575807" lon="10.576008">
<ele>296</ele>
<time>2019-06-01T10:41:16Z</time>
</trkpt>
<trkpt lat="49.575672" lon="10.575653">
<ele>296</ele>
<time>2019-06-01T10:41:21Z</time>
</trkpt>
<trkpt lat="49.575547" lon="10.575315">
<ele>297</ele>
<time>2019-06-01T10:41:26Z</time>
</trkpt>
<trkpt lat="49.575422" lon="10.575023">
<ele>297</ele>
<time>2019-06-01T10:41:31Z</time>
</trkpt>
<trkpt lat="49.575305" lon="10.57473">
<ele>298</ele>
<time>2019-06-01T10:41:36Z</time>
</trkpt>
<trkpt lat="49.575207" lon="10.574462">
<ele>299</ele>
<time>2019-06-01T10:41:41Z</time>
</trkpt>
<trkpt lat="49.57511" lon="10.574187">
<ele>300</ele>
<time>2019-06-01T10:41:46Z</time>
</trkpt>
<trkpt lat="49.574995" lon="10.573905">
<ele>301</ele>
<time>2019-06-01T10:41:51Z</time>
</trkpt>
<trkpt lat="49.574867" lon="10.573633">
<ele>301</ele>
<time>2019-06-01T10:41:56Z</time>
</trkpt>
<trkpt lat="49.57476" lon="10.573343">
<ele>301</ele>
<time>2019-06-01T10:42:01Z</time>
</trkpt>
<trkpt lat="49.574607" lon="10.573105">
<ele>301</ele>
<time>2019-06-01T10:42:06Z</time>
</trkpt>
<trkpt lat="49.574453" lon="10.572865">
<ele>301</ele>
<time>2019-06-01T10:42:11Z</time>
</trkpt>
<trkpt lat="49.57429" lon="10.572605">
<ele>301</ele>
<time>2019-06-01T10:42:16Z</time>
</trkpt>
<trkpt lat="49.574148" lon="10.572365">
<ele>302</ele>
<time>2019-06-01T10:42:21Z</time>
</trkpt>
<trkpt lat="49.574008" lon="10.572115">
<ele>302</ele>
<time>2019-06-01T10:42:26Z</time>
</trkpt>
<trkpt lat="49.573892" lon="10.571912">
<ele>302</ele>
<time>2019-06-01T10:42:31Z</time>
</trkpt>
<trkpt lat="49.573773" lon="10.571752">
<ele>302</ele>
<time>2019-06-01T10:42:36Z</time>
</trkpt>
<trkpt lat="49.573643" lon="10.571583">
<ele>303</ele>
<time>2019-06-01T10:42:41Z</time>
</trkpt>
<trkpt lat="49.573522" lon="10.571308">
<ele>303</ele>
<time>2019-06-01T10:42:46Z</time>
</trkpt>
<trkpt lat="49.573403" lon="10.571048">
<ele>303</ele>
<time>2019-06-01T10:42:51Z</time>
</trkpt>
<trkpt lat="49.573293" lon="10.570818">
<ele>303</ele>
<time>2019-06-01T10:42:56Z</time>
</trkpt>
<trkpt lat="49.573192" lon="10.570617">
<ele>302</ele>
<time>2019-06-01T10:43:01Z</time>
</trkpt>
<trkpt lat="49.573107" lon="10.570442">
<ele>302</ele>
<time>2019-06-01T10:43:06Z</time>
</trkpt>
<trkpt lat="49.573053" lon="10.570332">
<ele>302</ele>
<time>2019-06-01T10:43:11Z</time>
</trkpt>
<trkpt lat="49.573023" lon="10.570238">
<ele>301</ele>
<time>2019-06-01T10:43:16Z</time>
</trkpt>
<trkpt lat="49.572973" lon="10.570192">
<ele>301</ele>
<time>2019-06-01T10:43:21Z</time>
</trkpt>
<trkpt lat="49.572875" lon="10.570097">
<ele>301</ele>
<time>2019-06-01T10:43:26Z</time>
</trkpt>
<trkpt lat="49.572807" lon="10.569985">
<ele>301</ele>
<time>2019-06-01T10:43:31Z</time>
</trkpt>
<trkpt lat="49.572675" lon="10.569802">
<ele>301</ele>
<time>2019-06-01T10:43:36Z</time>
</trkpt>
<trkpt lat="49.572575" lon="10.569528">
<ele>301</ele>
<time>2019-06-01T10:43:41Z</time>
</trkpt>
<trkpt lat="49.57248" lon="10.569267">
<ele>301</ele>
<time>2019-06-01T10:43:46Z</time>
</trkpt>
<trkpt lat="49.572383" lon="10.569027">
<ele>301</ele>
<time>2019-06-01T10:43:51Z</time>
</trkpt>
<trkpt lat="49.57244" lon="10.568723">
<ele>301</ele>
<time>2019-06-01T10:43:56Z</time>
</trkpt>
<trkpt lat="49.572647" lon="10.568287">
<ele>300</ele>
<time>2019-06-01T10:44:01Z</time>
</trkpt>
<trkpt lat="49.572937" lon="10.56787">
<ele>298</ele>
<time>2019-06-01T10:44:06Z</time>
</trkpt>
<trkpt lat="49.573215" lon="10.567483">
<ele>298</ele>
<time>2019-06-01T10:44:11Z</time>
</trkpt>
<trkpt lat="49.573473" lon="10.567117">
<ele>298</ele>
<time>2019-06-01T10:44:16Z</time>
</trkpt>
<trkpt lat="49.57372" lon="10.566782">
<ele>297</ele>
<time>2019-06-01T10:44:21Z</time>
</trkpt>
<trkpt lat="49.573935" lon="10.56647">
<ele>297</ele>
<time>2019-06-01T10:44:26Z</time>
</trkpt>
<trkpt lat="49.574153" lon="10.566183">
<ele>297</ele>
<time>2019-06-01T10:44:31Z</time>
</trkpt>
<trkpt lat="49.57438" lon="10.565958">
<ele>297</ele>
<time>2019-06-01T10:44:36Z</time>
</trkpt>
<trkpt lat="49.574658" lon="10.565872">
<ele>297</ele>
<time>2019-06-01T10:44:41Z</time>
</trkpt>
<trkpt lat="49.574913" lon="10.565715">
<ele>297</ele>
<time>2019-06-01T10:44:46Z</time>
</trkpt>
<trkpt lat="49.575113" lon="10.565523">
<ele>297</ele>
<time>2019-06-01T10:44:51Z</time>
</trkpt>
<trkpt lat="49.57529" lon="10.565333">
<ele>298</ele>
<time>2019-06-01T10:44:56Z</time>
</trkpt>
<trkpt lat="49.575452" lon="10.56513">
<ele>299</ele>
<time>2019-06-01T10:45:01Z</time>
</trkpt>
<trkpt lat="49.575625" lon="10.564918">
<ele>299</ele>
<time>2019-06-01T10:45:06Z</time>
</trkpt>
<trkpt lat="49.575798" lon="10.56471">
<ele>300</ele>
<time>2019-06-01T10:45:11Z</time>
</trkpt>
<trkpt lat="49.575985" lon="10.564492">
<ele>301</ele>
<time>2019-06-01T10:45:16Z</time>
</trkpt>
<trkpt lat="49.576172" lon="10.564298">
<ele>301</ele>
<time>2019-06-01T10:45:21Z</time>
</trkpt>
<trkpt lat="49.576347" lon="10.56414">
<ele>302</ele>
<time>2019-06-01T10:45:26Z</time>
</trkpt>
<trkpt lat="49.576482" lon="10.563985">
<ele>302</ele>
<time>2019-06-01T10:45:31Z</time>
</trkpt>
<trkpt lat="49.576448" lon="10.563737">
<ele>303</ele>
<time>2019-06-01T10:45:36Z</time>
</trkpt>
<trkpt lat="49.576345" lon="10.56347">
<ele>303</ele>
<time>2019-06-01T10:45:41Z</time>
</trkpt>
<trkpt lat="49.576088" lon="10.563247">
<ele>303</ele>
<time>2019-06-01T10:45:46Z</time>
</trkpt>
<trkpt lat="49.57561" lon="10.5631">
<ele>300</ele>
<time>2019-06-01T10:45:52Z</time>
</trkpt>
<trkpt lat="49.575222" lon="10.562988">
<ele>300</ele>
<time>2019-06-01T10:45:57Z</time>
</trkpt>
<trkpt lat="49.574883" lon="10.562767">
<ele>299</ele>
<time>2019-06-01T10:46:02Z</time>
</trkpt>
<trkpt lat="49.574603" lon="10.562493">
<ele>298</ele>
<time>2019-06-01T10:46:07Z</time>
</trkpt>
<trkpt lat="49.57437" lon="10.562217">
<ele>298</ele>
<time>2019-06-01T10:46:12Z</time>
</trkpt>
<trkpt lat="49.574157" lon="10.56194">
<ele>298</ele>
<time>2019-06-01T10:46:17Z</time>
</trkpt>
<trkpt lat="49.573942" lon="10.561673">
<ele>298</ele>
<time>2019-06-01T10:46:22Z</time>
</trkpt>
<trkpt lat="49.573747" lon="10.56143">
<ele>298</ele>
<time>2019-06-01T10:46:27Z</time>
</trkpt>
<trkpt lat="49.573508" lon="10.561122">
<ele>298</ele>
<time>2019-06-01T10:46:33Z</time>
</trkpt>
<trkpt lat="49.573333" lon="10.560865">
<ele>298</ele>
<time>2019-06-01T10:46:38Z</time>
</trkpt>
<trkpt lat="49.573155" lon="10.560633">
<ele>298</ele>
<time>2019-06-01T10:46:43Z</time>
</trkpt>
<trkpt lat="49.573005" lon="10.560503">
<ele>297</ele>
<time>2019-06-01T10:46:48Z</time>
</trkpt>
<trkpt lat="49.572908" lon="10.560322">
<ele>297</ele>
<time>2019-06-01T10:46:53Z</time>
</trkpt>
<trkpt lat="49.572952" lon="10.559967">
<ele>297</ele>
<time>2019-06-01T10:46:58Z</time>
</trkpt>
<trkpt lat="49.572972" lon="10.559588">
<ele>297</ele>
<time>2019-06-01T10:47:03Z</time>
</trkpt>
<trkpt lat="49.573023" lon="10.559098">
<ele>297</ele>
<time>2019-06-01T10:47:09Z</time>
</trkpt>
<trkpt lat="49.573058" lon="10.558702">
<ele>297</ele>
<time>2019-06-01T10:47:14Z</time>
</trkpt>
<trkpt lat="49.573088" lon="10.55831">
<ele>297</ele>
<time>2019-06-01T10:47:19Z</time>
</trkpt>
<trkpt lat="49.57311" lon="10.557923">
<ele>297</ele>
<time>2019-06-01T10:47:24Z</time>
</trkpt>
<trkpt lat="49.573153" lon="10.557407">
<ele>297</ele>
<time>2019-06-01T10:47:30Z</time>
</trkpt>
<trkpt lat="49.573177" lon="10.556998">
<ele>297</ele>
<time>2019-06-01T10:47:35Z</time>
</trkpt>
<trkpt lat="49.573158" lon="10.55666">
<ele>297</ele>
<time>2019-06-01T10:47:41Z</time>
</trkpt>
<trkpt lat="49.573105" lon="10.556302">
<ele>297</ele>
<time>2019-06-01T10:47:47Z</time>
</trkpt>
<trkpt lat="49.573148" lon="10.555928">
<ele>297</ele>
<time>2019-06-01T10:47:52Z</time>
</trkpt>
<trkpt lat="49.573213" lon="10.555553">
<ele>297</ele>
<time>2019-06-01T10:47:57Z</time>
</trkpt>
<trkpt lat="49.573275" lon="10.555152">
<ele>297</ele>
<time>2019-06-01T10:48:02Z</time>
</trkpt>
<trkpt lat="49.57335" lon="10.554663">
<ele>297</ele>
<time>2019-06-01T10:48:08Z</time>
</trkpt>
<trkpt lat="49.573418" lon="10.554273">
<ele>297</ele>
<time>2019-06-01T10:48:13Z</time>
</trkpt>
<trkpt lat="49.573505" lon="10.553897">
<ele>297</ele>
<time>2019-06-01T10:48:18Z</time>
</trkpt>
<trkpt lat="49.573577" lon="10.553555">
<ele>297</ele>
<time>2019-06-01T10:48:23Z</time>
</trkpt>
<trkpt lat="49.573578" lon="10.553235">
<ele>297</ele>
<time>2019-06-01T10:48:28Z</time>
</trkpt>
<trkpt lat="49.57335" lon="10.553065">
<ele>297</ele>
<time>2019-06-01T10:48:33Z</time>
</trkpt>
<trkpt lat="49.57311" lon="10.552918">
<ele>297</ele>
<time>2019-06-01T10:48:38Z</time>
</trkpt>
<trkpt lat="49.57285" lon="10.552917">
<ele>297</ele>
<time>2019-06-01T10:48:43Z</time>
</trkpt>
<trkpt lat="49.572595" lon="10.553017">
<ele>297</ele>
<time>2019-06-01T10:48:48Z</time>
</trkpt>
<trkpt lat="49.572332" lon="10.553122">
<ele>297</ele>
<time>2019-06-01T10:48:53Z</time>
</trkpt>
<trkpt lat="49.572062" lon="10.553227">
<ele>297</ele>
<time>2019-06-01T10:48:58Z</time>
</trkpt>
<trkpt lat="49.571785" lon="10.553348">
<ele>297</ele>
<time>2019-06-01T10:49:03Z</time>
</trkpt>
<trkpt lat="49.571512" lon="10.553448">
<ele>296</ele>
<time>2019-06-01T10:49:08Z</time>
</trkpt>
<trkpt lat="49.571223" lon="10.553543">
<ele>296</ele>
<time>2019-06-01T10:49:13Z</time>
</trkpt>
<trkpt lat="49.570922" lon="10.553575">
<ele>296</ele>
<time>2019-06-01T10:49:18Z</time>
</trkpt>
<trkpt lat="49.57064" lon="10.553538">
<ele>296</ele>
<time>2019-06-01T10:49:23Z</time>
</trkpt>
<trkpt lat="49.57044" lon="10.553447">
<ele>296</ele>
<time>2019-06-01T10:49:28Z</time>
</trkpt>
<trkpt lat="49.570335" lon="10.553362">
<ele>296</ele>
<time>2019-06-01T10:49:34Z</time>
</trkpt>
<trkpt lat="49.570333" lon="10.553355">
<ele>296</ele>
<time>2019-06-01T10:49:39Z</time>
</trkpt>
<trkpt lat="49.570322" lon="10.553345">
<ele>296</ele>
<time>2019-06-01T10:49:44Z</time>
</trkpt>
<trkpt lat="49.570258" lon="10.553263">
<ele>296</ele>
<time>2019-06-01T10:49:49Z</time>
</trkpt>
<trkpt lat="49.570145" lon="10.553133">
<ele>296</ele>
<time>2019-06-01T10:49:54Z</time>
</trkpt>
<trkpt lat="49.570062" lon="10.552998">
<ele>296</ele>
<time>2019-06-01T10:49:59Z</time>
</trkpt>
<trkpt lat="49.57003" lon="10.552895">
<ele>296</ele>
<time>2019-06-01T10:50:04Z</time>
</trkpt>
<trkpt lat="49.570045" lon="10.552888">
<ele>296</ele>
<time>2019-06-01T10:50:09Z</time>
</trkpt>
<trkpt lat="49.570048" lon="10.552888">
<ele>296</ele>
<time>2019-06-01T10:50:14Z</time>
</trkpt>
<trkpt lat="49.57004" lon="10.552903">
<ele>296</ele>
<time>2019-06-01T10:50:49Z</time>
</trkpt>
<trkpt lat="49.570042" lon="10.552927">
<ele>296</ele>
<time>2019-06-01T10:50:54Z</time>
</trkpt>
<trkpt lat="49.570048" lon="10.552927">
<ele>296</ele>
<time>2019-06-01T10:50:59Z</time>
</trkpt>
<trkpt lat="49.57005" lon="10.552927">
<ele>296</ele>
<time>2019-06-01T10:51:04Z</time>
</trkpt>
<trkpt lat="49.57005" lon="10.552925">
<ele>296</ele>
<time>2019-06-01T10:51:09Z</time>
</trkpt>
<trkpt lat="49.570048" lon="10.552925">
<ele>296</ele>
<time>2019-06-01T10:51:14Z</time>
</trkpt>
<trkpt lat="49.570047" lon="10.552925">
<ele>296</ele>
<time>2019-06-01T10:51:20Z</time>
</trkpt>
<trkpt lat="49.570048" lon="10.552927">
<ele>296</ele>
<time>2019-06-01T10:51:25Z</time>
</trkpt>
<trkpt lat="49.570042" lon="10.55293">
<ele>296</ele>
<time>2019-06-01T10:51:41Z</time>
</trkpt>
<trkpt lat="49.57004" lon="10.552932">
<ele>296</ele>
<time>2019-06-01T10:51:46Z</time>
</trkpt>
<trkpt lat="49.57004" lon="10.552933">
<ele>296</ele>
<time>2019-06-01T10:51:51Z</time>
</trkpt>
<trkpt lat="49.570042" lon="10.552935">
<ele>296</ele>
<time>2019-06-01T10:51:57Z</time>
</trkpt>
<trkpt lat="49.570047" lon="10.552938">
<ele>296</ele>
<time>2019-06-01T10:52:03Z</time>
</trkpt>
<trkpt lat="49.570047" lon="10.55294">
<ele>296</ele>
<time>2019-06-01T10:52:18Z</time>
</trkpt>
<trkpt lat="49.570048" lon="10.55292">
<ele>296</ele>
<time>2019-06-01T10:52:24Z</time>
</trkpt>
<trkpt lat="49.570042" lon="10.5529">
<ele>296</ele>
<time>2019-06-01T10:52:29Z</time>
</trkpt>
<trkpt lat="49.57004" lon="10.5529">
<ele>296</ele>
<time>2019-06-01T10:52:34Z</time>
</trkpt>
<trkpt lat="49.570042" lon="10.552902">
<ele>296</ele>
<time>2019-06-01T10:52:40Z</time>
</trkpt>
<trkpt lat="49.570043" lon="10.552898">
<ele>296</ele>
<time>2019-06-01T10:52:45Z</time>
</trkpt>
<trkpt lat="49.570045" lon="10.5529">
<ele>296</ele>
<time>2019-06-01T10:52:57Z</time>
</trkpt>
<trkpt lat="49.570045" lon="10.552898">
<ele>296</ele>
<time>2019-06-01T10:53:02Z</time>
</trkpt>
<trkpt lat="49.570045" lon="10.552902">
<ele>296</ele>
<time>2019-06-01T10:53:27Z</time>
</trkpt>
<trkpt lat="49.570045" lon="10.552905">
<ele>296</ele>
<time>2019-06-01T10:53:32Z</time>
</trkpt>
<trkpt lat="49.570043" lon="10.552903">
<ele>296</ele>
<time>2019-06-01T10:53:37Z</time>
</trkpt>
<trkpt lat="49.570037" lon="10.5529">
<ele>296</ele>
<time>2019-06-01T10:53:43Z</time>
</trkpt>
<trkpt lat="49.57002" lon="10.552887">
<ele>296</ele>
<time>2019-06-01T10:53:48Z</time>
</trkpt>
<trkpt lat="49.569948" lon="10.552793">
<ele>296</ele>
<time>2019-06-01T10:53:53Z</time>
</trkpt>
<trkpt lat="49.56985" lon="10.552587">
<ele>296</ele>
<time>2019-06-01T10:53:58Z</time>
</trkpt>
<trkpt lat="49.569743" lon="10.552308">
<ele>296</ele>
<time>2019-06-01T10:54:03Z</time>
</trkpt>
<trkpt lat="49.569638" lon="10.551982">
<ele>296</ele>
<time>2019-06-01T10:54:08Z</time>
</trkpt>
<trkpt lat="49.569515" lon="10.551572">
<ele>296</ele>
<time>2019-06-01T10:54:14Z</time>
</trkpt>
<trkpt lat="49.569417" lon="10.551213">
<ele>296</ele>
<time>2019-06-01T10:54:19Z</time>
</trkpt>
<trkpt lat="49.569282" lon="10.55077">
<ele>296</ele>
<time>2019-06-01T10:54:25Z</time>
</trkpt>
<trkpt lat="49.569148" lon="10.550307">
<ele>296</ele>
<time>2019-06-01T10:54:31Z</time>
</trkpt>
<trkpt lat="49.569042" lon="10.549927">
<ele>296</ele>
<time>2019-06-01T10:54:36Z</time>
</trkpt>
<trkpt lat="49.568932" lon="10.549553">
<ele>296</ele>
<time>2019-06-01T10:54:41Z</time>
</trkpt>
<trkpt lat="49.568857" lon="10.549103">
<ele>296</ele>
<time>2019-06-01T10:54:47Z</time>
</trkpt>
<trkpt lat="49.568817" lon="10.548757">
<ele>296</ele>
<time>2019-06-01T10:54:52Z</time>
</trkpt>
<trkpt lat="49.56879" lon="10.548513">
<ele>296</ele>
<time>2019-06-01T10:54:57Z</time>
</trkpt>
<trkpt lat="49.56875" lon="10.548353">
<ele>296</ele>
<time>2019-06-01T10:55:02Z</time>
</trkpt>
<trkpt lat="49.568647" lon="10.54811">
<ele>296</ele>
<time>2019-06-01T10:55:07Z</time>
</trkpt>
<trkpt lat="49.568473" lon="10.547737">
<ele>296</ele>
<time>2019-06-01T10:55:13Z</time>
</trkpt>
<trkpt lat="49.568318" lon="10.547418">
<ele>296</ele>
<time>2019-06-01T10:55:18Z</time>
</trkpt>
<trkpt lat="49.568158" lon="10.547083">
<ele>296</ele>
<time>2019-06-01T10:55:23Z</time>
</trkpt>
<trkpt lat="49.567963" lon="10.546668">
<ele>296</ele>
<time>2019-06-01T10:55:29Z</time>
</trkpt>
<trkpt lat="49.567803" lon="10.546305">
<ele>296</ele>
<time>2019-06-01T10:55:34Z</time>
</trkpt>
<trkpt lat="49.567643" lon="10.545942">
<ele>296</ele>
<time>2019-06-01T10:55:39Z</time>
</trkpt>
<trkpt lat="49.567483" lon="10.545575">
<ele>296</ele>
<time>2019-06-01T10:55:44Z</time>
</trkpt>
<trkpt lat="49.567315" lon="10.545213">
<ele>296</ele>
<time>2019-06-01T10:55:49Z</time>
</trkpt>
<trkpt lat="49.567205" lon="10.54485">
<ele>296</ele>
<time>2019-06-01T10:55:54Z</time>
</trkpt>
<trkpt lat="49.567327" lon="10.544545">
<ele>296</ele>
<time>2019-06-01T10:55:59Z</time>
</trkpt>
<trkpt lat="49.567305" lon="10.544152">
<ele>297</ele>
<time>2019-06-01T10:56:04Z</time>
</trkpt>
<trkpt lat="49.56722" lon="10.543742">
<ele>297</ele>
<time>2019-06-01T10:56:09Z</time>
</trkpt>
<trkpt lat="49.56714" lon="10.543337">
<ele>297</ele>
<time>2019-06-01T10:56:14Z</time>
</trkpt>
<trkpt lat="49.567065" lon="10.542938">
<ele>297</ele>
<time>2019-06-01T10:56:19Z</time>
</trkpt>
<trkpt lat="49.56707" lon="10.542528">
<ele>297</ele>
<time>2019-06-01T10:56:24Z</time>
</trkpt>
<trkpt lat="49.567147" lon="10.542117">
<ele>297</ele>
<time>2019-06-01T10:56:29Z</time>
</trkpt>
<trkpt lat="49.56721" lon="10.541703">
<ele>297</ele>
<time>2019-06-01T10:56:34Z</time>
</trkpt>
<trkpt lat="49.567272" lon="10.541292">
<ele>297</ele>
<time>2019-06-01T10:56:39Z</time>
</trkpt>
<trkpt lat="49.56733" lon="10.540897">
<ele>297</ele>
<time>2019-06-01T10:56:44Z</time>
</trkpt>
<trkpt lat="49.56738" lon="10.540538">
<ele>297</ele>
<time>2019-06-01T10:56:49Z</time>
</trkpt>
<trkpt lat="49.567432" lon="10.54017">
<ele>297</ele>
<time>2019-06-01T10:56:54Z</time>
</trkpt>
<trkpt lat="49.567525" lon="10.539782">
<ele>297</ele>
<time>2019-06-01T10:56:59Z</time>
</trkpt>
<trkpt lat="49.567645" lon="10.539395">
<ele>297</ele>
<time>2019-06-01T10:57:04Z</time>
</trkpt>
<trkpt lat="49.567763" lon="10.539007">
<ele>297</ele>
<time>2019-06-01T10:57:09Z</time>
</trkpt>
<trkpt lat="49.567875" lon="10.538645">
<ele>297</ele>
<time>2019-06-01T10:57:14Z</time>
</trkpt>
<trkpt lat="49.56798" lon="10.538297">
<ele>297</ele>
<time>2019-06-01T10:57:19Z</time>
</trkpt>
<trkpt lat="49.568088" lon="10.537975">
<ele>297</ele>
<time>2019-06-01T10:57:24Z</time>
</trkpt>
<trkpt lat="49.568205" lon="10.53767">
<ele>298</ele>
<time>2019-06-01T10:57:29Z</time>
</trkpt>
<trkpt lat="49.568307" lon="10.53732">
<ele>298</ele>
<time>2019-06-01T10:57:34Z</time>
</trkpt>
<trkpt lat="49.568412" lon="10.536995">
<ele>298</ele>
<time>2019-06-01T10:57:39Z</time>
</trkpt>
<trkpt lat="49.568502" lon="10.536693">
<ele>299</ele>
<time>2019-06-01T10:57:44Z</time>
</trkpt>
<trkpt lat="49.5686" lon="10.536377">
<ele>299</ele>
<time>2019-06-01T10:57:49Z</time>
</trkpt>
<trkpt lat="49.568697" lon="10.536053">
<ele>299</ele>
<time>2019-06-01T10:57:54Z</time>
</trkpt>
<trkpt lat="49.568772" lon="10.535788">
<ele>299</ele>
<time>2019-06-01T10:57:59Z</time>
</trkpt>
<trkpt lat="49.568823" lon="10.535555">
<ele>299</ele>
<time>2019-06-01T10:58:05Z</time>
</trkpt>
<trkpt lat="49.568682" lon="10.53545">
<ele>299</ele>
<time>2019-06-01T10:58:10Z</time>
</trkpt>
<trkpt lat="49.568465" lon="10.535475">
<ele>299</ele>
<time>2019-06-01T10:58:15Z</time>
</trkpt>
<trkpt lat="49.56821" lon="10.535505">
<ele>299</ele>
<time>2019-06-01T10:58:20Z</time>
</trkpt>
<trkpt lat="49.56794" lon="10.535512">
<ele>299</ele>
<time>2019-06-01T10:58:25Z</time>
</trkpt>
<trkpt lat="49.567683" lon="10.535533">
<ele>299</ele>
<time>2019-06-01T10:58:30Z</time>
</trkpt>
<trkpt lat="49.567455" lon="10.535547">
<ele>299</ele>
<time>2019-06-01T10:58:35Z</time>
</trkpt>
<trkpt lat="49.567222" lon="10.535563">
<ele>299</ele>
<time>2019-06-01T10:58:40Z</time>
</trkpt>
<trkpt lat="49.56698" lon="10.535555">
<ele>299</ele>
<time>2019-06-01T10:58:45Z</time>
</trkpt>
<trkpt lat="49.566768" lon="10.535543">
<ele>299</ele>
<time>2019-06-01T10:58:50Z</time>
</trkpt>
<trkpt lat="49.566573" lon="10.535512">
<ele>299</ele>
<time>2019-06-01T10:58:55Z</time>
</trkpt>
<trkpt lat="49.566377" lon="10.535495">
<ele>299</ele>
<time>2019-06-01T10:59:00Z</time>
</trkpt>
<trkpt lat="49.566203" lon="10.53548">
<ele>299</ele>
<time>2019-06-01T10:59:05Z</time>
</trkpt>
<trkpt lat="49.56599" lon="10.535468">
<ele>300</ele>
<time>2019-06-01T10:59:11Z</time>
</trkpt>
<trkpt lat="49.565803" lon="10.535453">
<ele>300</ele>
<time>2019-06-01T10:59:16Z</time>
</trkpt>
<trkpt lat="49.565625" lon="10.53544">
<ele>300</ele>
<time>2019-06-01T10:59:21Z</time>
</trkpt>
<trkpt lat="49.565425" lon="10.535413">
<ele>300</ele>
<time>2019-06-01T10:59:26Z</time>
</trkpt>
<trkpt lat="49.565157" lon="10.535373">
<ele>300</ele>
<time>2019-06-01T10:59:31Z</time>
</trkpt>
<trkpt lat="49.564878" lon="10.535308">
<ele>300</ele>
<time>2019-06-01T10:59:36Z</time>
</trkpt>
<trkpt lat="49.564592" lon="10.535168">
<ele>299</ele>
<time>2019-06-01T10:59:41Z</time>
</trkpt>
<trkpt lat="49.564312" lon="10.534918">
<ele>299</ele>
<time>2019-06-01T10:59:46Z</time>
</trkpt>
<trkpt lat="49.56405" lon="10.534613">
<ele>299</ele>
<time>2019-06-01T10:59:51Z</time>
</trkpt>
<trkpt lat="49.563775" lon="10.534287">
<ele>298</ele>
<time>2019-06-01T10:59:56Z</time>
</trkpt>
<trkpt lat="49.563497" lon="10.53397">
<ele>298</ele>
<time>2019-06-01T11:00:01Z</time>
</trkpt>
<trkpt lat="49.563218" lon="10.533662">
<ele>298</ele>
<time>2019-06-01T11:00:06Z</time>
</trkpt>
<trkpt lat="49.562968" lon="10.533412">
<ele>297</ele>
<time>2019-06-01T11:00:11Z</time>
</trkpt>
<trkpt lat="49.562727" lon="10.533188">
<ele>297</ele>
<time>2019-06-01T11:00:16Z</time>
</trkpt>
<trkpt lat="49.562462" lon="10.533045">
<ele>297</ele>
<time>2019-06-01T11:00:21Z</time>
</trkpt>
<trkpt lat="49.562172" lon="10.533118">
<ele>297</ele>
<time>2019-06-01T11:00:26Z</time>
</trkpt>
<trkpt lat="49.561918" lon="10.53335">
<ele>297</ele>
<time>2019-06-01T11:00:31Z</time>
</trkpt>
<trkpt lat="49.561688" lon="10.533645">
<ele>297</ele>
<time>2019-06-01T11:00:36Z</time>
</trkpt>
<trkpt lat="49.561475" lon="10.533932">
<ele>297</ele>
<time>2019-06-01T11:00:41Z</time>
</trkpt>
<trkpt lat="49.561262" lon="10.5342">
<ele>297</ele>
<time>2019-06-01T11:00:46Z</time>
</trkpt>
<trkpt lat="49.56107" lon="10.534488">
<ele>297</ele>
<time>2019-06-01T11:00:51Z</time>
</trkpt>
<trkpt lat="49.560872" lon="10.534787">
<ele>297</ele>
<time>2019-06-01T11:00:56Z</time>
</trkpt>
<trkpt lat="49.560678" lon="10.535088">
<ele>297</ele>
<time>2019-06-01T11:01:01Z</time>
</trkpt>
<trkpt lat="49.560478" lon="10.53541">
<ele>297</ele>
<time>2019-06-01T11:01:06Z</time>
</trkpt>
<trkpt lat="49.560295" lon="10.535723">
<ele>297</ele>
<time>2019-06-01T11:01:11Z</time>
</trkpt>
<trkpt lat="49.560083" lon="10.536092">
<ele>297</ele>
<time>2019-06-01T11:01:17Z</time>
</trkpt>
<trkpt lat="49.559948" lon="10.536388">
<ele>297</ele>
<time>2019-06-01T11:01:22Z</time>
</trkpt>
<trkpt lat="49.55984" lon="10.536643">
<ele>297</ele>
<time>2019-06-01T11:01:27Z</time>
</trkpt>
<trkpt lat="49.559722" lon="10.536875">
<ele>297</ele>
<time>2019-06-01T11:01:32Z</time>
</trkpt>
<trkpt lat="49.5596" lon="10.537152">
<ele>297</ele>
<time>2019-06-01T11:01:37Z</time>
</trkpt>
<trkpt lat="49.559488" lon="10.53739">
<ele>297</ele>
<time>2019-06-01T11:01:42Z</time>
</trkpt>
<trkpt lat="49.559315" lon="10.537605">
<ele>298</ele>
<time>2019-06-01T11:01:47Z</time>
</trkpt>
<trkpt lat="49.559182" lon="10.537738">
<ele>300</ele>
<time>2019-06-01T11:01:52Z</time>
</trkpt>
<trkpt lat="49.559088" lon="10.537795">
<ele>301</ele>
<time>2019-06-01T11:01:57Z</time>
</trkpt>
<trkpt lat="49.559028" lon="10.537703">
<ele>301</ele>
<time>2019-06-01T11:02:02Z</time>
</trkpt>
<trkpt lat="49.558923" lon="10.537483">
<ele>301</ele>
<time>2019-06-01T11:02:07Z</time>
</trkpt>
<trkpt lat="49.55877" lon="10.537175">
<ele>301</ele>
<time>2019-06-01T11:02:12Z</time>
</trkpt>
<trkpt lat="49.558498" lon="10.536815">
<ele>300</ele>
<time>2019-06-01T11:02:17Z</time>
</trkpt>
<trkpt lat="49.558193" lon="10.536547">
<ele>299</ele>
<time>2019-06-01T11:02:22Z</time>
</trkpt>
<trkpt lat="49.557908" lon="10.536333">
<ele>299</ele>
<time>2019-06-01T11:02:27Z</time>
</trkpt>
<trkpt lat="49.557635" lon="10.536197">
<ele>298</ele>
<time>2019-06-01T11:02:32Z</time>
</trkpt>
<trkpt lat="49.557342" lon="10.536168">
<ele>298</ele>
<time>2019-06-01T11:02:37Z</time>
</trkpt>
<trkpt lat="49.557047" lon="10.53621">
<ele>298</ele>
<time>2019-06-01T11:02:42Z</time>
</trkpt>
<trkpt lat="49.556802" lon="10.536392">
<ele>298</ele>
<time>2019-06-01T11:02:47Z</time>
</trkpt>
<trkpt lat="49.556617" lon="10.536677">
<ele>298</ele>
<time>2019-06-01T11:02:52Z</time>
</trkpt>
<trkpt lat="49.556488" lon="10.537018">
<ele>298</ele>
<time>2019-06-01T11:02:57Z</time>
</trkpt>
<trkpt lat="49.556397" lon="10.537327">
<ele>298</ele>
<time>2019-06-01T11:03:02Z</time>
</trkpt>
<trkpt lat="49.556297" lon="10.537585">
<ele>299</ele>
<time>2019-06-01T11:03:07Z</time>
</trkpt>
<trkpt lat="49.556133" lon="10.537427">
<ele>299</ele>
<time>2019-06-01T11:03:12Z</time>
</trkpt>
<trkpt lat="49.555955" lon="10.537095">
<ele>299</ele>
<time>2019-06-01T11:03:17Z</time>
</trkpt>
<trkpt lat="49.555782" lon="10.53678">
<ele>299</ele>
<time>2019-06-01T11:03:22Z</time>
</trkpt>
<trkpt lat="49.555615" lon="10.536473">
<ele>299</ele>
<time>2019-06-01T11:03:27Z</time>
</trkpt>
<trkpt lat="49.555432" lon="10.536145">
<ele>298</ele>
<time>2019-06-01T11:03:32Z</time>
</trkpt>
<trkpt lat="49.555213" lon="10.535847">
<ele>298</ele>
<time>2019-06-01T11:03:37Z</time>
</trkpt>
<trkpt lat="49.554973" lon="10.535567">
<ele>298</ele>
<time>2019-06-01T11:03:42Z</time>
</trkpt>
<trkpt lat="49.554747" lon="10.53533">
<ele>298</ele>
<time>2019-06-01T11:03:47Z</time>
</trkpt>
<trkpt lat="49.554533" lon="10.535098">
<ele>298</ele>
<time>2019-06-01T11:03:52Z</time>
</trkpt>
<trkpt lat="49.554342" lon="10.534862">
<ele>298</ele>
<time>2019-06-01T11:03:57Z</time>
</trkpt>
<trkpt lat="49.5544" lon="10.534523">
<ele>298</ele>
<time>2019-06-01T11:04:02Z</time>
</trkpt>
<trkpt lat="49.554587" lon="10.534207">
<ele>298</ele>
<time>2019-06-01T11:04:07Z</time>
</trkpt>
<trkpt lat="49.554755" lon="10.533907">
<ele>298</ele>
<time>2019-06-01T11:04:12Z</time>
</trkpt>
<trkpt lat="49.55472" lon="10.533505">
<ele>298</ele>
<time>2019-06-01T11:04:17Z</time>
</trkpt>
<trkpt lat="49.554613" lon="10.53308">
<ele>298</ele>
<time>2019-06-01T11:04:22Z</time>
</trkpt>
<trkpt lat="49.554512" lon="10.532663">
<ele>298</ele>
<time>2019-06-01T11:04:27Z</time>
</trkpt>
<trkpt lat="49.554412" lon="10.532267">
<ele>298</ele>
<time>2019-06-01T11:04:32Z</time>
</trkpt>
<trkpt lat="49.554318" lon="10.531877">
<ele>298</ele>
<time>2019-06-01T11:04:37Z</time>
</trkpt>
<trkpt lat="49.554225" lon="10.531448">
<ele>298</ele>
<time>2019-06-01T11:04:42Z</time>
</trkpt>
<trkpt lat="49.554123" lon="10.531037">
<ele>298</ele>
<time>2019-06-01T11:04:47Z</time>
</trkpt>
<trkpt lat="49.554017" lon="10.530638">
<ele>298</ele>
<time>2019-06-01T11:04:52Z</time>
</trkpt>
<trkpt lat="49.553898" lon="10.530188">
<ele>298</ele>
<time>2019-06-01T11:04:57Z</time>
</trkpt>
<trkpt lat="49.553857" lon="10.529708">
<ele>298</ele>
<time>2019-06-01T11:05:02Z</time>
</trkpt>
<trkpt lat="49.553873" lon="10.529268">
<ele>298</ele>
<time>2019-06-01T11:05:07Z</time>
</trkpt>
<trkpt lat="49.55389" lon="10.52883">
<ele>298</ele>
<time>2019-06-01T11:05:12Z</time>
</trkpt>
<trkpt lat="49.55389" lon="10.528412">
<ele>298</ele>
<time>2019-06-01T11:05:17Z</time>
</trkpt>
<trkpt lat="49.553757" lon="10.528035">
<ele>298</ele>
<time>2019-06-01T11:05:22Z</time>
</trkpt>
<trkpt lat="49.553553" lon="10.527695">
<ele>298</ele>
<time>2019-06-01T11:05:27Z</time>
</trkpt>
<trkpt lat="49.553353" lon="10.527353">
<ele>298</ele>
<time>2019-06-01T11:05:32Z</time>
</trkpt>
<trkpt lat="49.55316" lon="10.527013">
<ele>298</ele>
<time>2019-06-01T11:05:37Z</time>
</trkpt>
<trkpt lat="49.552967" lon="10.526673">
<ele>298</ele>
<time>2019-06-01T11:05:42Z</time>
</trkpt>
<trkpt lat="49.552778" lon="10.526348">
<ele>298</ele>
<time>2019-06-01T11:05:47Z</time>
</trkpt>
<trkpt lat="49.552617" lon="10.525998">
<ele>298</ele>
<time>2019-06-01T11:05:52Z</time>
</trkpt>
<trkpt lat="49.552487" lon="10.525603">
<ele>298</ele>
<time>2019-06-01T11:05:57Z</time>
</trkpt>
<trkpt lat="49.552355" lon="10.525203">
<ele>298</ele>
<time>2019-06-01T11:06:02Z</time>
</trkpt>
<trkpt lat="49.552228" lon="10.524823">
<ele>298</ele>
<time>2019-06-01T11:06:07Z</time>
</trkpt>
<trkpt lat="49.552102" lon="10.524445">
<ele>298</ele>
<time>2019-06-01T11:06:12Z</time>
</trkpt>
<trkpt lat="49.551988" lon="10.524097">
<ele>298</ele>
<time>2019-06-01T11:06:17Z</time>
</trkpt>
<trkpt lat="49.551953" lon="10.523727">
<ele>298</ele>
<time>2019-06-01T11:06:22Z</time>
</trkpt>
<trkpt lat="49.552158" lon="10.523437">
<ele>299</ele>
<time>2019-06-01T11:06:27Z</time>
</trkpt>
<trkpt lat="49.552378" lon="10.523168">
<ele>299</ele>
<time>2019-06-01T11:06:32Z</time>
</trkpt>
<trkpt lat="49.552498" lon="10.522853">
<ele>299</ele>
<time>2019-06-01T11:06:37Z</time>
</trkpt>
<trkpt lat="49.552393" lon="10.522487">
<ele>299</ele>
<time>2019-06-01T11:06:42Z</time>
</trkpt>
<trkpt lat="49.55227" lon="10.522152">
<ele>299</ele>
<time>2019-06-01T11:06:47Z</time>
</trkpt>
<trkpt lat="49.552282" lon="10.521853">
<ele>299</ele>
<time>2019-06-01T11:06:52Z</time>
</trkpt>
<trkpt lat="49.552177" lon="10.521542">
<ele>299</ele>
<time>2019-06-01T11:06:57Z</time>
</trkpt>
<trkpt lat="49.552082" lon="10.521173">
<ele>299</ele>
<time>2019-06-01T11:07:02Z</time>
</trkpt>
<trkpt lat="49.552007" lon="10.520793">
<ele>299</ele>
<time>2019-06-01T11:07:07Z</time>
</trkpt>
<trkpt lat="49.551905" lon="10.520422">
<ele>299</ele>
<time>2019-06-01T11:07:12Z</time>
</trkpt>
<trkpt lat="49.551795" lon="10.520035">
<ele>299</ele>
<time>2019-06-01T11:07:17Z</time>
</trkpt>
<trkpt lat="49.551685" lon="10.519663">
<ele>299</ele>
<time>2019-06-01T11:07:22Z</time>
</trkpt>
<trkpt lat="49.551568" lon="10.51929">
<ele>299</ele>
<time>2019-06-01T11:07:27Z</time>
</trkpt>
<trkpt lat="49.551425" lon="10.51895">
<ele>299</ele>
<time>2019-06-01T11:07:32Z</time>
</trkpt>
<trkpt lat="49.55129" lon="10.518683">
<ele>299</ele>
<time>2019-06-01T11:07:37Z</time>
</trkpt>
<trkpt lat="49.551187" lon="10.518472">
<ele>299</ele>
<time>2019-06-01T11:07:42Z</time>
</trkpt>
<trkpt lat="49.551222" lon="10.518242">
<ele>299</ele>
<time>2019-06-01T11:07:47Z</time>
</trkpt>
<trkpt lat="49.551423" lon="10.518048">
<ele>299</ele>
<time>2019-06-01T11:07:52Z</time>
</trkpt>
<trkpt lat="49.551495" lon="10.517732">
<ele>299</ele>
<time>2019-06-01T11:07:57Z</time>
</trkpt>
<trkpt lat="49.551317" lon="10.517435">
<ele>299</ele>
<time>2019-06-01T11:08:02Z</time>
</trkpt>
<trkpt lat="49.551088" lon="10.517152">
<ele>299</ele>
<time>2019-06-01T11:08:07Z</time>
</trkpt>
<trkpt lat="49.550907" lon="10.516835">
<ele>299</ele>
<time>2019-06-01T11:08:12Z</time>
</trkpt>
<trkpt lat="49.550783" lon="10.516507">
<ele>299</ele>
<time>2019-06-01T11:08:17Z</time>
</trkpt>
<trkpt lat="49.550768" lon="10.516088">
<ele>299</ele>
<time>2019-06-01T11:08:22Z</time>
</trkpt>
<trkpt lat="49.55085" lon="10.515687">
<ele>299</ele>
<time>2019-06-01T11:08:27Z</time>
</trkpt>
<trkpt lat="49.550968" lon="10.51532">
<ele>299</ele>
<time>2019-06-01T11:08:32Z</time>
</trkpt>
<trkpt lat="49.551077" lon="10.514968">
<ele>299</ele>
<time>2019-06-01T11:08:37Z</time>
</trkpt>
<trkpt lat="49.551122" lon="10.51457">
<ele>299</ele>
<time>2019-06-01T11:08:42Z</time>
</trkpt>
<trkpt lat="49.551112" lon="10.514187">
<ele>299</ele>
<time>2019-06-01T11:08:47Z</time>
</trkpt>
<trkpt lat="49.551068" lon="10.513875">
<ele>299</ele>
<time>2019-06-01T11:08:52Z</time>
</trkpt>
<trkpt lat="49.550968" lon="10.513695">
<ele>299</ele>
<time>2019-06-01T11:08:57Z</time>
</trkpt>
<trkpt lat="49.550898" lon="10.513552">
<ele>299</ele>
<time>2019-06-01T11:09:02Z</time>
</trkpt>
<trkpt lat="49.550878" lon="10.513442">
<ele>299</ele>
<time>2019-06-01T11:09:07Z</time>
</trkpt>
<trkpt lat="49.550873" lon="10.513353">
<ele>299</ele>
<time>2019-06-01T11:09:12Z</time>
</trkpt>
<trkpt lat="49.550895" lon="10.51317">
<ele>299</ele>
<time>2019-06-01T11:09:17Z</time>
</trkpt>
<trkpt lat="49.550882" lon="10.512847">
<ele>299</ele>
<time>2019-06-01T11:09:22Z</time>
</trkpt>
<trkpt lat="49.550868" lon="10.512452">
<ele>299</ele>
<time>2019-06-01T11:09:27Z</time>
</trkpt>
<trkpt lat="49.550855" lon="10.512043">
<ele>299</ele>
<time>2019-06-01T11:09:32Z</time>
</trkpt>
<trkpt lat="49.55084" lon="10.511642">
<ele>299</ele>
<time>2019-06-01T11:09:37Z</time>
</trkpt>
<trkpt lat="49.550768" lon="10.511238">
<ele>299</ele>
<time>2019-06-01T11:09:42Z</time>
</trkpt>
<trkpt lat="49.550707" lon="10.51081">
<ele>299</ele>
<time>2019-06-01T11:09:47Z</time>
</trkpt>
<trkpt lat="49.55065" lon="10.510385">
<ele>299</ele>
<time>2019-06-01T11:09:52Z</time>
</trkpt>
<trkpt lat="49.550517" lon="10.509965">
<ele>299</ele>
<time>2019-06-01T11:09:57Z</time>
</trkpt>
<trkpt lat="49.550323" lon="10.509598">
<ele>299</ele>
<time>2019-06-01T11:10:02Z</time>
</trkpt>
<trkpt lat="49.550123" lon="10.509237">
<ele>299</ele>
<time>2019-06-01T11:10:07Z</time>
</trkpt>
<trkpt lat="49.549898" lon="10.508908">
<ele>299</ele>
<time>2019-06-01T11:10:12Z</time>
</trkpt>
<trkpt lat="49.549615" lon="10.508703">
<ele>299</ele>
<time>2019-06-01T11:10:17Z</time>
</trkpt>
<trkpt lat="49.549348" lon="10.50855">
<ele>299</ele>
<time>2019-06-01T11:10:22Z</time>
</trkpt>
<trkpt lat="49.549173" lon="10.508353">
<ele>299</ele>
<time>2019-06-01T11:10:27Z</time>
</trkpt>
<trkpt lat="49.549012" lon="10.508473">
<ele>300</ele>
<time>2019-06-01T11:10:32Z</time>
</trkpt>
<trkpt lat="49.54886" lon="10.508772">
<ele>301</ele>
<time>2019-06-01T11:10:37Z</time>
</trkpt>
<trkpt lat="49.548703" lon="10.509067">
<ele>302</ele>
<time>2019-06-01T11:10:42Z</time>
</trkpt>
<trkpt lat="49.548565" lon="10.509328">
<ele>302</ele>
<time>2019-06-01T11:10:47Z</time>
</trkpt>
<trkpt lat="49.548398" lon="10.509175">
<ele>302</ele>
<time>2019-06-01T11:10:52Z</time>
</trkpt>
<trkpt lat="49.548247" lon="10.508812">
<ele>302</ele>
<time>2019-06-01T11:10:57Z</time>
</trkpt>
<trkpt lat="49.54807" lon="10.508435">
<ele>302</ele>
<time>2019-06-01T11:11:02Z</time>
</trkpt>
<trkpt lat="49.547898" lon="10.508055">
<ele>302</ele>
<time>2019-06-01T11:11:07Z</time>
</trkpt>
<trkpt lat="49.547723" lon="10.507678">
<ele>302</ele>
<time>2019-06-01T11:11:12Z</time>
</trkpt>
<trkpt lat="49.547547" lon="10.5073">
<ele>302</ele>
<time>2019-06-01T11:11:17Z</time>
</trkpt>
<trkpt lat="49.547368" lon="10.506902">
<ele>302</ele>
<time>2019-06-01T11:11:22Z</time>
</trkpt>
<trkpt lat="49.547202" lon="10.50653">
<ele>302</ele>
<time>2019-06-01T11:11:27Z</time>
</trkpt>
<trkpt lat="49.547035" lon="10.506182">
<ele>301</ele>
<time>2019-06-01T11:11:32Z</time>
</trkpt>
<trkpt lat="49.546885" lon="10.505823">
<ele>301</ele>
<time>2019-06-01T11:11:37Z</time>
</trkpt>
<trkpt lat="49.546832" lon="10.505423">
<ele>301</ele>
<time>2019-06-01T11:11:42Z</time>
</trkpt>
<trkpt lat="49.546943" lon="10.505065">
<ele>301</ele>
<time>2019-06-01T11:11:47Z</time>
</trkpt>
<trkpt lat="49.54704" lon="10.504837">
<ele>301</ele>
<time>2019-06-01T11:11:52Z</time>
</trkpt>
<trkpt lat="49.546967" lon="10.50464">
<ele>301</ele>
<time>2019-06-01T11:11:57Z</time>
</trkpt>
<trkpt lat="49.546695" lon="10.504655">
<ele>300</ele>
<time>2019-06-01T11:12:02Z</time>
</trkpt>
<trkpt lat="49.546385" lon="10.504685">
<ele>300</ele>
<time>2019-06-01T11:12:07Z</time>
</trkpt>
<trkpt lat="49.546063" lon="10.504618">
<ele>300</ele>
<time>2019-06-01T11:12:12Z</time>
</trkpt>
<trkpt lat="49.545783" lon="10.504425">
<ele>300</ele>
<time>2019-06-01T11:12:17Z</time>
</trkpt>
<trkpt lat="49.545528" lon="10.5042">
<ele>300</ele>
<time>2019-06-01T11:12:22Z</time>
</trkpt>
<trkpt lat="49.545282" lon="10.503943">
<ele>300</ele>
<time>2019-06-01T11:12:27Z</time>
</trkpt>
<trkpt lat="49.54504" lon="10.50365">
<ele>300</ele>
<time>2019-06-01T11:12:32Z</time>
</trkpt>
<trkpt lat="49.544908" lon="10.503208">
<ele>300</ele>
<time>2019-06-01T11:12:37Z</time>
</trkpt>
<trkpt lat="49.544773" lon="10.502862">
<ele>300</ele>
<time>2019-06-01T11:12:42Z</time>
</trkpt>
<trkpt lat="49.544532" lon="10.502722">
<ele>300</ele>
<time>2019-06-01T11:12:47Z</time>
</trkpt>
<trkpt lat="49.544275" lon="10.502622">
<ele>300</ele>
<time>2019-06-01T11:12:52Z</time>
</trkpt>
<trkpt lat="49.544007" lon="10.502498">
<ele>300</ele>
<time>2019-06-01T11:12:57Z</time>
</trkpt>
<trkpt lat="49.543728" lon="10.502355">
<ele>300</ele>
<time>2019-06-01T11:13:02Z</time>
</trkpt>
<trkpt lat="49.543447" lon="10.502225">
<ele>300</ele>
<time>2019-06-01T11:13:07Z</time>
</trkpt>
<trkpt lat="49.543168" lon="10.502113">
<ele>300</ele>
<time>2019-06-01T11:13:12Z</time>
</trkpt>
<trkpt lat="49.542902" lon="10.502002">
<ele>300</ele>
<time>2019-06-01T11:13:17Z</time>
</trkpt>
<trkpt lat="49.542637" lon="10.50189">
<ele>300</ele>
<time>2019-06-01T11:13:22Z</time>
</trkpt>
<trkpt lat="49.542403" lon="10.50165">
<ele>300</ele>
<time>2019-06-01T11:13:27Z</time>
</trkpt>
<trkpt lat="49.54225" lon="10.501295">
<ele>300</ele>
<time>2019-06-01T11:13:32Z</time>
</trkpt>
<trkpt lat="49.542073" lon="10.500927">
<ele>300</ele>
<time>2019-06-01T11:13:37Z</time>
</trkpt>
<trkpt lat="49.541887" lon="10.500577">
<ele>300</ele>
<time>2019-06-01T11:13:42Z</time>
</trkpt>
<trkpt lat="49.541683" lon="10.50023">
<ele>300</ele>
<time>2019-06-01T11:13:47Z</time>
</trkpt>
<trkpt lat="49.541538" lon="10.499805">
<ele>301</ele>
<time>2019-06-01T11:13:52Z</time>
</trkpt>
<trkpt lat="49.541488" lon="10.499318">
<ele>301</ele>
<time>2019-06-01T11:13:57Z</time>
</trkpt>
<trkpt lat="49.541497" lon="10.49885">
<ele>301</ele>
<time>2019-06-01T11:14:02Z</time>
</trkpt>
<trkpt lat="49.541582" lon="10.498447">
<ele>301</ele>
<time>2019-06-01T11:14:07Z</time>
</trkpt>
<trkpt lat="49.541758" lon="10.498085">
<ele>301</ele>
<time>2019-06-01T11:14:12Z</time>
</trkpt>
<trkpt lat="49.541868" lon="10.49768">
<ele>301</ele>
<time>2019-06-01T11:14:17Z</time>
</trkpt>
<trkpt lat="49.541937" lon="10.497242">
<ele>301</ele>
<time>2019-06-01T11:14:22Z</time>
</trkpt>
<trkpt lat="49.542005" lon="10.496827">
<ele>301</ele>
<time>2019-06-01T11:14:27Z</time>
</trkpt>
<trkpt lat="49.542067" lon="10.496415">
<ele>301</ele>
<time>2019-06-01T11:14:32Z</time>
</trkpt>
<trkpt lat="49.542135" lon="10.495983">
<ele>301</ele>
<time>2019-06-01T11:14:37Z</time>
</trkpt>
<trkpt lat="49.542198" lon="10.495562">
<ele>301</ele>
<time>2019-06-01T11:14:42Z</time>
</trkpt>
<trkpt lat="49.542235" lon="10.495157">
<ele>301</ele>
<time>2019-06-01T11:14:47Z</time>
</trkpt>
<trkpt lat="49.542205" lon="10.494723">
<ele>301</ele>
<time>2019-06-01T11:14:52Z</time>
</trkpt>
<trkpt lat="49.542125" lon="10.494298">
<ele>301</ele>
<time>2019-06-01T11:14:57Z</time>
</trkpt>
<trkpt lat="49.541992" lon="10.493875">
<ele>301</ele>
<time>2019-06-01T11:15:02Z</time>
</trkpt>
<trkpt lat="49.541855" lon="10.493455">
<ele>301</ele>
<time>2019-06-01T11:15:07Z</time>
</trkpt>
<trkpt lat="49.5417" lon="10.492985">
<ele>301</ele>
<time>2019-06-01T11:15:13Z</time>
</trkpt>
<trkpt lat="49.541575" lon="10.4926">
<ele>301</ele>
<time>2019-06-01T11:15:18Z</time>
</trkpt>
<trkpt lat="49.541455" lon="10.49218">
<ele>301</ele>
<time>2019-06-01T11:15:23Z</time>
</trkpt>
<trkpt lat="49.541357" lon="10.491727">
<ele>301</ele>
<time>2019-06-01T11:15:28Z</time>
</trkpt>
<trkpt lat="49.54127" lon="10.491283">
<ele>301</ele>
<time>2019-06-01T11:15:33Z</time>
</trkpt>
<trkpt lat="49.5412" lon="10.490915">
<ele>301</ele>
<time>2019-06-01T11:15:38Z</time>
</trkpt>
<trkpt lat="49.541038" lon="10.490548">
<ele>301</ele>
<time>2019-06-01T11:15:43Z</time>
</trkpt>
<trkpt lat="49.540833" lon="10.490185">
<ele>301</ele>
<time>2019-06-01T11:15:48Z</time>
</trkpt>
<trkpt lat="49.540667" lon="10.489762">
<ele>301</ele>
<time>2019-06-01T11:15:53Z</time>
</trkpt>
<trkpt lat="49.540513" lon="10.489348">
<ele>301</ele>
<time>2019-06-01T11:15:58Z</time>
</trkpt>
<trkpt lat="49.54037" lon="10.488953">
<ele>301</ele>
<time>2019-06-01T11:16:03Z</time>
</trkpt>
<trkpt lat="49.540275" lon="10.488543">
<ele>301</ele>
<time>2019-06-01T11:16:08Z</time>
</trkpt>
<trkpt lat="49.540253" lon="10.48814">
<ele>301</ele>
<time>2019-06-01T11:16:13Z</time>
</trkpt>
<trkpt lat="49.540258" lon="10.487807">
<ele>301</ele>
<time>2019-06-01T11:16:18Z</time>
</trkpt>
<trkpt lat="49.540227" lon="10.487622">
<ele>301</ele>
<time>2019-06-01T11:16:23Z</time>
</trkpt>
<trkpt lat="49.540157" lon="10.487675">
<ele>301</ele>
<time>2019-06-01T11:16:28Z</time>
</trkpt>
<trkpt lat="49.540038" lon="10.487815">
<ele>301</ele>
<time>2019-06-01T11:16:33Z</time>
</trkpt>
<trkpt lat="49.539897" lon="10.487622">
<ele>301</ele>
<time>2019-06-01T11:16:38Z</time>
</trkpt>
<trkpt lat="49.539745" lon="10.487317">
<ele>301</ele>
<time>2019-06-01T11:16:43Z</time>
</trkpt>
<trkpt lat="49.539605" lon="10.487025">
<ele>301</ele>
<time>2019-06-01T11:16:48Z</time>
</trkpt>
<trkpt lat="49.539483" lon="10.486767">
<ele>302</ele>
<time>2019-06-01T11:16:53Z</time>
</trkpt>
<trkpt lat="49.539385" lon="10.486558">
<ele>302</ele>
<time>2019-06-01T11:16:58Z</time>
</trkpt>
<trkpt lat="49.539232" lon="10.486662">
<ele>302</ele>
<time>2019-06-01T11:17:03Z</time>
</trkpt>
<trkpt lat="49.539017" lon="10.48688">
<ele>302</ele>
<time>2019-06-01T11:17:08Z</time>
</trkpt>
<trkpt lat="49.538795" lon="10.487107">
<ele>302</ele>
<time>2019-06-01T11:17:13Z</time>
</trkpt>
<trkpt lat="49.538583" lon="10.487332">
<ele>302</ele>
<time>2019-06-01T11:17:18Z</time>
</trkpt>
<trkpt lat="49.53837" lon="10.487555">
<ele>302</ele>
<time>2019-06-01T11:17:23Z</time>
</trkpt>
<trkpt lat="49.538167" lon="10.487772">
<ele>302</ele>
<time>2019-06-01T11:17:28Z</time>
</trkpt>
<trkpt lat="49.537983" lon="10.487948">
<ele>302</ele>
<time>2019-06-01T11:17:33Z</time>
</trkpt>
<trkpt lat="49.537772" lon="10.487823">
<ele>302</ele>
<time>2019-06-01T11:17:38Z</time>
</trkpt>
<trkpt lat="49.537552" lon="10.487617">
<ele>302</ele>
<time>2019-06-01T11:17:43Z</time>
</trkpt>
<trkpt lat="49.537312" lon="10.487407">
<ele>302</ele>
<time>2019-06-01T11:17:48Z</time>
</trkpt>
<trkpt lat="49.537085" lon="10.487203">
<ele>302</ele>
<time>2019-06-01T11:17:53Z</time>
</trkpt>
<trkpt lat="49.53685" lon="10.487002">
<ele>302</ele>
<time>2019-06-01T11:17:58Z</time>
</trkpt>
<trkpt lat="49.53661" lon="10.486787">
<ele>302</ele>
<time>2019-06-01T11:18:03Z</time>
</trkpt>
<trkpt lat="49.536365" lon="10.486577">
<ele>302</ele>
<time>2019-06-01T11:18:08Z</time>
</trkpt>
<trkpt lat="49.536117" lon="10.48636">
<ele>302</ele>
<time>2019-06-01T11:18:13Z</time>
</trkpt>
<trkpt lat="49.535882" lon="10.48613">
<ele>302</ele>
<time>2019-06-01T11:18:18Z</time>
</trkpt>
<trkpt lat="49.535637" lon="10.485897">
<ele>302</ele>
<time>2019-06-01T11:18:23Z</time>
</trkpt>
<trkpt lat="49.535385" lon="10.48567">
<ele>302</ele>
<time>2019-06-01T11:18:28Z</time>
</trkpt>
<trkpt lat="49.535132" lon="10.485445">
<ele>302</ele>
<time>2019-06-01T11:18:33Z</time>
</trkpt>
<trkpt lat="49.534885" lon="10.485218">
<ele>302</ele>
<time>2019-06-01T11:18:38Z</time>
</trkpt>
<trkpt lat="49.534642" lon="10.485002">
<ele>302</ele>
<time>2019-06-01T11:18:43Z</time>
</trkpt>
<trkpt lat="49.53439" lon="10.484775">
<ele>302</ele>
<time>2019-06-01T11:18:48Z</time>
</trkpt>
<trkpt lat="49.534135" lon="10.484535">
<ele>302</ele>
<time>2019-06-01T11:18:53Z</time>
</trkpt>
<trkpt lat="49.533882" lon="10.484302">
<ele>302</ele>
<time>2019-06-01T11:18:58Z</time>
</trkpt>
<trkpt lat="49.533615" lon="10.484063">
<ele>302</ele>
<time>2019-06-01T11:19:03Z</time>
</trkpt>
<trkpt lat="49.53333" lon="10.483913">
<ele>302</ele>
<time>2019-06-01T11:19:08Z</time>
</trkpt>
<trkpt lat="49.533033" lon="10.483823">
<ele>302</ele>
<time>2019-06-01T11:19:13Z</time>
</trkpt>
<trkpt lat="49.532753" lon="10.4837">
<ele>302</ele>
<time>2019-06-01T11:19:18Z</time>
</trkpt>
<trkpt lat="49.532538" lon="10.483407">
<ele>302</ele>
<time>2019-06-01T11:19:23Z</time>
</trkpt>
<trkpt lat="49.53234" lon="10.483117">
<ele>302</ele>
<time>2019-06-01T11:19:28Z</time>
</trkpt>
<trkpt lat="49.532133" lon="10.482823">
<ele>302</ele>
<time>2019-06-01T11:19:33Z</time>
</trkpt>
<trkpt lat="49.531932" lon="10.482532">
<ele>302</ele>
<time>2019-06-01T11:19:38Z</time>
</trkpt>
<trkpt lat="49.531735" lon="10.48226">
<ele>303</ele>
<time>2019-06-01T11:19:43Z</time>
</trkpt>
<trkpt lat="49.531518" lon="10.482015">
<ele>303</ele>
<time>2019-06-01T11:19:48Z</time>
</trkpt>
<trkpt lat="49.531253" lon="10.481827">
<ele>303</ele>
<time>2019-06-01T11:19:53Z</time>
</trkpt>
<trkpt lat="49.530998" lon="10.481675">
<ele>303</ele>
<time>2019-06-01T11:19:58Z</time>
</trkpt>
<trkpt lat="49.530763" lon="10.48154">
<ele>303</ele>
<time>2019-06-01T11:20:03Z</time>
</trkpt>
<trkpt lat="49.530547" lon="10.481413">
<ele>303</ele>
<time>2019-06-01T11:20:08Z</time>
</trkpt>
<trkpt lat="49.530387" lon="10.481287">
<ele>303</ele>
<time>2019-06-01T11:20:13Z</time>
</trkpt>
<trkpt lat="49.53022" lon="10.481257">
<ele>303</ele>
<time>2019-06-01T11:20:18Z</time>
</trkpt>
<trkpt lat="49.529968" lon="10.481398">
<ele>303</ele>
<time>2019-06-01T11:20:23Z</time>
</trkpt>
<trkpt lat="49.529712" lon="10.481558">
<ele>303</ele>
<time>2019-06-01T11:20:28Z</time>
</trkpt>
<trkpt lat="49.52947" lon="10.481722">
<ele>303</ele>
<time>2019-06-01T11:20:33Z</time>
</trkpt>
<trkpt lat="49.52926" lon="10.481855">
<ele>303</ele>
<time>2019-06-01T11:20:38Z</time>
</trkpt>
<trkpt lat="49.529128" lon="10.481975">
<ele>304</ele>
<time>2019-06-01T11:20:43Z</time>
</trkpt>
<trkpt lat="49.529058" lon="10.482043">
<ele>304</ele>
<time>2019-06-01T11:20:48Z</time>
</trkpt>
<trkpt lat="49.529035" lon="10.482062">
<ele>304</ele>
<time>2019-06-01T11:20:53Z</time>
</trkpt>
<trkpt lat="49.528925" lon="10.482097">
<ele>304</ele>
<time>2019-06-01T11:20:58Z</time>
</trkpt>
<trkpt lat="49.528768" lon="10.482137">
<ele>304</ele>
<time>2019-06-01T11:21:03Z</time>
</trkpt>
<trkpt lat="49.528607" lon="10.482078">
<ele>304</ele>
<time>2019-06-01T11:21:08Z</time>
</trkpt>
<trkpt lat="49.528463" lon="10.481875">
<ele>304</ele>
<time>2019-06-01T11:21:13Z</time>
</trkpt>
<trkpt lat="49.528315" lon="10.481643">
<ele>305</ele>
<time>2019-06-01T11:21:18Z</time>
</trkpt>
<trkpt lat="49.528193" lon="10.481475">
<ele>305</ele>
<time>2019-06-01T11:21:23Z</time>
</trkpt>
<trkpt lat="49.528063" lon="10.481348">
<ele>305</ele>
<time>2019-06-01T11:21:28Z</time>
</trkpt>
<trkpt lat="49.527925" lon="10.481303">
<ele>305</ele>
<time>2019-06-01T11:21:33Z</time>
</trkpt>
<trkpt lat="49.52781" lon="10.481298">
<ele>305</ele>
<time>2019-06-01T11:21:38Z</time>
</trkpt>
<trkpt lat="49.527683" lon="10.481342">
<ele>305</ele>
<time>2019-06-01T11:21:43Z</time>
</trkpt>
<trkpt lat="49.527592" lon="10.481355">
<ele>306</ele>
<time>2019-06-01T11:21:48Z</time>
</trkpt>
<trkpt lat="49.527575" lon="10.481348">
<ele>306</ele>
<time>2019-06-01T11:21:53Z</time>
</trkpt>
<trkpt lat="49.527573" lon="10.481352">
<ele>306</ele>
<time>2019-06-01T11:21:58Z</time>
</trkpt>
<trkpt lat="49.527572" lon="10.481365">
<ele>306</ele>
<time>2019-06-01T11:22:03Z</time>
</trkpt>
<trkpt lat="49.527567" lon="10.481363">
<ele>306</ele>
<time>2019-06-01T11:22:08Z</time>
</trkpt>
<trkpt lat="49.527565" lon="10.481363">
<ele>306</ele>
<time>2019-06-01T11:22:13Z</time>
</trkpt>
<trkpt lat="49.527558" lon="10.481362">
<ele>306</ele>
<time>2019-06-01T11:23:58Z</time>
</trkpt>
<trkpt lat="49.527467" lon="10.481358">
<ele>306</ele>
<time>2019-06-01T11:24:03Z</time>
</trkpt>
<trkpt lat="49.527352" lon="10.481373">
<ele>306</ele>
<time>2019-06-01T11:24:08Z</time>
</trkpt>
<trkpt lat="49.527217" lon="10.481317">
<ele>306</ele>
<time>2019-06-01T11:24:13Z</time>
</trkpt>
<trkpt lat="49.527137" lon="10.48108">
<ele>306</ele>
<time>2019-06-01T11:24:18Z</time>
</trkpt>
<trkpt lat="49.527143" lon="10.48079">
<ele>306</ele>
<time>2019-06-01T11:24:23Z</time>
</trkpt>
<trkpt lat="49.527122" lon="10.4805">
<ele>306</ele>
<time>2019-06-01T11:24:28Z</time>
</trkpt>
<trkpt lat="49.527033" lon="10.4803">
<ele>306</ele>
<time>2019-06-01T11:24:33Z</time>
</trkpt>
<trkpt lat="49.526888" lon="10.480277">
<ele>306</ele>
<time>2019-06-01T11:24:38Z</time>
</trkpt>
<trkpt lat="49.526793" lon="10.480238">
<ele>306</ele>
<time>2019-06-01T11:24:43Z</time>
</trkpt>
<trkpt lat="49.526665" lon="10.480115">
<ele>306</ele>
<time>2019-06-01T11:24:48Z</time>
</trkpt>
<trkpt lat="49.526438" lon="10.480003">
<ele>306</ele>
<time>2019-06-01T11:24:53Z</time>
</trkpt>
<trkpt lat="49.52617" lon="10.479952">
<ele>306</ele>
<time>2019-06-01T11:24:58Z</time>
</trkpt>
<trkpt lat="49.525863" lon="10.479872">
<ele>306</ele>
<time>2019-06-01T11:25:03Z</time>
</trkpt>
<trkpt lat="49.525575" lon="10.479678">
<ele>306</ele>
<time>2019-06-01T11:25:08Z</time>
</trkpt>
<trkpt lat="49.525332" lon="10.479397">
<ele>306</ele>
<time>2019-06-01T11:25:13Z</time>
</trkpt>
<trkpt lat="49.52513" lon="10.4791">
<ele>306</ele>
<time>2019-06-01T11:25:18Z</time>
</trkpt>
<trkpt lat="49.52492" lon="10.478785">
<ele>306</ele>
<time>2019-06-01T11:25:23Z</time>
</trkpt>
<trkpt lat="49.524718" lon="10.478468">
<ele>306</ele>
<time>2019-06-01T11:25:28Z</time>
</trkpt>
<trkpt lat="49.52452" lon="10.478188">
<ele>306</ele>
<time>2019-06-01T11:25:33Z</time>
</trkpt>
<trkpt lat="49.524337" lon="10.477922">
<ele>306</ele>
<time>2019-06-01T11:25:38Z</time>
</trkpt>
<trkpt lat="49.524108" lon="10.4777">
<ele>306</ele>
<time>2019-06-01T11:25:43Z</time>
</trkpt>
<trkpt lat="49.523868" lon="10.47752">
<ele>306</ele>
<time>2019-06-01T11:25:48Z</time>
</trkpt>
<trkpt lat="49.523618" lon="10.477363">
<ele>306</ele>
<time>2019-06-01T11:25:53Z</time>
</trkpt>
<trkpt lat="49.523378" lon="10.47723">
<ele>306</ele>
<time>2019-06-01T11:25:58Z</time>
</trkpt>
<trkpt lat="49.52317" lon="10.477087">
<ele>306</ele>
<time>2019-06-01T11:26:03Z</time>
</trkpt>
<trkpt lat="49.522948" lon="10.476892">
<ele>306</ele>
<time>2019-06-01T11:26:08Z</time>
</trkpt>
<trkpt lat="49.5227" lon="10.476585">
<ele>306</ele>
<time>2019-06-01T11:26:13Z</time>
</trkpt>
<trkpt lat="49.52249" lon="10.476238">
<ele>305</ele>
<time>2019-06-01T11:26:18Z</time>
</trkpt>
<trkpt lat="49.522315" lon="10.475893">
<ele>305</ele>
<time>2019-06-01T11:26:23Z</time>
</trkpt>
<trkpt lat="49.522138" lon="10.475567">
<ele>305</ele>
<time>2019-06-01T11:26:28Z</time>
</trkpt>
<trkpt lat="49.521952" lon="10.475232">
<ele>305</ele>
<time>2019-06-01T11:26:33Z</time>
</trkpt>
<trkpt lat="49.521748" lon="10.474908">
<ele>305</ele>
<time>2019-06-01T11:26:38Z</time>
</trkpt>
<trkpt lat="49.521542" lon="10.474587">
<ele>305</ele>
<time>2019-06-01T11:26:43Z</time>
</trkpt>
<trkpt lat="49.521345" lon="10.474277">
<ele>305</ele>
<time>2019-06-01T11:26:48Z</time>
</trkpt>
<trkpt lat="49.521117" lon="10.474103">
<ele>305</ele>
<time>2019-06-01T11:26:53Z</time>
</trkpt>
<trkpt lat="49.520925" lon="10.473818">
<ele>305</ele>
<time>2019-06-01T11:26:58Z</time>
</trkpt>
<trkpt lat="49.520702" lon="10.47351">
<ele>305</ele>
<time>2019-06-01T11:27:03Z</time>
</trkpt>
<trkpt lat="49.52046" lon="10.473185">
<ele>305</ele>
<time>2019-06-01T11:27:08Z</time>
</trkpt>
<trkpt lat="49.52023" lon="10.4729">
<ele>305</ele>
<time>2019-06-01T11:27:13Z</time>
</trkpt>
<trkpt lat="49.520005" lon="10.472603">
<ele>305</ele>
<time>2019-06-01T11:27:18Z</time>
</trkpt>
<trkpt lat="49.519773" lon="10.4723">
<ele>305</ele>
<time>2019-06-01T11:27:23Z</time>
</trkpt>
<trkpt lat="49.519547" lon="10.472003">
<ele>305</ele>
<time>2019-06-01T11:27:28Z</time>
</trkpt>
<trkpt lat="49.519313" lon="10.471707">
<ele>305</ele>
<time>2019-06-01T11:27:33Z</time>
</trkpt>
<trkpt lat="49.519072" lon="10.47144">
<ele>305</ele>
<time>2019-06-01T11:27:38Z</time>
</trkpt>
<trkpt lat="49.518732" lon="10.471145">
<ele>305</ele>
<time>2019-06-01T11:27:44Z</time>
</trkpt>
<trkpt lat="49.518425" lon="10.470953">
<ele>305</ele>
<time>2019-06-01T11:27:49Z</time>
</trkpt>
<trkpt lat="49.518147" lon="10.4708">
<ele>305</ele>
<time>2019-06-01T11:27:54Z</time>
</trkpt>
<trkpt lat="49.517902" lon="10.470585">
<ele>306</ele>
<time>2019-06-01T11:27:59Z</time>
</trkpt>
<trkpt lat="49.517713" lon="10.47023">
<ele>307</ele>
<time>2019-06-01T11:28:05Z</time>
</trkpt>
<trkpt lat="49.517543" lon="10.469947">
<ele>308</ele>
<time>2019-06-01T11:28:11Z</time>
</trkpt>
<trkpt lat="49.517452" lon="10.469537">
<ele>308</ele>
<time>2019-06-01T11:28:17Z</time>
</trkpt>
<trkpt lat="49.517322" lon="10.46897">
<ele>308</ele>
<time>2019-06-01T11:28:23Z</time>
</trkpt>
<trkpt lat="49.517053" lon="10.468568">
<ele>306</ele>
<time>2019-06-01T11:28:29Z</time>
</trkpt>
<trkpt lat="49.516815" lon="10.468238">
<ele>306</ele>
<time>2019-06-01T11:28:34Z</time>
</trkpt>
<trkpt lat="49.51662" lon="10.467932">
<ele>306</ele>
<time>2019-06-01T11:28:39Z</time>
</trkpt>
<trkpt lat="49.516432" lon="10.467638">
<ele>306</ele>
<time>2019-06-01T11:28:44Z</time>
</trkpt>
<trkpt lat="49.516293" lon="10.467153">
<ele>306</ele>
<time>2019-06-01T11:28:50Z</time>
</trkpt>
<trkpt lat="49.516238" lon="10.466775">
<ele>306</ele>
<time>2019-06-01T11:28:55Z</time>
</trkpt>
<trkpt lat="49.516117" lon="10.466655">
<ele>305</ele>
<time>2019-06-01T11:29:00Z</time>
</trkpt>
<trkpt lat="49.515888" lon="10.466838">
<ele>305</ele>
<time>2019-06-01T11:29:05Z</time>
</trkpt>
<trkpt lat="49.515585" lon="10.467065">
<ele>305</ele>
<time>2019-06-01T11:29:11Z</time>
</trkpt>
<trkpt lat="49.515325" lon="10.467262">
<ele>305</ele>
<time>2019-06-01T11:29:16Z</time>
</trkpt>
<trkpt lat="49.515082" lon="10.467425">
<ele>305</ele>
<time>2019-06-01T11:29:21Z</time>
</trkpt>
<trkpt lat="49.514845" lon="10.467602">
<ele>305</ele>
<time>2019-06-01T11:29:26Z</time>
</trkpt>
<trkpt lat="49.51462" lon="10.467602">
<ele>305</ele>
<time>2019-06-01T11:29:32Z</time>
</trkpt>
<trkpt lat="49.514437" lon="10.467333">
<ele>306</ele>
<time>2019-06-01T11:29:37Z</time>
</trkpt>
<trkpt lat="49.514215" lon="10.466997">
<ele>306</ele>
<time>2019-06-01T11:29:43Z</time>
</trkpt>
<trkpt lat="49.513987" lon="10.466667">
<ele>306</ele>
<time>2019-06-01T11:29:49Z</time>
</trkpt>
<trkpt lat="49.513785" lon="10.466375">
<ele>306</ele>
<time>2019-06-01T11:29:54Z</time>
</trkpt>
<trkpt lat="49.513577" lon="10.46609">
<ele>306</ele>
<time>2019-06-01T11:29:59Z</time>
</trkpt>
<trkpt lat="49.513353" lon="10.465818">
<ele>307</ele>
<time>2019-06-01T11:30:04Z</time>
</trkpt>
<trkpt lat="49.51313" lon="10.465545">
<ele>307</ele>
<time>2019-06-01T11:30:09Z</time>
</trkpt>
<trkpt lat="49.512888" lon="10.46526">
<ele>308</ele>
<time>2019-06-01T11:30:14Z</time>
</trkpt>
<trkpt lat="49.512607" lon="10.464953">
<ele>308</ele>
<time>2019-06-01T11:30:20Z</time>
</trkpt>
<trkpt lat="49.512377" lon="10.464722">
<ele>308</ele>
<time>2019-06-01T11:30:25Z</time>
</trkpt>
<trkpt lat="49.51212" lon="10.464423">
<ele>308</ele>
<time>2019-06-01T11:30:30Z</time>
</trkpt>
<trkpt lat="49.511887" lon="10.46403">
<ele>308</ele>
<time>2019-06-01T11:30:35Z</time>
</trkpt>
<trkpt lat="49.511582" lon="10.463595">
<ele>307</ele>
<time>2019-06-01T11:30:41Z</time>
</trkpt>
<trkpt lat="49.511287" lon="10.463323">
<ele>307</ele>
<time>2019-06-01T11:30:46Z</time>
</trkpt>
<trkpt lat="49.510958" lon="10.463138">
<ele>307</ele>
<time>2019-06-01T11:30:51Z</time>
</trkpt>
<trkpt lat="49.510605" lon="10.463087">
<ele>307</ele>
<time>2019-06-01T11:30:57Z</time>
</trkpt>
<trkpt lat="49.510308" lon="10.463037">
<ele>307</ele>
<time>2019-06-01T11:31:02Z</time>
</trkpt>
<trkpt lat="49.509942" lon="10.46289">
<ele>307</ele>
<time>2019-06-01T11:31:08Z</time>
</trkpt>
<trkpt lat="49.509633" lon="10.462733">
<ele>307</ele>
<time>2019-06-01T11:31:13Z</time>
</trkpt>
<trkpt lat="49.509258" lon="10.46254">
<ele>307</ele>
<time>2019-06-01T11:31:19Z</time>
</trkpt>
<trkpt lat="49.508947" lon="10.462425">
<ele>307</ele>
<time>2019-06-01T11:31:24Z</time>
</trkpt>
<trkpt lat="49.508645" lon="10.462315">
<ele>307</ele>
<time>2019-06-01T11:31:29Z</time>
</trkpt>
<trkpt lat="49.50834" lon="10.46219">
<ele>307</ele>
<time>2019-06-01T11:31:34Z</time>
</trkpt>
<trkpt lat="49.507993" lon="10.462043">
<ele>307</ele>
<time>2019-06-01T11:31:40Z</time>
</trkpt>
<trkpt lat="49.50771" lon="10.461925">
<ele>307</ele>
<time>2019-06-01T11:31:45Z</time>
</trkpt>
<trkpt lat="49.507398" lon="10.461665">
<ele>307</ele>
<time>2019-06-01T11:31:51Z</time>
</trkpt>
<trkpt lat="49.507123" lon="10.46131">
<ele>307</ele>
<time>2019-06-01T11:31:57Z</time>
</trkpt>
<trkpt lat="49.506903" lon="10.461022">
<ele>307</ele>
<time>2019-06-01T11:32:02Z</time>
</trkpt>
<trkpt lat="49.506652" lon="10.460685">
<ele>308</ele>
<time>2019-06-01T11:32:08Z</time>
</trkpt>
<trkpt lat="49.506397" lon="10.460347">
<ele>308</ele>
<time>2019-06-01T11:32:14Z</time>
</trkpt>
<trkpt lat="49.506178" lon="10.460058">
<ele>308</ele>
<time>2019-06-01T11:32:19Z</time>
</trkpt>
<trkpt lat="49.505965" lon="10.459757">
<ele>308</ele>
<time>2019-06-01T11:32:24Z</time>
</trkpt>
<trkpt lat="49.505765" lon="10.459478">
<ele>308</ele>
<time>2019-06-01T11:32:29Z</time>
</trkpt>
<trkpt lat="49.5056" lon="10.459138">
<ele>308</ele>
<time>2019-06-01T11:32:35Z</time>
</trkpt>
<trkpt lat="49.505447" lon="10.458705">
<ele>308</ele>
<time>2019-06-01T11:32:41Z</time>
</trkpt>
<trkpt lat="49.505297" lon="10.45828">
<ele>308</ele>
<time>2019-06-01T11:32:47Z</time>
</trkpt>
<trkpt lat="49.50514" lon="10.457845">
<ele>307</ele>
<time>2019-06-01T11:32:53Z</time>
</trkpt>
<trkpt lat="49.504998" lon="10.457448">
<ele>307</ele>
<time>2019-06-01T11:32:59Z</time>
</trkpt>
<trkpt lat="49.504865" lon="10.457018">
<ele>307</ele>
<time>2019-06-01T11:33:05Z</time>
</trkpt>
<trkpt lat="49.504717" lon="10.45661">
<ele>307</ele>
<time>2019-06-01T11:33:11Z</time>
</trkpt>
<trkpt lat="49.504633" lon="10.456233">
<ele>307</ele>
<time>2019-06-01T11:33:16Z</time>
</trkpt>
<trkpt lat="49.504525" lon="10.455788">
<ele>307</ele>
<time>2019-06-01T11:33:22Z</time>
</trkpt>
<trkpt lat="49.504453" lon="10.45541">
<ele>307</ele>
<time>2019-06-01T11:33:27Z</time>
</trkpt>
<trkpt lat="49.504375" lon="10.455035">
<ele>307</ele>
<time>2019-06-01T11:33:32Z</time>
</trkpt>
<trkpt lat="49.50427" lon="10.454685">
<ele>307</ele>
<time>2019-06-01T11:33:37Z</time>
</trkpt>
<trkpt lat="49.504122" lon="10.454337">
<ele>307</ele>
<time>2019-06-01T11:33:42Z</time>
</trkpt>
<trkpt lat="49.503968" lon="10.45406">
<ele>307</ele>
<time>2019-06-01T11:33:47Z</time>
</trkpt>
<trkpt lat="49.50379" lon="10.453737">
<ele>307</ele>
<time>2019-06-01T11:33:53Z</time>
</trkpt>
<trkpt lat="49.503718" lon="10.453335">
<ele>307</ele>
<time>2019-06-01T11:33:58Z</time>
</trkpt>
<trkpt lat="49.503605" lon="10.452818">
<ele>307</ele>
<time>2019-06-01T11:34:04Z</time>
</trkpt>
<trkpt lat="49.503513" lon="10.452425">
<ele>307</ele>
<time>2019-06-01T11:34:09Z</time>
</trkpt>
<trkpt lat="49.503402" lon="10.451982">
<ele>307</ele>
<time>2019-06-01T11:34:15Z</time>
</trkpt>
<trkpt lat="49.503332" lon="10.451662">
<ele>307</ele>
<time>2019-06-01T11:34:20Z</time>
</trkpt>
<trkpt lat="49.503425" lon="10.451393">
<ele>307</ele>
<time>2019-06-01T11:34:25Z</time>
</trkpt>
<trkpt lat="49.50363" lon="10.451155">
<ele>307</ele>
<time>2019-06-01T11:34:30Z</time>
</trkpt>
<trkpt lat="49.503875" lon="10.450915">
<ele>307</ele>
<time>2019-06-01T11:34:35Z</time>
</trkpt>
<trkpt lat="49.504128" lon="10.450653">
<ele>307</ele>
<time>2019-06-01T11:34:40Z</time>
</trkpt>
<trkpt lat="49.504372" lon="10.450377">
<ele>307</ele>
<time>2019-06-01T11:34:45Z</time>
</trkpt>
<trkpt lat="49.50464" lon="10.450052">
<ele>307</ele>
<time>2019-06-01T11:34:51Z</time>
</trkpt>
<trkpt lat="49.504873" lon="10.449765">
<ele>307</ele>
<time>2019-06-01T11:34:56Z</time>
</trkpt>
<trkpt lat="49.505112" lon="10.449507">
<ele>307</ele>
<time>2019-06-01T11:35:01Z</time>
</trkpt>
<trkpt lat="49.505337" lon="10.449265">
<ele>307</ele>
<time>2019-06-01T11:35:06Z</time>
</trkpt>
<trkpt lat="49.505567" lon="10.449025">
<ele>307</ele>
<time>2019-06-01T11:35:11Z</time>
</trkpt>
<trkpt lat="49.50579" lon="10.44874">
<ele>307</ele>
<time>2019-06-01T11:35:16Z</time>
</trkpt>
<trkpt lat="49.505927" lon="10.44835">
<ele>307</ele>
<time>2019-06-01T11:35:21Z</time>
</trkpt>
<trkpt lat="49.506003" lon="10.447933">
<ele>307</ele>
<time>2019-06-01T11:35:26Z</time>
</trkpt>
<trkpt lat="49.506073" lon="10.447515">
<ele>307</ele>
<time>2019-06-01T11:35:31Z</time>
</trkpt>
<trkpt lat="49.506055" lon="10.4471">
<ele>307</ele>
<time>2019-06-01T11:35:36Z</time>
</trkpt>
<trkpt lat="49.505943" lon="10.446728">
<ele>308</ele>
<time>2019-06-01T11:35:41Z</time>
</trkpt>
<trkpt lat="49.505803" lon="10.446368">
<ele>308</ele>
<time>2019-06-01T11:35:46Z</time>
</trkpt>
<trkpt lat="49.505665" lon="10.445997">
<ele>309</ele>
<time>2019-06-01T11:35:51Z</time>
</trkpt>
<trkpt lat="49.505528" lon="10.44565">
<ele>310</ele>
<time>2019-06-01T11:35:56Z</time>
</trkpt>
<trkpt lat="49.505408" lon="10.44528">
<ele>310</ele>
<time>2019-06-01T11:36:01Z</time>
</trkpt>
<trkpt lat="49.505302" lon="10.444855">
<ele>310</ele>
<time>2019-06-01T11:36:06Z</time>
</trkpt>
<trkpt lat="49.505235" lon="10.444402">
<ele>310</ele>
<time>2019-06-01T11:36:11Z</time>
</trkpt>
<trkpt lat="49.505193" lon="10.443865">
<ele>310</ele>
<time>2019-06-01T11:36:17Z</time>
</trkpt>
<trkpt lat="49.505195" lon="10.443405">
<ele>310</ele>
<time>2019-06-01T11:36:22Z</time>
</trkpt>
<trkpt lat="49.505227" lon="10.442978">
<ele>310</ele>
<time>2019-06-01T11:36:27Z</time>
</trkpt>
<trkpt lat="49.505283" lon="10.442557">
<ele>310</ele>
<time>2019-06-01T11:36:32Z</time>
</trkpt>
<trkpt lat="49.50537" lon="10.442148">
<ele>310</ele>
<time>2019-06-01T11:36:37Z</time>
</trkpt>
<trkpt lat="49.505585" lon="10.44194">
<ele>310</ele>
<time>2019-06-01T11:36:42Z</time>
</trkpt>
<trkpt lat="49.505807" lon="10.441828">
<ele>310</ele>
<time>2019-06-01T11:36:47Z</time>
</trkpt>
<trkpt lat="49.505937" lon="10.441548">
<ele>310</ele>
<time>2019-06-01T11:36:52Z</time>
</trkpt>
<trkpt lat="49.50592" lon="10.441137">
<ele>309</ele>
<time>2019-06-01T11:36:57Z</time>
</trkpt>
<trkpt lat="49.505888" lon="10.440688">
<ele>309</ele>
<time>2019-06-01T11:37:02Z</time>
</trkpt>
<trkpt lat="49.505837" lon="10.440297">
<ele>309</ele>
<time>2019-06-01T11:37:07Z</time>
</trkpt>
<trkpt lat="49.505845" lon="10.439875">
<ele>309</ele>
<time>2019-06-01T11:37:12Z</time>
</trkpt>
<trkpt lat="49.505907" lon="10.43945">
<ele>309</ele>
<time>2019-06-01T11:37:17Z</time>
</trkpt>
<trkpt lat="49.505965" lon="10.439052">
<ele>309</ele>
<time>2019-06-01T11:37:22Z</time>
</trkpt>
<trkpt lat="49.505998" lon="10.438757">
<ele>309</ele>
<time>2019-06-01T11:37:27Z</time>
</trkpt>
<trkpt lat="49.506023" lon="10.438477">
<ele>309</ele>
<time>2019-06-01T11:37:32Z</time>
</trkpt>
<trkpt lat="49.50605" lon="10.438153">
<ele>309</ele>
<time>2019-06-01T11:37:37Z</time>
</trkpt>
<trkpt lat="49.506062" lon="10.437798">
<ele>309</ele>
<time>2019-06-01T11:37:42Z</time>
</trkpt>
<trkpt lat="49.506062" lon="10.437443">
<ele>309</ele>
<time>2019-06-01T11:37:47Z</time>
</trkpt>
<trkpt lat="49.50605" lon="10.437068">
<ele>309</ele>
<time>2019-06-01T11:37:52Z</time>
</trkpt>
<trkpt lat="49.506025" lon="10.436692">
<ele>309</ele>
<time>2019-06-01T11:37:57Z</time>
</trkpt>
<trkpt lat="49.506005" lon="10.436297">
<ele>309</ele>
<time>2019-06-01T11:38:02Z</time>
</trkpt>
<trkpt lat="49.505983" lon="10.435893">
<ele>309</ele>
<time>2019-06-01T11:38:07Z</time>
</trkpt>
<trkpt lat="49.50595" lon="10.435535">
<ele>309</ele>
<time>2019-06-01T11:38:12Z</time>
</trkpt>
<trkpt lat="49.505917" lon="10.43518">
<ele>309</ele>
<time>2019-06-01T11:38:17Z</time>
</trkpt>
<trkpt lat="49.505885" lon="10.434788">
<ele>309</ele>
<time>2019-06-01T11:38:22Z</time>
</trkpt>
<trkpt lat="49.505855" lon="10.434383">
<ele>309</ele>
<time>2019-06-01T11:38:27Z</time>
</trkpt>
<trkpt lat="49.50584" lon="10.433942">
<ele>309</ele>
<time>2019-06-01T11:38:32Z</time>
</trkpt>
<trkpt lat="49.505858" lon="10.433507">
<ele>309</ele>
<time>2019-06-01T11:38:37Z</time>
</trkpt>
<trkpt lat="49.505848" lon="10.433043">
<ele>309</ele>
<time>2019-06-01T11:38:42Z</time>
</trkpt>
<trkpt lat="49.50581" lon="10.43258">
<ele>309</ele>
<time>2019-06-01T11:38:47Z</time>
</trkpt>
<trkpt lat="49.505763" lon="10.432133">
<ele>309</ele>
<time>2019-06-01T11:38:52Z</time>
</trkpt>
<trkpt lat="49.505705" lon="10.431695">
<ele>309</ele>
<time>2019-06-01T11:38:57Z</time>
</trkpt>
<trkpt lat="49.505637" lon="10.431235">
<ele>309</ele>
<time>2019-06-01T11:39:02Z</time>
</trkpt>
<trkpt lat="49.505508" lon="10.43083">
<ele>309</ele>
<time>2019-06-01T11:39:07Z</time>
</trkpt>
<trkpt lat="49.505342" lon="10.43047">
<ele>309</ele>
<time>2019-06-01T11:39:12Z</time>
</trkpt>
<trkpt lat="49.505135" lon="10.43016">
<ele>309</ele>
<time>2019-06-01T11:39:17Z</time>
</trkpt>
<trkpt lat="49.504918" lon="10.429902">
<ele>309</ele>
<time>2019-06-01T11:39:22Z</time>
</trkpt>
<trkpt lat="49.504732" lon="10.42967">
<ele>309</ele>
<time>2019-06-01T11:39:27Z</time>
</trkpt>
<trkpt lat="49.504618" lon="10.429377">
<ele>309</ele>
<time>2019-06-01T11:39:32Z</time>
</trkpt>
<trkpt lat="49.504512" lon="10.429077">
<ele>309</ele>
<time>2019-06-01T11:39:37Z</time>
</trkpt>
<trkpt lat="49.504273" lon="10.428993">
<ele>309</ele>
<time>2019-06-01T11:39:42Z</time>
</trkpt>
<trkpt lat="49.504052" lon="10.428812">
<ele>309</ele>
<time>2019-06-01T11:39:47Z</time>
</trkpt>
<trkpt lat="49.50389" lon="10.428478">
<ele>309</ele>
<time>2019-06-01T11:39:52Z</time>
</trkpt>
<trkpt lat="49.503758" lon="10.428137">
<ele>309</ele>
<time>2019-06-01T11:39:57Z</time>
</trkpt>
<trkpt lat="49.503677" lon="10.427768">
<ele>309</ele>
<time>2019-06-01T11:40:02Z</time>
</trkpt>
<trkpt lat="49.503662" lon="10.427408">
<ele>309</ele>
<time>2019-06-01T11:40:07Z</time>
</trkpt>
<trkpt lat="49.503702" lon="10.426992">
<ele>309</ele>
<time>2019-06-01T11:40:12Z</time>
</trkpt>
<trkpt lat="49.503757" lon="10.42659">
<ele>309</ele>
<time>2019-06-01T11:40:17Z</time>
</trkpt>
<trkpt lat="49.5038" lon="10.426237">
<ele>309</ele>
<time>2019-06-01T11:40:22Z</time>
</trkpt>
<trkpt lat="49.503865" lon="10.425893">
<ele>309</ele>
<time>2019-06-01T11:40:27Z</time>
</trkpt>
<trkpt lat="49.503913" lon="10.425537">
<ele>309</ele>
<time>2019-06-01T11:40:32Z</time>
</trkpt>
<trkpt lat="49.503933" lon="10.425225">
<ele>309</ele>
<time>2019-06-01T11:40:37Z</time>
</trkpt>
<trkpt lat="49.503935" lon="10.42504">
<ele>309</ele>
<time>2019-06-01T11:40:42Z</time>
</trkpt>
<trkpt lat="49.503847" lon="10.425013">
<ele>309</ele>
<time>2019-06-01T11:40:47Z</time>
</trkpt>
<trkpt lat="49.503645" lon="10.425118">
<ele>309</ele>
<time>2019-06-01T11:40:52Z</time>
</trkpt>
<trkpt lat="49.503392" lon="10.425195">
<ele>309</ele>
<time>2019-06-01T11:40:57Z</time>
</trkpt>
<trkpt lat="49.503143" lon="10.425242">
<ele>309</ele>
<time>2019-06-01T11:41:02Z</time>
</trkpt>
<trkpt lat="49.502892" lon="10.425275">
<ele>309</ele>
<time>2019-06-01T11:41:07Z</time>
</trkpt>
<trkpt lat="49.502648" lon="10.42527">
<ele>310</ele>
<time>2019-06-01T11:41:12Z</time>
</trkpt>
<trkpt lat="49.502408" lon="10.425243">
<ele>310</ele>
<time>2019-06-01T11:41:17Z</time>
</trkpt>
<trkpt lat="49.502165" lon="10.425233">
<ele>310</ele>
<time>2019-06-01T11:41:22Z</time>
</trkpt>
<trkpt lat="49.501932" lon="10.425278">
<ele>310</ele>
<time>2019-06-01T11:41:27Z</time>
</trkpt>
<trkpt lat="49.5017" lon="10.425345">
<ele>310</ele>
<time>2019-06-01T11:41:32Z</time>
</trkpt>
<trkpt lat="49.501527" lon="10.425147">
<ele>310</ele>
<time>2019-06-01T11:41:37Z</time>
</trkpt>
<trkpt lat="49.50144" lon="10.42477">
<ele>310</ele>
<time>2019-06-01T11:41:42Z</time>
</trkpt>
<trkpt lat="49.501353" lon="10.42441">
<ele>310</ele>
<time>2019-06-01T11:41:47Z</time>
</trkpt>
<trkpt lat="49.501262" lon="10.424045">
<ele>310</ele>
<time>2019-06-01T11:41:52Z</time>
</trkpt>
<trkpt lat="49.501177" lon="10.423655">
<ele>310</ele>
<time>2019-06-01T11:41:57Z</time>
</trkpt>
<trkpt lat="49.50109" lon="10.423305">
<ele>310</ele>
<time>2019-06-01T11:42:02Z</time>
</trkpt>
<trkpt lat="49.501003" lon="10.422942">
<ele>310</ele>
<time>2019-06-01T11:42:07Z</time>
</trkpt>
<trkpt lat="49.500928" lon="10.422597">
<ele>310</ele>
<time>2019-06-01T11:42:12Z</time>
</trkpt>
<trkpt lat="49.500878" lon="10.422228">
<ele>310</ele>
<time>2019-06-01T11:42:17Z</time>
</trkpt>
<trkpt lat="49.500858" lon="10.421858">
<ele>310</ele>
<time>2019-06-01T11:42:22Z</time>
</trkpt>
<trkpt lat="49.500793" lon="10.421485">
<ele>310</ele>
<time>2019-06-01T11:42:27Z</time>
</trkpt>
<trkpt lat="49.50063" lon="10.421167">
<ele>310</ele>
<time>2019-06-01T11:42:32Z</time>
</trkpt>
<trkpt lat="49.500473" lon="10.420822">
<ele>310</ele>
<time>2019-06-01T11:42:37Z</time>
</trkpt>
<trkpt lat="49.500352" lon="10.420433">
<ele>310</ele>
<time>2019-06-01T11:42:42Z</time>
</trkpt>
<trkpt lat="49.50024" lon="10.420097">
<ele>311</ele>
<time>2019-06-01T11:42:47Z</time>
</trkpt>
<trkpt lat="49.500157" lon="10.419713">
<ele>311</ele>
<time>2019-06-01T11:42:52Z</time>
</trkpt>
<trkpt lat="49.500088" lon="10.419327">
<ele>311</ele>
<time>2019-06-01T11:42:57Z</time>
</trkpt>
<trkpt lat="49.500023" lon="10.418942">
<ele>311</ele>
<time>2019-06-01T11:43:02Z</time>
</trkpt>
<trkpt lat="49.499967" lon="10.41851">
<ele>312</ele>
<time>2019-06-01T11:43:08Z</time>
</trkpt>
<trkpt lat="49.499902" lon="10.41815">
<ele>313</ele>
<time>2019-06-01T11:43:13Z</time>
</trkpt>
<trkpt lat="49.499847" lon="10.417792">
<ele>313</ele>
<time>2019-06-01T11:43:18Z</time>
</trkpt>
<trkpt lat="49.49977" lon="10.417452">
<ele>314</ele>
<time>2019-06-01T11:43:23Z</time>
</trkpt>
<trkpt lat="49.499703" lon="10.417093">
<ele>314</ele>
<time>2019-06-01T11:43:28Z</time>
</trkpt>
<trkpt lat="49.499637" lon="10.416752">
<ele>314</ele>
<time>2019-06-01T11:43:33Z</time>
</trkpt>
<trkpt lat="49.499573" lon="10.416417">
<ele>314</ele>
<time>2019-06-01T11:43:38Z</time>
</trkpt>
<trkpt lat="49.499482" lon="10.416125">
<ele>315</ele>
<time>2019-06-01T11:43:43Z</time>
</trkpt>
<trkpt lat="49.49926" lon="10.416138">
<ele>315</ele>
<time>2019-06-01T11:43:48Z</time>
</trkpt>
<trkpt lat="49.49901" lon="10.416205">
<ele>315</ele>
<time>2019-06-01T11:43:53Z</time>
</trkpt>
<trkpt lat="49.498737" lon="10.416247">
<ele>314</ele>
<time>2019-06-01T11:43:58Z</time>
</trkpt>
<trkpt lat="49.498483" lon="10.416282">
<ele>314</ele>
<time>2019-06-01T11:44:03Z</time>
</trkpt>
<trkpt lat="49.498212" lon="10.416312">
<ele>314</ele>
<time>2019-06-01T11:44:08Z</time>
</trkpt>
<trkpt lat="49.497935" lon="10.41633">
<ele>314</ele>
<time>2019-06-01T11:44:13Z</time>
</trkpt>
<trkpt lat="49.49768" lon="10.416357">
<ele>314</ele>
<time>2019-06-01T11:44:18Z</time>
</trkpt>
<trkpt lat="49.497432" lon="10.4164">
<ele>314</ele>
<time>2019-06-01T11:44:23Z</time>
</trkpt>
<trkpt lat="49.497207" lon="10.41651">
<ele>314</ele>
<time>2019-06-01T11:44:28Z</time>
</trkpt>
<trkpt lat="49.497012" lon="10.416575">
<ele>313</ele>
<time>2019-06-01T11:44:33Z</time>
</trkpt>
<trkpt lat="49.49689" lon="10.416343">
<ele>313</ele>
<time>2019-06-01T11:44:38Z</time>
</trkpt>
<trkpt lat="49.496735" lon="10.416058">
<ele>313</ele>
<time>2019-06-01T11:44:43Z</time>
</trkpt>
<trkpt lat="49.496547" lon="10.415875">
<ele>313</ele>
<time>2019-06-01T11:44:48Z</time>
</trkpt>
<trkpt lat="49.49635" lon="10.415703">
<ele>313</ele>
<time>2019-06-01T11:44:53Z</time>
</trkpt>
<trkpt lat="49.496147" lon="10.41556">
<ele>313</ele>
<time>2019-06-01T11:44:58Z</time>
</trkpt>
<trkpt lat="49.495952" lon="10.415377">
<ele>313</ele>
<time>2019-06-01T11:45:03Z</time>
</trkpt>
<trkpt lat="49.495785" lon="10.415123">
<ele>313</ele>
<time>2019-06-01T11:45:08Z</time>
</trkpt>
<trkpt lat="49.495618" lon="10.414855">
<ele>313</ele>
<time>2019-06-01T11:45:13Z</time>
</trkpt>
<trkpt lat="49.495467" lon="10.414582">
<ele>313</ele>
<time>2019-06-01T11:45:18Z</time>
</trkpt>
<trkpt lat="49.495305" lon="10.414367">
<ele>313</ele>
<time>2019-06-01T11:45:23Z</time>
</trkpt>
<trkpt lat="49.49514" lon="10.414282">
<ele>313</ele>
<time>2019-06-01T11:45:28Z</time>
</trkpt>
<trkpt lat="49.495003" lon="10.414548">
<ele>313</ele>
<time>2019-06-01T11:45:33Z</time>
</trkpt>
<trkpt lat="49.494858" lon="10.414815">
<ele>313</ele>
<time>2019-06-01T11:45:38Z</time>
</trkpt>
<trkpt lat="49.494662" lon="10.415115">
<ele>313</ele>
<time>2019-06-01T11:45:43Z</time>
</trkpt>
<trkpt lat="49.494443" lon="10.415375">
<ele>313</ele>
<time>2019-06-01T11:45:48Z</time>
</trkpt>
<trkpt lat="49.49427" lon="10.415653">
<ele>313</ele>
<time>2019-06-01T11:45:53Z</time>
</trkpt>
<trkpt lat="49.494053" lon="10.415913">
<ele>313</ele>
<time>2019-06-01T11:45:58Z</time>
</trkpt>
<trkpt lat="49.493798" lon="10.416135">
<ele>313</ele>
<time>2019-06-01T11:46:03Z</time>
</trkpt>
<trkpt lat="49.49355" lon="10.416375">
<ele>313</ele>
<time>2019-06-01T11:46:08Z</time>
</trkpt>
<trkpt lat="49.49331" lon="10.4166">
<ele>313</ele>
<time>2019-06-01T11:46:13Z</time>
</trkpt>
<trkpt lat="49.493075" lon="10.416822">
<ele>312</ele>
<time>2019-06-01T11:46:18Z</time>
</trkpt>
<trkpt lat="49.492853" lon="10.417032">
<ele>312</ele>
<time>2019-06-01T11:46:23Z</time>
</trkpt>
<trkpt lat="49.492637" lon="10.417237">
<ele>312</ele>
<time>2019-06-01T11:46:28Z</time>
</trkpt>
<trkpt lat="49.492412" lon="10.417443">
<ele>312</ele>
<time>2019-06-01T11:46:33Z</time>
</trkpt>
<trkpt lat="49.492187" lon="10.41762">
<ele>312</ele>
<time>2019-06-01T11:46:38Z</time>
</trkpt>
<trkpt lat="49.491957" lon="10.417772">
<ele>313</ele>
<time>2019-06-01T11:46:43Z</time>
</trkpt>
<trkpt lat="49.491722" lon="10.417892">
<ele>313</ele>
<time>2019-06-01T11:46:48Z</time>
</trkpt>
<trkpt lat="49.491478" lon="10.41799">
<ele>313</ele>
<time>2019-06-01T11:46:53Z</time>
</trkpt>
<trkpt lat="49.491247" lon="10.418082">
<ele>313</ele>
<time>2019-06-01T11:46:58Z</time>
</trkpt>
<trkpt lat="49.491027" lon="10.418157">
<ele>313</ele>
<time>2019-06-01T11:47:03Z</time>
</trkpt>
<trkpt lat="49.490818" lon="10.418253">
<ele>315</ele>
<time>2019-06-01T11:47:08Z</time>
</trkpt>
<trkpt lat="49.490595" lon="10.418337">
<ele>316</ele>
<time>2019-06-01T11:47:13Z</time>
</trkpt>
<trkpt lat="49.49036" lon="10.418403">
<ele>318</ele>
<time>2019-06-01T11:47:18Z</time>
</trkpt>
<trkpt lat="49.490137" lon="10.41849">
<ele>319</ele>
<time>2019-06-01T11:47:23Z</time>
</trkpt>
<trkpt lat="49.489932" lon="10.418572">
<ele>321</ele>
<time>2019-06-01T11:47:28Z</time>
</trkpt>
<trkpt lat="49.489723" lon="10.418657">
<ele>322</ele>
<time>2019-06-01T11:47:33Z</time>
</trkpt>
<trkpt lat="49.489517" lon="10.418742">
<ele>322</ele>
<time>2019-06-01T11:47:38Z</time>
</trkpt>
<trkpt lat="49.489275" lon="10.418843">
<ele>322</ele>
<time>2019-06-01T11:47:43Z</time>
</trkpt>
<trkpt lat="49.489" lon="10.418958">
<ele>322</ele>
<time>2019-06-01T11:47:48Z</time>
</trkpt>
<trkpt lat="49.488692" lon="10.419082">
<ele>321</ele>
<time>2019-06-01T11:47:53Z</time>
</trkpt>
<trkpt lat="49.488392" lon="10.41922">
<ele>320</ele>
<time>2019-06-01T11:47:58Z</time>
</trkpt>
<trkpt lat="49.488138" lon="10.419213">
<ele>319</ele>
<time>2019-06-01T11:48:03Z</time>
</trkpt>
<trkpt lat="49.48805" lon="10.418827">
<ele>319</ele>
<time>2019-06-01T11:48:08Z</time>
</trkpt>
<trkpt lat="49.487982" lon="10.41842">
<ele>319</ele>
<time>2019-06-01T11:48:13Z</time>
</trkpt>
<trkpt lat="49.487918" lon="10.418022">
<ele>320</ele>
<time>2019-06-01T11:48:18Z</time>
</trkpt>
<trkpt lat="49.487852" lon="10.417647">
<ele>320</ele>
<time>2019-06-01T11:48:23Z</time>
</trkpt>
<trkpt lat="49.487783" lon="10.41729">
<ele>320</ele>
<time>2019-06-01T11:48:28Z</time>
</trkpt>
<trkpt lat="49.487718" lon="10.416943">
<ele>320</ele>
<time>2019-06-01T11:48:33Z</time>
</trkpt>
<trkpt lat="49.487652" lon="10.416593">
<ele>320</ele>
<time>2019-06-01T11:48:38Z</time>
</trkpt>
<trkpt lat="49.487592" lon="10.416237">
<ele>320</ele>
<time>2019-06-01T11:48:43Z</time>
</trkpt>
<trkpt lat="49.487525" lon="10.415885">
<ele>321</ele>
<time>2019-06-01T11:48:48Z</time>
</trkpt>
<trkpt lat="49.487465" lon="10.41554">
<ele>321</ele>
<time>2019-06-01T11:48:53Z</time>
</trkpt>
<trkpt lat="49.4874" lon="10.415195">
<ele>321</ele>
<time>2019-06-01T11:48:58Z</time>
</trkpt>
<trkpt lat="49.487338" lon="10.414838">
<ele>321</ele>
<time>2019-06-01T11:49:03Z</time>
</trkpt>
<trkpt lat="49.487272" lon="10.414477">
<ele>322</ele>
<time>2019-06-01T11:49:08Z</time>
</trkpt>
<trkpt lat="49.487207" lon="10.414125">
<ele>322</ele>
<time>2019-06-01T11:49:13Z</time>
</trkpt>
<trkpt lat="49.487148" lon="10.413772">
<ele>322</ele>
<time>2019-06-01T11:49:18Z</time>
</trkpt>
<trkpt lat="49.487098" lon="10.413412">
<ele>323</ele>
<time>2019-06-01T11:49:23Z</time>
</trkpt>
<trkpt lat="49.487058" lon="10.41306">
<ele>323</ele>
<time>2019-06-01T11:49:28Z</time>
</trkpt>
<trkpt lat="49.48702" lon="10.412715">
<ele>323</ele>
<time>2019-06-01T11:49:33Z</time>
</trkpt>
<trkpt lat="49.48696" lon="10.412373">
<ele>324</ele>
<time>2019-06-01T11:49:38Z</time>
</trkpt>
<trkpt lat="49.486893" lon="10.412042">
<ele>324</ele>
<time>2019-06-01T11:49:43Z</time>
</trkpt>
<trkpt lat="49.486822" lon="10.411692">
<ele>324</ele>
<time>2019-06-01T11:49:48Z</time>
</trkpt>
<trkpt lat="49.486745" lon="10.411338">
<ele>324</ele>
<time>2019-06-01T11:49:53Z</time>
</trkpt>
<trkpt lat="49.486667" lon="10.41097">
<ele>325</ele>
<time>2019-06-01T11:49:58Z</time>
</trkpt>
<trkpt lat="49.486592" lon="10.410608">
<ele>326</ele>
<time>2019-06-01T11:50:03Z</time>
</trkpt>
<trkpt lat="49.486512" lon="10.410242">
<ele>326</ele>
<time>2019-06-01T11:50:08Z</time>
</trkpt>
<trkpt lat="49.48643" lon="10.409867">
<ele>326</ele>
<time>2019-06-01T11:50:13Z</time>
</trkpt>
<trkpt lat="49.48635" lon="10.409497">
<ele>326</ele>
<time>2019-06-01T11:50:18Z</time>
</trkpt>
<trkpt lat="49.486267" lon="10.40912">
<ele>327</ele>
<time>2019-06-01T11:50:23Z</time>
</trkpt>
<trkpt lat="49.486185" lon="10.408752">
<ele>327</ele>
<time>2019-06-01T11:50:28Z</time>
</trkpt>
<trkpt lat="49.486103" lon="10.40838">
<ele>327</ele>
<time>2019-06-01T11:50:33Z</time>
</trkpt>
<trkpt lat="49.486023" lon="10.408023">
<ele>328</ele>
<time>2019-06-01T11:50:38Z</time>
</trkpt>
<trkpt lat="49.485945" lon="10.407653">
<ele>328</ele>
<time>2019-06-01T11:50:43Z</time>
</trkpt>
<trkpt lat="49.485878" lon="10.40725">
<ele>329</ele>
<time>2019-06-01T11:50:48Z</time>
</trkpt>
<trkpt lat="49.485828" lon="10.406868">
<ele>329</ele>
<time>2019-06-01T11:50:53Z</time>
</trkpt>
<trkpt lat="49.485795" lon="10.406472">
<ele>330</ele>
<time>2019-06-01T11:50:58Z</time>
</trkpt>
<trkpt lat="49.485755" lon="10.406103">
<ele>330</ele>
<time>2019-06-01T11:51:03Z</time>
</trkpt>
<trkpt lat="49.48571" lon="10.405713">
<ele>331</ele>
<time>2019-06-01T11:51:08Z</time>
</trkpt>
<trkpt lat="49.485668" lon="10.405337">
<ele>331</ele>
<time>2019-06-01T11:51:13Z</time>
</trkpt>
<trkpt lat="49.485603" lon="10.404993">
<ele>331</ele>
<time>2019-06-01T11:51:18Z</time>
</trkpt>
<trkpt lat="49.485425" lon="10.404892">
<ele>332</ele>
<time>2019-06-01T11:51:23Z</time>
</trkpt>
<trkpt lat="49.485203" lon="10.405035">
<ele>332</ele>
<time>2019-06-01T11:51:28Z</time>
</trkpt>
<trkpt lat="49.484875" lon="10.405215">
<ele>332</ele>
<time>2019-06-01T11:51:33Z</time>
</trkpt>
<trkpt lat="49.484425" lon="10.40543">
<ele>329</ele>
<time>2019-06-01T11:51:38Z</time>
</trkpt>
<trkpt lat="49.483963" lon="10.405665">
<ele>327</ele>
<time>2019-06-01T11:51:43Z</time>
</trkpt>
<trkpt lat="49.483535" lon="10.40588">
<ele>325</ele>
<time>2019-06-01T11:51:48Z</time>
</trkpt>
<trkpt lat="49.483138" lon="10.406043">
<ele>325</ele>
<time>2019-06-01T11:51:53Z</time>
</trkpt>
<trkpt lat="49.482773" lon="10.406152">
<ele>325</ele>
<time>2019-06-01T11:51:58Z</time>
</trkpt>
<trkpt lat="49.482405" lon="10.40622">
<ele>325</ele>
<time>2019-06-01T11:52:03Z</time>
</trkpt>
<trkpt lat="49.48206" lon="10.406258">
<ele>325</ele>
<time>2019-06-01T11:52:08Z</time>
</trkpt>
<trkpt lat="49.481715" lon="10.406282">
<ele>325</ele>
<time>2019-06-01T11:52:13Z</time>
</trkpt>
<trkpt lat="49.48135" lon="10.406278">
<ele>325</ele>
<time>2019-06-01T11:52:18Z</time>
</trkpt>
<trkpt lat="49.480982" lon="10.406288">
<ele>324</ele>
<time>2019-06-01T11:52:23Z</time>
</trkpt>
<trkpt lat="49.480612" lon="10.4063">
<ele>323</ele>
<time>2019-06-01T11:52:28Z</time>
</trkpt>
<trkpt lat="49.480245" lon="10.40632">
<ele>323</ele>
<time>2019-06-01T11:52:33Z</time>
</trkpt>
<trkpt lat="49.479883" lon="10.406345">
<ele>323</ele>
<time>2019-06-01T11:52:38Z</time>
</trkpt>
<trkpt lat="49.479557" lon="10.406417">
<ele>322</ele>
<time>2019-06-01T11:52:43Z</time>
</trkpt>
<trkpt lat="49.47929" lon="10.406517">
<ele>322</ele>
<time>2019-06-01T11:52:48Z</time>
</trkpt>
<trkpt lat="49.479023" lon="10.406615">
<ele>322</ele>
<time>2019-06-01T11:52:53Z</time>
</trkpt>
<trkpt lat="49.478762" lon="10.406727">
<ele>322</ele>
<time>2019-06-01T11:52:58Z</time>
</trkpt>
<trkpt lat="49.47853" lon="10.406667">
<ele>322</ele>
<time>2019-06-01T11:53:03Z</time>
</trkpt>
<trkpt lat="49.478378" lon="10.406287">
<ele>322</ele>
<time>2019-06-01T11:53:08Z</time>
</trkpt>
<trkpt lat="49.478242" lon="10.405875">
<ele>322</ele>
<time>2019-06-01T11:53:13Z</time>
</trkpt>
<trkpt lat="49.478108" lon="10.405475">
<ele>322</ele>
<time>2019-06-01T11:53:18Z</time>
</trkpt>
<trkpt lat="49.477978" lon="10.405092">
<ele>322</ele>
<time>2019-06-01T11:53:23Z</time>
</trkpt>
<trkpt lat="49.477842" lon="10.404682">
<ele>322</ele>
<time>2019-06-01T11:53:28Z</time>
</trkpt>
<trkpt lat="49.477703" lon="10.404283">
<ele>322</ele>
<time>2019-06-01T11:53:33Z</time>
</trkpt>
<trkpt lat="49.477483" lon="10.40401">
<ele>322</ele>
<time>2019-06-01T11:53:38Z</time>
</trkpt>
<trkpt lat="49.477208" lon="10.403847">
<ele>322</ele>
<time>2019-06-01T11:53:43Z</time>
</trkpt>
<trkpt lat="49.47691" lon="10.40367">
<ele>322</ele>
<time>2019-06-01T11:53:48Z</time>
</trkpt>
<trkpt lat="49.476605" lon="10.403485">
<ele>322</ele>
<time>2019-06-01T11:53:53Z</time>
</trkpt>
<trkpt lat="49.476308" lon="10.403307">
<ele>322</ele>
<time>2019-06-01T11:53:58Z</time>
</trkpt>
<trkpt lat="49.476047" lon="10.403138">
<ele>322</ele>
<time>2019-06-01T11:54:03Z</time>
</trkpt>
<trkpt lat="49.475835" lon="10.402865">
<ele>322</ele>
<time>2019-06-01T11:54:08Z</time>
</trkpt>
<trkpt lat="49.47565" lon="10.402525">
<ele>323</ele>
<time>2019-06-01T11:54:13Z</time>
</trkpt>
<trkpt lat="49.47547" lon="10.402202">
<ele>323</ele>
<time>2019-06-01T11:54:18Z</time>
</trkpt>
<trkpt lat="49.475283" lon="10.401932">
<ele>323</ele>
<time>2019-06-01T11:54:23Z</time>
</trkpt>
<trkpt lat="49.475118" lon="10.401732">
<ele>323</ele>
<time>2019-06-01T11:54:28Z</time>
</trkpt>
<trkpt lat="49.47497" lon="10.401447">
<ele>323</ele>
<time>2019-06-01T11:54:33Z</time>
</trkpt>
<trkpt lat="49.474828" lon="10.401112">
<ele>324</ele>
<time>2019-06-01T11:54:38Z</time>
</trkpt>
<trkpt lat="49.474662" lon="10.400768">
<ele>324</ele>
<time>2019-06-01T11:54:43Z</time>
</trkpt>
<trkpt lat="49.474503" lon="10.400423">
<ele>324</ele>
<time>2019-06-01T11:54:48Z</time>
</trkpt>
<trkpt lat="49.474343" lon="10.400065">
<ele>324</ele>
<time>2019-06-01T11:54:53Z</time>
</trkpt>
<trkpt lat="49.474177" lon="10.399698">
<ele>324</ele>
<time>2019-06-01T11:54:58Z</time>
</trkpt>
<trkpt lat="49.47401" lon="10.399342">
<ele>324</ele>
<time>2019-06-01T11:55:03Z</time>
</trkpt>
<trkpt lat="49.473843" lon="10.398973">
<ele>324</ele>
<time>2019-06-01T11:55:08Z</time>
</trkpt>
<trkpt lat="49.47368" lon="10.398623">
<ele>324</ele>
<time>2019-06-01T11:55:13Z</time>
</trkpt>
<trkpt lat="49.473517" lon="10.398268">
<ele>324</ele>
<time>2019-06-01T11:55:18Z</time>
</trkpt>
<trkpt lat="49.47334" lon="10.397897">
<ele>324</ele>
<time>2019-06-01T11:55:23Z</time>
</trkpt>
<trkpt lat="49.473162" lon="10.397503">
<ele>324</ele>
<time>2019-06-01T11:55:28Z</time>
</trkpt>
<trkpt lat="49.472988" lon="10.397128">
<ele>324</ele>
<time>2019-06-01T11:55:33Z</time>
</trkpt>
<trkpt lat="49.472812" lon="10.396752">
<ele>325</ele>
<time>2019-06-01T11:55:38Z</time>
</trkpt>
<trkpt lat="49.472642" lon="10.396407">
<ele>325</ele>
<time>2019-06-01T11:55:43Z</time>
</trkpt>
<trkpt lat="49.47251" lon="10.396137">
<ele>325</ele>
<time>2019-06-01T11:55:48Z</time>
</trkpt>
<trkpt lat="49.472405" lon="10.395885">
<ele>325</ele>
<time>2019-06-01T11:55:53Z</time>
</trkpt>
<trkpt lat="49.472307" lon="10.39562">
<ele>326</ele>
<time>2019-06-01T11:55:58Z</time>
</trkpt>
<trkpt lat="49.472215" lon="10.395348">
<ele>326</ele>
<time>2019-06-01T11:56:03Z</time>
</trkpt>
<trkpt lat="49.472063" lon="10.395108">
<ele>326</ele>
<time>2019-06-01T11:56:08Z</time>
</trkpt>
<trkpt lat="49.471952" lon="10.394833">
<ele>326</ele>
<time>2019-06-01T11:56:13Z</time>
</trkpt>
<trkpt lat="49.471912" lon="10.394555">
<ele>326</ele>
<time>2019-06-01T11:56:18Z</time>
</trkpt>
<trkpt lat="49.471832" lon="10.39436">
<ele>326</ele>
<time>2019-06-01T11:56:23Z</time>
</trkpt>
<trkpt lat="49.471623" lon="10.394353">
<ele>326</ele>
<time>2019-06-01T11:56:28Z</time>
</trkpt>
<trkpt lat="49.47139" lon="10.3944">
<ele>326</ele>
<time>2019-06-01T11:56:33Z</time>
</trkpt>
<trkpt lat="49.471163" lon="10.394445">
<ele>326</ele>
<time>2019-06-01T11:56:38Z</time>
</trkpt>
<trkpt lat="49.470935" lon="10.394477">
<ele>327</ele>
<time>2019-06-01T11:56:43Z</time>
</trkpt>
<trkpt lat="49.470715" lon="10.394415">
<ele>327</ele>
<time>2019-06-01T11:56:48Z</time>
</trkpt>
<trkpt lat="49.47048" lon="10.3944">
<ele>328</ele>
<time>2019-06-01T11:56:53Z</time>
</trkpt>
<trkpt lat="49.470245" lon="10.394582">
<ele>328</ele>
<time>2019-06-01T11:56:58Z</time>
</trkpt>
<trkpt lat="49.470018" lon="10.394795">
<ele>328</ele>
<time>2019-06-01T11:57:03Z</time>
</trkpt>
<trkpt lat="49.469805" lon="10.394983">
<ele>328</ele>
<time>2019-06-01T11:57:08Z</time>
</trkpt>
<trkpt lat="49.469613" lon="10.395162">
<ele>328</ele>
<time>2019-06-01T11:57:13Z</time>
</trkpt>
<trkpt lat="49.469402" lon="10.395182">
<ele>328</ele>
<time>2019-06-01T11:57:18Z</time>
</trkpt>
<trkpt lat="49.469215" lon="10.395023">
<ele>329</ele>
<time>2019-06-01T11:57:23Z</time>
</trkpt>
<trkpt lat="49.469018" lon="10.394768">
<ele>330</ele>
<time>2019-06-01T11:57:28Z</time>
</trkpt>
<trkpt lat="49.468838" lon="10.394492">
<ele>330</ele>
<time>2019-06-01T11:57:33Z</time>
</trkpt>
<trkpt lat="49.46864" lon="10.394265">
<ele>332</ele>
<time>2019-06-01T11:57:38Z</time>
</trkpt>
<trkpt lat="49.468438" lon="10.394057">
<ele>332</ele>
<time>2019-06-01T11:57:43Z</time>
</trkpt>
<trkpt lat="49.468235" lon="10.393872">
<ele>332</ele>
<time>2019-06-01T11:57:48Z</time>
</trkpt>
<trkpt lat="49.468022" lon="10.393682">
<ele>333</ele>
<time>2019-06-01T11:57:53Z</time>
</trkpt>
<trkpt lat="49.467812" lon="10.393497">
<ele>333</ele>
<time>2019-06-01T11:57:58Z</time>
</trkpt>
<trkpt lat="49.467627" lon="10.393315">
<ele>334</ele>
<time>2019-06-01T11:58:03Z</time>
</trkpt>
<trkpt lat="49.46743" lon="10.393138">
<ele>335</ele>
<time>2019-06-01T11:58:08Z</time>
</trkpt>
<trkpt lat="49.467215" lon="10.392973">
<ele>335</ele>
<time>2019-06-01T11:58:13Z</time>
</trkpt>
<trkpt lat="49.466997" lon="10.392812">
<ele>335</ele>
<time>2019-06-01T11:58:18Z</time>
</trkpt>
<trkpt lat="49.466773" lon="10.392672">
<ele>336</ele>
<time>2019-06-01T11:58:23Z</time>
</trkpt>
<trkpt lat="49.46656" lon="10.392523">
<ele>336</ele>
<time>2019-06-01T11:58:28Z</time>
</trkpt>
<trkpt lat="49.46635" lon="10.39236">
<ele>337</ele>
<time>2019-06-01T11:58:33Z</time>
</trkpt>
<trkpt lat="49.466132" lon="10.39223">
<ele>338</ele>
<time>2019-06-01T11:58:38Z</time>
</trkpt>
<trkpt lat="49.465932" lon="10.3921">
<ele>339</ele>
<time>2019-06-01T11:58:43Z</time>
</trkpt>
<trkpt lat="49.465723" lon="10.391983">
<ele>340</ele>
<time>2019-06-01T11:58:48Z</time>
</trkpt>
<trkpt lat="49.465503" lon="10.391892">
<ele>340</ele>
<time>2019-06-01T11:58:53Z</time>
</trkpt>
<trkpt lat="49.465275" lon="10.391812">
<ele>340</ele>
<time>2019-06-01T11:58:58Z</time>
</trkpt>
<trkpt lat="49.465047" lon="10.391762">
<ele>340</ele>
<time>2019-06-01T11:59:03Z</time>
</trkpt>
<trkpt lat="49.464815" lon="10.391733">
<ele>341</ele>
<time>2019-06-01T11:59:08Z</time>
</trkpt>
<trkpt lat="49.46459" lon="10.391732">
<ele>342</ele>
<time>2019-06-01T11:59:13Z</time>
</trkpt>
<trkpt lat="49.464377" lon="10.391767">
<ele>343</ele>
<time>2019-06-01T11:59:18Z</time>
</trkpt>
<trkpt lat="49.464163" lon="10.391835">
<ele>343</ele>
<time>2019-06-01T11:59:23Z</time>
</trkpt>
<trkpt lat="49.463957" lon="10.391903">
<ele>344</ele>
<time>2019-06-01T11:59:28Z</time>
</trkpt>
<trkpt lat="49.463747" lon="10.391957">
<ele>344</ele>
<time>2019-06-01T11:59:33Z</time>
</trkpt>
<trkpt lat="49.463533" lon="10.392012">
<ele>345</ele>
<time>2019-06-01T11:59:38Z</time>
</trkpt>
<trkpt lat="49.463335" lon="10.392043">
<ele>346</ele>
<time>2019-06-01T11:59:43Z</time>
</trkpt>
<trkpt lat="49.46313" lon="10.392055">
<ele>346</ele>
<time>2019-06-01T11:59:48Z</time>
</trkpt>
<trkpt lat="49.462905" lon="10.392055">
<ele>347</ele>
<time>2019-06-01T11:59:53Z</time>
</trkpt>
<trkpt lat="49.462663" lon="10.392037">
<ele>348</ele>
<time>2019-06-01T11:59:58Z</time>
</trkpt>
<trkpt lat="49.462425" lon="10.392003">
<ele>349</ele>
<time>2019-06-01T12:00:03Z</time>
</trkpt>
<trkpt lat="49.4622" lon="10.391958">
<ele>349</ele>
<time>2019-06-01T12:00:08Z</time>
</trkpt>
<trkpt lat="49.461973" lon="10.391908">
<ele>350</ele>
<time>2019-06-01T12:00:13Z</time>
</trkpt>
<trkpt lat="49.461748" lon="10.391813">
<ele>351</ele>
<time>2019-06-01T12:00:18Z</time>
</trkpt>
<trkpt lat="49.461532" lon="10.391717">
<ele>351</ele>
<time>2019-06-01T12:00:23Z</time>
</trkpt>
<trkpt lat="49.461325" lon="10.391612">
<ele>351</ele>
<time>2019-06-01T12:00:28Z</time>
</trkpt>
<trkpt lat="49.46112" lon="10.391515">
<ele>352</ele>
<time>2019-06-01T12:00:33Z</time>
</trkpt>
<trkpt lat="49.460915" lon="10.391438">
<ele>352</ele>
<time>2019-06-01T12:00:38Z</time>
</trkpt>
<trkpt lat="49.460725" lon="10.391348">
<ele>353</ele>
<time>2019-06-01T12:00:43Z</time>
</trkpt>
<trkpt lat="49.460538" lon="10.391273">
<ele>354</ele>
<time>2019-06-01T12:00:48Z</time>
</trkpt>
<trkpt lat="49.46033" lon="10.391193">
<ele>354</ele>
<time>2019-06-01T12:00:53Z</time>
</trkpt>
<trkpt lat="49.460113" lon="10.391108">
<ele>355</ele>
<time>2019-06-01T12:00:58Z</time>
</trkpt>
<trkpt lat="49.459895" lon="10.391037">
<ele>355</ele>
<time>2019-06-01T12:01:03Z</time>
</trkpt>
<trkpt lat="49.459675" lon="10.390932">
<ele>356</ele>
<time>2019-06-01T12:01:08Z</time>
</trkpt>
<trkpt lat="49.459453" lon="10.390855">
<ele>357</ele>
<time>2019-06-01T12:01:13Z</time>
</trkpt>
<trkpt lat="49.459238" lon="10.390792">
<ele>357</ele>
<time>2019-06-01T12:01:18Z</time>
</trkpt>
<trkpt lat="49.459018" lon="10.39073">
<ele>357</ele>
<time>2019-06-01T12:01:23Z</time>
</trkpt>
<trkpt lat="49.4588" lon="10.390665">
<ele>358</ele>
<time>2019-06-01T12:01:28Z</time>
</trkpt>
<trkpt lat="49.45859" lon="10.390613">
<ele>359</ele>
<time>2019-06-01T12:01:33Z</time>
</trkpt>
<trkpt lat="49.458385" lon="10.39057">
<ele>359</ele>
<time>2019-06-01T12:01:38Z</time>
</trkpt>
<trkpt lat="49.458182" lon="10.390543">
<ele>360</ele>
<time>2019-06-01T12:01:43Z</time>
</trkpt>
<trkpt lat="49.457973" lon="10.390532">
<ele>360</ele>
<time>2019-06-01T12:01:48Z</time>
</trkpt>
<trkpt lat="49.45776" lon="10.390553">
<ele>361</ele>
<time>2019-06-01T12:01:53Z</time>
</trkpt>
<trkpt lat="49.457538" lon="10.390563">
<ele>361</ele>
<time>2019-06-01T12:01:58Z</time>
</trkpt>
<trkpt lat="49.457307" lon="10.390577">
<ele>362</ele>
<time>2019-06-01T12:02:03Z</time>
</trkpt>
<trkpt lat="49.457085" lon="10.390603">
<ele>362</ele>
<time>2019-06-01T12:02:08Z</time>
</trkpt>
<trkpt lat="49.456852" lon="10.390635">
<ele>362</ele>
<time>2019-06-01T12:02:13Z</time>
</trkpt>
<trkpt lat="49.45661" lon="10.390655">
<ele>363</ele>
<time>2019-06-01T12:02:18Z</time>
</trkpt>
<trkpt lat="49.456357" lon="10.390678">
<ele>363</ele>
<time>2019-06-01T12:02:23Z</time>
</trkpt>
<trkpt lat="49.456107" lon="10.390708">
<ele>363</ele>
<time>2019-06-01T12:02:28Z</time>
</trkpt>
<trkpt lat="49.455872" lon="10.390762">
<ele>363</ele>
<time>2019-06-01T12:02:33Z</time>
</trkpt>
<trkpt lat="49.45565" lon="10.390827">
<ele>363</ele>
<time>2019-06-01T12:02:38Z</time>
</trkpt>
<trkpt lat="49.455427" lon="10.390903">
<ele>364</ele>
<time>2019-06-01T12:02:43Z</time>
</trkpt>
<trkpt lat="49.455253" lon="10.390798">
<ele>364</ele>
<time>2019-06-01T12:02:48Z</time>
</trkpt>
<trkpt lat="49.455207" lon="10.390402">
<ele>364</ele>
<time>2019-06-01T12:02:53Z</time>
</trkpt>
<trkpt lat="49.455145" lon="10.389992">
<ele>364</ele>
<time>2019-06-01T12:02:58Z</time>
</trkpt>
<trkpt lat="49.455085" lon="10.389587">
<ele>364</ele>
<time>2019-06-01T12:03:03Z</time>
</trkpt>
<trkpt lat="49.45503" lon="10.389172">
<ele>364</ele>
<time>2019-06-01T12:03:08Z</time>
</trkpt>
<trkpt lat="49.454982" lon="10.388757">
<ele>364</ele>
<time>2019-06-01T12:03:13Z</time>
</trkpt>
<trkpt lat="49.454952" lon="10.388315">
<ele>364</ele>
<time>2019-06-01T12:03:18Z</time>
</trkpt>
<trkpt lat="49.454917" lon="10.38777">
<ele>364</ele>
<time>2019-06-01T12:03:23Z</time>
</trkpt>
<trkpt lat="49.454867" lon="10.387237">
<ele>362</ele>
<time>2019-06-01T12:03:28Z</time>
</trkpt>
<trkpt lat="49.454812" lon="10.386743">
<ele>362</ele>
<time>2019-06-01T12:03:33Z</time>
</trkpt>
<trkpt lat="49.454757" lon="10.386308">
<ele>364</ele>
<time>2019-06-01T12:03:38Z</time>
</trkpt>
<trkpt lat="49.454703" lon="10.385887">
<ele>365</ele>
<time>2019-06-01T12:03:43Z</time>
</trkpt>
<trkpt lat="49.454652" lon="10.38546">
<ele>365</ele>
<time>2019-06-01T12:03:48Z</time>
</trkpt>
<trkpt lat="49.454602" lon="10.38504">
<ele>365</ele>
<time>2019-06-01T12:03:53Z</time>
</trkpt>
<trkpt lat="49.454542" lon="10.384607">
<ele>365</ele>
<time>2019-06-01T12:03:58Z</time>
</trkpt>
<trkpt lat="49.454392" lon="10.384265">
<ele>365</ele>
<time>2019-06-01T12:04:03Z</time>
</trkpt>
<trkpt lat="49.454132" lon="10.384155">
<ele>365</ele>
<time>2019-06-01T12:04:08Z</time>
</trkpt>
<trkpt lat="49.453868" lon="10.384165">
<ele>365</ele>
<time>2019-06-01T12:04:13Z</time>
</trkpt>
<trkpt lat="49.453605" lon="10.384165">
<ele>365</ele>
<time>2019-06-01T12:04:18Z</time>
</trkpt>
<trkpt lat="49.453348" lon="10.384142">
<ele>366</ele>
<time>2019-06-01T12:04:23Z</time>
</trkpt>
<trkpt lat="49.453078" lon="10.384098">
<ele>366</ele>
<time>2019-06-01T12:04:28Z</time>
</trkpt>
<trkpt lat="49.452845" lon="10.383952">
<ele>367</ele>
<time>2019-06-01T12:04:33Z</time>
</trkpt>
<trkpt lat="49.452672" lon="10.383622">
<ele>367</ele>
<time>2019-06-01T12:04:38Z</time>
</trkpt>
<trkpt lat="49.452502" lon="10.383158">
<ele>367</ele>
<time>2019-06-01T12:04:43Z</time>
</trkpt>
<trkpt lat="49.452312" lon="10.382712">
<ele>366</ele>
<time>2019-06-01T12:04:48Z</time>
</trkpt>
<trkpt lat="49.452085" lon="10.38243">
<ele>366</ele>
<time>2019-06-01T12:04:53Z</time>
</trkpt>
<trkpt lat="49.451857" lon="10.382265">
<ele>366</ele>
<time>2019-06-01T12:04:58Z</time>
</trkpt>
<trkpt lat="49.451608" lon="10.38211">
<ele>366</ele>
<time>2019-06-01T12:05:03Z</time>
</trkpt>
<trkpt lat="49.451373" lon="10.381987">
<ele>367</ele>
<time>2019-06-01T12:05:08Z</time>
</trkpt>
<trkpt lat="49.45113" lon="10.381878">
<ele>368</ele>
<time>2019-06-01T12:05:13Z</time>
</trkpt>
<trkpt lat="49.450885" lon="10.381723">
<ele>369</ele>
<time>2019-06-01T12:05:18Z</time>
</trkpt>
<trkpt lat="49.45066" lon="10.38154">
<ele>369</ele>
<time>2019-06-01T12:05:23Z</time>
</trkpt>
<trkpt lat="49.450455" lon="10.381342">
<ele>370</ele>
<time>2019-06-01T12:05:28Z</time>
</trkpt>
<trkpt lat="49.450252" lon="10.381087">
<ele>370</ele>
<time>2019-06-01T12:05:33Z</time>
</trkpt>
<trkpt lat="49.450067" lon="10.380777">
<ele>371</ele>
<time>2019-06-01T12:05:38Z</time>
</trkpt>
<trkpt lat="49.4499" lon="10.380402">
<ele>371</ele>
<time>2019-06-01T12:05:43Z</time>
</trkpt>
<trkpt lat="49.449793" lon="10.37998">
<ele>370</ele>
<time>2019-06-01T12:05:48Z</time>
</trkpt>
<trkpt lat="49.449708" lon="10.379565">
<ele>370</ele>
<time>2019-06-01T12:05:53Z</time>
</trkpt>
<trkpt lat="49.449613" lon="10.379178">
<ele>370</ele>
<time>2019-06-01T12:05:58Z</time>
</trkpt>
<trkpt lat="49.449483" lon="10.37879">
<ele>371</ele>
<time>2019-06-01T12:06:03Z</time>
</trkpt>
<trkpt lat="49.449333" lon="10.37842">
<ele>371</ele>
<time>2019-06-01T12:06:08Z</time>
</trkpt>
<trkpt lat="49.449172" lon="10.378058">
<ele>371</ele>
<time>2019-06-01T12:06:13Z</time>
</trkpt>
<trkpt lat="49.449003" lon="10.377702">
<ele>372</ele>
<time>2019-06-01T12:06:18Z</time>
</trkpt>
<trkpt lat="49.44883" lon="10.377338">
<ele>372</ele>
<time>2019-06-01T12:06:23Z</time>
</trkpt>
<trkpt lat="49.448668" lon="10.376978">
<ele>372</ele>
<time>2019-06-01T12:06:28Z</time>
</trkpt>
<trkpt lat="49.448512" lon="10.376632">
<ele>372</ele>
<time>2019-06-01T12:06:33Z</time>
</trkpt>
<trkpt lat="49.448363" lon="10.376297">
<ele>372</ele>
<time>2019-06-01T12:06:38Z</time>
</trkpt>
<trkpt lat="49.448218" lon="10.375975">
<ele>372</ele>
<time>2019-06-01T12:06:43Z</time>
</trkpt>
<trkpt lat="49.448057" lon="10.37564">
<ele>372</ele>
<time>2019-06-01T12:06:48Z</time>
</trkpt>
<trkpt lat="49.447855" lon="10.375265">
<ele>372</ele>
<time>2019-06-01T12:06:53Z</time>
</trkpt>
<trkpt lat="49.447633" lon="10.374893">
<ele>372</ele>
<time>2019-06-01T12:06:58Z</time>
</trkpt>
<trkpt lat="49.447417" lon="10.374538">
<ele>372</ele>
<time>2019-06-01T12:07:03Z</time>
</trkpt>
<trkpt lat="49.447203" lon="10.37423">
<ele>372</ele>
<time>2019-06-01T12:07:08Z</time>
</trkpt>
<trkpt lat="49.447013" lon="10.373927">
<ele>372</ele>
<time>2019-06-01T12:07:13Z</time>
</trkpt>
<trkpt lat="49.446905" lon="10.373543">
<ele>371</ele>
<time>2019-06-01T12:07:18Z</time>
</trkpt>
<trkpt lat="49.446825" lon="10.373097">
<ele>371</ele>
<time>2019-06-01T12:07:23Z</time>
</trkpt>
<trkpt lat="49.446747" lon="10.372642">
<ele>370</ele>
<time>2019-06-01T12:07:28Z</time>
</trkpt>
<trkpt lat="49.446672" lon="10.372202">
<ele>370</ele>
<time>2019-06-01T12:07:33Z</time>
</trkpt>
<trkpt lat="49.446572" lon="10.371807">
<ele>370</ele>
<time>2019-06-01T12:07:38Z</time>
</trkpt>
<trkpt lat="49.44644" lon="10.371448">
<ele>369</ele>
<time>2019-06-01T12:07:43Z</time>
</trkpt>
<trkpt lat="49.446185" lon="10.371397">
<ele>369</ele>
<time>2019-06-01T12:07:48Z</time>
</trkpt>
<trkpt lat="49.44593" lon="10.37145">
<ele>369</ele>
<time>2019-06-01T12:07:53Z</time>
</trkpt>
<trkpt lat="49.445682" lon="10.371493">
<ele>369</ele>
<time>2019-06-01T12:07:58Z</time>
</trkpt>
<trkpt lat="49.445432" lon="10.371547">
<ele>369</ele>
<time>2019-06-01T12:08:03Z</time>
</trkpt>
<trkpt lat="49.445213" lon="10.371642">
<ele>369</ele>
<time>2019-06-01T12:08:08Z</time>
</trkpt>
<trkpt lat="49.445028" lon="10.371723">
<ele>371</ele>
<time>2019-06-01T12:08:13Z</time>
</trkpt>
<trkpt lat="49.444877" lon="10.37179">
<ele>372</ele>
<time>2019-06-01T12:08:18Z</time>
</trkpt>
<trkpt lat="49.444747" lon="10.371667">
<ele>373</ele>
<time>2019-06-01T12:08:23Z</time>
</trkpt>
<trkpt lat="49.444673" lon="10.371343">
<ele>373</ele>
<time>2019-06-01T12:08:28Z</time>
</trkpt>
<trkpt lat="49.444607" lon="10.370973">
<ele>373</ele>
<time>2019-06-01T12:08:33Z</time>
</trkpt>
<trkpt lat="49.444528" lon="10.370592">
<ele>373</ele>
<time>2019-06-01T12:08:38Z</time>
</trkpt>
<trkpt lat="49.444455" lon="10.370183">
<ele>373</ele>
<time>2019-06-01T12:08:43Z</time>
</trkpt>
<trkpt lat="49.444362" lon="10.369738">
<ele>373</ele>
<time>2019-06-01T12:08:48Z</time>
</trkpt>
<trkpt lat="49.444245" lon="10.369233">
<ele>371</ele>
<time>2019-06-01T12:08:53Z</time>
</trkpt>
<trkpt lat="49.444105" lon="10.36874">
<ele>371</ele>
<time>2019-06-01T12:08:58Z</time>
</trkpt>
<trkpt lat="49.443975" lon="10.368273">
<ele>371</ele>
<time>2019-06-01T12:09:03Z</time>
</trkpt>
<trkpt lat="49.443837" lon="10.36784">
<ele>370</ele>
<time>2019-06-01T12:09:08Z</time>
</trkpt>
<trkpt lat="49.443698" lon="10.367382">
<ele>370</ele>
<time>2019-06-01T12:09:13Z</time>
</trkpt>
<trkpt lat="49.44355" lon="10.36689">
<ele>369</ele>
<time>2019-06-01T12:09:18Z</time>
</trkpt>
<trkpt lat="49.443413" lon="10.366375">
<ele>367</ele>
<time>2019-06-01T12:09:23Z</time>
</trkpt>
<trkpt lat="49.443338" lon="10.365843">
<ele>367</ele>
<time>2019-06-01T12:09:28Z</time>
</trkpt>
<trkpt lat="49.44326" lon="10.365315">
<ele>366</ele>
<time>2019-06-01T12:09:33Z</time>
</trkpt>
<trkpt lat="49.443132" lon="10.364855">
<ele>365</ele>
<time>2019-06-01T12:09:38Z</time>
</trkpt>
<trkpt lat="49.443015" lon="10.364498">
<ele>365</ele>
<time>2019-06-01T12:09:43Z</time>
</trkpt>
<trkpt lat="49.442912" lon="10.364162">
<ele>365</ele>
<time>2019-06-01T12:09:48Z</time>
</trkpt>
<trkpt lat="49.442815" lon="10.363828">
<ele>365</ele>
<time>2019-06-01T12:09:53Z</time>
</trkpt>
<trkpt lat="49.44273" lon="10.363517">
<ele>365</ele>
<time>2019-06-01T12:09:58Z</time>
</trkpt>
<trkpt lat="49.442752" lon="10.363248">
<ele>365</ele>
<time>2019-06-01T12:10:03Z</time>
</trkpt>
<trkpt lat="49.44299" lon="10.363092">
<ele>365</ele>
<time>2019-06-01T12:10:08Z</time>
</trkpt>
<trkpt lat="49.443248" lon="10.36297">
<ele>364</ele>
<time>2019-06-01T12:10:13Z</time>
</trkpt>
<trkpt lat="49.443373" lon="10.362778">
<ele>364</ele>
<time>2019-06-01T12:10:18Z</time>
</trkpt>
<trkpt lat="49.443283" lon="10.362428">
<ele>364</ele>
<time>2019-06-01T12:10:23Z</time>
</trkpt>
<trkpt lat="49.443192" lon="10.362055">
<ele>363</ele>
<time>2019-06-01T12:10:28Z</time>
</trkpt>
<trkpt lat="49.44313" lon="10.36163">
<ele>363</ele>
<time>2019-06-01T12:10:33Z</time>
</trkpt>
<trkpt lat="49.443143" lon="10.361138">
<ele>362</ele>
<time>2019-06-01T12:10:38Z</time>
</trkpt>
<trkpt lat="49.443165" lon="10.360632">
<ele>361</ele>
<time>2019-06-01T12:10:43Z</time>
</trkpt>
<trkpt lat="49.443183" lon="10.360103">
<ele>360</ele>
<time>2019-06-01T12:10:48Z</time>
</trkpt>
<trkpt lat="49.443183" lon="10.359618">
<ele>360</ele>
<time>2019-06-01T12:10:53Z</time>
</trkpt>
<trkpt lat="49.443188" lon="10.359143">
<ele>358</ele>
<time>2019-06-01T12:10:58Z</time>
</trkpt>
<trkpt lat="49.44323" lon="10.358643">
<ele>358</ele>
<time>2019-06-01T12:11:03Z</time>
</trkpt>
<trkpt lat="49.443345" lon="10.358173">
<ele>358</ele>
<time>2019-06-01T12:11:08Z</time>
</trkpt>
<trkpt lat="49.44344" lon="10.357722">
<ele>358</ele>
<time>2019-06-01T12:11:13Z</time>
</trkpt>
<trkpt lat="49.44354" lon="10.357298">
<ele>358</ele>
<time>2019-06-01T12:11:18Z</time>
</trkpt>
<trkpt lat="49.443677" lon="10.356827">
<ele>357</ele>
<time>2019-06-01T12:11:23Z</time>
</trkpt>
<trkpt lat="49.443837" lon="10.356333">
<ele>355</ele>
<time>2019-06-01T12:11:28Z</time>
</trkpt>
<trkpt lat="49.444027" lon="10.355868">
<ele>355</ele>
<time>2019-06-01T12:11:33Z</time>
</trkpt>
<trkpt lat="49.444268" lon="10.355457">
<ele>355</ele>
<time>2019-06-01T12:11:38Z</time>
</trkpt>
<trkpt lat="49.444555" lon="10.355087">
<ele>355</ele>
<time>2019-06-01T12:11:43Z</time>
</trkpt>
<trkpt lat="49.444832" lon="10.354705">
<ele>354</ele>
<time>2019-06-01T12:11:48Z</time>
</trkpt>
<trkpt lat="49.445065" lon="10.354285">
<ele>353</ele>
<time>2019-06-01T12:11:53Z</time>
</trkpt>
<trkpt lat="49.445225" lon="10.353828">
<ele>353</ele>
<time>2019-06-01T12:11:58Z</time>
</trkpt>
<trkpt lat="49.445375" lon="10.353345">
<ele>353</ele>
<time>2019-06-01T12:12:03Z</time>
</trkpt>
<trkpt lat="49.445567" lon="10.352863">
<ele>353</ele>
<time>2019-06-01T12:12:08Z</time>
</trkpt>
<trkpt lat="49.44577" lon="10.352385">
<ele>352</ele>
<time>2019-06-01T12:12:13Z</time>
</trkpt>
<trkpt lat="49.445962" lon="10.351913">
<ele>352</ele>
<time>2019-06-01T12:12:18Z</time>
</trkpt>
<trkpt lat="49.446147" lon="10.351417">
<ele>351</ele>
<time>2019-06-01T12:12:23Z</time>
</trkpt>
<trkpt lat="49.44626" lon="10.35088">
<ele>350</ele>
<time>2019-06-01T12:12:28Z</time>
</trkpt>
<trkpt lat="49.446345" lon="10.350355">
<ele>350</ele>
<time>2019-06-01T12:12:33Z</time>
</trkpt>
<trkpt lat="49.446427" lon="10.349845">
<ele>349</ele>
<time>2019-06-01T12:12:38Z</time>
</trkpt>
<trkpt lat="49.446513" lon="10.349315">
<ele>349</ele>
<time>2019-06-01T12:12:43Z</time>
</trkpt>
<trkpt lat="49.44657" lon="10.348773">
<ele>349</ele>
<time>2019-06-01T12:12:48Z</time>
</trkpt>
<trkpt lat="49.446585" lon="10.348237">
<ele>349</ele>
<time>2019-06-01T12:12:53Z</time>
</trkpt>
<trkpt lat="49.4466" lon="10.347682">
<ele>349</ele>
<time>2019-06-01T12:12:58Z</time>
</trkpt>
<trkpt lat="49.446623" lon="10.34715">
<ele>349</ele>
<time>2019-06-01T12:13:03Z</time>
</trkpt>
<trkpt lat="49.446628" lon="10.346618">
<ele>349</ele>
<time>2019-06-01T12:13:08Z</time>
</trkpt>
<trkpt lat="49.446637" lon="10.346103">
<ele>349</ele>
<time>2019-06-01T12:13:13Z</time>
</trkpt>
<trkpt lat="49.446662" lon="10.345597">
<ele>348</ele>
<time>2019-06-01T12:13:18Z</time>
</trkpt>
<trkpt lat="49.446675" lon="10.345077">
<ele>347</ele>
<time>2019-06-01T12:13:23Z</time>
</trkpt>
<trkpt lat="49.446682" lon="10.344553">
<ele>347</ele>
<time>2019-06-01T12:13:28Z</time>
</trkpt>
<trkpt lat="49.446722" lon="10.34402">
<ele>346</ele>
<time>2019-06-01T12:13:33Z</time>
</trkpt>
<trkpt lat="49.446775" lon="10.343463">
<ele>346</ele>
<time>2019-06-01T12:13:38Z</time>
</trkpt>
<trkpt lat="49.446835" lon="10.34292">
<ele>346</ele>
<time>2019-06-01T12:13:43Z</time>
</trkpt>
<trkpt lat="49.446885" lon="10.34238">
<ele>346</ele>
<time>2019-06-01T12:13:48Z</time>
</trkpt>
<trkpt lat="49.446925" lon="10.341822">
<ele>346</ele>
<time>2019-06-01T12:13:53Z</time>
</trkpt>
<trkpt lat="49.446933" lon="10.341268">
<ele>345</ele>
<time>2019-06-01T12:13:58Z</time>
</trkpt>
<trkpt lat="49.446943" lon="10.340722">
<ele>345</ele>
<time>2019-06-01T12:14:03Z</time>
</trkpt>
<trkpt lat="49.446963" lon="10.340175">
<ele>345</ele>
<time>2019-06-01T12:14:08Z</time>
</trkpt>
<trkpt lat="49.446983" lon="10.339645">
<ele>345</ele>
<time>2019-06-01T12:14:13Z</time>
</trkpt>
<trkpt lat="49.447003" lon="10.339132">
<ele>345</ele>
<time>2019-06-01T12:14:18Z</time>
</trkpt>
<trkpt lat="49.447047" lon="10.338617">
<ele>344</ele>
<time>2019-06-01T12:14:23Z</time>
</trkpt>
<trkpt lat="49.447097" lon="10.338087">
<ele>344</ele>
<time>2019-06-01T12:14:28Z</time>
</trkpt>
<trkpt lat="49.447157" lon="10.337573">
<ele>344</ele>
<time>2019-06-01T12:14:33Z</time>
</trkpt>
<trkpt lat="49.447217" lon="10.337132">
<ele>344</ele>
<time>2019-06-01T12:14:38Z</time>
</trkpt>
<trkpt lat="49.447275" lon="10.336733">
<ele>344</ele>
<time>2019-06-01T12:14:43Z</time>
</trkpt>
<trkpt lat="49.447325" lon="10.336318">
<ele>344</ele>
<time>2019-06-01T12:14:48Z</time>
</trkpt>
<trkpt lat="49.447402" lon="10.335875">
<ele>344</ele>
<time>2019-06-01T12:14:53Z</time>
</trkpt>
<trkpt lat="49.4475" lon="10.33541">
<ele>344</ele>
<time>2019-06-01T12:14:58Z</time>
</trkpt>
<trkpt lat="49.447623" lon="10.334997">
<ele>345</ele>
<time>2019-06-01T12:15:03Z</time>
</trkpt>
<trkpt lat="49.447755" lon="10.334637">
<ele>346</ele>
<time>2019-06-01T12:15:08Z</time>
</trkpt>
<trkpt lat="49.447868" lon="10.334285">
<ele>346</ele>
<time>2019-06-01T12:15:13Z</time>
</trkpt>
<trkpt lat="49.447968" lon="10.333917">
<ele>346</ele>
<time>2019-06-01T12:15:18Z</time>
</trkpt>
<trkpt lat="49.44805" lon="10.333535">
<ele>347</ele>
<time>2019-06-01T12:15:23Z</time>
</trkpt>
<trkpt lat="49.448105" lon="10.333167">
<ele>348</ele>
<time>2019-06-01T12:15:28Z</time>
</trkpt>
<trkpt lat="49.448138" lon="10.332798">
<ele>349</ele>
<time>2019-06-01T12:15:33Z</time>
</trkpt>
<trkpt lat="49.448143" lon="10.332425">
<ele>349</ele>
<time>2019-06-01T12:15:38Z</time>
</trkpt>
<trkpt lat="49.44812" lon="10.332088">
<ele>350</ele>
<time>2019-06-01T12:15:43Z</time>
</trkpt>
<trkpt lat="49.448098" lon="10.331822">
<ele>350</ele>
<time>2019-06-01T12:15:48Z</time>
</trkpt>
<trkpt lat="49.448113" lon="10.331557">
<ele>350</ele>
<time>2019-06-01T12:15:53Z</time>
</trkpt>
<trkpt lat="49.44814" lon="10.33134">
<ele>351</ele>
<time>2019-06-01T12:15:58Z</time>
</trkpt>
<trkpt lat="49.448073" lon="10.33111">
<ele>351</ele>
<time>2019-06-01T12:16:03Z</time>
</trkpt>
<trkpt lat="49.44804" lon="10.330795">
<ele>351</ele>
<time>2019-06-01T12:16:08Z</time>
</trkpt>
<trkpt lat="49.448027" lon="10.33048">
<ele>352</ele>
<time>2019-06-01T12:16:13Z</time>
</trkpt>
<trkpt lat="49.448032" lon="10.33016">
<ele>353</ele>
<time>2019-06-01T12:16:18Z</time>
</trkpt>
<trkpt lat="49.448045" lon="10.329875">
<ele>353</ele>
<time>2019-06-01T12:16:23Z</time>
</trkpt>
<trkpt lat="49.448052" lon="10.329527">
<ele>353</ele>
<time>2019-06-01T12:16:28Z</time>
</trkpt>
<trkpt lat="49.448065" lon="10.329173">
<ele>353</ele>
<time>2019-06-01T12:16:33Z</time>
</trkpt>
<trkpt lat="49.44807" lon="10.328828">
<ele>353</ele>
<time>2019-06-01T12:16:38Z</time>
</trkpt>
<trkpt lat="49.44807" lon="10.328462">
<ele>353</ele>
<time>2019-06-01T12:16:43Z</time>
</trkpt>
<trkpt lat="49.448077" lon="10.328077">
<ele>353</ele>
<time>2019-06-01T12:16:48Z</time>
</trkpt>
<trkpt lat="49.448083" lon="10.327748">
<ele>353</ele>
<time>2019-06-01T12:16:53Z</time>
</trkpt>
<trkpt lat="49.44809" lon="10.327482">
<ele>353</ele>
<time>2019-06-01T12:16:58Z</time>
</trkpt>
<trkpt lat="49.448103" lon="10.327153">
<ele>353</ele>
<time>2019-06-01T12:17:03Z</time>
</trkpt>
<trkpt lat="49.44817" lon="10.326772">
<ele>352</ele>
<time>2019-06-01T12:17:08Z</time>
</trkpt>
<trkpt lat="49.448273" lon="10.326395">
<ele>351</ele>
<time>2019-06-01T12:17:13Z</time>
</trkpt>
<trkpt lat="49.448438" lon="10.326093">
<ele>349</ele>
<time>2019-06-01T12:17:18Z</time>
</trkpt>
<trkpt lat="49.448637" lon="10.325858">
<ele>347</ele>
<time>2019-06-01T12:17:23Z</time>
</trkpt>
<trkpt lat="49.448857" lon="10.325672">
<ele>345</ele>
<time>2019-06-01T12:17:28Z</time>
</trkpt>
<trkpt lat="49.449087" lon="10.325547">
<ele>345</ele>
<time>2019-06-01T12:17:33Z</time>
</trkpt>
<trkpt lat="49.449337" lon="10.325502">
<ele>345</ele>
<time>2019-06-01T12:17:38Z</time>
</trkpt>
<trkpt lat="49.449572" lon="10.325462">
<ele>345</ele>
<time>2019-06-01T12:17:43Z</time>
</trkpt>
<trkpt lat="49.44982" lon="10.325388">
<ele>344</ele>
<time>2019-06-01T12:17:48Z</time>
</trkpt>
<trkpt lat="49.450017" lon="10.325257">
<ele>344</ele>
<time>2019-06-01T12:17:53Z</time>
</trkpt>
<trkpt lat="49.450208" lon="10.325127">
<ele>344</ele>
<time>2019-06-01T12:17:58Z</time>
</trkpt>
<trkpt lat="49.450367" lon="10.32495">
<ele>343</ele>
<time>2019-06-01T12:18:03Z</time>
</trkpt>
<trkpt lat="49.450435" lon="10.324597">
<ele>343</ele>
<time>2019-06-01T12:18:08Z</time>
</trkpt>
<trkpt lat="49.450558" lon="10.324383">
<ele>343</ele>
<time>2019-06-01T12:18:13Z</time>
</trkpt>
<trkpt lat="49.450742" lon="10.32429">
<ele>343</ele>
<time>2019-06-01T12:18:18Z</time>
</trkpt>
<trkpt lat="49.450952" lon="10.32426">
<ele>342</ele>
<time>2019-06-01T12:18:23Z</time>
</trkpt>
<trkpt lat="49.451192" lon="10.324198">
<ele>342</ele>
<time>2019-06-01T12:18:28Z</time>
</trkpt>
<trkpt lat="49.451393" lon="10.324108">
<ele>342</ele>
<time>2019-06-01T12:18:33Z</time>
</trkpt>
<trkpt lat="49.451472" lon="10.324022">
<ele>342</ele>
<time>2019-06-01T12:18:38Z</time>
</trkpt>
<trkpt lat="49.451473" lon="10.323997">
<ele>341</ele>
<time>2019-06-01T12:18:43Z</time>
</trkpt>
<trkpt lat="49.451468" lon="10.323985">
<ele>341</ele>
<time>2019-06-01T12:18:48Z</time>
</trkpt>
<trkpt lat="49.451413" lon="10.32398">
<ele>341</ele>
<time>2019-06-01T12:18:53Z</time>
</trkpt>
<trkpt lat="49.451292" lon="10.324115">
<ele>341</ele>
<time>2019-06-01T12:18:58Z</time>
</trkpt>
<trkpt lat="49.451108" lon="10.324225">
<ele>341</ele>
<time>2019-06-01T12:19:03Z</time>
</trkpt>
<trkpt lat="49.45089" lon="10.324298">
<ele>341</ele>
<time>2019-06-01T12:19:08Z</time>
</trkpt>
<trkpt lat="49.450668" lon="10.324352">
<ele>341</ele>
<time>2019-06-01T12:19:13Z</time>
</trkpt>
<trkpt lat="49.45048" lon="10.324418">
<ele>341</ele>
<time>2019-06-01T12:19:18Z</time>
</trkpt>
<trkpt lat="49.450285" lon="10.324455">
<ele>341</ele>
<time>2019-06-01T12:19:23Z</time>
</trkpt>
<trkpt lat="49.45012" lon="10.324378">
<ele>342</ele>
<time>2019-06-01T12:19:28Z</time>
</trkpt>
<trkpt lat="49.449948" lon="10.324287">
<ele>342</ele>
<time>2019-06-01T12:19:33Z</time>
</trkpt>
<trkpt lat="49.449797" lon="10.324218">
<ele>342</ele>
<time>2019-06-01T12:19:38Z</time>
</trkpt>
<trkpt lat="49.44965" lon="10.324197">
<ele>343</ele>
<time>2019-06-01T12:19:43Z</time>
</trkpt>
<trkpt lat="49.449497" lon="10.32411">
<ele>344</ele>
<time>2019-06-01T12:19:48Z</time>
</trkpt>
<trkpt lat="49.449347" lon="10.324042">
<ele>344</ele>
<time>2019-06-01T12:19:53Z</time>
</trkpt>
<trkpt lat="49.4492" lon="10.323957">
<ele>344</ele>
<time>2019-06-01T12:19:58Z</time>
</trkpt>
<trkpt lat="49.449057" lon="10.323858">
<ele>344</ele>
<time>2019-06-01T12:20:03Z</time>
</trkpt>
<trkpt lat="49.448883" lon="10.323718">
<ele>345</ele>
<time>2019-06-01T12:20:08Z</time>
</trkpt>
<trkpt lat="49.448723" lon="10.323628">
<ele>346</ele>
<time>2019-06-01T12:20:13Z</time>
</trkpt>
<trkpt lat="49.448608" lon="10.323467">
<ele>346</ele>
<time>2019-06-01T12:20:18Z</time>
</trkpt>
<trkpt lat="49.448503" lon="10.323278">
<ele>346</ele>
<time>2019-06-01T12:20:23Z</time>
</trkpt>
<trkpt lat="49.448402" lon="10.323152">
<ele>347</ele>
<time>2019-06-01T12:20:28Z</time>
</trkpt>
<trkpt lat="49.448283" lon="10.323048">
<ele>348</ele>
<time>2019-06-01T12:20:33Z</time>
</trkpt>
<trkpt lat="49.448112" lon="10.322978">
<ele>348</ele>
<time>2019-06-01T12:20:38Z</time>
</trkpt>
<trkpt lat="49.447923" lon="10.32296">
<ele>349</ele>
<time>2019-06-01T12:20:43Z</time>
</trkpt>
<trkpt lat="49.447745" lon="10.322927">
<ele>350</ele>
<time>2019-06-01T12:20:48Z</time>
</trkpt>
<trkpt lat="49.447577" lon="10.322847">
<ele>351</ele>
<time>2019-06-01T12:20:53Z</time>
</trkpt>
<trkpt lat="49.44746" lon="10.322792">
<ele>352</ele>
<time>2019-06-01T12:20:58Z</time>
</trkpt>
<trkpt lat="49.447323" lon="10.322777">
<ele>352</ele>
<time>2019-06-01T12:21:03Z</time>
</trkpt>
<trkpt lat="49.447248" lon="10.322797">
<ele>352</ele>
<time>2019-06-01T12:21:08Z</time>
</trkpt>
<trkpt lat="49.44724" lon="10.322795">
<ele>352</ele>
<time>2019-06-01T12:21:13Z</time>
</trkpt>
<trkpt lat="49.447232" lon="10.322793">
<ele>352</ele>
<time>2019-06-01T12:21:18Z</time>
</trkpt>
<trkpt lat="49.44723" lon="10.322792">
<ele>352</ele>
<time>2019-06-01T12:21:38Z</time>
</trkpt>
<trkpt lat="49.447227" lon="10.322793">
<ele>352</ele>
<time>2019-06-01T12:22:33Z</time>
</trkpt>
<trkpt lat="49.447225" lon="10.322795">
<ele>352</ele>
<time>2019-06-01T12:22:38Z</time>
</trkpt>
<trkpt lat="49.447222" lon="10.322798">
<ele>352</ele>
<time>2019-06-01T12:22:43Z</time>
</trkpt>
<trkpt lat="49.447218" lon="10.3228">
<ele>352</ele>
<time>2019-06-01T12:22:53Z</time>
</trkpt>
<trkpt lat="49.447215" lon="10.322802">
<ele>352</ele>
<time>2019-06-01T12:22:58Z</time>
</trkpt>
<trkpt lat="49.447212" lon="10.322803">
<ele>352</ele>
<time>2019-06-01T12:23:03Z</time>
</trkpt>
<trkpt lat="49.447208" lon="10.32281">
<ele>352</ele>
<time>2019-06-01T12:23:08Z</time>
</trkpt>
<trkpt lat="49.447207" lon="10.32281">
<ele>352</ele>
<time>2019-06-01T12:23:13Z</time>
</trkpt>
<trkpt lat="49.447205" lon="10.322812">
<ele>352</ele>
<time>2019-06-01T12:23:23Z</time>
</trkpt>
<trkpt lat="49.447203" lon="10.32281">
<ele>352</ele>
<time>2019-06-01T12:23:33Z</time>
</trkpt>
<trkpt lat="49.447203" lon="10.322812">
<ele>352</ele>
<time>2019-06-01T12:23:38Z</time>
</trkpt>
<trkpt lat="49.447205" lon="10.322812">
<ele>352</ele>
<time>2019-06-01T12:23:43Z</time>
</trkpt>
<trkpt lat="49.447207" lon="10.322812">
<ele>352</ele>
<time>2019-06-01T12:23:48Z</time>
</trkpt>
<trkpt lat="49.447208" lon="10.322813">
<ele>352</ele>
<time>2019-06-01T12:23:53Z</time>
</trkpt>
<trkpt lat="49.4472" lon="10.322815">
<ele>352</ele>
<time>2019-06-01T12:23:58Z</time>
</trkpt>
<trkpt lat="49.44718" lon="10.322815">
<ele>352</ele>
<time>2019-06-01T12:24:03Z</time>
</trkpt>
<trkpt lat="49.44718" lon="10.322813">
<ele>352</ele>
<time>2019-06-01T12:24:08Z</time>
</trkpt>
<trkpt lat="49.447178" lon="10.322812">
<ele>352</ele>
<time>2019-06-01T12:24:18Z</time>
</trkpt>
<trkpt lat="49.447177" lon="10.322812">
<ele>352</ele>
<time>2019-06-01T12:24:23Z</time>
</trkpt>
<trkpt lat="49.447175" lon="10.322807">
<ele>352</ele>
<time>2019-06-01T12:24:28Z</time>
</trkpt>
<trkpt lat="49.447173" lon="10.322803">
<ele>352</ele>
<time>2019-06-01T12:24:33Z</time>
</trkpt>
<trkpt lat="49.447172" lon="10.322798">
<ele>352</ele>
<time>2019-06-01T12:24:38Z</time>
</trkpt>
<trkpt lat="49.447172" lon="10.322797">
<ele>352</ele>
<time>2019-06-01T12:24:43Z</time>
</trkpt>
<trkpt lat="49.44717" lon="10.322797">
<ele>352</ele>
<time>2019-06-01T12:24:48Z</time>
</trkpt>
<trkpt lat="49.447173" lon="10.322793">
<ele>352</ele>
<time>2019-06-01T12:24:53Z</time>
</trkpt>
<trkpt lat="49.447172" lon="10.322793">
<ele>352</ele>
<time>2019-06-01T12:24:58Z</time>
</trkpt>
<trkpt lat="49.447158" lon="10.3228">
<ele>352</ele>
<time>2019-06-01T12:25:13Z</time>
</trkpt>
<trkpt lat="49.447152" lon="10.322803">
<ele>352</ele>
<time>2019-06-01T12:25:18Z</time>
</trkpt>
<trkpt lat="49.447153" lon="10.322795">
<ele>352</ele>
<time>2019-06-01T12:25:23Z</time>
</trkpt>
<trkpt lat="49.447157" lon="10.322793">
<ele>352</ele>
<time>2019-06-01T12:25:28Z</time>
</trkpt>
<trkpt lat="49.447152" lon="10.322797">
<ele>352</ele>
<time>2019-06-01T12:25:33Z</time>
</trkpt>
<trkpt lat="49.447143" lon="10.322795">
<ele>352</ele>
<time>2019-06-01T12:25:38Z</time>
</trkpt>
<trkpt lat="49.447138" lon="10.322797">
<ele>352</ele>
<time>2019-06-01T12:25:43Z</time>
</trkpt>
<trkpt lat="49.447145" lon="10.32281">
<ele>352</ele>
<time>2019-06-01T12:25:48Z</time>
</trkpt>
<trkpt lat="49.44715" lon="10.322813">
<ele>352</ele>
<time>2019-06-01T12:25:53Z</time>
</trkpt>
<trkpt lat="49.447143" lon="10.32283">
<ele>352</ele>
<time>2019-06-01T12:25:58Z</time>
</trkpt>
<trkpt lat="49.447147" lon="10.322822">
<ele>352</ele>
<time>2019-06-01T12:26:03Z</time>
</trkpt>
<trkpt lat="49.44715" lon="10.322813">
<ele>352</ele>
<time>2019-06-01T12:26:08Z</time>
</trkpt>
<trkpt lat="49.447153" lon="10.322805">
<ele>352</ele>
<time>2019-06-01T12:26:13Z</time>
</trkpt>
<trkpt lat="49.447153" lon="10.322798">
<ele>352</ele>
<time>2019-06-01T12:26:18Z</time>
</trkpt>
<trkpt lat="49.447152" lon="10.322787">
<ele>352</ele>
<time>2019-06-01T12:26:23Z</time>
</trkpt>
<trkpt lat="49.44715" lon="10.322777">
<ele>352</ele>
<time>2019-06-01T12:26:28Z</time>
</trkpt>
<trkpt lat="49.447148" lon="10.32277">
<ele>352</ele>
<time>2019-06-01T12:26:33Z</time>
</trkpt>
<trkpt lat="49.447147" lon="10.322768">
<ele>352</ele>
<time>2019-06-01T12:26:38Z</time>
</trkpt>
<trkpt lat="49.44714" lon="10.32277">
<ele>352</ele>
<time>2019-06-01T12:26:43Z</time>
</trkpt>
<trkpt lat="49.447133" lon="10.32277">
<ele>352</ele>
<time>2019-06-01T12:26:48Z</time>
</trkpt>
<trkpt lat="49.447133" lon="10.322772">
<ele>352</ele>
<time>2019-06-01T12:26:53Z</time>
</trkpt>
<trkpt lat="49.447127" lon="10.322778">
<ele>352</ele>
<time>2019-06-01T12:26:58Z</time>
</trkpt>
<trkpt lat="49.447128" lon="10.32278">
<ele>352</ele>
<time>2019-06-01T12:27:03Z</time>
</trkpt>
<trkpt lat="49.447132" lon="10.322782">
<ele>352</ele>
<time>2019-06-01T12:27:08Z</time>
</trkpt>
<trkpt lat="49.447128" lon="10.322787">
<ele>352</ele>
<time>2019-06-01T12:27:13Z</time>
</trkpt>
<trkpt lat="49.44713" lon="10.32279">
<ele>352</ele>
<time>2019-06-01T12:27:18Z</time>
</trkpt>
<trkpt lat="49.447125" lon="10.322797">
<ele>352</ele>
<time>2019-06-01T12:27:23Z</time>
</trkpt>
<trkpt lat="49.447123" lon="10.3228">
<ele>352</ele>
<time>2019-06-01T12:27:28Z</time>
</trkpt>
<trkpt lat="49.447122" lon="10.322803">
<ele>352</ele>
<time>2019-06-01T12:27:33Z</time>
</trkpt>
<trkpt lat="49.447123" lon="10.322808">
<ele>352</ele>
<time>2019-06-01T12:27:38Z</time>
</trkpt>
<trkpt lat="49.447127" lon="10.322817">
<ele>352</ele>
<time>2019-06-01T12:27:43Z</time>
</trkpt>
<trkpt lat="49.447128" lon="10.32283">
<ele>352</ele>
<time>2019-06-01T12:27:48Z</time>
</trkpt>
<trkpt lat="49.447133" lon="10.322838">
<ele>352</ele>
<time>2019-06-01T12:27:53Z</time>
</trkpt>
<trkpt lat="49.447128" lon="10.322847">
<ele>352</ele>
<time>2019-06-01T12:27:58Z</time>
</trkpt>
<trkpt lat="49.447115" lon="10.322853">
<ele>352</ele>
<time>2019-06-01T12:28:03Z</time>
</trkpt>
<trkpt lat="49.447075" lon="10.322855">
<ele>352</ele>
<time>2019-06-01T12:28:08Z</time>
</trkpt>
<trkpt lat="49.447055" lon="10.322878">
<ele>352</ele>
<time>2019-06-01T12:28:13Z</time>
</trkpt>
<trkpt lat="49.447058" lon="10.32288">
<ele>352</ele>
<time>2019-06-01T12:28:18Z</time>
</trkpt>
<trkpt lat="49.44706" lon="10.322893">
<ele>352</ele>
<time>2019-06-01T12:28:23Z</time>
</trkpt>
<trkpt lat="49.447067" lon="10.322907">
<ele>352</ele>
<time>2019-06-01T12:28:28Z</time>
</trkpt>
<trkpt lat="49.447068" lon="10.322918">
<ele>352</ele>
<time>2019-06-01T12:28:33Z</time>
</trkpt>
<trkpt lat="49.447075" lon="10.322928">
<ele>352</ele>
<time>2019-06-01T12:28:38Z</time>
</trkpt>
<trkpt lat="49.447088" lon="10.32293">
<ele>352</ele>
<time>2019-06-01T12:28:43Z</time>
</trkpt>
<trkpt lat="49.44711" lon="10.322933">
<ele>352</ele>
<time>2019-06-01T12:28:48Z</time>
</trkpt>
<trkpt lat="49.447115" lon="10.322945">
<ele>352</ele>
<time>2019-06-01T12:28:53Z</time>
</trkpt>
<trkpt lat="49.447113" lon="10.32295">
<ele>352</ele>
<time>2019-06-01T12:28:58Z</time>
</trkpt>
<trkpt lat="49.44712" lon="10.322957">
<ele>352</ele>
<time>2019-06-01T12:29:03Z</time>
</trkpt>
<trkpt lat="49.447125" lon="10.322962">
<ele>352</ele>
<time>2019-06-01T12:29:08Z</time>
</trkpt>
<trkpt lat="49.447123" lon="10.322967">
<ele>352</ele>
<time>2019-06-01T12:29:13Z</time>
</trkpt>
<trkpt lat="49.447118" lon="10.322968">
<ele>352</ele>
<time>2019-06-01T12:29:18Z</time>
</trkpt>
<trkpt lat="49.44712" lon="10.322972">
<ele>352</ele>
<time>2019-06-01T12:29:23Z</time>
</trkpt>
<trkpt lat="49.447117" lon="10.322977">
<ele>352</ele>
<time>2019-06-01T12:29:28Z</time>
</trkpt>
<trkpt lat="49.447093" lon="10.32302">
<ele>352</ele>
<time>2019-06-01T12:29:33Z</time>
</trkpt>
<trkpt lat="49.447118" lon="10.322972">
<ele>352</ele>
<time>2019-06-01T12:29:38Z</time>
</trkpt>
<trkpt lat="49.447127" lon="10.322957">
<ele>352</ele>
<time>2019-06-01T12:29:43Z</time>
</trkpt>
<trkpt lat="49.44723" lon="10.322875">
<ele>352</ele>
<time>2019-06-01T12:29:48Z</time>
</trkpt>
<trkpt lat="49.447367" lon="10.322812">
<ele>352</ele>
<time>2019-06-01T12:29:53Z</time>
</trkpt>
<trkpt lat="49.447537" lon="10.322833">
<ele>352</ele>
<time>2019-06-01T12:29:58Z</time>
</trkpt>
<trkpt lat="49.447725" lon="10.32287">
<ele>352</ele>
<time>2019-06-01T12:30:03Z</time>
</trkpt>
<trkpt lat="49.447977" lon="10.322908">
<ele>352</ele>
<time>2019-06-01T12:30:08Z</time>
</trkpt>
<trkpt lat="49.448268" lon="10.32303">
<ele>351</ele>
<time>2019-06-01T12:30:13Z</time>
</trkpt>
<trkpt lat="49.4485" lon="10.32319">
<ele>349</ele>
<time>2019-06-01T12:30:18Z</time>
</trkpt>
<trkpt lat="49.448667" lon="10.323517">
<ele>349</ele>
<time>2019-06-01T12:30:23Z</time>
</trkpt>
<trkpt lat="49.448927" lon="10.323767">
<ele>348</ele>
<time>2019-06-01T12:30:28Z</time>
</trkpt>
<trkpt lat="49.449238" lon="10.323987">
<ele>348</ele>
<time>2019-06-01T12:30:34Z</time>
</trkpt>
<trkpt lat="49.44948" lon="10.324118">
<ele>347</ele>
<time>2019-06-01T12:30:39Z</time>
</trkpt>
<trkpt lat="49.449575" lon="10.324267">
<ele>346</ele>
<time>2019-06-01T12:30:44Z</time>
</trkpt>
<trkpt lat="49.44955" lon="10.324488">
<ele>345</ele>
<time>2019-06-01T12:30:49Z</time>
</trkpt>
<trkpt lat="49.449417" lon="10.324632">
<ele>345</ele>
<time>2019-06-01T12:30:54Z</time>
</trkpt>
<trkpt lat="49.449275" lon="10.324857">
<ele>346</ele>
<time>2019-06-01T12:30:59Z</time>
</trkpt>
<trkpt lat="49.44915" lon="10.325148">
<ele>346</ele>
<time>2019-06-01T12:31:04Z</time>
</trkpt>
<trkpt lat="49.449075" lon="10.325418">
<ele>346</ele>
<time>2019-06-01T12:31:09Z</time>
</trkpt>
<trkpt lat="49.448952" lon="10.32561">
<ele>346</ele>
<time>2019-06-01T12:31:15Z</time>
</trkpt>
<trkpt lat="49.448745" lon="10.325737">
<ele>346</ele>
<time>2019-06-01T12:31:21Z</time>
</trkpt>
<trkpt lat="49.448593" lon="10.32588">
<ele>346</ele>
<time>2019-06-01T12:31:26Z</time>
</trkpt>
<trkpt lat="49.448462" lon="10.326023">
<ele>347</ele>
<time>2019-06-01T12:31:31Z</time>
</trkpt>
<trkpt lat="49.448355" lon="10.32616">
<ele>348</ele>
<time>2019-06-01T12:31:36Z</time>
</trkpt>
<trkpt lat="49.44825" lon="10.326332">
<ele>349</ele>
<time>2019-06-01T12:31:41Z</time>
</trkpt>
<trkpt lat="49.448173" lon="10.326542">
<ele>350</ele>
<time>2019-06-01T12:31:46Z</time>
</trkpt>
<trkpt lat="49.448123" lon="10.326768">
<ele>351</ele>
<time>2019-06-01T12:31:51Z</time>
</trkpt>
<trkpt lat="49.44809" lon="10.327003">
<ele>351</ele>
<time>2019-06-01T12:31:56Z</time>
</trkpt>
<trkpt lat="49.448068" lon="10.327232">
<ele>352</ele>
<time>2019-06-01T12:32:01Z</time>
</trkpt>
<trkpt lat="49.448052" lon="10.327472">
<ele>353</ele>
<time>2019-06-01T12:32:06Z</time>
</trkpt>
<trkpt lat="49.448038" lon="10.327743">
<ele>353</ele>
<time>2019-06-01T12:32:11Z</time>
</trkpt>
<trkpt lat="49.448028" lon="10.328035">
<ele>354</ele>
<time>2019-06-01T12:32:16Z</time>
</trkpt>
<trkpt lat="49.448022" lon="10.328383">
<ele>354</ele>
<time>2019-06-01T12:32:21Z</time>
</trkpt>
<trkpt lat="49.448022" lon="10.328737">
<ele>354</ele>
<time>2019-06-01T12:32:26Z</time>
</trkpt>
<trkpt lat="49.448013" lon="10.329075">
<ele>354</ele>
<time>2019-06-01T12:32:31Z</time>
</trkpt>
<trkpt lat="49.44801" lon="10.329412">
<ele>354</ele>
<time>2019-06-01T12:32:36Z</time>
</trkpt>
<trkpt lat="49.448008" lon="10.329755">
<ele>354</ele>
<time>2019-06-01T12:32:41Z</time>
</trkpt>
<trkpt lat="49.448013" lon="10.330082">
<ele>354</ele>
<time>2019-06-01T12:32:46Z</time>
</trkpt>
<trkpt lat="49.448008" lon="10.330383">
<ele>354</ele>
<time>2019-06-01T12:32:51Z</time>
</trkpt>
<trkpt lat="49.448005" lon="10.330707">
<ele>354</ele>
<time>2019-06-01T12:32:56Z</time>
</trkpt>
<trkpt lat="49.448" lon="10.33105">
<ele>354</ele>
<time>2019-06-01T12:33:01Z</time>
</trkpt>
<trkpt lat="49.447935" lon="10.331405">
<ele>353</ele>
<time>2019-06-01T12:33:06Z</time>
</trkpt>
<trkpt lat="49.448052" lon="10.331578">
<ele>353</ele>
<time>2019-06-01T12:33:11Z</time>
</trkpt>
<trkpt lat="49.44827" lon="10.331532">
<ele>352</ele>
<time>2019-06-01T12:33:16Z</time>
</trkpt>
<trkpt lat="49.448478" lon="10.331427">
<ele>351</ele>
<time>2019-06-01T12:33:21Z</time>
</trkpt>
<trkpt lat="49.448483" lon="10.331153">
<ele>351</ele>
<time>2019-06-01T12:33:26Z</time>
</trkpt>
<trkpt lat="49.448495" lon="10.330982">
<ele>351</ele>
<time>2019-06-01T12:33:31Z</time>
</trkpt>
<trkpt lat="49.448552" lon="10.330872">
<ele>351</ele>
<time>2019-06-01T12:33:36Z</time>
</trkpt>
<trkpt lat="49.448562" lon="10.33086">
<ele>351</ele>
<time>2019-06-01T12:33:41Z</time>
</trkpt>
<trkpt lat="49.44856" lon="10.330858">
<ele>351</ele>
<time>2019-06-01T12:33:46Z</time>
</trkpt>
<trkpt lat="49.448555" lon="10.330863">
<ele>351</ele>
<time>2019-06-01T12:33:56Z</time>
</trkpt>
<trkpt lat="49.448552" lon="10.330865">
<ele>351</ele>
<time>2019-06-01T12:33:58Z</time>
</trkpt>
<trkpt lat="49.448598" lon="10.330883">
<ele>352</ele>
<time>2019-06-01T12:34:03Z</time>
</trkpt>
<trkpt lat="49.448592" lon="10.330892">
<ele>352</ele>
<time>2019-06-01T12:34:08Z</time>
</trkpt>
<trkpt lat="49.448607" lon="10.330913">
<ele>352</ele>
<time>2019-06-01T12:34:13Z</time>
</trkpt>
<trkpt lat="49.448587" lon="10.330937">
<ele>352</ele>
<time>2019-06-01T12:34:18Z</time>
</trkpt>
<trkpt lat="49.448533" lon="10.330942">
<ele>352</ele>
<time>2019-06-01T12:34:23Z</time>
</trkpt>
<trkpt lat="49.448518" lon="10.33094">
<ele>352</ele>
<time>2019-06-01T12:34:28Z</time>
</trkpt>
<trkpt lat="49.448518" lon="10.330945">
<ele>352</ele>
<time>2019-06-01T12:34:33Z</time>
</trkpt>
<trkpt lat="49.448502" lon="10.331028">
<ele>352</ele>
<time>2019-06-01T12:34:38Z</time>
</trkpt>
<trkpt lat="49.448492" lon="10.331145">
<ele>352</ele>
<time>2019-06-01T12:34:43Z</time>
</trkpt>
<trkpt lat="49.448522" lon="10.3313">
<ele>352</ele>
<time>2019-06-01T12:34:48Z</time>
</trkpt>
<trkpt lat="49.448447" lon="10.331497">
<ele>352</ele>
<time>2019-06-01T12:34:53Z</time>
</trkpt>
<trkpt lat="49.448283" lon="10.331468">
<ele>352</ele>
<time>2019-06-01T12:34:58Z</time>
</trkpt>
<trkpt lat="49.448152" lon="10.33135">
<ele>352</ele>
<time>2019-06-01T12:35:03Z</time>
</trkpt>
<trkpt lat="49.448" lon="10.331288">
<ele>353</ele>
<time>2019-06-01T12:35:08Z</time>
</trkpt>
<trkpt lat="49.447978" lon="10.331532">
<ele>353</ele>
<time>2019-06-01T12:35:13Z</time>
</trkpt>
<trkpt lat="49.448057" lon="10.331833">
<ele>353</ele>
<time>2019-06-01T12:35:18Z</time>
</trkpt>
<trkpt lat="49.448083" lon="10.332132">
<ele>353</ele>
<time>2019-06-01T12:35:23Z</time>
</trkpt>
<trkpt lat="49.448118" lon="10.332468">
<ele>353</ele>
<time>2019-06-01T12:35:28Z</time>
</trkpt>
<trkpt lat="49.448103" lon="10.332885">
<ele>353</ele>
<time>2019-06-01T12:35:33Z</time>
</trkpt>
<trkpt lat="49.448052" lon="10.33336">
<ele>353</ele>
<time>2019-06-01T12:35:38Z</time>
</trkpt>
<trkpt lat="49.447965" lon="10.333847">
<ele>351</ele>
<time>2019-06-01T12:35:43Z</time>
</trkpt>
<trkpt lat="49.447812" lon="10.334427">
<ele>351</ele>
<time>2019-06-01T12:35:49Z</time>
</trkpt>
<trkpt lat="49.447658" lon="10.334892">
<ele>350</ele>
<time>2019-06-01T12:35:54Z</time>
</trkpt>
<trkpt lat="49.447525" lon="10.335348">
<ele>349</ele>
<time>2019-06-01T12:35:59Z</time>
</trkpt>
<trkpt lat="49.447413" lon="10.335807">
<ele>347</ele>
<time>2019-06-01T12:36:04Z</time>
</trkpt>
<trkpt lat="49.44732" lon="10.336358">
<ele>347</ele>
<time>2019-06-01T12:36:10Z</time>
</trkpt>
<trkpt lat="49.44725" lon="10.336817">
<ele>347</ele>
<time>2019-06-01T12:36:15Z</time>
</trkpt>
<trkpt lat="49.447188" lon="10.337282">
<ele>347</ele>
<time>2019-06-01T12:36:20Z</time>
</trkpt>
<trkpt lat="49.447127" lon="10.337758">
<ele>347</ele>
<time>2019-06-01T12:36:25Z</time>
</trkpt>
<trkpt lat="49.447065" lon="10.338225">
<ele>347</ele>
<time>2019-06-01T12:36:30Z</time>
</trkpt>
<trkpt lat="49.446997" lon="10.33868">
<ele>347</ele>
<time>2019-06-01T12:36:35Z</time>
</trkpt>
<trkpt lat="49.446947" lon="10.339132">
<ele>347</ele>
<time>2019-06-01T12:36:40Z</time>
</trkpt>
<trkpt lat="49.446927" lon="10.339577">
<ele>347</ele>
<time>2019-06-01T12:36:45Z</time>
</trkpt>
<trkpt lat="49.446923" lon="10.340015">
<ele>346</ele>
<time>2019-06-01T12:36:50Z</time>
</trkpt>
<trkpt lat="49.446908" lon="10.340443">
<ele>346</ele>
<time>2019-06-01T12:36:55Z</time>
</trkpt>
<trkpt lat="49.446888" lon="10.34087">
<ele>346</ele>
<time>2019-06-01T12:37:00Z</time>
</trkpt>
<trkpt lat="49.446875" lon="10.34129">
<ele>346</ele>
<time>2019-06-01T12:37:05Z</time>
</trkpt>
<trkpt lat="49.446865" lon="10.341707">
<ele>346</ele>
<time>2019-06-01T12:37:10Z</time>
</trkpt>
<trkpt lat="49.446867" lon="10.342125">
<ele>346</ele>
<time>2019-06-01T12:37:15Z</time>
</trkpt>
<trkpt lat="49.446847" lon="10.342633">
<ele>346</ele>
<time>2019-06-01T12:37:21Z</time>
</trkpt>
<trkpt lat="49.446802" lon="10.343135">
<ele>346</ele>
<time>2019-06-01T12:37:27Z</time>
</trkpt>
<trkpt lat="49.446753" lon="10.343545">
<ele>346</ele>
<time>2019-06-01T12:37:32Z</time>
</trkpt>
<trkpt lat="49.446702" lon="10.344032">
<ele>347</ele>
<time>2019-06-01T12:37:38Z</time>
</trkpt>
<trkpt lat="49.446658" lon="10.344513">
<ele>347</ele>
<time>2019-06-01T12:37:44Z</time>
</trkpt>
<trkpt lat="49.446648" lon="10.344912">
<ele>347</ele>
<time>2019-06-01T12:37:49Z</time>
</trkpt>
<trkpt lat="49.446643" lon="10.345282">
<ele>348</ele>
<time>2019-06-01T12:37:54Z</time>
</trkpt>
<trkpt lat="49.44664" lon="10.345673">
<ele>348</ele>
<time>2019-06-01T12:37:59Z</time>
</trkpt>
<trkpt lat="49.446628" lon="10.346075">
<ele>348</ele>
<time>2019-06-01T12:38:04Z</time>
</trkpt>
<trkpt lat="49.446615" lon="10.346475">
<ele>349</ele>
<time>2019-06-01T12:38:09Z</time>
</trkpt>
<trkpt lat="49.446605" lon="10.346887">
<ele>349</ele>
<time>2019-06-01T12:38:14Z</time>
</trkpt>
<trkpt lat="49.446597" lon="10.347312">
<ele>349</ele>
<time>2019-06-01T12:38:19Z</time>
</trkpt>
<trkpt lat="49.44659" lon="10.347735">
<ele>349</ele>
<time>2019-06-01T12:38:24Z</time>
</trkpt>
<trkpt lat="49.446567" lon="10.348255">
<ele>350</ele>
<time>2019-06-01T12:38:30Z</time>
</trkpt>
<trkpt lat="49.446547" lon="10.348697">
<ele>350</ele>
<time>2019-06-01T12:38:35Z</time>
</trkpt>
<trkpt lat="49.446508" lon="10.349118">
<ele>350</ele>
<time>2019-06-01T12:38:40Z</time>
</trkpt>
<trkpt lat="49.446462" lon="10.349513">
<ele>350</ele>
<time>2019-06-01T12:38:45Z</time>
</trkpt>
<trkpt lat="49.446397" lon="10.349907">
<ele>350</ele>
<time>2019-06-01T12:38:50Z</time>
</trkpt>
<trkpt lat="49.446323" lon="10.350308">
<ele>350</ele>
<time>2019-06-01T12:38:55Z</time>
</trkpt>
<trkpt lat="49.446253" lon="10.350698">
<ele>350</ele>
<time>2019-06-01T12:39:00Z</time>
</trkpt>
<trkpt lat="49.446178" lon="10.351087">
<ele>350</ele>
<time>2019-06-01T12:39:05Z</time>
</trkpt>
<trkpt lat="49.446092" lon="10.351475">
<ele>350</ele>
<time>2019-06-01T12:39:10Z</time>
</trkpt>
<trkpt lat="49.445942" lon="10.351902">
<ele>350</ele>
<time>2019-06-01T12:39:16Z</time>
</trkpt>
<trkpt lat="49.445802" lon="10.352232">
<ele>351</ele>
<time>2019-06-01T12:39:21Z</time>
</trkpt>
<trkpt lat="49.445657" lon="10.352555">
<ele>351</ele>
<time>2019-06-01T12:39:26Z</time>
</trkpt>
<trkpt lat="49.445522" lon="10.352887">
<ele>351</ele>
<time>2019-06-01T12:39:31Z</time>
</trkpt>
<trkpt lat="49.445388" lon="10.353228">
<ele>352</ele>
<time>2019-06-01T12:39:36Z</time>
</trkpt>
<trkpt lat="49.445265" lon="10.353593">
<ele>352</ele>
<time>2019-06-01T12:39:41Z</time>
</trkpt>
<trkpt lat="49.445123" lon="10.354045">
<ele>352</ele>
<time>2019-06-01T12:39:47Z</time>
</trkpt>
<trkpt lat="49.44499" lon="10.354397">
<ele>353</ele>
<time>2019-06-01T12:39:52Z</time>
</trkpt>
<trkpt lat="49.444807" lon="10.354747">
<ele>353</ele>
<time>2019-06-01T12:39:58Z</time>
</trkpt>
<trkpt lat="49.444615" lon="10.355015">
<ele>354</ele>
<time>2019-06-01T12:40:03Z</time>
</trkpt>
<trkpt lat="49.444407" lon="10.35527">
<ele>354</ele>
<time>2019-06-01T12:40:08Z</time>
</trkpt>
<trkpt lat="49.444205" lon="10.355543">
<ele>355</ele>
<time>2019-06-01T12:40:13Z</time>
</trkpt>
<trkpt lat="49.444022" lon="10.355838">
<ele>355</ele>
<time>2019-06-01T12:40:18Z</time>
</trkpt>
<trkpt lat="49.44388" lon="10.356163">
<ele>356</ele>
<time>2019-06-01T12:40:23Z</time>
</trkpt>
<trkpt lat="49.44378" lon="10.356525">
<ele>356</ele>
<time>2019-06-01T12:40:28Z</time>
</trkpt>
<trkpt lat="49.443665" lon="10.356877">
<ele>357</ele>
<time>2019-06-01T12:40:33Z</time>
</trkpt>
<trkpt lat="49.443547" lon="10.357313">
<ele>357</ele>
<time>2019-06-01T12:40:39Z</time>
</trkpt>
<trkpt lat="49.443455" lon="10.357673">
<ele>358</ele>
<time>2019-06-01T12:40:44Z</time>
</trkpt>
<trkpt lat="49.443388" lon="10.35799">
<ele>358</ele>
<time>2019-06-01T12:40:49Z</time>
</trkpt>
<trkpt lat="49.443287" lon="10.358322">
<ele>358</ele>
<time>2019-06-01T12:40:54Z</time>
</trkpt>
<trkpt lat="49.443218" lon="10.358695">
<ele>359</ele>
<time>2019-06-01T12:40:59Z</time>
</trkpt>
<trkpt lat="49.443195" lon="10.359072">
<ele>359</ele>
<time>2019-06-01T12:41:04Z</time>
</trkpt>
<trkpt lat="49.443183" lon="10.359525">
<ele>360</ele>
<time>2019-06-01T12:41:10Z</time>
</trkpt>
<trkpt lat="49.443188" lon="10.359995">
<ele>360</ele>
<time>2019-06-01T12:41:16Z</time>
</trkpt>
<trkpt lat="49.443175" lon="10.360377">
<ele>361</ele>
<time>2019-06-01T12:41:21Z</time>
</trkpt>
<trkpt lat="49.443168" lon="10.360742">
<ele>361</ele>
<time>2019-06-01T12:41:26Z</time>
</trkpt>
<trkpt lat="49.443163" lon="10.361073">
<ele>362</ele>
<time>2019-06-01T12:41:31Z</time>
</trkpt>
<trkpt lat="49.443145" lon="10.361395">
<ele>363</ele>
<time>2019-06-01T12:41:36Z</time>
</trkpt>
<trkpt lat="49.443125" lon="10.36172">
<ele>364</ele>
<time>2019-06-01T12:41:41Z</time>
</trkpt>
<trkpt lat="49.443173" lon="10.36203">
<ele>364</ele>
<time>2019-06-01T12:41:46Z</time>
</trkpt>
<trkpt lat="49.443247" lon="10.362312">
<ele>364</ele>
<time>2019-06-01T12:41:51Z</time>
</trkpt>
<trkpt lat="49.443328" lon="10.36257">
<ele>365</ele>
<time>2019-06-01T12:41:56Z</time>
</trkpt>
<trkpt lat="49.443375" lon="10.362793">
<ele>365</ele>
<time>2019-06-01T12:42:01Z</time>
</trkpt>
<trkpt lat="49.443253" lon="10.36294">
<ele>365</ele>
<time>2019-06-01T12:42:06Z</time>
</trkpt>
<trkpt lat="49.443065" lon="10.363035">
<ele>365</ele>
<time>2019-06-01T12:42:11Z</time>
</trkpt>
<trkpt lat="49.442867" lon="10.363125">
<ele>365</ele>
<time>2019-06-01T12:42:16Z</time>
</trkpt>
<trkpt lat="49.44273" lon="10.36336">
<ele>365</ele>
<time>2019-06-01T12:42:21Z</time>
</trkpt>
<trkpt lat="49.442833" lon="10.363668">
<ele>366</ele>
<time>2019-06-01T12:42:26Z</time>
</trkpt>
<trkpt lat="49.442922" lon="10.364035">
<ele>367</ele>
<time>2019-06-01T12:42:31Z</time>
</trkpt>
<trkpt lat="49.443023" lon="10.364362">
<ele>367</ele>
<time>2019-06-01T12:42:36Z</time>
</trkpt>
<trkpt lat="49.4431" lon="10.364677">
<ele>367</ele>
<time>2019-06-01T12:42:41Z</time>
</trkpt>
<trkpt lat="49.443193" lon="10.364975">
<ele>368</ele>
<time>2019-06-01T12:42:46Z</time>
</trkpt>
<trkpt lat="49.443293" lon="10.365285">
<ele>368</ele>
<time>2019-06-01T12:42:51Z</time>
</trkpt>
<trkpt lat="49.443338" lon="10.365668">
<ele>368</ele>
<time>2019-06-01T12:42:56Z</time>
</trkpt>
<trkpt lat="49.443382" lon="10.366045">
<ele>368</ele>
<time>2019-06-01T12:43:01Z</time>
</trkpt>
<trkpt lat="49.44343" lon="10.366438">
<ele>368</ele>
<time>2019-06-01T12:43:06Z</time>
</trkpt>
<trkpt lat="49.44352" lon="10.366783">
<ele>369</ele>
<time>2019-06-01T12:43:11Z</time>
</trkpt>
<trkpt lat="49.443618" lon="10.367115">
<ele>369</ele>
<time>2019-06-01T12:43:16Z</time>
</trkpt>
<trkpt lat="49.443713" lon="10.367427">
<ele>370</ele>
<time>2019-06-01T12:43:21Z</time>
</trkpt>
<trkpt lat="49.443807" lon="10.367722">
<ele>370</ele>
<time>2019-06-01T12:43:26Z</time>
</trkpt>
<trkpt lat="49.443908" lon="10.368047">
<ele>371</ele>
<time>2019-06-01T12:43:31Z</time>
</trkpt>
<trkpt lat="49.444007" lon="10.36838">
<ele>372</ele>
<time>2019-06-01T12:43:36Z</time>
</trkpt>
<trkpt lat="49.444103" lon="10.36873">
<ele>372</ele>
<time>2019-06-01T12:43:41Z</time>
</trkpt>
<trkpt lat="49.444203" lon="10.369082">
<ele>372</ele>
<time>2019-06-01T12:43:46Z</time>
</trkpt>
<trkpt lat="49.444283" lon="10.369437">
<ele>372</ele>
<time>2019-06-01T12:43:51Z</time>
</trkpt>
<trkpt lat="49.444357" lon="10.369773">
<ele>373</ele>
<time>2019-06-01T12:43:56Z</time>
</trkpt>
<trkpt lat="49.444428" lon="10.370127">
<ele>374</ele>
<time>2019-06-01T12:44:01Z</time>
</trkpt>
<trkpt lat="49.444497" lon="10.370487">
<ele>376</ele>
<time>2019-06-01T12:44:06Z</time>
</trkpt>
<trkpt lat="49.444568" lon="10.370837">
<ele>376</ele>
<time>2019-06-01T12:44:11Z</time>
</trkpt>
<trkpt lat="49.444633" lon="10.371188">
<ele>376</ele>
<time>2019-06-01T12:44:16Z</time>
</trkpt>
<trkpt lat="49.444695" lon="10.371515">
<ele>376</ele>
<time>2019-06-01T12:44:21Z</time>
</trkpt>
<trkpt lat="49.444793" lon="10.371805">
<ele>376</ele>
<time>2019-06-01T12:44:26Z</time>
</trkpt>
<trkpt lat="49.445043" lon="10.371747">
<ele>376</ele>
<time>2019-06-01T12:44:31Z</time>
</trkpt>
<trkpt lat="49.445362" lon="10.371597">
<ele>376</ele>
<time>2019-06-01T12:44:36Z</time>
</trkpt>
<trkpt lat="49.445742" lon="10.37151">
<ele>374</ele>
<time>2019-06-01T12:44:41Z</time>
</trkpt>
<trkpt lat="49.446105" lon="10.371458">
<ele>374</ele>
<time>2019-06-01T12:44:46Z</time>
</trkpt>
<trkpt lat="49.446412" lon="10.371447">
<ele>372</ele>
<time>2019-06-01T12:44:51Z</time>
</trkpt>
<trkpt lat="49.446577" lon="10.37179">
<ele>372</ele>
<time>2019-06-01T12:44:56Z</time>
</trkpt>
<trkpt lat="49.446673" lon="10.372192">
<ele>372</ele>
<time>2019-06-01T12:45:01Z</time>
</trkpt>
<trkpt lat="49.446743" lon="10.372572">
<ele>371</ele>
<time>2019-06-01T12:45:06Z</time>
</trkpt>
<trkpt lat="49.446803" lon="10.37296">
<ele>371</ele>
<time>2019-06-01T12:45:11Z</time>
</trkpt>
<trkpt lat="49.446862" lon="10.373327">
<ele>371</ele>
<time>2019-06-01T12:45:16Z</time>
</trkpt>
<trkpt lat="49.446925" lon="10.373673">
<ele>371</ele>
<time>2019-06-01T12:45:21Z</time>
</trkpt>
<trkpt lat="49.447027" lon="10.373993">
<ele>372</ele>
<time>2019-06-01T12:45:26Z</time>
</trkpt>
<trkpt lat="49.447188" lon="10.374262">
<ele>372</ele>
<time>2019-06-01T12:45:31Z</time>
</trkpt>
<trkpt lat="49.447395" lon="10.374518">
<ele>373</ele>
<time>2019-06-01T12:45:36Z</time>
</trkpt>
<trkpt lat="49.447587" lon="10.3748">
<ele>373</ele>
<time>2019-06-01T12:45:41Z</time>
</trkpt>
<trkpt lat="49.447765" lon="10.375102">
<ele>373</ele>
<time>2019-06-01T12:45:46Z</time>
</trkpt>
<trkpt lat="49.447942" lon="10.37541">
<ele>373</ele>
<time>2019-06-01T12:45:51Z</time>
</trkpt>
<trkpt lat="49.448095" lon="10.375705">
<ele>373</ele>
<time>2019-06-01T12:45:56Z</time>
</trkpt>
<trkpt lat="49.448223" lon="10.375972">
<ele>374</ele>
<time>2019-06-01T12:46:01Z</time>
</trkpt>
<trkpt lat="49.448345" lon="10.376238">
<ele>374</ele>
<time>2019-06-01T12:46:06Z</time>
</trkpt>
<trkpt lat="49.448475" lon="10.376523">
<ele>374</ele>
<time>2019-06-01T12:46:11Z</time>
</trkpt>
<trkpt lat="49.448607" lon="10.376818">
<ele>374</ele>
<time>2019-06-01T12:46:16Z</time>
</trkpt>
<trkpt lat="49.448745" lon="10.377135">
<ele>374</ele>
<time>2019-06-01T12:46:21Z</time>
</trkpt>
<trkpt lat="49.44889" lon="10.377438">
<ele>374</ele>
<time>2019-06-01T12:46:26Z</time>
</trkpt>
<trkpt lat="49.449035" lon="10.37775">
<ele>374</ele>
<time>2019-06-01T12:46:31Z</time>
</trkpt>
<trkpt lat="49.449185" lon="10.378062">
<ele>374</ele>
<time>2019-06-01T12:46:36Z</time>
</trkpt>
<trkpt lat="49.449332" lon="10.37838">
<ele>374</ele>
<time>2019-06-01T12:46:41Z</time>
</trkpt>
<trkpt lat="49.449468" lon="10.3787">
<ele>374</ele>
<time>2019-06-01T12:46:46Z</time>
</trkpt>
<trkpt lat="49.449615" lon="10.379063">
<ele>374</ele>
<time>2019-06-01T12:46:51Z</time>
</trkpt>
<trkpt lat="49.449728" lon="10.379448">
<ele>374</ele>
<time>2019-06-01T12:46:56Z</time>
</trkpt>
<trkpt lat="49.449802" lon="10.37986">
<ele>374</ele>
<time>2019-06-01T12:47:01Z</time>
</trkpt>
<trkpt lat="49.449885" lon="10.380287">
<ele>374</ele>
<time>2019-06-01T12:47:06Z</time>
</trkpt>
<trkpt lat="49.450033" lon="10.380685">
<ele>373</ele>
<time>2019-06-01T12:47:11Z</time>
</trkpt>
<trkpt lat="49.450218" lon="10.380995">
<ele>373</ele>
<time>2019-06-01T12:47:16Z</time>
</trkpt>
<trkpt lat="49.45041" lon="10.38125">
<ele>373</ele>
<time>2019-06-01T12:47:21Z</time>
</trkpt>
<trkpt lat="49.450625" lon="10.381477">
<ele>373</ele>
<time>2019-06-01T12:47:26Z</time>
</trkpt>
<trkpt lat="49.450863" lon="10.381663">
<ele>373</ele>
<time>2019-06-01T12:47:31Z</time>
</trkpt>
<trkpt lat="49.451122" lon="10.381822">
<ele>373</ele>
<time>2019-06-01T12:47:36Z</time>
</trkpt>
<trkpt lat="49.451382" lon="10.381947">
<ele>373</ele>
<time>2019-06-01T12:47:41Z</time>
</trkpt>
<trkpt lat="49.45166" lon="10.382098">
<ele>372</ele>
<time>2019-06-01T12:47:46Z</time>
</trkpt>
<trkpt lat="49.451988" lon="10.382308">
<ele>372</ele>
<time>2019-06-01T12:47:51Z</time>
</trkpt>
<trkpt lat="49.452322" lon="10.382575">
<ele>369</ele>
<time>2019-06-01T12:47:56Z</time>
</trkpt>
<trkpt lat="49.45254" lon="10.383018">
<ele>369</ele>
<time>2019-06-01T12:48:01Z</time>
</trkpt>
<trkpt lat="49.452692" lon="10.383488">
<ele>369</ele>
<time>2019-06-01T12:48:06Z</time>
</trkpt>
<trkpt lat="49.452838" lon="10.3839">
<ele>369</ele>
<time>2019-06-01T12:48:11Z</time>
</trkpt>
<trkpt lat="49.453047" lon="10.3841">
<ele>370</ele>
<time>2019-06-01T12:48:16Z</time>
</trkpt>
<trkpt lat="49.453303" lon="10.384172">
<ele>370</ele>
<time>2019-06-01T12:48:21Z</time>
</trkpt>
<trkpt lat="49.453552" lon="10.384202">
<ele>370</ele>
<time>2019-06-01T12:48:26Z</time>
</trkpt>
<trkpt lat="49.453812" lon="10.38421">
<ele>370</ele>
<time>2019-06-01T12:48:31Z</time>
</trkpt>
<trkpt lat="49.454075" lon="10.384218">
<ele>370</ele>
<time>2019-06-01T12:48:36Z</time>
</trkpt>
<trkpt lat="49.454292" lon="10.384237">
<ele>370</ele>
<time>2019-06-01T12:48:41Z</time>
</trkpt>
<trkpt lat="49.454355" lon="10.384238">
<ele>368</ele>
<time>2019-06-01T12:48:46Z</time>
</trkpt>
<trkpt lat="49.454375" lon="10.384237">
<ele>368</ele>
<time>2019-06-01T12:48:51Z</time>
</trkpt>
<trkpt lat="49.454377" lon="10.384238">
<ele>368</ele>
<time>2019-06-01T12:48:56Z</time>
</trkpt>
<trkpt lat="49.454383" lon="10.384242">
<ele>368</ele>
<time>2019-06-01T12:49:31Z</time>
</trkpt>
<trkpt lat="49.454385" lon="10.384242">
<ele>368</ele>
<time>2019-06-01T12:49:36Z</time>
</trkpt>
<trkpt lat="49.454385" lon="10.38424">
<ele>368</ele>
<time>2019-06-01T12:49:56Z</time>
</trkpt>
<trkpt lat="49.454385" lon="10.384242">
<ele>368</ele>
<time>2019-06-01T12:50:16Z</time>
</trkpt>
<trkpt lat="49.454383" lon="10.384242">
<ele>368</ele>
<time>2019-06-01T12:50:56Z</time>
</trkpt>
<trkpt lat="49.454383" lon="10.38424">
<ele>368</ele>
<time>2019-06-01T12:51:01Z</time>
</trkpt>
<trkpt lat="49.454383" lon="10.384238">
<ele>368</ele>
<time>2019-06-01T12:54:41Z</time>
</trkpt>
<trkpt lat="49.454382" lon="10.38424">
<ele>368</ele>
<time>2019-06-01T12:55:11Z</time>
</trkpt>
<trkpt lat="49.454402" lon="10.38426">
<ele>368</ele>
<time>2019-06-01T12:55:16Z</time>
</trkpt>
<trkpt lat="49.454495" lon="10.384347">
<ele>368</ele>
<time>2019-06-01T12:55:21Z</time>
</trkpt>
<trkpt lat="49.454597" lon="10.38458">
<ele>368</ele>
<time>2019-06-01T12:55:26Z</time>
</trkpt>
<trkpt lat="49.454638" lon="10.384885">
<ele>368</ele>
<time>2019-06-01T12:55:31Z</time>
</trkpt>
<trkpt lat="49.454675" lon="10.385233">
<ele>368</ele>
<time>2019-06-01T12:55:36Z</time>
</trkpt>
<trkpt lat="49.454715" lon="10.385603">
<ele>369</ele>
<time>2019-06-01T12:55:41Z</time>
</trkpt>
<trkpt lat="49.454762" lon="10.38601">
<ele>369</ele>
<time>2019-06-01T12:55:46Z</time>
</trkpt>
<trkpt lat="49.454803" lon="10.386432">
<ele>369</ele>
<time>2019-06-01T12:55:51Z</time>
</trkpt>
<trkpt lat="49.45486" lon="10.386888">
<ele>369</ele>
<time>2019-06-01T12:55:56Z</time>
</trkpt>
<trkpt lat="49.454932" lon="10.38748">
<ele>367</ele>
<time>2019-06-01T12:56:01Z</time>
</trkpt>
<trkpt lat="49.454983" lon="10.38806">
<ele>367</ele>
<time>2019-06-01T12:56:06Z</time>
</trkpt>
<trkpt lat="49.455012" lon="10.388545">
<ele>367</ele>
<time>2019-06-01T12:56:11Z</time>
</trkpt>
<trkpt lat="49.455028" lon="10.388963">
<ele>368</ele>
<time>2019-06-01T12:56:16Z</time>
</trkpt>
<trkpt lat="49.455075" lon="10.389387">
<ele>368</ele>
<time>2019-06-01T12:56:21Z</time>
</trkpt>
<trkpt lat="49.455132" lon="10.389832">
<ele>368</ele>
<time>2019-06-01T12:56:26Z</time>
</trkpt>
<trkpt lat="49.455187" lon="10.39026">
<ele>368</ele>
<time>2019-06-01T12:56:31Z</time>
</trkpt>
<trkpt lat="49.455248" lon="10.39073">
<ele>368</ele>
<time>2019-06-01T12:56:37Z</time>
</trkpt>
<trkpt lat="49.455377" lon="10.390972">
<ele>368</ele>
<time>2019-06-01T12:56:42Z</time>
</trkpt>
<trkpt lat="49.455632" lon="10.390885">
<ele>368</ele>
<time>2019-06-01T12:56:47Z</time>
</trkpt>
<trkpt lat="49.45592" lon="10.390797">
<ele>368</ele>
<time>2019-06-01T12:56:52Z</time>
</trkpt>
<trkpt lat="49.456232" lon="10.390737">
<ele>368</ele>
<time>2019-06-01T12:56:57Z</time>
</trkpt>
<trkpt lat="49.456545" lon="10.39071">
<ele>368</ele>
<time>2019-06-01T12:57:02Z</time>
</trkpt>
<trkpt lat="49.456873" lon="10.390683">
<ele>368</ele>
<time>2019-06-01T12:57:07Z</time>
</trkpt>
<trkpt lat="49.457208" lon="10.390643">
<ele>367</ele>
<time>2019-06-01T12:57:12Z</time>
</trkpt>
<trkpt lat="49.457543" lon="10.390595">
<ele>367</ele>
<time>2019-06-01T12:57:17Z</time>
</trkpt>
<trkpt lat="49.45787" lon="10.390567">
<ele>367</ele>
<time>2019-06-01T12:57:22Z</time>
</trkpt>
<trkpt lat="49.45821" lon="10.39057">
<ele>366</ele>
<time>2019-06-01T12:57:27Z</time>
</trkpt>
<trkpt lat="49.458558" lon="10.390613">
<ele>365</ele>
<time>2019-06-01T12:57:32Z</time>
</trkpt>
<trkpt lat="49.45891" lon="10.390695">
<ele>364</ele>
<time>2019-06-01T12:57:37Z</time>
</trkpt>
<trkpt lat="49.459282" lon="10.390813">
<ele>362</ele>
<time>2019-06-01T12:57:42Z</time>
</trkpt>
<trkpt lat="49.459677" lon="10.39095">
<ele>362</ele>
<time>2019-06-01T12:57:47Z</time>
</trkpt>
<trkpt lat="49.46006" lon="10.391092">
<ele>361</ele>
<time>2019-06-01T12:57:52Z</time>
</trkpt>
<trkpt lat="49.460452" lon="10.391247">
<ele>360</ele>
<time>2019-06-01T12:57:57Z</time>
</trkpt>
<trkpt lat="49.460848" lon="10.391398">
<ele>360</ele>
<time>2019-06-01T12:58:02Z</time>
</trkpt>
<trkpt lat="49.46125" lon="10.391572">
<ele>359</ele>
<time>2019-06-01T12:58:07Z</time>
</trkpt>
<trkpt lat="49.461627" lon="10.391755">
<ele>357</ele>
<time>2019-06-01T12:58:12Z</time>
</trkpt>
<trkpt lat="49.462025" lon="10.391922">
<ele>356</ele>
<time>2019-06-01T12:58:17Z</time>
</trkpt>
<trkpt lat="49.462438" lon="10.392043">
<ele>355</ele>
<time>2019-06-01T12:58:22Z</time>
</trkpt>
<trkpt lat="49.462862" lon="10.392098">
<ele>354</ele>
<time>2019-06-01T12:58:27Z</time>
</trkpt>
<trkpt lat="49.463373" lon="10.392053">
<ele>352</ele>
<time>2019-06-01T12:58:33Z</time>
</trkpt>
<trkpt lat="49.463822" lon="10.39196">
<ele>351</ele>
<time>2019-06-01T12:58:38Z</time>
</trkpt>
<trkpt lat="49.464227" lon="10.391843">
<ele>350</ele>
<time>2019-06-01T12:58:43Z</time>
</trkpt>
<trkpt lat="49.464572" lon="10.391768">
<ele>348</ele>
<time>2019-06-01T12:58:48Z</time>
</trkpt>
<trkpt lat="49.465035" lon="10.391773">
<ele>347</ele>
<time>2019-06-01T12:58:54Z</time>
</trkpt>
<trkpt lat="49.465435" lon="10.391857">
<ele>347</ele>
<time>2019-06-01T12:58:59Z</time>
</trkpt>
<trkpt lat="49.465818" lon="10.392033">
<ele>346</ele>
<time>2019-06-01T12:59:04Z</time>
</trkpt>
<trkpt lat="49.466197" lon="10.392263">
<ele>344</ele>
<time>2019-06-01T12:59:09Z</time>
</trkpt>
<trkpt lat="49.466658" lon="10.392582">
<ele>344</ele>
<time>2019-06-01T12:59:15Z</time>
</trkpt>
<trkpt lat="49.467033" lon="10.39285">
<ele>342</ele>
<time>2019-06-01T12:59:20Z</time>
</trkpt>
<trkpt lat="49.467372" lon="10.393082">
<ele>342</ele>
<time>2019-06-01T12:59:25Z</time>
</trkpt>
<trkpt lat="49.467698" lon="10.39332">
<ele>340</ele>
<time>2019-06-01T12:59:30Z</time>
</trkpt>
<trkpt lat="49.468063" lon="10.39364">
<ele>339</ele>
<time>2019-06-01T12:59:36Z</time>
</trkpt>
<trkpt lat="49.468348" lon="10.393897">
<ele>338</ele>
<time>2019-06-01T12:59:41Z</time>
</trkpt>
<trkpt lat="49.46862" lon="10.394193">
<ele>338</ele>
<time>2019-06-01T12:59:46Z</time>
</trkpt>
<trkpt lat="49.468933" lon="10.394577">
<ele>337</ele>
<time>2019-06-01T12:59:52Z</time>
</trkpt>
<trkpt lat="49.469222" lon="10.394975">
<ele>336</ele>
<time>2019-06-01T12:59:58Z</time>
</trkpt>
<trkpt lat="49.46945" lon="10.395167">
<ele>335</ele>
<time>2019-06-01T13:00:03Z</time>
</trkpt>
<trkpt lat="49.469705" lon="10.395158">
<ele>334</ele>
<time>2019-06-01T13:00:08Z</time>
</trkpt>
<trkpt lat="49.469987" lon="10.394878">
<ele>334</ele>
<time>2019-06-01T13:00:14Z</time>
</trkpt>
<trkpt lat="49.470205" lon="10.394673">
<ele>334</ele>
<time>2019-06-01T13:00:19Z</time>
</trkpt>
<trkpt lat="49.470393" lon="10.3945">
<ele>334</ele>
<time>2019-06-01T13:00:24Z</time>
</trkpt>
<trkpt lat="49.470608" lon="10.394412">
<ele>333</ele>
<time>2019-06-01T13:00:29Z</time>
</trkpt>
<trkpt lat="49.470893" lon="10.394535">
<ele>333</ele>
<time>2019-06-01T13:00:34Z</time>
</trkpt>
<trkpt lat="49.471153" lon="10.394515">
<ele>332</ele>
<time>2019-06-01T13:00:39Z</time>
</trkpt>
<trkpt lat="49.471512" lon="10.39444">
<ele>332</ele>
<time>2019-06-01T13:00:45Z</time>
</trkpt>
<trkpt lat="49.47179" lon="10.394373">
<ele>331</ele>
<time>2019-06-01T13:00:50Z</time>
</trkpt>
<trkpt lat="49.471898" lon="10.394472">
<ele>330</ele>
<time>2019-06-01T13:00:55Z</time>
</trkpt>
<trkpt lat="49.47196" lon="10.394637">
<ele>330</ele>
<time>2019-06-01T13:01:00Z</time>
</trkpt>
<trkpt lat="49.472012" lon="10.394852">
<ele>330</ele>
<time>2019-06-01T13:01:05Z</time>
</trkpt>
<trkpt lat="49.472072" lon="10.395063">
<ele>330</ele>
<time>2019-06-01T13:01:10Z</time>
</trkpt>
<trkpt lat="49.472182" lon="10.395182">
<ele>331</ele>
<time>2019-06-01T13:01:15Z</time>
</trkpt>
<trkpt lat="49.472285" lon="10.3954">
<ele>331</ele>
<time>2019-06-01T13:01:20Z</time>
</trkpt>
<trkpt lat="49.472362" lon="10.395663">
<ele>331</ele>
<time>2019-06-01T13:01:25Z</time>
</trkpt>
<trkpt lat="49.472458" lon="10.395908">
<ele>331</ele>
<time>2019-06-01T13:01:30Z</time>
</trkpt>
<trkpt lat="49.472578" lon="10.396167">
<ele>331</ele>
<time>2019-06-01T13:01:35Z</time>
</trkpt>
<trkpt lat="49.472702" lon="10.396427">
<ele>330</ele>
<time>2019-06-01T13:01:40Z</time>
</trkpt>
<trkpt lat="49.472838" lon="10.396713">
<ele>330</ele>
<time>2019-06-01T13:01:45Z</time>
</trkpt>
<trkpt lat="49.472977" lon="10.397008">
<ele>330</ele>
<time>2019-06-01T13:01:50Z</time>
</trkpt>
<trkpt lat="49.47311" lon="10.397312">
<ele>330</ele>
<time>2019-06-01T13:01:55Z</time>
</trkpt>
<trkpt lat="49.473263" lon="10.397633">
<ele>330</ele>
<time>2019-06-01T13:02:00Z</time>
</trkpt>
<trkpt lat="49.473417" lon="10.39797">
<ele>330</ele>
<time>2019-06-01T13:02:05Z</time>
</trkpt>
<trkpt lat="49.473568" lon="10.398303">
<ele>330</ele>
<time>2019-06-01T13:02:10Z</time>
</trkpt>
<trkpt lat="49.473732" lon="10.398652">
<ele>330</ele>
<time>2019-06-01T13:02:15Z</time>
</trkpt>
<trkpt lat="49.473898" lon="10.399013">
<ele>330</ele>
<time>2019-06-01T13:02:20Z</time>
</trkpt>
<trkpt lat="49.474072" lon="10.399383">
<ele>330</ele>
<time>2019-06-01T13:02:25Z</time>
</trkpt>
<trkpt lat="49.474253" lon="10.399778">
<ele>330</ele>
<time>2019-06-01T13:02:30Z</time>
</trkpt>
<trkpt lat="49.474428" lon="10.400172">
<ele>329</ele>
<time>2019-06-01T13:02:35Z</time>
</trkpt>
<trkpt lat="49.474598" lon="10.40054">
<ele>329</ele>
<time>2019-06-01T13:02:40Z</time>
</trkpt>
<trkpt lat="49.474782" lon="10.40092">
<ele>329</ele>
<time>2019-06-01T13:02:46Z</time>
</trkpt>
<trkpt lat="49.474915" lon="10.401227">
<ele>329</ele>
<time>2019-06-01T13:02:51Z</time>
</trkpt>
<trkpt lat="49.475057" lon="10.40153">
<ele>329</ele>
<time>2019-06-01T13:02:56Z</time>
</trkpt>
<trkpt lat="49.475228" lon="10.401813">
<ele>329</ele>
<time>2019-06-01T13:03:01Z</time>
</trkpt>
<trkpt lat="49.475425" lon="10.402053">
<ele>329</ele>
<time>2019-06-01T13:03:06Z</time>
</trkpt>
<trkpt lat="49.475612" lon="10.402358">
<ele>329</ele>
<time>2019-06-01T13:03:11Z</time>
</trkpt>
<trkpt lat="49.475812" lon="10.402722">
<ele>329</ele>
<time>2019-06-01T13:03:16Z</time>
</trkpt>
<trkpt lat="49.47609" lon="10.403138">
<ele>329</ele>
<time>2019-06-01T13:03:22Z</time>
</trkpt>
<trkpt lat="49.476435" lon="10.403398">
<ele>327</ele>
<time>2019-06-01T13:03:28Z</time>
</trkpt>
<trkpt lat="49.476772" lon="10.403643">
<ele>327</ele>
<time>2019-06-01T13:03:34Z</time>
</trkpt>
<trkpt lat="49.477053" lon="10.403815">
<ele>326</ele>
<time>2019-06-01T13:03:39Z</time>
</trkpt>
<trkpt lat="49.47734" lon="10.403987">
<ele>326</ele>
<time>2019-06-01T13:03:44Z</time>
</trkpt>
<trkpt lat="49.477612" lon="10.40417">
<ele>326</ele>
<time>2019-06-01T13:03:49Z</time>
</trkpt>
<trkpt lat="49.477797" lon="10.404483">
<ele>326</ele>
<time>2019-06-01T13:03:54Z</time>
</trkpt>
<trkpt lat="49.477922" lon="10.404857">
<ele>326</ele>
<time>2019-06-01T13:03:59Z</time>
</trkpt>
<trkpt lat="49.478058" lon="10.405258">
<ele>326</ele>
<time>2019-06-01T13:04:04Z</time>
</trkpt>
<trkpt lat="49.478193" lon="10.405632">
<ele>326</ele>
<time>2019-06-01T13:04:09Z</time>
</trkpt>
<trkpt lat="49.478312" lon="10.40599">
<ele>326</ele>
<time>2019-06-01T13:04:14Z</time>
</trkpt>
<trkpt lat="49.47842" lon="10.406335">
<ele>326</ele>
<time>2019-06-01T13:04:19Z</time>
</trkpt>
<trkpt lat="49.47856" lon="10.406663">
<ele>326</ele>
<time>2019-06-01T13:04:24Z</time>
</trkpt>
<trkpt lat="49.478778" lon="10.40672">
<ele>326</ele>
<time>2019-06-01T13:04:29Z</time>
</trkpt>
<trkpt lat="49.479023" lon="10.406617">
<ele>326</ele>
<time>2019-06-01T13:04:34Z</time>
</trkpt>
<trkpt lat="49.479335" lon="10.406523">
<ele>326</ele>
<time>2019-06-01T13:04:40Z</time>
</trkpt>
<trkpt lat="49.479682" lon="10.406418">
<ele>326</ele>
<time>2019-06-01T13:04:46Z</time>
</trkpt>
<trkpt lat="49.480057" lon="10.40636">
<ele>326</ele>
<time>2019-06-01T13:04:52Z</time>
</trkpt>
<trkpt lat="49.480408" lon="10.406335">
<ele>326</ele>
<time>2019-06-01T13:04:58Z</time>
</trkpt>
<trkpt lat="49.48074" lon="10.406312">
<ele>327</ele>
<time>2019-06-01T13:05:04Z</time>
</trkpt>
<trkpt lat="49.481065" lon="10.406305">
<ele>327</ele>
<time>2019-06-01T13:05:10Z</time>
</trkpt>
<trkpt lat="49.481375" lon="10.406285">
<ele>327</ele>
<time>2019-06-01T13:05:16Z</time>
</trkpt>
<trkpt lat="49.481702" lon="10.40628">
<ele>328</ele>
<time>2019-06-01T13:05:22Z</time>
</trkpt>
<trkpt lat="49.481983" lon="10.406265">
<ele>328</ele>
<time>2019-06-01T13:05:27Z</time>
</trkpt>
<trkpt lat="49.482262" lon="10.406233">
<ele>328</ele>
<time>2019-06-01T13:05:32Z</time>
</trkpt>
<trkpt lat="49.482543" lon="10.406202">
<ele>328</ele>
<time>2019-06-01T13:05:37Z</time>
</trkpt>
<trkpt lat="49.482823" lon="10.40614">
<ele>328</ele>
<time>2019-06-01T13:05:42Z</time>
</trkpt>
<trkpt lat="49.483092" lon="10.406062">
<ele>328</ele>
<time>2019-06-01T13:05:47Z</time>
</trkpt>
<trkpt lat="49.48336" lon="10.405955">
<ele>328</ele>
<time>2019-06-01T13:05:52Z</time>
</trkpt>
<trkpt lat="49.483698" lon="10.405798">
<ele>328</ele>
<time>2019-06-01T13:05:58Z</time>
</trkpt>
<trkpt lat="49.484033" lon="10.405628">
<ele>328</ele>
<time>2019-06-01T13:06:04Z</time>
</trkpt>
<trkpt lat="49.484363" lon="10.405468">
<ele>329</ele>
<time>2019-06-01T13:06:10Z</time>
</trkpt>
<trkpt lat="49.484655" lon="10.405312">
<ele>329</ele>
<time>2019-06-01T13:06:16Z</time>
</trkpt>
<trkpt lat="49.484905" lon="10.405188">
<ele>331</ele>
<time>2019-06-01T13:06:22Z</time>
</trkpt>
<trkpt lat="49.485107" lon="10.40509">
<ele>334</ele>
<time>2019-06-01T13:06:28Z</time>
</trkpt>
<trkpt lat="49.485287" lon="10.405005">
<ele>335</ele>
<time>2019-06-01T13:06:34Z</time>
</trkpt>
<trkpt lat="49.485445" lon="10.404933">
<ele>336</ele>
<time>2019-06-01T13:06:40Z</time>
</trkpt>
<trkpt lat="49.485638" lon="10.405068">
<ele>336</ele>
<time>2019-06-01T13:06:46Z</time>
</trkpt>
<trkpt lat="49.485718" lon="10.405502">
<ele>336</ele>
<time>2019-06-01T13:06:52Z</time>
</trkpt>
<trkpt lat="49.485755" lon="10.40586">
<ele>336</ele>
<time>2019-06-01T13:06:57Z</time>
</trkpt>
<trkpt lat="49.48579" lon="10.406223">
<ele>336</ele>
<time>2019-06-01T13:07:02Z</time>
</trkpt>
<trkpt lat="49.485828" lon="10.406598">
<ele>336</ele>
<time>2019-06-01T13:07:07Z</time>
</trkpt>
<trkpt lat="49.485875" lon="10.40702">
<ele>336</ele>
<time>2019-06-01T13:07:12Z</time>
</trkpt>
<trkpt lat="49.485925" lon="10.40746">
<ele>335</ele>
<time>2019-06-01T13:07:17Z</time>
</trkpt>
<trkpt lat="49.486002" lon="10.407905">
<ele>335</ele>
<time>2019-06-01T13:07:22Z</time>
</trkpt>
<trkpt lat="49.48609" lon="10.408323">
<ele>334</ele>
<time>2019-06-01T13:07:28Z</time>
</trkpt>
<trkpt lat="49.486152" lon="10.4086">
<ele>333</ele>
<time>2019-06-01T13:07:34Z</time>
</trkpt>
<trkpt lat="49.486203" lon="10.40884">
<ele>333</ele>
<time>2019-06-01T13:07:39Z</time>
</trkpt>
<trkpt lat="49.486258" lon="10.409095">
<ele>333</ele>
<time>2019-06-01T13:07:44Z</time>
</trkpt>
<trkpt lat="49.48632" lon="10.409368">
<ele>333</ele>
<time>2019-06-01T13:07:49Z</time>
</trkpt>
<trkpt lat="49.48638" lon="10.409655">
<ele>333</ele>
<time>2019-06-01T13:07:54Z</time>
</trkpt>
<trkpt lat="49.486443" lon="10.409948">
<ele>333</ele>
<time>2019-06-01T13:07:59Z</time>
</trkpt>
<trkpt lat="49.486513" lon="10.410267">
<ele>332</ele>
<time>2019-06-01T13:08:04Z</time>
</trkpt>
<trkpt lat="49.486583" lon="10.410575">
<ele>332</ele>
<time>2019-06-01T13:08:09Z</time>
</trkpt>
<trkpt lat="49.486648" lon="10.41087">
<ele>331</ele>
<time>2019-06-01T13:08:14Z</time>
</trkpt>
<trkpt lat="49.486712" lon="10.411167">
<ele>331</ele>
<time>2019-06-01T13:08:19Z</time>
</trkpt>
<trkpt lat="49.486777" lon="10.411473">
<ele>331</ele>
<time>2019-06-01T13:08:24Z</time>
</trkpt>
<trkpt lat="49.486843" lon="10.411783">
<ele>331</ele>
<time>2019-06-01T13:08:29Z</time>
</trkpt>
<trkpt lat="49.486912" lon="10.412098">
<ele>330</ele>
<time>2019-06-01T13:08:34Z</time>
</trkpt>
<trkpt lat="49.486975" lon="10.412418">
<ele>330</ele>
<time>2019-06-01T13:08:39Z</time>
</trkpt>
<trkpt lat="49.48704" lon="10.412768">
<ele>330</ele>
<time>2019-06-01T13:08:44Z</time>
</trkpt>
<trkpt lat="49.48709" lon="10.413173">
<ele>329</ele>
<time>2019-06-01T13:08:49Z</time>
</trkpt>
<trkpt lat="49.487137" lon="10.413575">
<ele>329</ele>
<time>2019-06-01T13:08:54Z</time>
</trkpt>
<trkpt lat="49.487185" lon="10.413928">
<ele>329</ele>
<time>2019-06-01T13:08:59Z</time>
</trkpt>
<trkpt lat="49.487252" lon="10.414297">
<ele>329</ele>
<time>2019-06-01T13:09:04Z</time>
</trkpt>
<trkpt lat="49.487317" lon="10.414682">
<ele>328</ele>
<time>2019-06-01T13:09:09Z</time>
</trkpt>
<trkpt lat="49.487402" lon="10.415128">
<ele>328</ele>
<time>2019-06-01T13:09:15Z</time>
</trkpt>
<trkpt lat="49.487472" lon="10.415517">
<ele>327</ele>
<time>2019-06-01T13:09:20Z</time>
</trkpt>
<trkpt lat="49.487538" lon="10.415895">
<ele>327</ele>
<time>2019-06-01T13:09:25Z</time>
</trkpt>
<trkpt lat="49.487607" lon="10.416272">
<ele>327</ele>
<time>2019-06-01T13:09:30Z</time>
</trkpt>
<trkpt lat="49.487675" lon="10.416642">
<ele>327</ele>
<time>2019-06-01T13:09:35Z</time>
</trkpt>
<trkpt lat="49.487742" lon="10.417003">
<ele>327</ele>
<time>2019-06-01T13:09:40Z</time>
</trkpt>
<trkpt lat="49.487802" lon="10.417327">
<ele>327</ele>
<time>2019-06-01T13:09:45Z</time>
</trkpt>
<trkpt lat="49.487872" lon="10.417682">
<ele>326</ele>
<time>2019-06-01T13:09:51Z</time>
</trkpt>
<trkpt lat="49.487943" lon="10.418085">
<ele>326</ele>
<time>2019-06-01T13:09:57Z</time>
</trkpt>
<trkpt lat="49.487998" lon="10.418398">
<ele>326</ele>
<time>2019-06-01T13:10:02Z</time>
</trkpt>
<trkpt lat="49.488053" lon="10.418712">
<ele>326</ele>
<time>2019-06-01T13:10:07Z</time>
</trkpt>
<trkpt lat="49.488102" lon="10.419057">
<ele>325</ele>
<time>2019-06-01T13:10:12Z</time>
</trkpt>
<trkpt lat="49.488258" lon="10.419275">
<ele>325</ele>
<time>2019-06-01T13:10:17Z</time>
</trkpt>
<trkpt lat="49.488518" lon="10.419172">
<ele>325</ele>
<time>2019-06-01T13:10:22Z</time>
</trkpt>
<trkpt lat="49.488775" lon="10.419052">
<ele>325</ele>
<time>2019-06-01T13:10:27Z</time>
</trkpt>
<trkpt lat="49.489068" lon="10.418927">
<ele>325</ele>
<time>2019-06-01T13:10:33Z</time>
</trkpt>
<trkpt lat="49.489298" lon="10.418838">
<ele>326</ele>
<time>2019-06-01T13:10:38Z</time>
</trkpt>
<trkpt lat="49.489515" lon="10.418748">
<ele>327</ele>
<time>2019-06-01T13:10:43Z</time>
</trkpt>
<trkpt lat="49.489728" lon="10.418667">
<ele>327</ele>
<time>2019-06-01T13:10:48Z</time>
</trkpt>
<trkpt lat="49.489968" lon="10.418567">
<ele>327</ele>
<time>2019-06-01T13:10:54Z</time>
</trkpt>
<trkpt lat="49.490265" lon="10.418447">
<ele>327</ele>
<time>2019-06-01T13:11:00Z</time>
</trkpt>
<trkpt lat="49.490588" lon="10.41832">
<ele>325</ele>
<time>2019-06-01T13:11:05Z</time>
</trkpt>
<trkpt lat="49.490978" lon="10.418185">
<ele>323</ele>
<time>2019-06-01T13:11:10Z</time>
</trkpt>
<trkpt lat="49.49143" lon="10.418007">
<ele>322</ele>
<time>2019-06-01T13:11:15Z</time>
</trkpt>
<trkpt lat="49.491955" lon="10.417772">
<ele>320</ele>
<time>2019-06-01T13:11:21Z</time>
</trkpt>
<trkpt lat="49.492328" lon="10.417515">
<ele>320</ele>
<time>2019-06-01T13:11:26Z</time>
</trkpt>
<trkpt lat="49.492645" lon="10.417232">
<ele>319</ele>
<time>2019-06-01T13:11:31Z</time>
</trkpt>
<trkpt lat="49.492965" lon="10.416942">
<ele>319</ele>
<time>2019-06-01T13:11:36Z</time>
</trkpt>
<trkpt lat="49.493267" lon="10.416668">
<ele>318</ele>
<time>2019-06-01T13:11:41Z</time>
</trkpt>
<trkpt lat="49.49354" lon="10.416415">
<ele>318</ele>
<time>2019-06-01T13:11:46Z</time>
</trkpt>
<trkpt lat="49.493843" lon="10.416127">
<ele>317</ele>
<time>2019-06-01T13:11:52Z</time>
</trkpt>
<trkpt lat="49.494053" lon="10.415907">
<ele>317</ele>
<time>2019-06-01T13:11:57Z</time>
</trkpt>
<trkpt lat="49.494248" lon="10.415642">
<ele>317</ele>
<time>2019-06-01T13:12:03Z</time>
</trkpt>
<trkpt lat="49.494392" lon="10.415435">
<ele>317</ele>
<time>2019-06-01T13:12:08Z</time>
</trkpt>
<trkpt lat="49.494507" lon="10.41528">
<ele>318</ele>
<time>2019-06-01T13:12:13Z</time>
</trkpt>
<trkpt lat="49.494642" lon="10.415105">
<ele>318</ele>
<time>2019-06-01T13:12:18Z</time>
</trkpt>
<trkpt lat="49.494782" lon="10.4149">
<ele>318</ele>
<time>2019-06-01T13:12:23Z</time>
</trkpt>
<trkpt lat="49.494882" lon="10.414745">
<ele>318</ele>
<time>2019-06-01T13:12:28Z</time>
</trkpt>
<trkpt lat="49.495013" lon="10.414498">
<ele>318</ele>
<time>2019-06-01T13:12:34Z</time>
</trkpt>
<trkpt lat="49.495103" lon="10.414315">
<ele>318</ele>
<time>2019-06-01T13:12:40Z</time>
</trkpt>
<trkpt lat="49.495142" lon="10.41429">
<ele>318</ele>
<time>2019-06-01T13:12:46Z</time>
</trkpt>
<trkpt lat="49.495145" lon="10.414292">
<ele>318</ele>
<time>2019-06-01T13:12:51Z</time>
</trkpt>
<trkpt lat="49.495147" lon="10.41429">
<ele>318</ele>
<time>2019-06-01T13:12:56Z</time>
</trkpt>
<trkpt lat="49.495152" lon="10.41429">
<ele>318</ele>
<time>2019-06-01T13:13:12Z</time>
</trkpt>
<trkpt lat="49.495155" lon="10.41429">
<ele>318</ele>
<time>2019-06-01T13:13:17Z</time>
</trkpt>
<trkpt lat="49.495158" lon="10.414287">
<ele>318</ele>
<time>2019-06-01T13:13:28Z</time>
</trkpt>
<trkpt lat="49.495162" lon="10.414287">
<ele>318</ele>
<time>2019-06-01T13:13:33Z</time>
</trkpt>
<trkpt lat="49.49517" lon="10.414288">
<ele>318</ele>
<time>2019-06-01T13:13:39Z</time>
</trkpt>
<trkpt lat="49.495173" lon="10.41429">
<ele>318</ele>
<time>2019-06-01T13:13:44Z</time>
</trkpt>
<trkpt lat="49.495177" lon="10.41429">
<ele>318</ele>
<time>2019-06-01T13:13:49Z</time>
</trkpt>
<trkpt lat="49.495178" lon="10.414295">
<ele>318</ele>
<time>2019-06-01T13:13:54Z</time>
</trkpt>
<trkpt lat="49.49518" lon="10.414295">
<ele>318</ele>
<time>2019-06-01T13:13:59Z</time>
</trkpt>
<trkpt lat="49.49518" lon="10.414297">
<ele>318</ele>
<time>2019-06-01T13:14:04Z</time>
</trkpt>
<trkpt lat="49.495182" lon="10.414297">
<ele>318</ele>
<time>2019-06-01T13:14:09Z</time>
</trkpt>
<trkpt lat="49.495187" lon="10.414297">
<ele>319</ele>
<time>2019-06-01T13:14:15Z</time>
</trkpt>
<trkpt lat="49.495192" lon="10.41429">
<ele>319</ele>
<time>2019-06-01T13:14:35Z</time>
</trkpt>
<trkpt lat="49.495202" lon="10.414272">
<ele>319</ele>
<time>2019-06-01T13:14:41Z</time>
</trkpt>
<trkpt lat="49.495212" lon="10.41426">
<ele>319</ele>
<time>2019-06-01T13:14:46Z</time>
</trkpt>
<trkpt lat="49.495212" lon="10.414263">
<ele>319</ele>
<time>2019-06-01T13:14:51Z</time>
</trkpt>
<trkpt lat="49.495217" lon="10.414248">
<ele>319</ele>
<time>2019-06-01T13:14:57Z</time>
</trkpt>
<trkpt lat="49.495227" lon="10.414235">
<ele>319</ele>
<time>2019-06-01T13:15:02Z</time>
</trkpt>
<trkpt lat="49.49529" lon="10.41415">
<ele>319</ele>
<time>2019-06-01T13:15:07Z</time>
</trkpt>
<trkpt lat="49.495287" lon="10.414133">
<ele>319</ele>
<time>2019-06-01T13:15:12Z</time>
</trkpt>
<trkpt lat="49.495302" lon="10.414112">
<ele>319</ele>
<time>2019-06-01T13:15:17Z</time>
</trkpt>
<trkpt lat="49.495395" lon="10.414032">
<ele>319</ele>
<time>2019-06-01T13:15:23Z</time>
</trkpt>
<trkpt lat="49.495527" lon="10.413915">
<ele>320</ele>
<time>2019-06-01T13:15:28Z</time>
</trkpt>
<trkpt lat="49.495682" lon="10.413763">
<ele>320</ele>
<time>2019-06-01T13:15:33Z</time>
</trkpt>
<trkpt lat="49.495897" lon="10.413635">
<ele>320</ele>
<time>2019-06-01T13:15:39Z</time>
</trkpt>
<trkpt lat="49.496092" lon="10.413485">
<ele>320</ele>
<time>2019-06-01T13:15:44Z</time>
</trkpt>
<trkpt lat="49.496283" lon="10.413372">
<ele>320</ele>
<time>2019-06-01T13:15:50Z</time>
</trkpt>
<trkpt lat="49.496493" lon="10.413263">
<ele>321</ele>
<time>2019-06-01T13:15:55Z</time>
</trkpt>
<trkpt lat="49.496717" lon="10.413157">
<ele>321</ele>
<time>2019-06-01T13:16:00Z</time>
</trkpt>
<trkpt lat="49.496945" lon="10.41307">
<ele>322</ele>
<time>2019-06-01T13:16:05Z</time>
</trkpt>
<trkpt lat="49.497195" lon="10.412968">
<ele>322</ele>
<time>2019-06-01T13:16:10Z</time>
</trkpt>
<trkpt lat="49.497418" lon="10.412843">
<ele>323</ele>
<time>2019-06-01T13:16:16Z</time>
</trkpt>
<trkpt lat="49.497643" lon="10.412718">
<ele>323</ele>
<time>2019-06-01T13:16:22Z</time>
</trkpt>
<trkpt lat="49.497817" lon="10.412615">
<ele>324</ele>
<time>2019-06-01T13:16:27Z</time>
</trkpt>
<trkpt lat="49.498005" lon="10.41253">
<ele>324</ele>
<time>2019-06-01T13:16:32Z</time>
</trkpt>
<trkpt lat="49.498218" lon="10.412428">
<ele>324</ele>
<time>2019-06-01T13:16:37Z</time>
</trkpt>
<trkpt lat="49.498415" lon="10.412322">
<ele>324</ele>
<time>2019-06-01T13:16:42Z</time>
</trkpt>
<trkpt lat="49.498653" lon="10.412192">
<ele>324</ele>
<time>2019-06-01T13:16:48Z</time>
</trkpt>
<trkpt lat="49.498833" lon="10.412097">
<ele>324</ele>
<time>2019-06-01T13:16:53Z</time>
</trkpt>
<trkpt lat="49.499017" lon="10.411982">
<ele>324</ele>
<time>2019-06-01T13:16:58Z</time>
</trkpt>
<trkpt lat="49.499212" lon="10.411888">
<ele>324</ele>
<time>2019-06-01T13:17:03Z</time>
</trkpt>
<trkpt lat="49.499415" lon="10.411843">
<ele>324</ele>
<time>2019-06-01T13:17:09Z</time>
</trkpt>
<trkpt lat="49.49959" lon="10.411935">
<ele>324</ele>
<time>2019-06-01T13:17:14Z</time>
</trkpt>
<trkpt lat="49.499788" lon="10.412253">
<ele>324</ele>
<time>2019-06-01T13:17:20Z</time>
</trkpt>
<trkpt lat="49.499945" lon="10.412438">
<ele>324</ele>
<time>2019-06-01T13:17:25Z</time>
</trkpt>
<trkpt lat="49.500167" lon="10.412373">
<ele>324</ele>
<time>2019-06-01T13:17:30Z</time>
</trkpt>
<trkpt lat="49.500417" lon="10.412295">
<ele>324</ele>
<time>2019-06-01T13:17:35Z</time>
</trkpt>
<trkpt lat="49.50068" lon="10.412217">
<ele>324</ele>
<time>2019-06-01T13:17:40Z</time>
</trkpt>
<trkpt lat="49.500948" lon="10.412142">
<ele>324</ele>
<time>2019-06-01T13:17:45Z</time>
</trkpt>
<trkpt lat="49.501217" lon="10.412067">
<ele>324</ele>
<time>2019-06-01T13:17:50Z</time>
</trkpt>
<trkpt lat="49.501488" lon="10.412007">
<ele>324</ele>
<time>2019-06-01T13:17:55Z</time>
</trkpt>
<trkpt lat="49.501753" lon="10.411947">
<ele>324</ele>
<time>2019-06-01T13:18:00Z</time>
</trkpt>
<trkpt lat="49.502007" lon="10.4119">
<ele>325</ele>
<time>2019-06-01T13:18:05Z</time>
</trkpt>
<trkpt lat="49.502253" lon="10.411868">
<ele>325</ele>
<time>2019-06-01T13:18:10Z</time>
</trkpt>
<trkpt lat="49.502525" lon="10.411882">
<ele>325</ele>
<time>2019-06-01T13:18:15Z</time>
</trkpt>
<trkpt lat="49.502803" lon="10.411975">
<ele>325</ele>
<time>2019-06-01T13:18:20Z</time>
</trkpt>
<trkpt lat="49.503072" lon="10.412097">
<ele>325</ele>
<time>2019-06-01T13:18:25Z</time>
</trkpt>
<trkpt lat="49.503328" lon="10.412213">
<ele>325</ele>
<time>2019-06-01T13:18:30Z</time>
</trkpt>
<trkpt lat="49.503608" lon="10.41235">
<ele>325</ele>
<time>2019-06-01T13:18:35Z</time>
</trkpt>
<trkpt lat="49.503888" lon="10.412502">
<ele>325</ele>
<time>2019-06-01T13:18:40Z</time>
</trkpt>
<trkpt lat="49.504162" lon="10.412682">
<ele>325</ele>
<time>2019-06-01T13:18:45Z</time>
</trkpt>
<trkpt lat="49.504427" lon="10.41281">
<ele>325</ele>
<time>2019-06-01T13:18:50Z</time>
</trkpt>
<trkpt lat="49.504687" lon="10.412912">
<ele>325</ele>
<time>2019-06-01T13:18:55Z</time>
</trkpt>
<trkpt lat="49.504905" lon="10.412972">
<ele>324</ele>
<time>2019-06-01T13:19:00Z</time>
</trkpt>
<trkpt lat="49.505127" lon="10.412767">
<ele>324</ele>
<time>2019-06-01T13:19:05Z</time>
</trkpt>
<trkpt lat="49.505338" lon="10.41255">
<ele>324</ele>
<time>2019-06-01T13:19:10Z</time>
</trkpt>
<trkpt lat="49.505533" lon="10.412357">
<ele>324</ele>
<time>2019-06-01T13:19:16Z</time>
</trkpt>
<trkpt lat="49.505518" lon="10.411963">
<ele>324</ele>
<time>2019-06-01T13:19:22Z</time>
</trkpt>
<trkpt lat="49.505487" lon="10.411615">
<ele>324</ele>
<time>2019-06-01T13:19:27Z</time>
</trkpt>
<trkpt lat="49.505503" lon="10.411253">
<ele>324</ele>
<time>2019-06-01T13:19:32Z</time>
</trkpt>
<trkpt lat="49.505557" lon="10.410922">
<ele>324</ele>
<time>2019-06-01T13:19:37Z</time>
</trkpt>
<trkpt lat="49.505645" lon="10.41061">
<ele>324</ele>
<time>2019-06-01T13:19:42Z</time>
</trkpt>
<trkpt lat="49.505773" lon="10.410217">
<ele>325</ele>
<time>2019-06-01T13:19:48Z</time>
</trkpt>
<trkpt lat="49.505893" lon="10.409895">
<ele>325</ele>
<time>2019-06-01T13:19:53Z</time>
</trkpt>
<trkpt lat="49.506038" lon="10.409573">
<ele>325</ele>
<time>2019-06-01T13:19:58Z</time>
</trkpt>
<trkpt lat="49.50619" lon="10.409227">
<ele>325</ele>
<time>2019-06-01T13:20:03Z</time>
</trkpt>
<trkpt lat="49.506393" lon="10.408888">
<ele>325</ele>
<time>2019-06-01T13:20:09Z</time>
</trkpt>
<trkpt lat="49.506605" lon="10.408512">
<ele>325</ele>
<time>2019-06-01T13:20:15Z</time>
</trkpt>
<trkpt lat="49.506805" lon="10.40823">
<ele>325</ele>
<time>2019-06-01T13:20:20Z</time>
</trkpt>
<trkpt lat="49.507003" lon="10.407883">
<ele>325</ele>
<time>2019-06-01T13:20:26Z</time>
</trkpt>
<trkpt lat="49.507178" lon="10.407612">
<ele>326</ele>
<time>2019-06-01T13:20:31Z</time>
</trkpt>
<trkpt lat="49.507333" lon="10.407332">
<ele>326</ele>
<time>2019-06-01T13:20:36Z</time>
</trkpt>
<trkpt lat="49.507538" lon="10.407027">
<ele>326</ele>
<time>2019-06-01T13:20:42Z</time>
</trkpt>
<trkpt lat="49.507695" lon="10.406773">
<ele>326</ele>
<time>2019-06-01T13:20:47Z</time>
</trkpt>
<trkpt lat="49.507863" lon="10.406527">
<ele>327</ele>
<time>2019-06-01T13:20:52Z</time>
</trkpt>
<trkpt lat="49.508038" lon="10.406303">
<ele>327</ele>
<time>2019-06-01T13:20:57Z</time>
</trkpt>
<trkpt lat="49.508197" lon="10.406097">
<ele>327</ele>
<time>2019-06-01T13:21:02Z</time>
</trkpt>
<trkpt lat="49.508317" lon="10.405982">
<ele>328</ele>
<time>2019-06-01T13:21:07Z</time>
</trkpt>
<trkpt lat="49.508422" lon="10.405963">
<ele>328</ele>
<time>2019-06-01T13:21:13Z</time>
</trkpt>
<trkpt lat="49.508437" lon="10.406112">
<ele>328</ele>
<time>2019-06-01T13:21:18Z</time>
</trkpt>
<trkpt lat="49.50846" lon="10.406268">
<ele>328</ele>
<time>2019-06-01T13:21:23Z</time>
</trkpt>
<trkpt lat="49.508503" lon="10.406482">
<ele>328</ele>
<time>2019-06-01T13:21:28Z</time>
</trkpt>
<trkpt lat="49.508572" lon="10.406723">
<ele>328</ele>
<time>2019-06-01T13:21:33Z</time>
</trkpt>
<trkpt lat="49.508655" lon="10.406898">
<ele>328</ele>
<time>2019-06-01T13:21:38Z</time>
</trkpt>
<trkpt lat="49.50868" lon="10.406917">
<ele>327</ele>
<time>2019-06-01T13:21:43Z</time>
</trkpt>
<trkpt lat="49.50868" lon="10.406905">
<ele>327</ele>
<time>2019-06-01T13:21:49Z</time>
</trkpt>
<trkpt lat="49.508678" lon="10.406905">
<ele>327</ele>
<time>2019-06-01T13:21:54Z</time>
</trkpt>
<trkpt lat="49.508682" lon="10.406902">
<ele>327</ele>
<time>2019-06-01T13:21:59Z</time>
</trkpt>
<trkpt lat="49.508685" lon="10.406895">
<ele>327</ele>
<time>2019-06-01T13:22:04Z</time>
</trkpt>
<trkpt lat="49.508687" lon="10.406895">
<ele>327</ele>
<time>2019-06-01T13:22:10Z</time>
</trkpt>
<trkpt lat="49.508687" lon="10.406895">
<ele>327</ele>
</trkpt>
</trkseg>
</trk>
</gpx>